<?xml version="1.0" encoding="UTF-8" standalone="no" ?>
<gpx xmlns="http://www.topografix.com/GPX/1/1" xmlns:xsi="http://www.w3.org/2001/XMLSchema-instance" xsi:schemaLocation="http://www.topografix.com/GPX/1/1 http://www.topografix.com/GPX/1/1/gpx.xsd" version="1.1" creator="VisuGPX - https://www.visugpx.com">
  <metadata>
    <name>ski rando CHARMET DE L'AIGUILLE N 2826m</name>
  </metadata>
  <trk>
    <name><![CDATA[ski rando CHARMET DE L'AIGUILLE N 2826m]]></name>
    <trkseg>
      <trkpt lat="45.29007" lon="6.21734">
        <ele>1103.5999755859</ele>
        <time>2015-03-28T07:43:43.000Z</time>
      </trkpt>
      <trkpt lat="45.29007" lon="6.21734">
        <ele>1103.8000488281</ele>
        <time>2015-03-28T07:43:55.000Z</time>
      </trkpt>
      <trkpt lat="45.29008" lon="6.21726">
        <ele>1103.8000488281</ele>
        <time>2015-03-28T07:44:06.000Z</time>
      </trkpt>
      <trkpt lat="45.29014" lon="6.21725">
        <ele>1103.4000244141</ele>
        <time>2015-03-28T07:44:13.000Z</time>
      </trkpt>
      <trkpt lat="45.29018" lon="6.21725">
        <ele>1102.4000244141</ele>
        <time>2015-03-28T07:44:17.000Z</time>
      </trkpt>
      <trkpt lat="45.29021" lon="6.21725">
        <ele>1102</ele>
        <time>2015-03-28T07:44:21.000Z</time>
      </trkpt>
      <trkpt lat="45.29022" lon="6.21725">
        <ele>1101.5999755859</ele>
        <time>2015-03-28T07:44:29.000Z</time>
      </trkpt>
      <trkpt lat="45.29022" lon="6.21725">
        <ele>1101.4000244141</ele>
        <time>2015-03-28T07:44:30.000Z</time>
      </trkpt>
      <trkpt lat="45.29023" lon="6.21723">
        <ele>1101.1999511719</ele>
        <time>2015-03-28T07:44:32.000Z</time>
      </trkpt>
      <trkpt lat="45.29026" lon="6.21719">
        <ele>1101</ele>
        <time>2015-03-28T07:44:34.000Z</time>
      </trkpt>
      <trkpt lat="45.29034" lon="6.21713">
        <ele>1100.5999755859</ele>
        <time>2015-03-28T07:44:41.000Z</time>
      </trkpt>
      <trkpt lat="45.2904" lon="6.2171">
        <ele>1101</ele>
        <time>2015-03-28T07:44:45.000Z</time>
      </trkpt>
      <trkpt lat="45.29043" lon="6.21708">
        <ele>1101.1999511719</ele>
        <time>2015-03-28T07:44:47.000Z</time>
      </trkpt>
      <trkpt lat="45.29047" lon="6.21704">
        <ele>1101.8000488281</ele>
        <time>2015-03-28T07:44:50.000Z</time>
      </trkpt>
      <trkpt lat="45.2905" lon="6.21703">
        <ele>1102.4000244141</ele>
        <time>2015-03-28T07:44:53.000Z</time>
      </trkpt>
      <trkpt lat="45.29057" lon="6.21699">
        <ele>1103.4000244141</ele>
        <time>2015-03-28T07:45:00.000Z</time>
      </trkpt>
      <trkpt lat="45.29062" lon="6.21692">
        <ele>1103.5999755859</ele>
        <time>2015-03-28T07:45:05.000Z</time>
      </trkpt>
      <trkpt lat="45.29064" lon="6.21683">
        <ele>1104.1999511719</ele>
        <time>2015-03-28T07:45:09.000Z</time>
      </trkpt>
      <trkpt lat="45.2907" lon="6.21679">
        <ele>1104.1999511719</ele>
        <time>2015-03-28T07:45:15.000Z</time>
      </trkpt>
      <trkpt lat="45.29073" lon="6.21677">
        <ele>1104.5999755859</ele>
        <time>2015-03-28T07:45:20.000Z</time>
      </trkpt>
      <trkpt lat="45.29073" lon="6.21677">
        <ele>1104.5999755859</ele>
        <time>2015-03-28T07:45:22.000Z</time>
      </trkpt>
      <trkpt lat="45.29074" lon="6.21676">
        <ele>1105</ele>
        <time>2015-03-28T07:45:27.000Z</time>
      </trkpt>
      <trkpt lat="45.2908" lon="6.21669">
        <ele>1105.4000244141</ele>
        <time>2015-03-28T07:45:33.000Z</time>
      </trkpt>
      <trkpt lat="45.29084" lon="6.21665">
        <ele>1105.8000488281</ele>
        <time>2015-03-28T07:45:36.000Z</time>
      </trkpt>
      <trkpt lat="45.29085" lon="6.21664">
        <ele>1106.1999511719</ele>
        <time>2015-03-28T07:45:38.000Z</time>
      </trkpt>
      <trkpt lat="45.29092" lon="6.21661">
        <ele>1106.8000488281</ele>
        <time>2015-03-28T07:45:41.000Z</time>
      </trkpt>
      <trkpt lat="45.29099" lon="6.21659">
        <ele>1107.5999755859</ele>
        <time>2015-03-28T07:45:45.000Z</time>
      </trkpt>
      <trkpt lat="45.29101" lon="6.21658">
        <ele>1107.8000488281</ele>
        <time>2015-03-28T07:45:47.000Z</time>
      </trkpt>
      <trkpt lat="45.29102" lon="6.21655">
        <ele>1108.8000488281</ele>
        <time>2015-03-28T07:45:50.000Z</time>
      </trkpt>
      <trkpt lat="45.29103" lon="6.21655">
        <ele>1109.1999511719</ele>
        <time>2015-03-28T07:45:51.000Z</time>
      </trkpt>
      <trkpt lat="45.29104" lon="6.21651">
        <ele>1110.4000244141</ele>
        <time>2015-03-28T07:45:56.000Z</time>
      </trkpt>
      <trkpt lat="45.29106" lon="6.21642">
        <ele>1111.5999755859</ele>
        <time>2015-03-28T07:46:01.000Z</time>
      </trkpt>
      <trkpt lat="45.29108" lon="6.21635">
        <ele>1112.5999755859</ele>
        <time>2015-03-28T07:46:06.000Z</time>
      </trkpt>
      <trkpt lat="45.29109" lon="6.21631">
        <ele>1113.8000488281</ele>
        <time>2015-03-28T07:46:10.000Z</time>
      </trkpt>
      <trkpt lat="45.29109" lon="6.2163">
        <ele>1114</ele>
        <time>2015-03-28T07:46:11.000Z</time>
      </trkpt>
      <trkpt lat="45.29111" lon="6.21623">
        <ele>1114.5999755859</ele>
        <time>2015-03-28T07:46:15.000Z</time>
      </trkpt>
      <trkpt lat="45.2911" lon="6.21622">
        <ele>1114.8000488281</ele>
        <time>2015-03-28T07:46:16.000Z</time>
      </trkpt>
      <trkpt lat="45.29111" lon="6.21617">
        <ele>1115.5999755859</ele>
        <time>2015-03-28T07:46:20.000Z</time>
      </trkpt>
      <trkpt lat="45.29111" lon="6.21616">
        <ele>1115.8000488281</ele>
        <time>2015-03-28T07:46:21.000Z</time>
      </trkpt>
      <trkpt lat="45.29112" lon="6.21614">
        <ele>1116.1999511719</ele>
        <time>2015-03-28T07:46:25.000Z</time>
      </trkpt>
      <trkpt lat="45.29113" lon="6.21614">
        <ele>1116.8000488281</ele>
        <time>2015-03-28T07:46:27.000Z</time>
      </trkpt>
      <trkpt lat="45.29113" lon="6.21611">
        <ele>1117</ele>
        <time>2015-03-28T07:46:28.000Z</time>
      </trkpt>
      <trkpt lat="45.29113" lon="6.21611">
        <ele>1117.1999511719</ele>
        <time>2015-03-28T07:46:29.000Z</time>
      </trkpt>
      <trkpt lat="45.29115" lon="6.21607">
        <ele>1117.8000488281</ele>
        <time>2015-03-28T07:46:33.000Z</time>
      </trkpt>
      <trkpt lat="45.29115" lon="6.21606">
        <ele>1118</ele>
        <time>2015-03-28T07:46:34.000Z</time>
      </trkpt>
      <trkpt lat="45.29116" lon="6.21601">
        <ele>1119</ele>
        <time>2015-03-28T07:46:39.000Z</time>
      </trkpt>
      <trkpt lat="45.2912" lon="6.21595">
        <ele>1119.8000488281</ele>
        <time>2015-03-28T07:46:45.000Z</time>
      </trkpt>
      <trkpt lat="45.29122" lon="6.21592">
        <ele>1120</ele>
        <time>2015-03-28T07:46:48.000Z</time>
      </trkpt>
      <trkpt lat="45.29123" lon="6.2159">
        <ele>1120.5999755859</ele>
        <time>2015-03-28T07:46:50.000Z</time>
      </trkpt>
      <trkpt lat="45.29125" lon="6.21587">
        <ele>1121.1999511719</ele>
        <time>2015-03-28T07:46:53.000Z</time>
      </trkpt>
      <trkpt lat="45.29126" lon="6.21585">
        <ele>1121.4000244141</ele>
        <time>2015-03-28T07:46:55.000Z</time>
      </trkpt>
      <trkpt lat="45.29127" lon="6.21582">
        <ele>1122.1999511719</ele>
        <time>2015-03-28T07:47:00.000Z</time>
      </trkpt>
      <trkpt lat="45.29132" lon="6.21576">
        <ele>1123.1999511719</ele>
        <time>2015-03-28T07:47:06.000Z</time>
      </trkpt>
      <trkpt lat="45.29138" lon="6.2157">
        <ele>1124.1999511719</ele>
        <time>2015-03-28T07:47:12.000Z</time>
      </trkpt>
      <trkpt lat="45.29139" lon="6.21569">
        <ele>1124.4000244141</ele>
        <time>2015-03-28T07:47:13.000Z</time>
      </trkpt>
      <trkpt lat="45.2914" lon="6.21566">
        <ele>1125.4000244141</ele>
        <time>2015-03-28T07:47:18.000Z</time>
      </trkpt>
      <trkpt lat="45.2914" lon="6.21563">
        <ele>1126.4000244141</ele>
        <time>2015-03-28T07:47:24.000Z</time>
      </trkpt>
      <trkpt lat="45.2914" lon="6.21563">
        <ele>1127.4000244141</ele>
        <time>2015-03-28T07:47:28.000Z</time>
      </trkpt>
      <trkpt lat="45.29141" lon="6.21562">
        <ele>1128.1999511719</ele>
        <time>2015-03-28T07:47:31.000Z</time>
      </trkpt>
      <trkpt lat="45.29141" lon="6.2156">
        <ele>1128.4000244141</ele>
        <time>2015-03-28T07:47:33.000Z</time>
      </trkpt>
      <trkpt lat="45.2914" lon="6.21559">
        <ele>1128.8000488281</ele>
        <time>2015-03-28T07:47:36.000Z</time>
      </trkpt>
      <trkpt lat="45.2914" lon="6.21555">
        <ele>1129.5999755859</ele>
        <time>2015-03-28T07:47:40.000Z</time>
      </trkpt>
      <trkpt lat="45.2914" lon="6.21553">
        <ele>1130</ele>
        <time>2015-03-28T07:47:42.000Z</time>
      </trkpt>
      <trkpt lat="45.2914" lon="6.21552">
        <ele>1130.5999755859</ele>
        <time>2015-03-28T07:47:45.000Z</time>
      </trkpt>
      <trkpt lat="45.2914" lon="6.21551">
        <ele>1131.1999511719</ele>
        <time>2015-03-28T07:47:49.000Z</time>
      </trkpt>
      <trkpt lat="45.2914" lon="6.21548">
        <ele>1131.8000488281</ele>
        <time>2015-03-28T07:47:51.000Z</time>
      </trkpt>
      <trkpt lat="45.29142" lon="6.21544">
        <ele>1132.8000488281</ele>
        <time>2015-03-28T07:47:56.000Z</time>
      </trkpt>
      <trkpt lat="45.29143" lon="6.21543">
        <ele>1133.1999511719</ele>
        <time>2015-03-28T07:47:57.000Z</time>
      </trkpt>
      <trkpt lat="45.29143" lon="6.21542">
        <ele>1133.5999755859</ele>
        <time>2015-03-28T07:47:59.000Z</time>
      </trkpt>
      <trkpt lat="45.29144" lon="6.21541">
        <ele>1134.1999511719</ele>
        <time>2015-03-28T07:48:03.000Z</time>
      </trkpt>
      <trkpt lat="45.29146" lon="6.21537">
        <ele>1135</ele>
        <time>2015-03-28T07:48:09.000Z</time>
      </trkpt>
      <trkpt lat="45.29146" lon="6.21537">
        <ele>1135.4000244141</ele>
        <time>2015-03-28T07:48:11.000Z</time>
      </trkpt>
      <trkpt lat="45.29148" lon="6.21533">
        <ele>1136.4000244141</ele>
        <time>2015-03-28T07:48:15.000Z</time>
      </trkpt>
      <trkpt lat="45.29149" lon="6.21532">
        <ele>1136.5999755859</ele>
        <time>2015-03-28T07:48:16.000Z</time>
      </trkpt>
      <trkpt lat="45.29151" lon="6.21526">
        <ele>1137</ele>
        <time>2015-03-28T07:48:21.000Z</time>
      </trkpt>
      <trkpt lat="45.29152" lon="6.21524">
        <ele>1137.5999755859</ele>
        <time>2015-03-28T07:48:23.000Z</time>
      </trkpt>
      <trkpt lat="45.29154" lon="6.21521">
        <ele>1138.8000488281</ele>
        <time>2015-03-28T07:48:28.000Z</time>
      </trkpt>
      <trkpt lat="45.29155" lon="6.2152">
        <ele>1139</ele>
        <time>2015-03-28T07:48:29.000Z</time>
      </trkpt>
      <trkpt lat="45.29156" lon="6.21514">
        <ele>1139.8000488281</ele>
        <time>2015-03-28T07:48:34.000Z</time>
      </trkpt>
      <trkpt lat="45.29157" lon="6.21511">
        <ele>1140.4000244141</ele>
        <time>2015-03-28T07:48:37.000Z</time>
      </trkpt>
      <trkpt lat="45.29157" lon="6.2151">
        <ele>1141</ele>
        <time>2015-03-28T07:48:39.000Z</time>
      </trkpt>
      <trkpt lat="45.29158" lon="6.21509">
        <ele>1142</ele>
        <time>2015-03-28T07:48:44.000Z</time>
      </trkpt>
      <trkpt lat="45.29158" lon="6.21509">
        <ele>1143.1999511719</ele>
        <time>2015-03-28T07:48:51.000Z</time>
      </trkpt>
      <trkpt lat="45.29158" lon="6.21509">
        <ele>1143.5999755859</ele>
        <time>2015-03-28T07:48:53.000Z</time>
      </trkpt>
      <trkpt lat="45.29158" lon="6.21509">
        <ele>1144.1999511719</ele>
        <time>2015-03-28T07:48:57.000Z</time>
      </trkpt>
      <trkpt lat="45.29158" lon="6.21509">
        <ele>1144.8000488281</ele>
        <time>2015-03-28T07:49:00.000Z</time>
      </trkpt>
      <trkpt lat="45.29161" lon="6.21507">
        <ele>1145.5999755859</ele>
        <time>2015-03-28T07:49:03.000Z</time>
      </trkpt>
      <trkpt lat="45.29163" lon="6.21504">
        <ele>1146.4000244141</ele>
        <time>2015-03-28T07:49:07.000Z</time>
      </trkpt>
      <trkpt lat="45.29165" lon="6.21502">
        <ele>1146.5999755859</ele>
        <time>2015-03-28T07:49:09.000Z</time>
      </trkpt>
      <trkpt lat="45.29168" lon="6.21497">
        <ele>1147.4000244141</ele>
        <time>2015-03-28T07:49:14.000Z</time>
      </trkpt>
      <trkpt lat="45.29169" lon="6.21497">
        <ele>1147.8000488281</ele>
        <time>2015-03-28T07:49:16.000Z</time>
      </trkpt>
      <trkpt lat="45.29176" lon="6.21491">
        <ele>1148.8000488281</ele>
        <time>2015-03-28T07:49:22.000Z</time>
      </trkpt>
      <trkpt lat="45.29178" lon="6.2149">
        <ele>1149</ele>
        <time>2015-03-28T07:49:23.000Z</time>
      </trkpt>
      <trkpt lat="45.29186" lon="6.21484">
        <ele>1150.1999511719</ele>
        <time>2015-03-28T07:49:28.000Z</time>
      </trkpt>
      <trkpt lat="45.29186" lon="6.21482">
        <ele>1150.5999755859</ele>
        <time>2015-03-28T07:49:31.000Z</time>
      </trkpt>
      <trkpt lat="45.29187" lon="6.21481">
        <ele>1151.1999511719</ele>
        <time>2015-03-28T07:49:34.000Z</time>
      </trkpt>
      <trkpt lat="45.29188" lon="6.21478">
        <ele>1152</ele>
        <time>2015-03-28T07:49:39.000Z</time>
      </trkpt>
      <trkpt lat="45.29191" lon="6.21476">
        <ele>1152.4000244141</ele>
        <time>2015-03-28T07:49:42.000Z</time>
      </trkpt>
      <trkpt lat="45.29196" lon="6.21472">
        <ele>1153.4000244141</ele>
        <time>2015-03-28T07:49:48.000Z</time>
      </trkpt>
      <trkpt lat="45.29199" lon="6.21467">
        <ele>1154.4000244141</ele>
        <time>2015-03-28T07:49:52.000Z</time>
      </trkpt>
      <trkpt lat="45.29203" lon="6.21462">
        <ele>1155.1999511719</ele>
        <time>2015-03-28T07:49:56.000Z</time>
      </trkpt>
      <trkpt lat="45.29204" lon="6.21461">
        <ele>1155.5999755859</ele>
        <time>2015-03-28T07:49:58.000Z</time>
      </trkpt>
      <trkpt lat="45.29205" lon="6.21457">
        <ele>1156.1999511719</ele>
        <time>2015-03-28T07:50:01.000Z</time>
      </trkpt>
      <trkpt lat="45.29207" lon="6.21453">
        <ele>1156.5999755859</ele>
        <time>2015-03-28T07:50:05.000Z</time>
      </trkpt>
      <trkpt lat="45.29208" lon="6.21451">
        <ele>1156.8000488281</ele>
        <time>2015-03-28T07:50:06.000Z</time>
      </trkpt>
      <trkpt lat="45.29208" lon="6.21449">
        <ele>1157.8000488281</ele>
        <time>2015-03-28T07:50:10.000Z</time>
      </trkpt>
      <trkpt lat="45.29208" lon="6.21448">
        <ele>1158</ele>
        <time>2015-03-28T07:50:11.000Z</time>
      </trkpt>
      <trkpt lat="45.2921" lon="6.21445">
        <ele>1159</ele>
        <time>2015-03-28T07:50:17.000Z</time>
      </trkpt>
      <trkpt lat="45.29211" lon="6.21444">
        <ele>1159</ele>
        <time>2015-03-28T07:50:18.000Z</time>
      </trkpt>
      <trkpt lat="45.29212" lon="6.21442">
        <ele>1160</ele>
        <time>2015-03-28T07:50:22.000Z</time>
      </trkpt>
      <trkpt lat="45.29212" lon="6.21442">
        <ele>1160.5999755859</ele>
        <time>2015-03-28T07:50:25.000Z</time>
      </trkpt>
      <trkpt lat="45.29212" lon="6.21441">
        <ele>1161</ele>
        <time>2015-03-28T07:50:27.000Z</time>
      </trkpt>
      <trkpt lat="45.29212" lon="6.21441">
        <ele>1161.8000488281</ele>
        <time>2015-03-28T07:50:33.000Z</time>
      </trkpt>
      <trkpt lat="45.29212" lon="6.21441">
        <ele>1162.4000244141</ele>
        <time>2015-03-28T07:50:35.000Z</time>
      </trkpt>
      <trkpt lat="45.29213" lon="6.21439">
        <ele>1163.5999755859</ele>
        <time>2015-03-28T07:50:39.000Z</time>
      </trkpt>
      <trkpt lat="45.29215" lon="6.21437">
        <ele>1163.8000488281</ele>
        <time>2015-03-28T07:50:42.000Z</time>
      </trkpt>
      <trkpt lat="45.29216" lon="6.21434">
        <ele>1164.8000488281</ele>
        <time>2015-03-28T07:50:46.000Z</time>
      </trkpt>
      <trkpt lat="45.29216" lon="6.21432">
        <ele>1165.4000244141</ele>
        <time>2015-03-28T07:50:51.000Z</time>
      </trkpt>
      <trkpt lat="45.29216" lon="6.21432">
        <ele>1165.8000488281</ele>
        <time>2015-03-28T07:50:53.000Z</time>
      </trkpt>
      <trkpt lat="45.29218" lon="6.21429">
        <ele>1166.8000488281</ele>
        <time>2015-03-28T07:50:59.000Z</time>
      </trkpt>
      <trkpt lat="45.29219" lon="6.21427">
        <ele>1168.1999511719</ele>
        <time>2015-03-28T07:51:03.000Z</time>
      </trkpt>
      <trkpt lat="45.29219" lon="6.21427">
        <ele>1168.5999755859</ele>
        <time>2015-03-28T07:51:06.000Z</time>
      </trkpt>
      <trkpt lat="45.2922" lon="6.21425">
        <ele>1169.4000244141</ele>
        <time>2015-03-28T07:51:10.000Z</time>
      </trkpt>
      <trkpt lat="45.2922" lon="6.21425">
        <ele>1170.1999511719</ele>
        <time>2015-03-28T07:51:14.000Z</time>
      </trkpt>
      <trkpt lat="45.29221" lon="6.21424">
        <ele>1170.4000244141</ele>
        <time>2015-03-28T07:51:16.000Z</time>
      </trkpt>
      <trkpt lat="45.29223" lon="6.2142">
        <ele>1171.4000244141</ele>
        <time>2015-03-28T07:51:21.000Z</time>
      </trkpt>
      <trkpt lat="45.29224" lon="6.21419">
        <ele>1171.5999755859</ele>
        <time>2015-03-28T07:51:22.000Z</time>
      </trkpt>
      <trkpt lat="45.29229" lon="6.21416">
        <ele>1172.4000244141</ele>
        <time>2015-03-28T07:51:26.000Z</time>
      </trkpt>
      <trkpt lat="45.29231" lon="6.21413">
        <ele>1173.4000244141</ele>
        <time>2015-03-28T07:51:29.000Z</time>
      </trkpt>
      <trkpt lat="45.29232" lon="6.21412">
        <ele>1173.5999755859</ele>
        <time>2015-03-28T07:51:30.000Z</time>
      </trkpt>
      <trkpt lat="45.29236" lon="6.21408">
        <ele>1174.8000488281</ele>
        <time>2015-03-28T07:51:35.000Z</time>
      </trkpt>
      <trkpt lat="45.29237" lon="6.21406">
        <ele>1175</ele>
        <time>2015-03-28T07:51:37.000Z</time>
      </trkpt>
      <trkpt lat="45.29237" lon="6.21405">
        <ele>1175.8000488281</ele>
        <time>2015-03-28T07:51:41.000Z</time>
      </trkpt>
      <trkpt lat="45.29238" lon="6.21404">
        <ele>1176.1999511719</ele>
        <time>2015-03-28T07:51:43.000Z</time>
      </trkpt>
      <trkpt lat="45.29239" lon="6.21403">
        <ele>1176.8000488281</ele>
        <time>2015-03-28T07:51:46.000Z</time>
      </trkpt>
      <trkpt lat="45.2924" lon="6.214">
        <ele>1178.1999511719</ele>
        <time>2015-03-28T07:51:51.000Z</time>
      </trkpt>
      <trkpt lat="45.29241" lon="6.21398">
        <ele>1179.1999511719</ele>
        <time>2015-03-28T07:51:56.000Z</time>
      </trkpt>
      <trkpt lat="45.2924" lon="6.21394">
        <ele>1179.8000488281</ele>
        <time>2015-03-28T07:52:00.000Z</time>
      </trkpt>
      <trkpt lat="45.2924" lon="6.2139">
        <ele>1180.1999511719</ele>
        <time>2015-03-28T07:52:03.000Z</time>
      </trkpt>
      <trkpt lat="45.29239" lon="6.21388">
        <ele>1181.1999511719</ele>
        <time>2015-03-28T07:52:07.000Z</time>
      </trkpt>
      <trkpt lat="45.29239" lon="6.21388">
        <ele>1182.4000244141</ele>
        <time>2015-03-28T07:52:14.000Z</time>
      </trkpt>
      <trkpt lat="45.29238" lon="6.21386">
        <ele>1183</ele>
        <time>2015-03-28T07:52:16.000Z</time>
      </trkpt>
      <trkpt lat="45.29238" lon="6.21385">
        <ele>1183.4000244141</ele>
        <time>2015-03-28T07:52:17.000Z</time>
      </trkpt>
      <trkpt lat="45.29236" lon="6.2138">
        <ele>1184.4000244141</ele>
        <time>2015-03-28T07:52:23.000Z</time>
      </trkpt>
      <trkpt lat="45.29236" lon="6.21379">
        <ele>1184.5999755859</ele>
        <time>2015-03-28T07:52:25.000Z</time>
      </trkpt>
      <trkpt lat="45.29234" lon="6.21376">
        <ele>1185.4000244141</ele>
        <time>2015-03-28T07:52:29.000Z</time>
      </trkpt>
      <trkpt lat="45.29233" lon="6.21375">
        <ele>1186.4000244141</ele>
        <time>2015-03-28T07:52:33.000Z</time>
      </trkpt>
      <trkpt lat="45.29233" lon="6.21373">
        <ele>1186.5999755859</ele>
        <time>2015-03-28T07:52:35.000Z</time>
      </trkpt>
      <trkpt lat="45.29233" lon="6.21373">
        <ele>1187.5999755859</ele>
        <time>2015-03-28T07:52:39.000Z</time>
      </trkpt>
      <trkpt lat="45.29233" lon="6.21372">
        <ele>1188.5999755859</ele>
        <time>2015-03-28T07:52:43.000Z</time>
      </trkpt>
      <trkpt lat="45.29234" lon="6.2137">
        <ele>1189</ele>
        <time>2015-03-28T07:52:50.000Z</time>
      </trkpt>
      <trkpt lat="45.29234" lon="6.21364">
        <ele>1189.8000488281</ele>
        <time>2015-03-28T07:52:55.000Z</time>
      </trkpt>
      <trkpt lat="45.29235" lon="6.21363">
        <ele>1189.8000488281</ele>
        <time>2015-03-28T07:52:56.000Z</time>
      </trkpt>
      <trkpt lat="45.29236" lon="6.2136">
        <ele>1190.8000488281</ele>
        <time>2015-03-28T07:52:59.000Z</time>
      </trkpt>
      <trkpt lat="45.29238" lon="6.21356">
        <ele>1192</ele>
        <time>2015-03-28T07:53:03.000Z</time>
      </trkpt>
      <trkpt lat="45.29242" lon="6.2135">
        <ele>1193.1999511719</ele>
        <time>2015-03-28T07:53:10.000Z</time>
      </trkpt>
      <trkpt lat="45.29245" lon="6.21343">
        <ele>1194.1999511719</ele>
        <time>2015-03-28T07:53:16.000Z</time>
      </trkpt>
      <trkpt lat="45.29246" lon="6.2134">
        <ele>1194.5999755859</ele>
        <time>2015-03-28T07:53:18.000Z</time>
      </trkpt>
      <trkpt lat="45.29246" lon="6.21337">
        <ele>1195.1999511719</ele>
        <time>2015-03-28T07:53:22.000Z</time>
      </trkpt>
      <trkpt lat="45.29246" lon="6.21337">
        <ele>1195.4000244141</ele>
        <time>2015-03-28T07:53:24.000Z</time>
      </trkpt>
      <trkpt lat="45.29247" lon="6.21334">
        <ele>1196.4000244141</ele>
        <time>2015-03-28T07:53:30.000Z</time>
      </trkpt>
      <trkpt lat="45.29248" lon="6.21328">
        <ele>1197.5999755859</ele>
        <time>2015-03-28T07:53:36.000Z</time>
      </trkpt>
      <trkpt lat="45.2925" lon="6.21326">
        <ele>1198.5999755859</ele>
        <time>2015-03-28T07:53:40.000Z</time>
      </trkpt>
      <trkpt lat="45.2925" lon="6.21326">
        <ele>1198.8000488281</ele>
        <time>2015-03-28T07:53:41.000Z</time>
      </trkpt>
      <trkpt lat="45.29252" lon="6.21324">
        <ele>1199.8000488281</ele>
        <time>2015-03-28T07:53:47.000Z</time>
      </trkpt>
      <trkpt lat="45.29252" lon="6.21324">
        <ele>1200</ele>
        <time>2015-03-28T07:53:48.000Z</time>
      </trkpt>
      <trkpt lat="45.29254" lon="6.21323">
        <ele>1201</ele>
        <time>2015-03-28T07:53:54.000Z</time>
      </trkpt>
      <trkpt lat="45.29258" lon="6.21317">
        <ele>1201.1999511719</ele>
        <time>2015-03-28T07:53:58.000Z</time>
      </trkpt>
      <trkpt lat="45.29267" lon="6.2131">
        <ele>1202</ele>
        <time>2015-03-28T07:54:02.000Z</time>
      </trkpt>
      <trkpt lat="45.29274" lon="6.21303">
        <ele>1203</ele>
        <time>2015-03-28T07:54:08.000Z</time>
      </trkpt>
      <trkpt lat="45.29275" lon="6.21302">
        <ele>1203</ele>
        <time>2015-03-28T07:54:09.000Z</time>
      </trkpt>
      <trkpt lat="45.2928" lon="6.21295">
        <ele>1204.1999511719</ele>
        <time>2015-03-28T07:54:15.000Z</time>
      </trkpt>
      <trkpt lat="45.29281" lon="6.21287">
        <ele>1205.1999511719</ele>
        <time>2015-03-28T07:54:23.000Z</time>
      </trkpt>
      <trkpt lat="45.29281" lon="6.21286">
        <ele>1205.5999755859</ele>
        <time>2015-03-28T07:54:24.000Z</time>
      </trkpt>
      <trkpt lat="45.29282" lon="6.21283">
        <ele>1206.4000244141</ele>
        <time>2015-03-28T07:54:28.000Z</time>
      </trkpt>
      <trkpt lat="45.29283" lon="6.21282">
        <ele>1207.1999511719</ele>
        <time>2015-03-28T07:54:32.000Z</time>
      </trkpt>
      <trkpt lat="45.29283" lon="6.21282">
        <ele>1207.4000244141</ele>
        <time>2015-03-28T07:54:33.000Z</time>
      </trkpt>
      <trkpt lat="45.29287" lon="6.21278">
        <ele>1208</ele>
        <time>2015-03-28T07:54:42.000Z</time>
      </trkpt>
      <trkpt lat="45.29291" lon="6.21274">
        <ele>1208.4000244141</ele>
        <time>2015-03-28T07:54:46.000Z</time>
      </trkpt>
      <trkpt lat="45.29294" lon="6.2127">
        <ele>1209.5999755859</ele>
        <time>2015-03-28T07:54:50.000Z</time>
      </trkpt>
      <trkpt lat="45.29294" lon="6.21269">
        <ele>1209.5999755859</ele>
        <time>2015-03-28T07:54:51.000Z</time>
      </trkpt>
      <trkpt lat="45.293" lon="6.21261">
        <ele>1209.4000244141</ele>
        <time>2015-03-28T07:54:59.000Z</time>
      </trkpt>
      <trkpt lat="45.29303" lon="6.21252">
        <ele>1210.1999511719</ele>
        <time>2015-03-28T07:55:07.000Z</time>
      </trkpt>
      <trkpt lat="45.29303" lon="6.2125">
        <ele>1210.5999755859</ele>
        <time>2015-03-28T07:55:09.000Z</time>
      </trkpt>
      <trkpt lat="45.29306" lon="6.21243">
        <ele>1211.4000244141</ele>
        <time>2015-03-28T07:55:17.000Z</time>
      </trkpt>
      <trkpt lat="45.29306" lon="6.21243">
        <ele>1211.5999755859</ele>
        <time>2015-03-28T07:55:18.000Z</time>
      </trkpt>
      <trkpt lat="45.29308" lon="6.21241">
        <ele>1212.1999511719</ele>
        <time>2015-03-28T07:55:25.000Z</time>
      </trkpt>
      <trkpt lat="45.29308" lon="6.21241">
        <ele>1212.5999755859</ele>
        <time>2015-03-28T07:55:28.000Z</time>
      </trkpt>
      <trkpt lat="45.29305" lon="6.21243">
        <ele>1212</ele>
        <time>2015-03-28T07:55:36.000Z</time>
      </trkpt>
      <trkpt lat="45.29301" lon="6.21252">
        <ele>1211.1999511719</ele>
        <time>2015-03-28T07:55:43.000Z</time>
      </trkpt>
      <trkpt lat="45.29299" lon="6.21255">
        <ele>1210.4000244141</ele>
        <time>2015-03-28T07:55:45.000Z</time>
      </trkpt>
      <trkpt lat="45.29296" lon="6.2126">
        <ele>1209.5999755859</ele>
        <time>2015-03-28T07:55:50.000Z</time>
      </trkpt>
      <trkpt lat="45.29291" lon="6.21263">
        <ele>1209.4000244141</ele>
        <time>2015-03-28T07:55:58.000Z</time>
      </trkpt>
      <trkpt lat="45.2929" lon="6.21264">
        <ele>1209.4000244141</ele>
        <time>2015-03-28T07:56:00.000Z</time>
      </trkpt>
      <trkpt lat="45.2929" lon="6.21267">
        <ele>1208.5999755859</ele>
        <time>2015-03-28T07:56:06.000Z</time>
      </trkpt>
      <trkpt lat="45.2929" lon="6.21267">
        <ele>1208.4000244141</ele>
        <time>2015-03-28T07:56:07.000Z</time>
      </trkpt>
      <trkpt lat="45.2929" lon="6.21268">
        <ele>1207.8000488281</ele>
        <time>2015-03-28T07:56:15.000Z</time>
      </trkpt>
      <trkpt lat="45.2929" lon="6.21268">
        <ele>1207.4000244141</ele>
        <time>2015-03-28T07:56:27.000Z</time>
      </trkpt>
      <trkpt lat="45.29291" lon="6.21269">
        <ele>1207.5999755859</ele>
        <time>2015-03-28T07:56:55.000Z</time>
      </trkpt>
      <trkpt lat="45.29291" lon="6.21269">
        <ele>1207.5999755859</ele>
        <time>2015-03-28T07:57:09.000Z</time>
      </trkpt>
      <trkpt lat="45.29291" lon="6.21269">
        <ele>1207.4000244141</ele>
        <time>2015-03-28T07:57:31.000Z</time>
      </trkpt>
      <trkpt lat="45.29289" lon="6.21269">
        <ele>1207.4000244141</ele>
        <time>2015-03-28T07:57:33.000Z</time>
      </trkpt>
      <trkpt lat="45.29289" lon="6.21269">
        <ele>1207.4000244141</ele>
        <time>2015-03-28T07:57:50.000Z</time>
      </trkpt>
      <trkpt lat="45.29289" lon="6.21269">
        <ele>1207.4000244141</ele>
        <time>2015-03-28T07:58:10.000Z</time>
      </trkpt>
      <trkpt lat="45.29289" lon="6.21269">
        <ele>1206.5999755859</ele>
        <time>2015-03-28T07:58:22.000Z</time>
      </trkpt>
      <trkpt lat="45.2929" lon="6.21267">
        <ele>1208.5999755859</ele>
        <time>2015-03-28T07:58:28.000Z</time>
      </trkpt>
      <trkpt lat="45.29293" lon="6.21266">
        <ele>1209.4000244141</ele>
        <time>2015-03-28T07:58:31.000Z</time>
      </trkpt>
      <trkpt lat="45.29305" lon="6.21257">
        <ele>1209</ele>
        <time>2015-03-28T07:58:39.000Z</time>
      </trkpt>
      <trkpt lat="45.2931" lon="6.2125">
        <ele>1209.8000488281</ele>
        <time>2015-03-28T07:58:45.000Z</time>
      </trkpt>
      <trkpt lat="45.2931" lon="6.21249">
        <ele>1209.8000488281</ele>
        <time>2015-03-28T07:58:46.000Z</time>
      </trkpt>
      <trkpt lat="45.29316" lon="6.2124">
        <ele>1210.5999755859</ele>
        <time>2015-03-28T07:58:54.000Z</time>
      </trkpt>
      <trkpt lat="45.29317" lon="6.21238">
        <ele>1210.8000488281</ele>
        <time>2015-03-28T07:58:56.000Z</time>
      </trkpt>
      <trkpt lat="45.29317" lon="6.21237">
        <ele>1211.1999511719</ele>
        <time>2015-03-28T07:59:03.000Z</time>
      </trkpt>
      <trkpt lat="45.29317" lon="6.21237">
        <ele>1211.8000488281</ele>
        <time>2015-03-28T07:59:18.000Z</time>
      </trkpt>
      <trkpt lat="45.29317" lon="6.21237">
        <ele>1211.8000488281</ele>
        <time>2015-03-28T07:59:19.000Z</time>
      </trkpt>
      <trkpt lat="45.29317" lon="6.21237">
        <ele>1211.8000488281</ele>
        <time>2015-03-28T07:59:32.000Z</time>
      </trkpt>
      <trkpt lat="45.29317" lon="6.21237">
        <ele>1211.8000488281</ele>
        <time>2015-03-28T07:59:44.000Z</time>
      </trkpt>
      <trkpt lat="45.29317" lon="6.21237">
        <ele>1212</ele>
        <time>2015-03-28T07:59:58.000Z</time>
      </trkpt>
      <trkpt lat="45.29317" lon="6.21237">
        <ele>1212.1999511719</ele>
        <time>2015-03-28T08:00:15.000Z</time>
      </trkpt>
      <trkpt lat="45.29317" lon="6.21236">
        <ele>1211.8000488281</ele>
        <time>2015-03-28T08:00:26.000Z</time>
      </trkpt>
      <trkpt lat="45.29317" lon="6.21234">
        <ele>1211.8000488281</ele>
        <time>2015-03-28T08:00:33.000Z</time>
      </trkpt>
      <trkpt lat="45.29318" lon="6.21229">
        <ele>1212.5999755859</ele>
        <time>2015-03-28T08:00:40.000Z</time>
      </trkpt>
      <trkpt lat="45.29319" lon="6.21227">
        <ele>1212.8000488281</ele>
        <time>2015-03-28T08:00:42.000Z</time>
      </trkpt>
      <trkpt lat="45.2932" lon="6.2122">
        <ele>1214</ele>
        <time>2015-03-28T08:00:47.000Z</time>
      </trkpt>
      <trkpt lat="45.2932" lon="6.21212">
        <ele>1215</ele>
        <time>2015-03-28T08:00:53.000Z</time>
      </trkpt>
      <trkpt lat="45.2932" lon="6.21209">
        <ele>1215.1999511719</ele>
        <time>2015-03-28T08:00:55.000Z</time>
      </trkpt>
      <trkpt lat="45.29318" lon="6.21204">
        <ele>1216</ele>
        <time>2015-03-28T08:00:59.000Z</time>
      </trkpt>
      <trkpt lat="45.29317" lon="6.21199">
        <ele>1217.1999511719</ele>
        <time>2015-03-28T08:01:03.000Z</time>
      </trkpt>
      <trkpt lat="45.29316" lon="6.21193">
        <ele>1218.1999511719</ele>
        <time>2015-03-28T08:01:09.000Z</time>
      </trkpt>
      <trkpt lat="45.29316" lon="6.21191">
        <ele>1218.5999755859</ele>
        <time>2015-03-28T08:01:11.000Z</time>
      </trkpt>
      <trkpt lat="45.29317" lon="6.21188">
        <ele>1219.4000244141</ele>
        <time>2015-03-28T08:01:15.000Z</time>
      </trkpt>
      <trkpt lat="45.29318" lon="6.21184">
        <ele>1220</ele>
        <time>2015-03-28T08:01:19.000Z</time>
      </trkpt>
      <trkpt lat="45.2932" lon="6.21176">
        <ele>1220.4000244141</ele>
        <time>2015-03-28T08:01:25.000Z</time>
      </trkpt>
      <trkpt lat="45.2932" lon="6.21174">
        <ele>1220.8000488281</ele>
        <time>2015-03-28T08:01:27.000Z</time>
      </trkpt>
      <trkpt lat="45.2932" lon="6.21171">
        <ele>1221.4000244141</ele>
        <time>2015-03-28T08:01:31.000Z</time>
      </trkpt>
      <trkpt lat="45.2932" lon="6.21167">
        <ele>1221.8000488281</ele>
        <time>2015-03-28T08:01:34.000Z</time>
      </trkpt>
      <trkpt lat="45.29323" lon="6.21161">
        <ele>1222.4000244141</ele>
        <time>2015-03-28T08:01:39.000Z</time>
      </trkpt>
      <trkpt lat="45.29323" lon="6.21159">
        <ele>1222.8000488281</ele>
        <time>2015-03-28T08:01:42.000Z</time>
      </trkpt>
      <trkpt lat="45.29323" lon="6.21158">
        <ele>1223</ele>
        <time>2015-03-28T08:01:43.000Z</time>
      </trkpt>
      <trkpt lat="45.29324" lon="6.21156">
        <ele>1223.4000244141</ele>
        <time>2015-03-28T08:01:46.000Z</time>
      </trkpt>
      <trkpt lat="45.29326" lon="6.21152">
        <ele>1224.4000244141</ele>
        <time>2015-03-28T08:01:51.000Z</time>
      </trkpt>
      <trkpt lat="45.29326" lon="6.2115">
        <ele>1224.5999755859</ele>
        <time>2015-03-28T08:01:52.000Z</time>
      </trkpt>
      <trkpt lat="45.29326" lon="6.21142">
        <ele>1225.5999755859</ele>
        <time>2015-03-28T08:01:58.000Z</time>
      </trkpt>
      <trkpt lat="45.29326" lon="6.21141">
        <ele>1226</ele>
        <time>2015-03-28T08:01:59.000Z</time>
      </trkpt>
      <trkpt lat="45.29325" lon="6.21135">
        <ele>1226.8000488281</ele>
        <time>2015-03-28T08:02:04.000Z</time>
      </trkpt>
      <trkpt lat="45.29325" lon="6.21131">
        <ele>1227.1999511719</ele>
        <time>2015-03-28T08:02:07.000Z</time>
      </trkpt>
      <trkpt lat="45.29326" lon="6.21125">
        <ele>1228</ele>
        <time>2015-03-28T08:02:12.000Z</time>
      </trkpt>
      <trkpt lat="45.29326" lon="6.21121">
        <ele>1228.1999511719</ele>
        <time>2015-03-28T08:02:14.000Z</time>
      </trkpt>
      <trkpt lat="45.29327" lon="6.21118">
        <ele>1229.1999511719</ele>
        <time>2015-03-28T08:02:17.000Z</time>
      </trkpt>
      <trkpt lat="45.29329" lon="6.21115">
        <ele>1229.8000488281</ele>
        <time>2015-03-28T08:02:21.000Z</time>
      </trkpt>
      <trkpt lat="45.29328" lon="6.21114">
        <ele>1230.1999511719</ele>
        <time>2015-03-28T08:02:24.000Z</time>
      </trkpt>
      <trkpt lat="45.29328" lon="6.21109">
        <ele>1231</ele>
        <time>2015-03-28T08:02:28.000Z</time>
      </trkpt>
      <trkpt lat="45.29328" lon="6.21109">
        <ele>1231.1999511719</ele>
        <time>2015-03-28T08:02:29.000Z</time>
      </trkpt>
      <trkpt lat="45.29327" lon="6.21101">
        <ele>1232.4000244141</ele>
        <time>2015-03-28T08:02:35.000Z</time>
      </trkpt>
      <trkpt lat="45.29326" lon="6.21095">
        <ele>1233.5999755859</ele>
        <time>2015-03-28T08:02:42.000Z</time>
      </trkpt>
      <trkpt lat="45.29327" lon="6.21088">
        <ele>1234.5999755859</ele>
        <time>2015-03-28T08:02:47.000Z</time>
      </trkpt>
      <trkpt lat="45.29328" lon="6.21084">
        <ele>1235.5999755859</ele>
        <time>2015-03-28T08:02:52.000Z</time>
      </trkpt>
      <trkpt lat="45.29329" lon="6.21076">
        <ele>1236.8000488281</ele>
        <time>2015-03-28T08:03:00.000Z</time>
      </trkpt>
      <trkpt lat="45.29329" lon="6.21074">
        <ele>1237</ele>
        <time>2015-03-28T08:03:01.000Z</time>
      </trkpt>
      <trkpt lat="45.2933" lon="6.21069">
        <ele>1237.8000488281</ele>
        <time>2015-03-28T08:03:04.000Z</time>
      </trkpt>
      <trkpt lat="45.29331" lon="6.21061">
        <ele>1238.8000488281</ele>
        <time>2015-03-28T08:03:10.000Z</time>
      </trkpt>
      <trkpt lat="45.29331" lon="6.2106">
        <ele>1239</ele>
        <time>2015-03-28T08:03:11.000Z</time>
      </trkpt>
      <trkpt lat="45.29331" lon="6.21055">
        <ele>1240</ele>
        <time>2015-03-28T08:03:16.000Z</time>
      </trkpt>
      <trkpt lat="45.29331" lon="6.21054">
        <ele>1240.5999755859</ele>
        <time>2015-03-28T08:03:19.000Z</time>
      </trkpt>
      <trkpt lat="45.29331" lon="6.2105">
        <ele>1241.1999511719</ele>
        <time>2015-03-28T08:03:22.000Z</time>
      </trkpt>
      <trkpt lat="45.29331" lon="6.21046">
        <ele>1242.1999511719</ele>
        <time>2015-03-28T08:03:27.000Z</time>
      </trkpt>
      <trkpt lat="45.29331" lon="6.21041">
        <ele>1243.1999511719</ele>
        <time>2015-03-28T08:03:31.000Z</time>
      </trkpt>
      <trkpt lat="45.29333" lon="6.21035">
        <ele>1244.4000244141</ele>
        <time>2015-03-28T08:03:36.000Z</time>
      </trkpt>
      <trkpt lat="45.29332" lon="6.21027">
        <ele>1245.4000244141</ele>
        <time>2015-03-28T08:03:44.000Z</time>
      </trkpt>
      <trkpt lat="45.29332" lon="6.21027">
        <ele>1245.5999755859</ele>
        <time>2015-03-28T08:03:45.000Z</time>
      </trkpt>
      <trkpt lat="45.29332" lon="6.21022">
        <ele>1246.4000244141</ele>
        <time>2015-03-28T08:03:49.000Z</time>
      </trkpt>
      <trkpt lat="45.29333" lon="6.21018">
        <ele>1247.5999755859</ele>
        <time>2015-03-28T08:03:55.000Z</time>
      </trkpt>
      <trkpt lat="45.29333" lon="6.21016">
        <ele>1248.5999755859</ele>
        <time>2015-03-28T08:04:00.000Z</time>
      </trkpt>
      <trkpt lat="45.29334" lon="6.21015">
        <ele>1249.1999511719</ele>
        <time>2015-03-28T08:04:03.000Z</time>
      </trkpt>
      <trkpt lat="45.29334" lon="6.21012">
        <ele>1249.5999755859</ele>
        <time>2015-03-28T08:04:06.000Z</time>
      </trkpt>
      <trkpt lat="45.29335" lon="6.21011">
        <ele>1250</ele>
        <time>2015-03-28T08:04:09.000Z</time>
      </trkpt>
      <trkpt lat="45.29335" lon="6.21011">
        <ele>1250.8000488281</ele>
        <time>2015-03-28T08:04:13.000Z</time>
      </trkpt>
      <trkpt lat="45.29335" lon="6.21009">
        <ele>1251.4000244141</ele>
        <time>2015-03-28T08:04:16.000Z</time>
      </trkpt>
      <trkpt lat="45.29337" lon="6.21006">
        <ele>1251.8000488281</ele>
        <time>2015-03-28T08:04:18.000Z</time>
      </trkpt>
      <trkpt lat="45.29339" lon="6.21">
        <ele>1252.8000488281</ele>
        <time>2015-03-28T08:04:24.000Z</time>
      </trkpt>
      <trkpt lat="45.29339" lon="6.20997">
        <ele>1253.1999511719</ele>
        <time>2015-03-28T08:04:27.000Z</time>
      </trkpt>
      <trkpt lat="45.29339" lon="6.20995">
        <ele>1254</ele>
        <time>2015-03-28T08:04:30.000Z</time>
      </trkpt>
      <trkpt lat="45.2934" lon="6.20994">
        <ele>1254.5999755859</ele>
        <time>2015-03-28T08:04:35.000Z</time>
      </trkpt>
      <trkpt lat="45.29341" lon="6.20993">
        <ele>1255</ele>
        <time>2015-03-28T08:04:38.000Z</time>
      </trkpt>
      <trkpt lat="45.29341" lon="6.20993">
        <ele>1254.4000244141</ele>
        <time>2015-03-28T08:04:45.000Z</time>
      </trkpt>
      <trkpt lat="45.29341" lon="6.20993">
        <ele>1254</ele>
        <time>2015-03-28T08:04:48.000Z</time>
      </trkpt>
      <trkpt lat="45.29341" lon="6.20993">
        <ele>1255.1999511719</ele>
        <time>2015-03-28T08:04:53.000Z</time>
      </trkpt>
      <trkpt lat="45.29341" lon="6.20993">
        <ele>1255.4000244141</ele>
        <time>2015-03-28T08:04:58.000Z</time>
      </trkpt>
      <trkpt lat="45.29341" lon="6.20993">
        <ele>1256.1999511719</ele>
        <time>2015-03-28T08:05:06.000Z</time>
      </trkpt>
      <trkpt lat="45.29345" lon="6.20982">
        <ele>1257.4000244141</ele>
        <time>2015-03-28T08:05:12.000Z</time>
      </trkpt>
      <trkpt lat="45.29346" lon="6.2098">
        <ele>1258.4000244141</ele>
        <time>2015-03-28T08:05:15.000Z</time>
      </trkpt>
      <trkpt lat="45.29348" lon="6.20968">
        <ele>1259.5999755859</ele>
        <time>2015-03-28T08:05:21.000Z</time>
      </trkpt>
      <trkpt lat="45.29349" lon="6.20964">
        <ele>1260.4000244141</ele>
        <time>2015-03-28T08:05:24.000Z</time>
      </trkpt>
      <trkpt lat="45.29349" lon="6.20962">
        <ele>1260.5999755859</ele>
        <time>2015-03-28T08:05:25.000Z</time>
      </trkpt>
      <trkpt lat="45.29348" lon="6.20956">
        <ele>1261.8000488281</ele>
        <time>2015-03-28T08:05:29.000Z</time>
      </trkpt>
      <trkpt lat="45.29345" lon="6.20954">
        <ele>1262.4000244141</ele>
        <time>2015-03-28T08:05:31.000Z</time>
      </trkpt>
      <trkpt lat="45.29343" lon="6.20952">
        <ele>1262.8000488281</ele>
        <time>2015-03-28T08:05:33.000Z</time>
      </trkpt>
      <trkpt lat="45.29343" lon="6.20949">
        <ele>1264.1999511719</ele>
        <time>2015-03-28T08:05:40.000Z</time>
      </trkpt>
      <trkpt lat="45.29344" lon="6.20947">
        <ele>1265.1999511719</ele>
        <time>2015-03-28T08:05:43.000Z</time>
      </trkpt>
      <trkpt lat="45.29345" lon="6.20943">
        <ele>1266.4000244141</ele>
        <time>2015-03-28T08:05:49.000Z</time>
      </trkpt>
      <trkpt lat="45.29346" lon="6.20937">
        <ele>1267.8000488281</ele>
        <time>2015-03-28T08:05:54.000Z</time>
      </trkpt>
      <trkpt lat="45.29346" lon="6.20936">
        <ele>1268.4000244141</ele>
        <time>2015-03-28T08:05:57.000Z</time>
      </trkpt>
      <trkpt lat="45.29347" lon="6.20935">
        <ele>1268.8000488281</ele>
        <time>2015-03-28T08:06:02.000Z</time>
      </trkpt>
      <trkpt lat="45.29347" lon="6.20935">
        <ele>1269.5999755859</ele>
        <time>2015-03-28T08:06:08.000Z</time>
      </trkpt>
      <trkpt lat="45.29347" lon="6.20935">
        <ele>1268.5999755859</ele>
        <time>2015-03-28T08:06:21.000Z</time>
      </trkpt>
      <trkpt lat="45.29347" lon="6.20934">
        <ele>1269.5999755859</ele>
        <time>2015-03-28T08:06:37.000Z</time>
      </trkpt>
      <trkpt lat="45.29348" lon="6.20932">
        <ele>1270</ele>
        <time>2015-03-28T08:06:39.000Z</time>
      </trkpt>
      <trkpt lat="45.29348" lon="6.20925">
        <ele>1270.5999755859</ele>
        <time>2015-03-28T08:06:45.000Z</time>
      </trkpt>
      <trkpt lat="45.29348" lon="6.20921">
        <ele>1271</ele>
        <time>2015-03-28T08:06:48.000Z</time>
      </trkpt>
      <trkpt lat="45.29349" lon="6.20914">
        <ele>1271.8000488281</ele>
        <time>2015-03-28T08:06:53.000Z</time>
      </trkpt>
      <trkpt lat="45.2935" lon="6.20909">
        <ele>1272</ele>
        <time>2015-03-28T08:06:56.000Z</time>
      </trkpt>
      <trkpt lat="45.29351" lon="6.20902">
        <ele>1273.1999511719</ele>
        <time>2015-03-28T08:07:01.000Z</time>
      </trkpt>
      <trkpt lat="45.29351" lon="6.20901">
        <ele>1273.4000244141</ele>
        <time>2015-03-28T08:07:02.000Z</time>
      </trkpt>
      <trkpt lat="45.29352" lon="6.20899">
        <ele>1274.1999511719</ele>
        <time>2015-03-28T08:07:04.000Z</time>
      </trkpt>
      <trkpt lat="45.29353" lon="6.20896">
        <ele>1275.1999511719</ele>
        <time>2015-03-28T08:07:07.000Z</time>
      </trkpt>
      <trkpt lat="45.29354" lon="6.20892">
        <ele>1275.8000488281</ele>
        <time>2015-03-28T08:07:11.000Z</time>
      </trkpt>
      <trkpt lat="45.29355" lon="6.20887">
        <ele>1276.4000244141</ele>
        <time>2015-03-28T08:07:15.000Z</time>
      </trkpt>
      <trkpt lat="45.29355" lon="6.20883">
        <ele>1277</ele>
        <time>2015-03-28T08:07:18.000Z</time>
      </trkpt>
      <trkpt lat="45.29356" lon="6.2088">
        <ele>1277.5999755859</ele>
        <time>2015-03-28T08:07:21.000Z</time>
      </trkpt>
      <trkpt lat="45.29357" lon="6.20877">
        <ele>1278.4000244141</ele>
        <time>2015-03-28T08:07:24.000Z</time>
      </trkpt>
      <trkpt lat="45.29358" lon="6.20876">
        <ele>1278.8000488281</ele>
        <time>2015-03-28T08:07:26.000Z</time>
      </trkpt>
      <trkpt lat="45.29359" lon="6.20873">
        <ele>1279.8000488281</ele>
        <time>2015-03-28T08:07:30.000Z</time>
      </trkpt>
      <trkpt lat="45.29359" lon="6.20871">
        <ele>1280.1999511719</ele>
        <time>2015-03-28T08:07:32.000Z</time>
      </trkpt>
      <trkpt lat="45.29359" lon="6.20868">
        <ele>1281</ele>
        <time>2015-03-28T08:07:35.000Z</time>
      </trkpt>
      <trkpt lat="45.29358" lon="6.20862">
        <ele>1282.1999511719</ele>
        <time>2015-03-28T08:07:40.000Z</time>
      </trkpt>
      <trkpt lat="45.29358" lon="6.2086">
        <ele>1282.4000244141</ele>
        <time>2015-03-28T08:07:41.000Z</time>
      </trkpt>
      <trkpt lat="45.29359" lon="6.20853">
        <ele>1283.4000244141</ele>
        <time>2015-03-28T08:07:46.000Z</time>
      </trkpt>
      <trkpt lat="45.29361" lon="6.2085">
        <ele>1284</ele>
        <time>2015-03-28T08:07:49.000Z</time>
      </trkpt>
      <trkpt lat="45.29362" lon="6.20848">
        <ele>1284.4000244141</ele>
        <time>2015-03-28T08:07:52.000Z</time>
      </trkpt>
      <trkpt lat="45.29363" lon="6.20844">
        <ele>1285.1999511719</ele>
        <time>2015-03-28T08:07:57.000Z</time>
      </trkpt>
      <trkpt lat="45.29365" lon="6.20842">
        <ele>1285.5999755859</ele>
        <time>2015-03-28T08:08:00.000Z</time>
      </trkpt>
      <trkpt lat="45.29366" lon="6.20839">
        <ele>1287</ele>
        <time>2015-03-28T08:08:04.000Z</time>
      </trkpt>
      <trkpt lat="45.29367" lon="6.20838">
        <ele>1287.4000244141</ele>
        <time>2015-03-28T08:08:06.000Z</time>
      </trkpt>
      <trkpt lat="45.29368" lon="6.20836">
        <ele>1288</ele>
        <time>2015-03-28T08:08:09.000Z</time>
      </trkpt>
      <trkpt lat="45.2937" lon="6.20829">
        <ele>1288.5999755859</ele>
        <time>2015-03-28T08:08:15.000Z</time>
      </trkpt>
      <trkpt lat="45.29372" lon="6.20826">
        <ele>1289</ele>
        <time>2015-03-28T08:08:18.000Z</time>
      </trkpt>
      <trkpt lat="45.29372" lon="6.20819">
        <ele>1289.8000488281</ele>
        <time>2015-03-28T08:08:24.000Z</time>
      </trkpt>
      <trkpt lat="45.29373" lon="6.20817">
        <ele>1290.1999511719</ele>
        <time>2015-03-28T08:08:26.000Z</time>
      </trkpt>
      <trkpt lat="45.29371" lon="6.20808">
        <ele>1291.1999511719</ele>
        <time>2015-03-28T08:08:32.000Z</time>
      </trkpt>
      <trkpt lat="45.29371" lon="6.20807">
        <ele>1291.4000244141</ele>
        <time>2015-03-28T08:08:33.000Z</time>
      </trkpt>
      <trkpt lat="45.29368" lon="6.20802">
        <ele>1292.1999511719</ele>
        <time>2015-03-28T08:08:39.000Z</time>
      </trkpt>
      <trkpt lat="45.29368" lon="6.208">
        <ele>1292.5999755859</ele>
        <time>2015-03-28T08:08:41.000Z</time>
      </trkpt>
      <trkpt lat="45.29367" lon="6.20793">
        <ele>1293.4000244141</ele>
        <time>2015-03-28T08:08:48.000Z</time>
      </trkpt>
      <trkpt lat="45.29367" lon="6.20791">
        <ele>1293.5999755859</ele>
        <time>2015-03-28T08:08:50.000Z</time>
      </trkpt>
      <trkpt lat="45.29366" lon="6.20788">
        <ele>1294.5999755859</ele>
        <time>2015-03-28T08:08:53.000Z</time>
      </trkpt>
      <trkpt lat="45.29365" lon="6.20785">
        <ele>1295.1999511719</ele>
        <time>2015-03-28T08:08:57.000Z</time>
      </trkpt>
      <trkpt lat="45.29364" lon="6.20782">
        <ele>1295.8000488281</ele>
        <time>2015-03-28T08:09:01.000Z</time>
      </trkpt>
      <trkpt lat="45.29364" lon="6.20779">
        <ele>1296.1999511719</ele>
        <time>2015-03-28T08:09:04.000Z</time>
      </trkpt>
      <trkpt lat="45.29364" lon="6.20776">
        <ele>1297</ele>
        <time>2015-03-28T08:09:07.000Z</time>
      </trkpt>
      <trkpt lat="45.29364" lon="6.20772">
        <ele>1297.8000488281</ele>
        <time>2015-03-28T08:09:11.000Z</time>
      </trkpt>
      <trkpt lat="45.29365" lon="6.20769">
        <ele>1298</ele>
        <time>2015-03-28T08:09:13.000Z</time>
      </trkpt>
      <trkpt lat="45.29365" lon="6.20765">
        <ele>1298.5999755859</ele>
        <time>2015-03-28T08:09:17.000Z</time>
      </trkpt>
      <trkpt lat="45.29364" lon="6.20759">
        <ele>1299.1999511719</ele>
        <time>2015-03-28T08:09:22.000Z</time>
      </trkpt>
      <trkpt lat="45.29364" lon="6.20753">
        <ele>1299.8000488281</ele>
        <time>2015-03-28T08:09:26.000Z</time>
      </trkpt>
      <trkpt lat="45.29364" lon="6.2075">
        <ele>1300.1999511719</ele>
        <time>2015-03-28T08:09:28.000Z</time>
      </trkpt>
      <trkpt lat="45.29364" lon="6.20745">
        <ele>1301</ele>
        <time>2015-03-28T08:09:32.000Z</time>
      </trkpt>
      <trkpt lat="45.29363" lon="6.20743">
        <ele>1301.4000244141</ele>
        <time>2015-03-28T08:09:34.000Z</time>
      </trkpt>
      <trkpt lat="45.29361" lon="6.20738">
        <ele>1302</ele>
        <time>2015-03-28T08:09:39.000Z</time>
      </trkpt>
      <trkpt lat="45.2936" lon="6.20733">
        <ele>1302.4000244141</ele>
        <time>2015-03-28T08:09:43.000Z</time>
      </trkpt>
      <trkpt lat="45.29359" lon="6.2073">
        <ele>1303</ele>
        <time>2015-03-28T08:09:46.000Z</time>
      </trkpt>
      <trkpt lat="45.29359" lon="6.20726">
        <ele>1303.4000244141</ele>
        <time>2015-03-28T08:09:49.000Z</time>
      </trkpt>
      <trkpt lat="45.29358" lon="6.20721">
        <ele>1304.4000244141</ele>
        <time>2015-03-28T08:09:54.000Z</time>
      </trkpt>
      <trkpt lat="45.29357" lon="6.20719">
        <ele>1304.5999755859</ele>
        <time>2015-03-28T08:09:56.000Z</time>
      </trkpt>
      <trkpt lat="45.29357" lon="6.20716">
        <ele>1304.8000488281</ele>
        <time>2015-03-28T08:09:59.000Z</time>
      </trkpt>
      <trkpt lat="45.29356" lon="6.20709">
        <ele>1305.5999755859</ele>
        <time>2015-03-28T08:10:04.000Z</time>
      </trkpt>
      <trkpt lat="45.29356" lon="6.20708">
        <ele>1305.5999755859</ele>
        <time>2015-03-28T08:10:05.000Z</time>
      </trkpt>
      <trkpt lat="45.29356" lon="6.20701">
        <ele>1305.8000488281</ele>
        <time>2015-03-28T08:10:12.000Z</time>
      </trkpt>
      <trkpt lat="45.29355" lon="6.20697">
        <ele>1306</ele>
        <time>2015-03-28T08:10:20.000Z</time>
      </trkpt>
      <trkpt lat="45.29358" lon="6.20686">
        <ele>1306.1999511719</ele>
        <time>2015-03-28T08:10:27.000Z</time>
      </trkpt>
      <trkpt lat="45.2936" lon="6.20674">
        <ele>1306.4000244141</ele>
        <time>2015-03-28T08:10:34.000Z</time>
      </trkpt>
      <trkpt lat="45.29362" lon="6.20659">
        <ele>1306.4000244141</ele>
        <time>2015-03-28T08:10:43.000Z</time>
      </trkpt>
      <trkpt lat="45.29364" lon="6.20653">
        <ele>1306.5999755859</ele>
        <time>2015-03-28T08:10:48.000Z</time>
      </trkpt>
      <trkpt lat="45.29365" lon="6.20649">
        <ele>1306.8000488281</ele>
        <time>2015-03-28T08:10:50.000Z</time>
      </trkpt>
      <trkpt lat="45.29372" lon="6.20641">
        <ele>1307.1999511719</ele>
        <time>2015-03-28T08:10:58.000Z</time>
      </trkpt>
      <trkpt lat="45.29373" lon="6.20633">
        <ele>1307.8000488281</ele>
        <time>2015-03-28T08:11:04.000Z</time>
      </trkpt>
      <trkpt lat="45.29374" lon="6.20626">
        <ele>1308.5999755859</ele>
        <time>2015-03-28T08:11:11.000Z</time>
      </trkpt>
      <trkpt lat="45.29374" lon="6.20625">
        <ele>1308.8000488281</ele>
        <time>2015-03-28T08:11:12.000Z</time>
      </trkpt>
      <trkpt lat="45.29376" lon="6.20618">
        <ele>1310</ele>
        <time>2015-03-28T08:11:17.000Z</time>
      </trkpt>
      <trkpt lat="45.29377" lon="6.20617">
        <ele>1310.1999511719</ele>
        <time>2015-03-28T08:11:19.000Z</time>
      </trkpt>
      <trkpt lat="45.29381" lon="6.2061">
        <ele>1311.1999511719</ele>
        <time>2015-03-28T08:11:26.000Z</time>
      </trkpt>
      <trkpt lat="45.29384" lon="6.20602">
        <ele>1312</ele>
        <time>2015-03-28T08:11:33.000Z</time>
      </trkpt>
      <trkpt lat="45.29384" lon="6.20599">
        <ele>1312.1999511719</ele>
        <time>2015-03-28T08:11:34.000Z</time>
      </trkpt>
      <trkpt lat="45.29386" lon="6.20594">
        <ele>1312.4000244141</ele>
        <time>2015-03-28T08:11:39.000Z</time>
      </trkpt>
      <trkpt lat="45.29386" lon="6.20593">
        <ele>1312.5999755859</ele>
        <time>2015-03-28T08:11:40.000Z</time>
      </trkpt>
      <trkpt lat="45.29388" lon="6.20584">
        <ele>1313</ele>
        <time>2015-03-28T08:11:46.000Z</time>
      </trkpt>
      <trkpt lat="45.29387" lon="6.20581">
        <ele>1313.1999511719</ele>
        <time>2015-03-28T08:11:49.000Z</time>
      </trkpt>
      <trkpt lat="45.29386" lon="6.20577">
        <ele>1313.5999755859</ele>
        <time>2015-03-28T08:11:52.000Z</time>
      </trkpt>
      <trkpt lat="45.29386" lon="6.20573">
        <ele>1314.4000244141</ele>
        <time>2015-03-28T08:11:55.000Z</time>
      </trkpt>
      <trkpt lat="45.29386" lon="6.20567">
        <ele>1314.8000488281</ele>
        <time>2015-03-28T08:11:58.000Z</time>
      </trkpt>
      <trkpt lat="45.29386" lon="6.20563">
        <ele>1315.4000244141</ele>
        <time>2015-03-28T08:12:02.000Z</time>
      </trkpt>
      <trkpt lat="45.29386" lon="6.2056">
        <ele>1315.8000488281</ele>
        <time>2015-03-28T08:12:05.000Z</time>
      </trkpt>
      <trkpt lat="45.29386" lon="6.20553">
        <ele>1316.5999755859</ele>
        <time>2015-03-28T08:12:11.000Z</time>
      </trkpt>
      <trkpt lat="45.29386" lon="6.20551">
        <ele>1316.5999755859</ele>
        <time>2015-03-28T08:12:12.000Z</time>
      </trkpt>
      <trkpt lat="45.29387" lon="6.20547">
        <ele>1317.5999755859</ele>
        <time>2015-03-28T08:12:17.000Z</time>
      </trkpt>
      <trkpt lat="45.29387" lon="6.20546">
        <ele>1317.8000488281</ele>
        <time>2015-03-28T08:12:18.000Z</time>
      </trkpt>
      <trkpt lat="45.29391" lon="6.20537">
        <ele>1318.1999511719</ele>
        <time>2015-03-28T08:12:26.000Z</time>
      </trkpt>
      <trkpt lat="45.29391" lon="6.20533">
        <ele>1318.8000488281</ele>
        <time>2015-03-28T08:12:30.000Z</time>
      </trkpt>
      <trkpt lat="45.29391" lon="6.20528">
        <ele>1319.1999511719</ele>
        <time>2015-03-28T08:12:33.000Z</time>
      </trkpt>
      <trkpt lat="45.29391" lon="6.20525">
        <ele>1319.8000488281</ele>
        <time>2015-03-28T08:12:36.000Z</time>
      </trkpt>
      <trkpt lat="45.29394" lon="6.2052">
        <ele>1320.1999511719</ele>
        <time>2015-03-28T08:12:41.000Z</time>
      </trkpt>
      <trkpt lat="45.29396" lon="6.20508">
        <ele>1320.4000244141</ele>
        <time>2015-03-28T08:12:49.000Z</time>
      </trkpt>
      <trkpt lat="45.29394" lon="6.205">
        <ele>1321</ele>
        <time>2015-03-28T08:12:53.000Z</time>
      </trkpt>
      <trkpt lat="45.29394" lon="6.20498">
        <ele>1321.1999511719</ele>
        <time>2015-03-28T08:12:55.000Z</time>
      </trkpt>
      <trkpt lat="45.29394" lon="6.20495">
        <ele>1322</ele>
        <time>2015-03-28T08:12:58.000Z</time>
      </trkpt>
      <trkpt lat="45.29393" lon="6.20492">
        <ele>1323</ele>
        <time>2015-03-28T08:13:02.000Z</time>
      </trkpt>
      <trkpt lat="45.29392" lon="6.20491">
        <ele>1323</ele>
        <time>2015-03-28T08:13:03.000Z</time>
      </trkpt>
      <trkpt lat="45.29393" lon="6.20486">
        <ele>1323.8000488281</ele>
        <time>2015-03-28T08:13:08.000Z</time>
      </trkpt>
      <trkpt lat="45.29393" lon="6.20485">
        <ele>1324.1999511719</ele>
        <time>2015-03-28T08:13:10.000Z</time>
      </trkpt>
      <trkpt lat="45.29396" lon="6.20478">
        <ele>1325.4000244141</ele>
        <time>2015-03-28T08:13:15.000Z</time>
      </trkpt>
      <trkpt lat="45.29397" lon="6.20472">
        <ele>1325.4000244141</ele>
        <time>2015-03-28T08:13:21.000Z</time>
      </trkpt>
      <trkpt lat="45.29399" lon="6.20464">
        <ele>1325.5999755859</ele>
        <time>2015-03-28T08:13:27.000Z</time>
      </trkpt>
      <trkpt lat="45.29398" lon="6.20453">
        <ele>1326.1999511719</ele>
        <time>2015-03-28T08:13:34.000Z</time>
      </trkpt>
      <trkpt lat="45.29397" lon="6.2045">
        <ele>1326.4000244141</ele>
        <time>2015-03-28T08:13:39.000Z</time>
      </trkpt>
      <trkpt lat="45.29397" lon="6.20449">
        <ele>1326.5999755859</ele>
        <time>2015-03-28T08:13:40.000Z</time>
      </trkpt>
      <trkpt lat="45.29399" lon="6.20441">
        <ele>1327.8000488281</ele>
        <time>2015-03-28T08:13:45.000Z</time>
      </trkpt>
      <trkpt lat="45.294" lon="6.20438">
        <ele>1328.4000244141</ele>
        <time>2015-03-28T08:13:47.000Z</time>
      </trkpt>
      <trkpt lat="45.294" lon="6.20436">
        <ele>1328.8000488281</ele>
        <time>2015-03-28T08:13:50.000Z</time>
      </trkpt>
      <trkpt lat="45.29402" lon="6.20431">
        <ele>1329</ele>
        <time>2015-03-28T08:13:53.000Z</time>
      </trkpt>
      <trkpt lat="45.29404" lon="6.20423">
        <ele>1329.4000244141</ele>
        <time>2015-03-28T08:13:58.000Z</time>
      </trkpt>
      <trkpt lat="45.29405" lon="6.20422">
        <ele>1329.8000488281</ele>
        <time>2015-03-28T08:13:59.000Z</time>
      </trkpt>
      <trkpt lat="45.29406" lon="6.20418">
        <ele>1330.1999511719</ele>
        <time>2015-03-28T08:14:01.000Z</time>
      </trkpt>
      <trkpt lat="45.29405" lon="6.20413">
        <ele>1330.1999511719</ele>
        <time>2015-03-28T08:14:05.000Z</time>
      </trkpt>
      <trkpt lat="45.29404" lon="6.20407">
        <ele>1331</ele>
        <time>2015-03-28T08:14:10.000Z</time>
      </trkpt>
      <trkpt lat="45.29404" lon="6.20404">
        <ele>1331.4000244141</ele>
        <time>2015-03-28T08:14:11.000Z</time>
      </trkpt>
      <trkpt lat="45.29405" lon="6.20396">
        <ele>1332</ele>
        <time>2015-03-28T08:14:16.000Z</time>
      </trkpt>
      <trkpt lat="45.29404" lon="6.20391">
        <ele>1332.1999511719</ele>
        <time>2015-03-28T08:14:19.000Z</time>
      </trkpt>
      <trkpt lat="45.29404" lon="6.20387">
        <ele>1332.4000244141</ele>
        <time>2015-03-28T08:14:22.000Z</time>
      </trkpt>
      <trkpt lat="45.29404" lon="6.20375">
        <ele>1332.5999755859</ele>
        <time>2015-03-28T08:14:29.000Z</time>
      </trkpt>
      <trkpt lat="45.29405" lon="6.20367">
        <ele>1332.8000488281</ele>
        <time>2015-03-28T08:14:35.000Z</time>
      </trkpt>
      <trkpt lat="45.29406" lon="6.20364">
        <ele>1332.8000488281</ele>
        <time>2015-03-28T08:14:42.000Z</time>
      </trkpt>
      <trkpt lat="45.29407" lon="6.20358">
        <ele>1333</ele>
        <time>2015-03-28T08:14:48.000Z</time>
      </trkpt>
      <trkpt lat="45.29407" lon="6.20358">
        <ele>1333</ele>
        <time>2015-03-28T08:14:59.000Z</time>
      </trkpt>
      <trkpt lat="45.29407" lon="6.20355">
        <ele>1333.1999511719</ele>
        <time>2015-03-28T08:15:04.000Z</time>
      </trkpt>
      <trkpt lat="45.29404" lon="6.20352">
        <ele>1333.4000244141</ele>
        <time>2015-03-28T08:15:10.000Z</time>
      </trkpt>
      <trkpt lat="45.29398" lon="6.20349">
        <ele>1334.4000244141</ele>
        <time>2015-03-28T08:15:16.000Z</time>
      </trkpt>
      <trkpt lat="45.29397" lon="6.20347">
        <ele>1334.8000488281</ele>
        <time>2015-03-28T08:15:18.000Z</time>
      </trkpt>
      <trkpt lat="45.29397" lon="6.20341">
        <ele>1335.5999755859</ele>
        <time>2015-03-28T08:15:22.000Z</time>
      </trkpt>
      <trkpt lat="45.29398" lon="6.20338">
        <ele>1336</ele>
        <time>2015-03-28T08:15:24.000Z</time>
      </trkpt>
      <trkpt lat="45.29398" lon="6.20334">
        <ele>1336.5999755859</ele>
        <time>2015-03-28T08:15:28.000Z</time>
      </trkpt>
      <trkpt lat="45.29399" lon="6.20332">
        <ele>1337</ele>
        <time>2015-03-28T08:15:30.000Z</time>
      </trkpt>
      <trkpt lat="45.29401" lon="6.20322">
        <ele>1337.8000488281</ele>
        <time>2015-03-28T08:15:37.000Z</time>
      </trkpt>
      <trkpt lat="45.29404" lon="6.20314">
        <ele>1338.5999755859</ele>
        <time>2015-03-28T08:15:43.000Z</time>
      </trkpt>
      <trkpt lat="45.29404" lon="6.20313">
        <ele>1338.8000488281</ele>
        <time>2015-03-28T08:15:44.000Z</time>
      </trkpt>
      <trkpt lat="45.29405" lon="6.20308">
        <ele>1339.1999511719</ele>
        <time>2015-03-28T08:15:50.000Z</time>
      </trkpt>
      <trkpt lat="45.29405" lon="6.20302">
        <ele>1339.8000488281</ele>
        <time>2015-03-28T08:15:55.000Z</time>
      </trkpt>
      <trkpt lat="45.29406" lon="6.203">
        <ele>1340</ele>
        <time>2015-03-28T08:15:57.000Z</time>
      </trkpt>
      <trkpt lat="45.29408" lon="6.20292">
        <ele>1340.8000488281</ele>
        <time>2015-03-28T08:16:04.000Z</time>
      </trkpt>
      <trkpt lat="45.29408" lon="6.20292">
        <ele>1341</ele>
        <time>2015-03-28T08:16:05.000Z</time>
      </trkpt>
      <trkpt lat="45.29414" lon="6.20284">
        <ele>1341.8000488281</ele>
        <time>2015-03-28T08:16:13.000Z</time>
      </trkpt>
      <trkpt lat="45.29414" lon="6.20283">
        <ele>1342</ele>
        <time>2015-03-28T08:16:14.000Z</time>
      </trkpt>
      <trkpt lat="45.29417" lon="6.20277">
        <ele>1342.5999755859</ele>
        <time>2015-03-28T08:16:19.000Z</time>
      </trkpt>
      <trkpt lat="45.29417" lon="6.20273">
        <ele>1343.1999511719</ele>
        <time>2015-03-28T08:16:23.000Z</time>
      </trkpt>
      <trkpt lat="45.29418" lon="6.20271">
        <ele>1343.5999755859</ele>
        <time>2015-03-28T08:16:25.000Z</time>
      </trkpt>
      <trkpt lat="45.29418" lon="6.20268">
        <ele>1344.1999511719</ele>
        <time>2015-03-28T08:16:28.000Z</time>
      </trkpt>
      <trkpt lat="45.2942" lon="6.20265">
        <ele>1344.4000244141</ele>
        <time>2015-03-28T08:16:32.000Z</time>
      </trkpt>
      <trkpt lat="45.29422" lon="6.2026">
        <ele>1345.4000244141</ele>
        <time>2015-03-28T08:16:37.000Z</time>
      </trkpt>
      <trkpt lat="45.29422" lon="6.20258">
        <ele>1345.8000488281</ele>
        <time>2015-03-28T08:16:39.000Z</time>
      </trkpt>
      <trkpt lat="45.29423" lon="6.20256">
        <ele>1346.5999755859</ele>
        <time>2015-03-28T08:16:41.000Z</time>
      </trkpt>
      <trkpt lat="45.29425" lon="6.20251">
        <ele>1347.4000244141</ele>
        <time>2015-03-28T08:16:46.000Z</time>
      </trkpt>
      <trkpt lat="45.29425" lon="6.2025">
        <ele>1347.8000488281</ele>
        <time>2015-03-28T08:16:47.000Z</time>
      </trkpt>
      <trkpt lat="45.29429" lon="6.20245">
        <ele>1348.5999755859</ele>
        <time>2015-03-28T08:16:53.000Z</time>
      </trkpt>
      <trkpt lat="45.29429" lon="6.20244">
        <ele>1348.8000488281</ele>
        <time>2015-03-28T08:16:54.000Z</time>
      </trkpt>
      <trkpt lat="45.29431" lon="6.20237">
        <ele>1350</ele>
        <time>2015-03-28T08:17:00.000Z</time>
      </trkpt>
      <trkpt lat="45.29435" lon="6.20231">
        <ele>1351.1999511719</ele>
        <time>2015-03-28T08:17:06.000Z</time>
      </trkpt>
      <trkpt lat="45.29435" lon="6.2023">
        <ele>1351.4000244141</ele>
        <time>2015-03-28T08:17:07.000Z</time>
      </trkpt>
      <trkpt lat="45.29432" lon="6.20225">
        <ele>1352.1999511719</ele>
        <time>2015-03-28T08:17:12.000Z</time>
      </trkpt>
      <trkpt lat="45.29431" lon="6.20219">
        <ele>1352.5999755859</ele>
        <time>2015-03-28T08:17:18.000Z</time>
      </trkpt>
      <trkpt lat="45.2943" lon="6.20216">
        <ele>1353.1999511719</ele>
        <time>2015-03-28T08:17:20.000Z</time>
      </trkpt>
      <trkpt lat="45.29429" lon="6.20212">
        <ele>1354.5999755859</ele>
        <time>2015-03-28T08:17:24.000Z</time>
      </trkpt>
      <trkpt lat="45.29429" lon="6.20206">
        <ele>1355.8000488281</ele>
        <time>2015-03-28T08:17:29.000Z</time>
      </trkpt>
      <trkpt lat="45.29429" lon="6.20204">
        <ele>1355.8000488281</ele>
        <time>2015-03-28T08:17:30.000Z</time>
      </trkpt>
      <trkpt lat="45.2943" lon="6.202">
        <ele>1356.8000488281</ele>
        <time>2015-03-28T08:17:34.000Z</time>
      </trkpt>
      <trkpt lat="45.2943" lon="6.202">
        <ele>1357.1999511719</ele>
        <time>2015-03-28T08:17:36.000Z</time>
      </trkpt>
      <trkpt lat="45.29431" lon="6.20198">
        <ele>1357.1999511719</ele>
        <time>2015-03-28T08:17:45.000Z</time>
      </trkpt>
      <trkpt lat="45.29432" lon="6.20193">
        <ele>1357.8000488281</ele>
        <time>2015-03-28T08:17:50.000Z</time>
      </trkpt>
      <trkpt lat="45.29432" lon="6.20192">
        <ele>1358</ele>
        <time>2015-03-28T08:17:51.000Z</time>
      </trkpt>
      <trkpt lat="45.29431" lon="6.20188">
        <ele>1358.5999755859</ele>
        <time>2015-03-28T08:17:55.000Z</time>
      </trkpt>
      <trkpt lat="45.29431" lon="6.20186">
        <ele>1359.1999511719</ele>
        <time>2015-03-28T08:17:57.000Z</time>
      </trkpt>
      <trkpt lat="45.29431" lon="6.20182">
        <ele>1359.8000488281</ele>
        <time>2015-03-28T08:18:00.000Z</time>
      </trkpt>
      <trkpt lat="45.29431" lon="6.2018">
        <ele>1360.1999511719</ele>
        <time>2015-03-28T08:18:02.000Z</time>
      </trkpt>
      <trkpt lat="45.29432" lon="6.20176">
        <ele>1361</ele>
        <time>2015-03-28T08:18:06.000Z</time>
      </trkpt>
      <trkpt lat="45.29432" lon="6.20176">
        <ele>1361.1999511719</ele>
        <time>2015-03-28T08:18:07.000Z</time>
      </trkpt>
      <trkpt lat="45.29434" lon="6.20171">
        <ele>1362</ele>
        <time>2015-03-28T08:18:11.000Z</time>
      </trkpt>
      <trkpt lat="45.29435" lon="6.20169">
        <ele>1362</ele>
        <time>2015-03-28T08:18:12.000Z</time>
      </trkpt>
      <trkpt lat="45.29435" lon="6.20168">
        <ele>1362.4000244141</ele>
        <time>2015-03-28T08:18:14.000Z</time>
      </trkpt>
      <trkpt lat="45.29434" lon="6.20165">
        <ele>1363.1999511719</ele>
        <time>2015-03-28T08:18:18.000Z</time>
      </trkpt>
      <trkpt lat="45.29435" lon="6.20164">
        <ele>1363.4000244141</ele>
        <time>2015-03-28T08:18:19.000Z</time>
      </trkpt>
      <trkpt lat="45.29436" lon="6.20159">
        <ele>1364.4000244141</ele>
        <time>2015-03-28T08:18:24.000Z</time>
      </trkpt>
      <trkpt lat="45.29436" lon="6.20157">
        <ele>1364.5999755859</ele>
        <time>2015-03-28T08:18:26.000Z</time>
      </trkpt>
      <trkpt lat="45.29434" lon="6.20153">
        <ele>1365.5999755859</ele>
        <time>2015-03-28T08:18:31.000Z</time>
      </trkpt>
      <trkpt lat="45.29433" lon="6.20152">
        <ele>1365.8000488281</ele>
        <time>2015-03-28T08:18:32.000Z</time>
      </trkpt>
      <trkpt lat="45.29428" lon="6.20148">
        <ele>1366.8000488281</ele>
        <time>2015-03-28T08:18:37.000Z</time>
      </trkpt>
      <trkpt lat="45.29427" lon="6.20147">
        <ele>1367</ele>
        <time>2015-03-28T08:18:38.000Z</time>
      </trkpt>
      <trkpt lat="45.29424" lon="6.20147">
        <ele>1367.8000488281</ele>
        <time>2015-03-28T08:18:41.000Z</time>
      </trkpt>
      <trkpt lat="45.29422" lon="6.20146">
        <ele>1368.5999755859</ele>
        <time>2015-03-28T08:18:44.000Z</time>
      </trkpt>
      <trkpt lat="45.29421" lon="6.20146">
        <ele>1369</ele>
        <time>2015-03-28T08:18:46.000Z</time>
      </trkpt>
      <trkpt lat="45.29419" lon="6.20144">
        <ele>1369.8000488281</ele>
        <time>2015-03-28T08:18:50.000Z</time>
      </trkpt>
      <trkpt lat="45.29418" lon="6.20144">
        <ele>1370</ele>
        <time>2015-03-28T08:18:51.000Z</time>
      </trkpt>
      <trkpt lat="45.29416" lon="6.20141">
        <ele>1370.5999755859</ele>
        <time>2015-03-28T08:18:54.000Z</time>
      </trkpt>
      <trkpt lat="45.29416" lon="6.2014">
        <ele>1371.1999511719</ele>
        <time>2015-03-28T08:18:57.000Z</time>
      </trkpt>
      <trkpt lat="45.29417" lon="6.20141">
        <ele>1371.8000488281</ele>
        <time>2015-03-28T08:18:59.000Z</time>
      </trkpt>
      <trkpt lat="45.29417" lon="6.20141">
        <ele>1372.4000244141</ele>
        <time>2015-03-28T08:19:01.000Z</time>
      </trkpt>
      <trkpt lat="45.29418" lon="6.20139">
        <ele>1372.5999755859</ele>
        <time>2015-03-28T08:19:10.000Z</time>
      </trkpt>
      <trkpt lat="45.2942" lon="6.20136">
        <ele>1372.8000488281</ele>
        <time>2015-03-28T08:19:15.000Z</time>
      </trkpt>
      <trkpt lat="45.29422" lon="6.2013">
        <ele>1373.5999755859</ele>
        <time>2015-03-28T08:19:20.000Z</time>
      </trkpt>
      <trkpt lat="45.29423" lon="6.20128">
        <ele>1374</ele>
        <time>2015-03-28T08:19:22.000Z</time>
      </trkpt>
      <trkpt lat="45.29428" lon="6.20123">
        <ele>1374.4000244141</ele>
        <time>2015-03-28T08:19:28.000Z</time>
      </trkpt>
      <trkpt lat="45.29428" lon="6.20122">
        <ele>1374.5999755859</ele>
        <time>2015-03-28T08:19:29.000Z</time>
      </trkpt>
      <trkpt lat="45.29431" lon="6.20119">
        <ele>1375.4000244141</ele>
        <time>2015-03-28T08:19:34.000Z</time>
      </trkpt>
      <trkpt lat="45.29432" lon="6.20119">
        <ele>1375.5999755859</ele>
        <time>2015-03-28T08:19:35.000Z</time>
      </trkpt>
      <trkpt lat="45.29433" lon="6.20116">
        <ele>1376.1999511719</ele>
        <time>2015-03-28T08:19:38.000Z</time>
      </trkpt>
      <trkpt lat="45.29434" lon="6.20114">
        <ele>1376.8000488281</ele>
        <time>2015-03-28T08:19:41.000Z</time>
      </trkpt>
      <trkpt lat="45.29435" lon="6.20113">
        <ele>1376.8000488281</ele>
        <time>2015-03-28T08:19:42.000Z</time>
      </trkpt>
      <trkpt lat="45.29437" lon="6.20108">
        <ele>1377.8000488281</ele>
        <time>2015-03-28T08:19:48.000Z</time>
      </trkpt>
      <trkpt lat="45.29438" lon="6.20103">
        <ele>1379</ele>
        <time>2015-03-28T08:19:53.000Z</time>
      </trkpt>
      <trkpt lat="45.29439" lon="6.20102">
        <ele>1379.4000244141</ele>
        <time>2015-03-28T08:19:55.000Z</time>
      </trkpt>
      <trkpt lat="45.29439" lon="6.20099">
        <ele>1380.1999511719</ele>
        <time>2015-03-28T08:19:58.000Z</time>
      </trkpt>
      <trkpt lat="45.29439" lon="6.20096">
        <ele>1381.1999511719</ele>
        <time>2015-03-28T08:20:01.000Z</time>
      </trkpt>
      <trkpt lat="45.2944" lon="6.20095">
        <ele>1381.4000244141</ele>
        <time>2015-03-28T08:20:02.000Z</time>
      </trkpt>
      <trkpt lat="45.29441" lon="6.20091">
        <ele>1381.5999755859</ele>
        <time>2015-03-28T08:20:07.000Z</time>
      </trkpt>
      <trkpt lat="45.29444" lon="6.20084">
        <ele>1382</ele>
        <time>2015-03-28T08:20:13.000Z</time>
      </trkpt>
      <trkpt lat="45.29446" lon="6.20078">
        <ele>1382.4000244141</ele>
        <time>2015-03-28T08:20:19.000Z</time>
      </trkpt>
      <trkpt lat="45.29446" lon="6.20077">
        <ele>1382.4000244141</ele>
        <time>2015-03-28T08:20:20.000Z</time>
      </trkpt>
      <trkpt lat="45.29449" lon="6.2007">
        <ele>1383.1999511719</ele>
        <time>2015-03-28T08:20:27.000Z</time>
      </trkpt>
      <trkpt lat="45.2945" lon="6.20069">
        <ele>1383.4000244141</ele>
        <time>2015-03-28T08:20:28.000Z</time>
      </trkpt>
      <trkpt lat="45.29452" lon="6.20064">
        <ele>1384</ele>
        <time>2015-03-28T08:20:33.000Z</time>
      </trkpt>
      <trkpt lat="45.29453" lon="6.20062">
        <ele>1384.4000244141</ele>
        <time>2015-03-28T08:20:35.000Z</time>
      </trkpt>
      <trkpt lat="45.29455" lon="6.20056">
        <ele>1385.1999511719</ele>
        <time>2015-03-28T08:20:40.000Z</time>
      </trkpt>
      <trkpt lat="45.29456" lon="6.20054">
        <ele>1385.4000244141</ele>
        <time>2015-03-28T08:20:42.000Z</time>
      </trkpt>
      <trkpt lat="45.29457" lon="6.20048">
        <ele>1386.4000244141</ele>
        <time>2015-03-28T08:20:47.000Z</time>
      </trkpt>
      <trkpt lat="45.2946" lon="6.20043">
        <ele>1387.1999511719</ele>
        <time>2015-03-28T08:20:52.000Z</time>
      </trkpt>
      <trkpt lat="45.29459" lon="6.20041">
        <ele>1387.5999755859</ele>
        <time>2015-03-28T08:20:54.000Z</time>
      </trkpt>
      <trkpt lat="45.29458" lon="6.20037">
        <ele>1388.4000244141</ele>
        <time>2015-03-28T08:20:58.000Z</time>
      </trkpt>
      <trkpt lat="45.29459" lon="6.20035">
        <ele>1388.8000488281</ele>
        <time>2015-03-28T08:21:00.000Z</time>
      </trkpt>
      <trkpt lat="45.29461" lon="6.2003">
        <ele>1389.8000488281</ele>
        <time>2015-03-28T08:21:04.000Z</time>
      </trkpt>
      <trkpt lat="45.29461" lon="6.20028">
        <ele>1390</ele>
        <time>2015-03-28T08:21:05.000Z</time>
      </trkpt>
      <trkpt lat="45.29461" lon="6.20023">
        <ele>1390.8000488281</ele>
        <time>2015-03-28T08:21:11.000Z</time>
      </trkpt>
      <trkpt lat="45.29461" lon="6.20023">
        <ele>1391.1999511719</ele>
        <time>2015-03-28T08:21:12.000Z</time>
      </trkpt>
      <trkpt lat="45.29461" lon="6.20022">
        <ele>1391.8000488281</ele>
        <time>2015-03-28T08:21:19.000Z</time>
      </trkpt>
      <trkpt lat="45.29461" lon="6.2002">
        <ele>1392.1999511719</ele>
        <time>2015-03-28T08:21:24.000Z</time>
      </trkpt>
      <trkpt lat="45.2946" lon="6.20018">
        <ele>1392.5999755859</ele>
        <time>2015-03-28T08:21:26.000Z</time>
      </trkpt>
      <trkpt lat="45.29458" lon="6.2001">
        <ele>1393.4000244141</ele>
        <time>2015-03-28T08:21:32.000Z</time>
      </trkpt>
      <trkpt lat="45.29458" lon="6.20004">
        <ele>1394.4000244141</ele>
        <time>2015-03-28T08:21:36.000Z</time>
      </trkpt>
      <trkpt lat="45.29458" lon="6.20003">
        <ele>1394.4000244141</ele>
        <time>2015-03-28T08:21:37.000Z</time>
      </trkpt>
      <trkpt lat="45.29457" lon="6.2">
        <ele>1395.4000244141</ele>
        <time>2015-03-28T08:21:41.000Z</time>
      </trkpt>
      <trkpt lat="45.29457" lon="6.2">
        <ele>1396</ele>
        <time>2015-03-28T08:21:43.000Z</time>
      </trkpt>
      <trkpt lat="45.29456" lon="6.19996">
        <ele>1396.4000244141</ele>
        <time>2015-03-28T08:21:46.000Z</time>
      </trkpt>
      <trkpt lat="45.29453" lon="6.19992">
        <ele>1396.8000488281</ele>
        <time>2015-03-28T08:21:49.000Z</time>
      </trkpt>
      <trkpt lat="45.2945" lon="6.19989">
        <ele>1397.5999755859</ele>
        <time>2015-03-28T08:21:53.000Z</time>
      </trkpt>
      <trkpt lat="45.29449" lon="6.19988">
        <ele>1398.4000244141</ele>
        <time>2015-03-28T08:21:55.000Z</time>
      </trkpt>
      <trkpt lat="45.29451" lon="6.19985">
        <ele>1398.8000488281</ele>
        <time>2015-03-28T08:21:59.000Z</time>
      </trkpt>
      <trkpt lat="45.29452" lon="6.19982">
        <ele>1399.4000244141</ele>
        <time>2015-03-28T08:22:02.000Z</time>
      </trkpt>
      <trkpt lat="45.29453" lon="6.19981">
        <ele>1400</ele>
        <time>2015-03-28T08:22:04.000Z</time>
      </trkpt>
      <trkpt lat="45.29456" lon="6.19979">
        <ele>1400.5999755859</ele>
        <time>2015-03-28T08:22:09.000Z</time>
      </trkpt>
      <trkpt lat="45.29457" lon="6.19978">
        <ele>1401.1999511719</ele>
        <time>2015-03-28T08:22:12.000Z</time>
      </trkpt>
      <trkpt lat="45.29459" lon="6.19975">
        <ele>1402</ele>
        <time>2015-03-28T08:22:15.000Z</time>
      </trkpt>
      <trkpt lat="45.29459" lon="6.19973">
        <ele>1402.4000244141</ele>
        <time>2015-03-28T08:22:17.000Z</time>
      </trkpt>
      <trkpt lat="45.2946" lon="6.1997">
        <ele>1402.8000488281</ele>
        <time>2015-03-28T08:22:20.000Z</time>
      </trkpt>
      <trkpt lat="45.2946" lon="6.19967">
        <ele>1403.4000244141</ele>
        <time>2015-03-28T08:22:23.000Z</time>
      </trkpt>
      <trkpt lat="45.2946" lon="6.19965">
        <ele>1404</ele>
        <time>2015-03-28T08:22:26.000Z</time>
      </trkpt>
      <trkpt lat="45.2946" lon="6.19963">
        <ele>1404.5999755859</ele>
        <time>2015-03-28T08:22:28.000Z</time>
      </trkpt>
      <trkpt lat="45.29462" lon="6.19957">
        <ele>1405.4000244141</ele>
        <time>2015-03-28T08:22:32.000Z</time>
      </trkpt>
      <trkpt lat="45.29462" lon="6.19954">
        <ele>1405.8000488281</ele>
        <time>2015-03-28T08:22:34.000Z</time>
      </trkpt>
      <trkpt lat="45.29461" lon="6.19951">
        <ele>1406.4000244141</ele>
        <time>2015-03-28T08:22:37.000Z</time>
      </trkpt>
      <trkpt lat="45.29461" lon="6.19951">
        <ele>1406.8000488281</ele>
        <time>2015-03-28T08:22:39.000Z</time>
      </trkpt>
      <trkpt lat="45.29464" lon="6.19947">
        <ele>1408</ele>
        <time>2015-03-28T08:22:44.000Z</time>
      </trkpt>
      <trkpt lat="45.29465" lon="6.19945">
        <ele>1409</ele>
        <time>2015-03-28T08:22:49.000Z</time>
      </trkpt>
      <trkpt lat="45.29465" lon="6.19944">
        <ele>1409.4000244141</ele>
        <time>2015-03-28T08:22:52.000Z</time>
      </trkpt>
      <trkpt lat="45.29467" lon="6.19937">
        <ele>1410</ele>
        <time>2015-03-28T08:22:58.000Z</time>
      </trkpt>
      <trkpt lat="45.29468" lon="6.19936">
        <ele>1410.1999511719</ele>
        <time>2015-03-28T08:22:59.000Z</time>
      </trkpt>
      <trkpt lat="45.29471" lon="6.19929">
        <ele>1410.4000244141</ele>
        <time>2015-03-28T08:23:04.000Z</time>
      </trkpt>
      <trkpt lat="45.2947" lon="6.19922">
        <ele>1411</ele>
        <time>2015-03-28T08:23:09.000Z</time>
      </trkpt>
      <trkpt lat="45.29469" lon="6.19918">
        <ele>1411.1999511719</ele>
        <time>2015-03-28T08:23:13.000Z</time>
      </trkpt>
      <trkpt lat="45.29468" lon="6.19918">
        <ele>1411.1999511719</ele>
        <time>2015-03-28T08:23:15.000Z</time>
      </trkpt>
      <trkpt lat="45.29468" lon="6.19918">
        <ele>1411.1999511719</ele>
        <time>2015-03-28T08:23:26.000Z</time>
      </trkpt>
      <trkpt lat="45.29468" lon="6.19918">
        <ele>1410.8000488281</ele>
        <time>2015-03-28T08:23:35.000Z</time>
      </trkpt>
      <trkpt lat="45.29469" lon="6.19918">
        <ele>1411.4000244141</ele>
        <time>2015-03-28T08:23:41.000Z</time>
      </trkpt>
      <trkpt lat="45.29471" lon="6.19913">
        <ele>1411.8000488281</ele>
        <time>2015-03-28T08:23:47.000Z</time>
      </trkpt>
      <trkpt lat="45.29472" lon="6.19911">
        <ele>1412.1999511719</ele>
        <time>2015-03-28T08:23:49.000Z</time>
      </trkpt>
      <trkpt lat="45.29473" lon="6.19906">
        <ele>1411.4000244141</ele>
        <time>2015-03-28T08:23:53.000Z</time>
      </trkpt>
      <trkpt lat="45.29472" lon="6.19903">
        <ele>1411.8000488281</ele>
        <time>2015-03-28T08:24:00.000Z</time>
      </trkpt>
      <trkpt lat="45.29473" lon="6.19899">
        <ele>1411.5999755859</ele>
        <time>2015-03-28T08:24:07.000Z</time>
      </trkpt>
      <trkpt lat="45.29476" lon="6.19898">
        <ele>1411.8000488281</ele>
        <time>2015-03-28T08:24:14.000Z</time>
      </trkpt>
      <trkpt lat="45.29477" lon="6.19893">
        <ele>1412</ele>
        <time>2015-03-28T08:24:20.000Z</time>
      </trkpt>
      <trkpt lat="45.29481" lon="6.19887">
        <ele>1412.4000244141</ele>
        <time>2015-03-28T08:24:27.000Z</time>
      </trkpt>
      <trkpt lat="45.29482" lon="6.19883">
        <ele>1412.4000244141</ele>
        <time>2015-03-28T08:24:34.000Z</time>
      </trkpt>
      <trkpt lat="45.29486" lon="6.19876">
        <ele>1412.5999755859</ele>
        <time>2015-03-28T08:24:41.000Z</time>
      </trkpt>
      <trkpt lat="45.2949" lon="6.1987">
        <ele>1413.4000244141</ele>
        <time>2015-03-28T08:24:46.000Z</time>
      </trkpt>
      <trkpt lat="45.29491" lon="6.19868">
        <ele>1413.5999755859</ele>
        <time>2015-03-28T08:24:48.000Z</time>
      </trkpt>
      <trkpt lat="45.29495" lon="6.1986">
        <ele>1413.5999755859</ele>
        <time>2015-03-28T08:24:55.000Z</time>
      </trkpt>
      <trkpt lat="45.29502" lon="6.19849">
        <ele>1414</ele>
        <time>2015-03-28T08:25:03.000Z</time>
      </trkpt>
      <trkpt lat="45.29508" lon="6.19841">
        <ele>1414.5999755859</ele>
        <time>2015-03-28T08:25:09.000Z</time>
      </trkpt>
      <trkpt lat="45.29508" lon="6.19839">
        <ele>1414.5999755859</ele>
        <time>2015-03-28T08:25:10.000Z</time>
      </trkpt>
      <trkpt lat="45.29512" lon="6.1983">
        <ele>1415</ele>
        <time>2015-03-28T08:25:17.000Z</time>
      </trkpt>
      <trkpt lat="45.29514" lon="6.19825">
        <ele>1415.5999755859</ele>
        <time>2015-03-28T08:25:21.000Z</time>
      </trkpt>
      <trkpt lat="45.29515" lon="6.19823">
        <ele>1415.8000488281</ele>
        <time>2015-03-28T08:25:23.000Z</time>
      </trkpt>
      <trkpt lat="45.2952" lon="6.19817">
        <ele>1416.4000244141</ele>
        <time>2015-03-28T08:25:29.000Z</time>
      </trkpt>
      <trkpt lat="45.29521" lon="6.19816">
        <ele>1416.5999755859</ele>
        <time>2015-03-28T08:25:30.000Z</time>
      </trkpt>
      <trkpt lat="45.29524" lon="6.19809">
        <ele>1417.1999511719</ele>
        <time>2015-03-28T08:25:35.000Z</time>
      </trkpt>
      <trkpt lat="45.29527" lon="6.19804">
        <ele>1417.5999755859</ele>
        <time>2015-03-28T08:25:40.000Z</time>
      </trkpt>
      <trkpt lat="45.2953" lon="6.19801">
        <ele>1417.8000488281</ele>
        <time>2015-03-28T08:25:43.000Z</time>
      </trkpt>
      <trkpt lat="45.29534" lon="6.19794">
        <ele>1418.5999755859</ele>
        <time>2015-03-28T08:25:50.000Z</time>
      </trkpt>
      <trkpt lat="45.29535" lon="6.19794">
        <ele>1418.8000488281</ele>
        <time>2015-03-28T08:25:51.000Z</time>
      </trkpt>
      <trkpt lat="45.29538" lon="6.19784">
        <ele>1420</ele>
        <time>2015-03-28T08:25:58.000Z</time>
      </trkpt>
      <trkpt lat="45.29539" lon="6.19783">
        <ele>1420.1999511719</ele>
        <time>2015-03-28T08:25:59.000Z</time>
      </trkpt>
      <trkpt lat="45.29542" lon="6.19778">
        <ele>1421</ele>
        <time>2015-03-28T08:26:05.000Z</time>
      </trkpt>
      <trkpt lat="45.29543" lon="6.19776">
        <ele>1421.4000244141</ele>
        <time>2015-03-28T08:26:07.000Z</time>
      </trkpt>
      <trkpt lat="45.29546" lon="6.19773">
        <ele>1422</ele>
        <time>2015-03-28T08:26:11.000Z</time>
      </trkpt>
      <trkpt lat="45.29547" lon="6.19771">
        <ele>1422.4000244141</ele>
        <time>2015-03-28T08:26:13.000Z</time>
      </trkpt>
      <trkpt lat="45.29549" lon="6.19766">
        <ele>1423.1999511719</ele>
        <time>2015-03-28T08:26:18.000Z</time>
      </trkpt>
      <trkpt lat="45.29549" lon="6.19764">
        <ele>1423.4000244141</ele>
        <time>2015-03-28T08:26:19.000Z</time>
      </trkpt>
      <trkpt lat="45.29549" lon="6.19758">
        <ele>1424.4000244141</ele>
        <time>2015-03-28T08:26:25.000Z</time>
      </trkpt>
      <trkpt lat="45.29549" lon="6.19757">
        <ele>1424.4000244141</ele>
        <time>2015-03-28T08:26:26.000Z</time>
      </trkpt>
      <trkpt lat="45.29548" lon="6.19755">
        <ele>1425.8000488281</ele>
        <time>2015-03-28T08:26:30.000Z</time>
      </trkpt>
      <trkpt lat="45.29549" lon="6.19753">
        <ele>1426.5999755859</ele>
        <time>2015-03-28T08:26:32.000Z</time>
      </trkpt>
      <trkpt lat="45.29551" lon="6.19752">
        <ele>1427</ele>
        <time>2015-03-28T08:26:34.000Z</time>
      </trkpt>
      <trkpt lat="45.29557" lon="6.19745">
        <ele>1428</ele>
        <time>2015-03-28T08:26:41.000Z</time>
      </trkpt>
      <trkpt lat="45.29558" lon="6.19744">
        <ele>1428</ele>
        <time>2015-03-28T08:26:44.000Z</time>
      </trkpt>
      <trkpt lat="45.29557" lon="6.19744">
        <ele>1428.8000488281</ele>
        <time>2015-03-28T08:26:47.000Z</time>
      </trkpt>
      <trkpt lat="45.29558" lon="6.19741">
        <ele>1429.1999511719</ele>
        <time>2015-03-28T08:26:49.000Z</time>
      </trkpt>
      <trkpt lat="45.29559" lon="6.19736">
        <ele>1430</ele>
        <time>2015-03-28T08:26:53.000Z</time>
      </trkpt>
      <trkpt lat="45.29559" lon="6.19734">
        <ele>1430.1999511719</ele>
        <time>2015-03-28T08:26:55.000Z</time>
      </trkpt>
      <trkpt lat="45.29562" lon="6.1973">
        <ele>1430.8000488281</ele>
        <time>2015-03-28T08:26:59.000Z</time>
      </trkpt>
      <trkpt lat="45.29564" lon="6.19726">
        <ele>1431.1999511719</ele>
        <time>2015-03-28T08:27:03.000Z</time>
      </trkpt>
      <trkpt lat="45.29566" lon="6.19723">
        <ele>1431.4000244141</ele>
        <time>2015-03-28T08:27:05.000Z</time>
      </trkpt>
      <trkpt lat="45.29568" lon="6.19718">
        <ele>1432.4000244141</ele>
        <time>2015-03-28T08:27:09.000Z</time>
      </trkpt>
      <trkpt lat="45.29568" lon="6.19714">
        <ele>1432.5999755859</ele>
        <time>2015-03-28T08:27:12.000Z</time>
      </trkpt>
      <trkpt lat="45.29571" lon="6.19706">
        <ele>1433.1999511719</ele>
        <time>2015-03-28T08:27:18.000Z</time>
      </trkpt>
      <trkpt lat="45.29571" lon="6.19705">
        <ele>1433.5999755859</ele>
        <time>2015-03-28T08:27:20.000Z</time>
      </trkpt>
      <trkpt lat="45.29573" lon="6.19702">
        <ele>1434.4000244141</ele>
        <time>2015-03-28T08:27:24.000Z</time>
      </trkpt>
      <trkpt lat="45.29574" lon="6.19701">
        <ele>1434.5999755859</ele>
        <time>2015-03-28T08:27:25.000Z</time>
      </trkpt>
      <trkpt lat="45.29574" lon="6.19695">
        <ele>1435.8000488281</ele>
        <time>2015-03-28T08:27:31.000Z</time>
      </trkpt>
      <trkpt lat="45.29575" lon="6.19688">
        <ele>1437</ele>
        <time>2015-03-28T08:27:36.000Z</time>
      </trkpt>
      <trkpt lat="45.29575" lon="6.19685">
        <ele>1437.5999755859</ele>
        <time>2015-03-28T08:27:38.000Z</time>
      </trkpt>
      <trkpt lat="45.29576" lon="6.19681">
        <ele>1438.1999511719</ele>
        <time>2015-03-28T08:27:41.000Z</time>
      </trkpt>
      <trkpt lat="45.29576" lon="6.19678">
        <ele>1439.1999511719</ele>
        <time>2015-03-28T08:27:46.000Z</time>
      </trkpt>
      <trkpt lat="45.29575" lon="6.19676">
        <ele>1439.4000244141</ele>
        <time>2015-03-28T08:27:48.000Z</time>
      </trkpt>
      <trkpt lat="45.29575" lon="6.1967">
        <ele>1440.5999755859</ele>
        <time>2015-03-28T08:27:53.000Z</time>
      </trkpt>
      <trkpt lat="45.29575" lon="6.19664">
        <ele>1441.5999755859</ele>
        <time>2015-03-28T08:27:57.000Z</time>
      </trkpt>
      <trkpt lat="45.29575" lon="6.19662">
        <ele>1441.8000488281</ele>
        <time>2015-03-28T08:27:59.000Z</time>
      </trkpt>
      <trkpt lat="45.29574" lon="6.1966">
        <ele>1442.5999755859</ele>
        <time>2015-03-28T08:28:04.000Z</time>
      </trkpt>
      <trkpt lat="45.29574" lon="6.19659">
        <ele>1443.1999511719</ele>
        <time>2015-03-28T08:28:06.000Z</time>
      </trkpt>
      <trkpt lat="45.29575" lon="6.19658">
        <ele>1443.8000488281</ele>
        <time>2015-03-28T08:28:08.000Z</time>
      </trkpt>
      <trkpt lat="45.29577" lon="6.19655">
        <ele>1444.5999755859</ele>
        <time>2015-03-28T08:28:14.000Z</time>
      </trkpt>
      <trkpt lat="45.29577" lon="6.19655">
        <ele>1444.5999755859</ele>
        <time>2015-03-28T08:28:30.000Z</time>
      </trkpt>
      <trkpt lat="45.29577" lon="6.19655">
        <ele>1444.1999511719</ele>
        <time>2015-03-28T08:28:37.000Z</time>
      </trkpt>
      <trkpt lat="45.29585" lon="6.19647">
        <ele>1444.5999755859</ele>
        <time>2015-03-28T08:28:45.000Z</time>
      </trkpt>
      <trkpt lat="45.29593" lon="6.19639">
        <ele>1444.8000488281</ele>
        <time>2015-03-28T08:28:54.000Z</time>
      </trkpt>
      <trkpt lat="45.29598" lon="6.1963">
        <ele>1444.8000488281</ele>
        <time>2015-03-28T08:29:01.000Z</time>
      </trkpt>
      <trkpt lat="45.296" lon="6.19629">
        <ele>1445</ele>
        <time>2015-03-28T08:29:03.000Z</time>
      </trkpt>
      <trkpt lat="45.29604" lon="6.19624">
        <ele>1445.8000488281</ele>
        <time>2015-03-28T08:29:08.000Z</time>
      </trkpt>
      <trkpt lat="45.29606" lon="6.19622">
        <ele>1446.1999511719</ele>
        <time>2015-03-28T08:29:11.000Z</time>
      </trkpt>
      <trkpt lat="45.29609" lon="6.19616">
        <ele>1446.5999755859</ele>
        <time>2015-03-28T08:29:16.000Z</time>
      </trkpt>
      <trkpt lat="45.29613" lon="6.1961">
        <ele>1446.5999755859</ele>
        <time>2015-03-28T08:29:22.000Z</time>
      </trkpt>
      <trkpt lat="45.29616" lon="6.19606">
        <ele>1447.1999511719</ele>
        <time>2015-03-28T08:29:25.000Z</time>
      </trkpt>
      <trkpt lat="45.29619" lon="6.196">
        <ele>1447.8000488281</ele>
        <time>2015-03-28T08:29:30.000Z</time>
      </trkpt>
      <trkpt lat="45.29626" lon="6.19593">
        <ele>1448.1999511719</ele>
        <time>2015-03-28T08:29:38.000Z</time>
      </trkpt>
      <trkpt lat="45.29626" lon="6.19592">
        <ele>1448.4000244141</ele>
        <time>2015-03-28T08:29:39.000Z</time>
      </trkpt>
      <trkpt lat="45.2963" lon="6.19586">
        <ele>1448.8000488281</ele>
        <time>2015-03-28T08:29:45.000Z</time>
      </trkpt>
      <trkpt lat="45.29633" lon="6.19581">
        <ele>1449.4000244141</ele>
        <time>2015-03-28T08:29:50.000Z</time>
      </trkpt>
      <trkpt lat="45.29634" lon="6.19579">
        <ele>1449.4000244141</ele>
        <time>2015-03-28T08:29:51.000Z</time>
      </trkpt>
      <trkpt lat="45.29636" lon="6.19574">
        <ele>1450.4000244141</ele>
        <time>2015-03-28T08:29:56.000Z</time>
      </trkpt>
      <trkpt lat="45.29637" lon="6.19573">
        <ele>1450.8000488281</ele>
        <time>2015-03-28T08:29:58.000Z</time>
      </trkpt>
      <trkpt lat="45.29641" lon="6.19565">
        <ele>1451.4000244141</ele>
        <time>2015-03-28T08:30:05.000Z</time>
      </trkpt>
      <trkpt lat="45.29648" lon="6.19559">
        <ele>1451.8000488281</ele>
        <time>2015-03-28T08:30:12.000Z</time>
      </trkpt>
      <trkpt lat="45.29653" lon="6.19552">
        <ele>1452</ele>
        <time>2015-03-28T08:30:19.000Z</time>
      </trkpt>
      <trkpt lat="45.29656" lon="6.19545">
        <ele>1452.5999755859</ele>
        <time>2015-03-28T08:30:25.000Z</time>
      </trkpt>
      <trkpt lat="45.29656" lon="6.19542">
        <ele>1452.5999755859</ele>
        <time>2015-03-28T08:30:27.000Z</time>
      </trkpt>
      <trkpt lat="45.29659" lon="6.19536">
        <ele>1453.4000244141</ele>
        <time>2015-03-28T08:30:33.000Z</time>
      </trkpt>
      <trkpt lat="45.2966" lon="6.19535">
        <ele>1453.5999755859</ele>
        <time>2015-03-28T08:30:34.000Z</time>
      </trkpt>
      <trkpt lat="45.29663" lon="6.19527">
        <ele>1454</ele>
        <time>2015-03-28T08:30:40.000Z</time>
      </trkpt>
      <trkpt lat="45.29667" lon="6.19521">
        <ele>1454.8000488281</ele>
        <time>2015-03-28T08:30:46.000Z</time>
      </trkpt>
      <trkpt lat="45.29667" lon="6.1952">
        <ele>1454.8000488281</ele>
        <time>2015-03-28T08:30:47.000Z</time>
      </trkpt>
      <trkpt lat="45.29672" lon="6.19511">
        <ele>1455.8000488281</ele>
        <time>2015-03-28T08:30:54.000Z</time>
      </trkpt>
      <trkpt lat="45.29673" lon="6.1951">
        <ele>1456</ele>
        <time>2015-03-28T08:30:55.000Z</time>
      </trkpt>
      <trkpt lat="45.29677" lon="6.19504">
        <ele>1456.1999511719</ele>
        <time>2015-03-28T08:31:01.000Z</time>
      </trkpt>
      <trkpt lat="45.29681" lon="6.19496">
        <ele>1456.8000488281</ele>
        <time>2015-03-28T08:31:07.000Z</time>
      </trkpt>
      <trkpt lat="45.29686" lon="6.19491">
        <ele>1457.5999755859</ele>
        <time>2015-03-28T08:31:14.000Z</time>
      </trkpt>
      <trkpt lat="45.29687" lon="6.19488">
        <ele>1457.8000488281</ele>
        <time>2015-03-28T08:31:17.000Z</time>
      </trkpt>
      <trkpt lat="45.29688" lon="6.19486">
        <ele>1458.4000244141</ele>
        <time>2015-03-28T08:31:22.000Z</time>
      </trkpt>
      <trkpt lat="45.29688" lon="6.19486">
        <ele>1458.5999755859</ele>
        <time>2015-03-28T08:31:27.000Z</time>
      </trkpt>
      <trkpt lat="45.29688" lon="6.19486">
        <ele>1458.4000244141</ele>
        <time>2015-03-28T08:31:32.000Z</time>
      </trkpt>
      <trkpt lat="45.2969" lon="6.1948">
        <ele>1458.8000488281</ele>
        <time>2015-03-28T08:31:40.000Z</time>
      </trkpt>
      <trkpt lat="45.29691" lon="6.19479">
        <ele>1459.8000488281</ele>
        <time>2015-03-28T08:31:48.000Z</time>
      </trkpt>
      <trkpt lat="45.29691" lon="6.19479">
        <ele>1459.5999755859</ele>
        <time>2015-03-28T08:32:06.000Z</time>
      </trkpt>
      <trkpt lat="45.29691" lon="6.19478">
        <ele>1459.5999755859</ele>
        <time>2015-03-28T08:32:12.000Z</time>
      </trkpt>
      <trkpt lat="45.29692" lon="6.19477">
        <ele>1459.8000488281</ele>
        <time>2015-03-28T08:32:13.000Z</time>
      </trkpt>
      <trkpt lat="45.29696" lon="6.1947">
        <ele>1461</ele>
        <time>2015-03-28T08:32:18.000Z</time>
      </trkpt>
      <trkpt lat="45.29698" lon="6.19468">
        <ele>1461.1999511719</ele>
        <time>2015-03-28T08:32:19.000Z</time>
      </trkpt>
      <trkpt lat="45.29707" lon="6.19456">
        <ele>1461.1999511719</ele>
        <time>2015-03-28T08:32:27.000Z</time>
      </trkpt>
      <trkpt lat="45.2972" lon="6.19444">
        <ele>1461</ele>
        <time>2015-03-28T08:32:35.000Z</time>
      </trkpt>
      <trkpt lat="45.29727" lon="6.19434">
        <ele>1461.5999755859</ele>
        <time>2015-03-28T08:32:44.000Z</time>
      </trkpt>
      <trkpt lat="45.29728" lon="6.19432">
        <ele>1462</ele>
        <time>2015-03-28T08:32:46.000Z</time>
      </trkpt>
      <trkpt lat="45.29733" lon="6.19426">
        <ele>1462.8000488281</ele>
        <time>2015-03-28T08:32:53.000Z</time>
      </trkpt>
      <trkpt lat="45.29735" lon="6.19423">
        <ele>1463.1999511719</ele>
        <time>2015-03-28T08:32:55.000Z</time>
      </trkpt>
      <trkpt lat="45.29739" lon="6.19416">
        <ele>1463.8000488281</ele>
        <time>2015-03-28T08:33:02.000Z</time>
      </trkpt>
      <trkpt lat="45.29742" lon="6.19414">
        <ele>1463.8000488281</ele>
        <time>2015-03-28T08:33:04.000Z</time>
      </trkpt>
      <trkpt lat="45.29748" lon="6.19408">
        <ele>1463.1999511719</ele>
        <time>2015-03-28T08:33:10.000Z</time>
      </trkpt>
      <trkpt lat="45.29754" lon="6.19401">
        <ele>1463.5999755859</ele>
        <time>2015-03-28T08:33:17.000Z</time>
      </trkpt>
      <trkpt lat="45.2976" lon="6.19395">
        <ele>1464.1999511719</ele>
        <time>2015-03-28T08:33:24.000Z</time>
      </trkpt>
      <trkpt lat="45.2976" lon="6.19393">
        <ele>1464.1999511719</ele>
        <time>2015-03-28T08:33:25.000Z</time>
      </trkpt>
      <trkpt lat="45.29766" lon="6.19386">
        <ele>1465</ele>
        <time>2015-03-28T08:33:32.000Z</time>
      </trkpt>
      <trkpt lat="45.29767" lon="6.19384">
        <ele>1465.1999511719</ele>
        <time>2015-03-28T08:33:34.000Z</time>
      </trkpt>
      <trkpt lat="45.29769" lon="6.1938">
        <ele>1465.4000244141</ele>
        <time>2015-03-28T08:33:38.000Z</time>
      </trkpt>
      <trkpt lat="45.29773" lon="6.19373">
        <ele>1465.5999755859</ele>
        <time>2015-03-28T08:33:45.000Z</time>
      </trkpt>
      <trkpt lat="45.29775" lon="6.1937">
        <ele>1466.1999511719</ele>
        <time>2015-03-28T08:33:48.000Z</time>
      </trkpt>
      <trkpt lat="45.29777" lon="6.19363">
        <ele>1467</ele>
        <time>2015-03-28T08:33:53.000Z</time>
      </trkpt>
      <trkpt lat="45.29781" lon="6.19355">
        <ele>1467</ele>
        <time>2015-03-28T08:33:59.000Z</time>
      </trkpt>
      <trkpt lat="45.29787" lon="6.19348">
        <ele>1467</ele>
        <time>2015-03-28T08:34:05.000Z</time>
      </trkpt>
      <trkpt lat="45.29791" lon="6.19341">
        <ele>1467.4000244141</ele>
        <time>2015-03-28T08:34:11.000Z</time>
      </trkpt>
      <trkpt lat="45.29793" lon="6.19339">
        <ele>1467.5999755859</ele>
        <time>2015-03-28T08:34:12.000Z</time>
      </trkpt>
      <trkpt lat="45.29798" lon="6.19329">
        <ele>1467.4000244141</ele>
        <time>2015-03-28T08:34:19.000Z</time>
      </trkpt>
      <trkpt lat="45.29801" lon="6.19322">
        <ele>1468.4000244141</ele>
        <time>2015-03-28T08:34:25.000Z</time>
      </trkpt>
      <trkpt lat="45.29802" lon="6.19321">
        <ele>1468.5999755859</ele>
        <time>2015-03-28T08:34:26.000Z</time>
      </trkpt>
      <trkpt lat="45.29803" lon="6.19319">
        <ele>1469</ele>
        <time>2015-03-28T08:34:31.000Z</time>
      </trkpt>
      <trkpt lat="45.29803" lon="6.19317">
        <ele>1468.8000488281</ele>
        <time>2015-03-28T08:34:41.000Z</time>
      </trkpt>
      <trkpt lat="45.29804" lon="6.19316">
        <ele>1468.8000488281</ele>
        <time>2015-03-28T08:34:47.000Z</time>
      </trkpt>
      <trkpt lat="45.29805" lon="6.19309">
        <ele>1468.5999755859</ele>
        <time>2015-03-28T08:34:53.000Z</time>
      </trkpt>
      <trkpt lat="45.29808" lon="6.19299">
        <ele>1468.8000488281</ele>
        <time>2015-03-28T08:34:59.000Z</time>
      </trkpt>
      <trkpt lat="45.29811" lon="6.19292">
        <ele>1469.4000244141</ele>
        <time>2015-03-28T08:35:05.000Z</time>
      </trkpt>
      <trkpt lat="45.29811" lon="6.19292">
        <ele>1469.8000488281</ele>
        <time>2015-03-28T08:35:06.000Z</time>
      </trkpt>
      <trkpt lat="45.29814" lon="6.19286">
        <ele>1470.4000244141</ele>
        <time>2015-03-28T08:35:11.000Z</time>
      </trkpt>
      <trkpt lat="45.29818" lon="6.19276">
        <ele>1470.1999511719</ele>
        <time>2015-03-28T08:35:18.000Z</time>
      </trkpt>
      <trkpt lat="45.29819" lon="6.19269">
        <ele>1470.8000488281</ele>
        <time>2015-03-28T08:35:23.000Z</time>
      </trkpt>
      <trkpt lat="45.2982" lon="6.19266">
        <ele>1471</ele>
        <time>2015-03-28T08:35:25.000Z</time>
      </trkpt>
      <trkpt lat="45.29822" lon="6.19262">
        <ele>1471.8000488281</ele>
        <time>2015-03-28T08:35:29.000Z</time>
      </trkpt>
      <trkpt lat="45.29824" lon="6.19259">
        <ele>1472.1999511719</ele>
        <time>2015-03-28T08:35:32.000Z</time>
      </trkpt>
      <trkpt lat="45.29828" lon="6.19252">
        <ele>1472.5999755859</ele>
        <time>2015-03-28T08:35:38.000Z</time>
      </trkpt>
      <trkpt lat="45.29829" lon="6.19251">
        <ele>1472.8000488281</ele>
        <time>2015-03-28T08:35:40.000Z</time>
      </trkpt>
      <trkpt lat="45.29832" lon="6.19245">
        <ele>1473.1999511719</ele>
        <time>2015-03-28T08:35:44.000Z</time>
      </trkpt>
      <trkpt lat="45.29834" lon="6.19241">
        <ele>1474</ele>
        <time>2015-03-28T08:35:49.000Z</time>
      </trkpt>
      <trkpt lat="45.29834" lon="6.1924">
        <ele>1474</ele>
        <time>2015-03-28T08:35:50.000Z</time>
      </trkpt>
      <trkpt lat="45.29836" lon="6.19234">
        <ele>1474.1999511719</ele>
        <time>2015-03-28T08:35:55.000Z</time>
      </trkpt>
      <trkpt lat="45.29838" lon="6.19228">
        <ele>1474.8000488281</ele>
        <time>2015-03-28T08:36:01.000Z</time>
      </trkpt>
      <trkpt lat="45.29839" lon="6.19225">
        <ele>1475</ele>
        <time>2015-03-28T08:36:06.000Z</time>
      </trkpt>
      <trkpt lat="45.29839" lon="6.19222">
        <ele>1475</ele>
        <time>2015-03-28T08:36:08.000Z</time>
      </trkpt>
      <trkpt lat="45.29846" lon="6.19213">
        <ele>1475.5999755859</ele>
        <time>2015-03-28T08:36:16.000Z</time>
      </trkpt>
      <trkpt lat="45.29848" lon="6.19211">
        <ele>1476</ele>
        <time>2015-03-28T08:36:19.000Z</time>
      </trkpt>
      <trkpt lat="45.29849" lon="6.19207">
        <ele>1476.5999755859</ele>
        <time>2015-03-28T08:36:24.000Z</time>
      </trkpt>
      <trkpt lat="45.2985" lon="6.19202">
        <ele>1476.8000488281</ele>
        <time>2015-03-28T08:36:27.000Z</time>
      </trkpt>
      <trkpt lat="45.29851" lon="6.19199">
        <ele>1476.8000488281</ele>
        <time>2015-03-28T08:36:30.000Z</time>
      </trkpt>
      <trkpt lat="45.29852" lon="6.19197">
        <ele>1477</ele>
        <time>2015-03-28T08:36:32.000Z</time>
      </trkpt>
      <trkpt lat="45.29854" lon="6.19191">
        <ele>1477.8000488281</ele>
        <time>2015-03-28T08:36:37.000Z</time>
      </trkpt>
      <trkpt lat="45.29855" lon="6.19187">
        <ele>1478.1999511719</ele>
        <time>2015-03-28T08:36:41.000Z</time>
      </trkpt>
      <trkpt lat="45.29855" lon="6.19185">
        <ele>1478.5999755859</ele>
        <time>2015-03-28T08:36:43.000Z</time>
      </trkpt>
      <trkpt lat="45.29859" lon="6.19179">
        <ele>1479</ele>
        <time>2015-03-28T08:36:48.000Z</time>
      </trkpt>
      <trkpt lat="45.29861" lon="6.19174">
        <ele>1479.1999511719</ele>
        <time>2015-03-28T08:36:52.000Z</time>
      </trkpt>
      <trkpt lat="45.29863" lon="6.19171">
        <ele>1479.4000244141</ele>
        <time>2015-03-28T08:36:55.000Z</time>
      </trkpt>
      <trkpt lat="45.29865" lon="6.19164">
        <ele>1479.4000244141</ele>
        <time>2015-03-28T08:37:01.000Z</time>
      </trkpt>
      <trkpt lat="45.29866" lon="6.1916">
        <ele>1480.1999511719</ele>
        <time>2015-03-28T08:37:07.000Z</time>
      </trkpt>
      <trkpt lat="45.29872" lon="6.19149">
        <ele>1480.5999755859</ele>
        <time>2015-03-28T08:37:15.000Z</time>
      </trkpt>
      <trkpt lat="45.29874" lon="6.19143">
        <ele>1481</ele>
        <time>2015-03-28T08:37:21.000Z</time>
      </trkpt>
      <trkpt lat="45.29877" lon="6.19135">
        <ele>1481.1999511719</ele>
        <time>2015-03-28T08:37:28.000Z</time>
      </trkpt>
      <trkpt lat="45.29881" lon="6.19127">
        <ele>1481.1999511719</ele>
        <time>2015-03-28T08:37:33.000Z</time>
      </trkpt>
      <trkpt lat="45.29885" lon="6.19118">
        <ele>1482</ele>
        <time>2015-03-28T08:37:40.000Z</time>
      </trkpt>
      <trkpt lat="45.29887" lon="6.19113">
        <ele>1482.1999511719</ele>
        <time>2015-03-28T08:37:43.000Z</time>
      </trkpt>
      <trkpt lat="45.29889" lon="6.19109">
        <ele>1482.5999755859</ele>
        <time>2015-03-28T08:37:47.000Z</time>
      </trkpt>
      <trkpt lat="45.29892" lon="6.19104">
        <ele>1483.4000244141</ele>
        <time>2015-03-28T08:37:53.000Z</time>
      </trkpt>
      <trkpt lat="45.29893" lon="6.19102">
        <ele>1483.4000244141</ele>
        <time>2015-03-28T08:37:54.000Z</time>
      </trkpt>
      <trkpt lat="45.29899" lon="6.19095">
        <ele>1484</ele>
        <time>2015-03-28T08:38:01.000Z</time>
      </trkpt>
      <trkpt lat="45.299" lon="6.19092">
        <ele>1484.4000244141</ele>
        <time>2015-03-28T08:38:04.000Z</time>
      </trkpt>
      <trkpt lat="45.29902" lon="6.19088">
        <ele>1484.8000488281</ele>
        <time>2015-03-28T08:38:07.000Z</time>
      </trkpt>
      <trkpt lat="45.29904" lon="6.19082">
        <ele>1485.5999755859</ele>
        <time>2015-03-28T08:38:12.000Z</time>
      </trkpt>
      <trkpt lat="45.29905" lon="6.1908">
        <ele>1485.5999755859</ele>
        <time>2015-03-28T08:38:13.000Z</time>
      </trkpt>
      <trkpt lat="45.29909" lon="6.19072">
        <ele>1486.1999511719</ele>
        <time>2015-03-28T08:38:20.000Z</time>
      </trkpt>
      <trkpt lat="45.2991" lon="6.1907">
        <ele>1486.5999755859</ele>
        <time>2015-03-28T08:38:22.000Z</time>
      </trkpt>
      <trkpt lat="45.29911" lon="6.19066">
        <ele>1487.4000244141</ele>
        <time>2015-03-28T08:38:26.000Z</time>
      </trkpt>
      <trkpt lat="45.29911" lon="6.19063">
        <ele>1487.8000488281</ele>
        <time>2015-03-28T08:38:28.000Z</time>
      </trkpt>
      <trkpt lat="45.2991" lon="6.19059">
        <ele>1488</ele>
        <time>2015-03-28T08:38:31.000Z</time>
      </trkpt>
      <trkpt lat="45.2991" lon="6.19055">
        <ele>1488.8000488281</ele>
        <time>2015-03-28T08:38:34.000Z</time>
      </trkpt>
      <trkpt lat="45.29911" lon="6.1905">
        <ele>1489.1999511719</ele>
        <time>2015-03-28T08:38:38.000Z</time>
      </trkpt>
      <trkpt lat="45.29911" lon="6.19047">
        <ele>1489.8000488281</ele>
        <time>2015-03-28T08:38:41.000Z</time>
      </trkpt>
      <trkpt lat="45.29912" lon="6.19043">
        <ele>1490</ele>
        <time>2015-03-28T08:38:44.000Z</time>
      </trkpt>
      <trkpt lat="45.29915" lon="6.19035">
        <ele>1491</ele>
        <time>2015-03-28T08:38:50.000Z</time>
      </trkpt>
      <trkpt lat="45.29915" lon="6.19033">
        <ele>1491.1999511719</ele>
        <time>2015-03-28T08:38:51.000Z</time>
      </trkpt>
      <trkpt lat="45.29916" lon="6.19027">
        <ele>1491.8000488281</ele>
        <time>2015-03-28T08:38:56.000Z</time>
      </trkpt>
      <trkpt lat="45.29917" lon="6.19022">
        <ele>1492</ele>
        <time>2015-03-28T08:39:00.000Z</time>
      </trkpt>
      <trkpt lat="45.29918" lon="6.1902">
        <ele>1492.1999511719</ele>
        <time>2015-03-28T08:39:01.000Z</time>
      </trkpt>
      <trkpt lat="45.29921" lon="6.19015">
        <ele>1493.1999511719</ele>
        <time>2015-03-28T08:39:06.000Z</time>
      </trkpt>
      <trkpt lat="45.29921" lon="6.19014">
        <ele>1493.1999511719</ele>
        <time>2015-03-28T08:39:07.000Z</time>
      </trkpt>
      <trkpt lat="45.29922" lon="6.19008">
        <ele>1494.1999511719</ele>
        <time>2015-03-28T08:39:13.000Z</time>
      </trkpt>
      <trkpt lat="45.29923" lon="6.19007">
        <ele>1494.4000244141</ele>
        <time>2015-03-28T08:39:14.000Z</time>
      </trkpt>
      <trkpt lat="45.29926" lon="6.19">
        <ele>1495</ele>
        <time>2015-03-28T08:39:20.000Z</time>
      </trkpt>
      <trkpt lat="45.29927" lon="6.18998">
        <ele>1495.4000244141</ele>
        <time>2015-03-28T08:39:22.000Z</time>
      </trkpt>
      <trkpt lat="45.29928" lon="6.18994">
        <ele>1496.1999511719</ele>
        <time>2015-03-28T08:39:27.000Z</time>
      </trkpt>
      <trkpt lat="45.29929" lon="6.18992">
        <ele>1496.4000244141</ele>
        <time>2015-03-28T08:39:28.000Z</time>
      </trkpt>
      <trkpt lat="45.29933" lon="6.18985">
        <ele>1497.4000244141</ele>
        <time>2015-03-28T08:39:34.000Z</time>
      </trkpt>
      <trkpt lat="45.29934" lon="6.18984">
        <ele>1497.4000244141</ele>
        <time>2015-03-28T08:39:35.000Z</time>
      </trkpt>
      <trkpt lat="45.29936" lon="6.1898">
        <ele>1498</ele>
        <time>2015-03-28T08:39:40.000Z</time>
      </trkpt>
      <trkpt lat="45.29937" lon="6.18976">
        <ele>1498.4000244141</ele>
        <time>2015-03-28T08:39:43.000Z</time>
      </trkpt>
      <trkpt lat="45.29938" lon="6.18972">
        <ele>1499</ele>
        <time>2015-03-28T08:39:48.000Z</time>
      </trkpt>
      <trkpt lat="45.29941" lon="6.18964">
        <ele>1499.4000244141</ele>
        <time>2015-03-28T08:39:55.000Z</time>
      </trkpt>
      <trkpt lat="45.29941" lon="6.18962">
        <ele>1499.5999755859</ele>
        <time>2015-03-28T08:39:56.000Z</time>
      </trkpt>
      <trkpt lat="45.29942" lon="6.18957">
        <ele>1500.5999755859</ele>
        <time>2015-03-28T08:40:00.000Z</time>
      </trkpt>
      <trkpt lat="45.29942" lon="6.18956">
        <ele>1500.8000488281</ele>
        <time>2015-03-28T08:40:02.000Z</time>
      </trkpt>
      <trkpt lat="45.29944" lon="6.18951">
        <ele>1501.5999755859</ele>
        <time>2015-03-28T08:40:08.000Z</time>
      </trkpt>
      <trkpt lat="45.29944" lon="6.18949">
        <ele>1501.8000488281</ele>
        <time>2015-03-28T08:40:10.000Z</time>
      </trkpt>
      <trkpt lat="45.29944" lon="6.18948">
        <ele>1502.5999755859</ele>
        <time>2015-03-28T08:40:15.000Z</time>
      </trkpt>
      <trkpt lat="45.29944" lon="6.18948">
        <ele>1503</ele>
        <time>2015-03-28T08:40:17.000Z</time>
      </trkpt>
      <trkpt lat="45.29945" lon="6.18943">
        <ele>1503.5999755859</ele>
        <time>2015-03-28T08:40:21.000Z</time>
      </trkpt>
      <trkpt lat="45.29945" lon="6.18935">
        <ele>1504.1999511719</ele>
        <time>2015-03-28T08:40:28.000Z</time>
      </trkpt>
      <trkpt lat="45.29943" lon="6.18928">
        <ele>1505.4000244141</ele>
        <time>2015-03-28T08:40:32.000Z</time>
      </trkpt>
      <trkpt lat="45.29941" lon="6.18925">
        <ele>1505.5999755859</ele>
        <time>2015-03-28T08:40:34.000Z</time>
      </trkpt>
      <trkpt lat="45.29941" lon="6.18922">
        <ele>1506.4000244141</ele>
        <time>2015-03-28T08:40:37.000Z</time>
      </trkpt>
      <trkpt lat="45.29941" lon="6.18919">
        <ele>1507</ele>
        <time>2015-03-28T08:40:40.000Z</time>
      </trkpt>
      <trkpt lat="45.29941" lon="6.18917">
        <ele>1507.4000244141</ele>
        <time>2015-03-28T08:40:42.000Z</time>
      </trkpt>
      <trkpt lat="45.29942" lon="6.18913">
        <ele>1508.4000244141</ele>
        <time>2015-03-28T08:40:46.000Z</time>
      </trkpt>
      <trkpt lat="45.29942" lon="6.18912">
        <ele>1508.5999755859</ele>
        <time>2015-03-28T08:40:47.000Z</time>
      </trkpt>
      <trkpt lat="45.29944" lon="6.18907">
        <ele>1509.5999755859</ele>
        <time>2015-03-28T08:40:52.000Z</time>
      </trkpt>
      <trkpt lat="45.29944" lon="6.18905">
        <ele>1510.4000244141</ele>
        <time>2015-03-28T08:40:55.000Z</time>
      </trkpt>
      <trkpt lat="45.29945" lon="6.18903">
        <ele>1510.5999755859</ele>
        <time>2015-03-28T08:40:57.000Z</time>
      </trkpt>
      <trkpt lat="45.29945" lon="6.18897">
        <ele>1511.4000244141</ele>
        <time>2015-03-28T08:41:03.000Z</time>
      </trkpt>
      <trkpt lat="45.29945" lon="6.18897">
        <ele>1511.8000488281</ele>
        <time>2015-03-28T08:41:04.000Z</time>
      </trkpt>
      <trkpt lat="45.29944" lon="6.18896">
        <ele>1513</ele>
        <time>2015-03-28T08:41:08.000Z</time>
      </trkpt>
      <trkpt lat="45.29945" lon="6.18895">
        <ele>1513.8000488281</ele>
        <time>2015-03-28T08:41:11.000Z</time>
      </trkpt>
      <trkpt lat="45.29945" lon="6.18893">
        <ele>1514.1999511719</ele>
        <time>2015-03-28T08:41:13.000Z</time>
      </trkpt>
      <trkpt lat="45.29946" lon="6.1889">
        <ele>1515.1999511719</ele>
        <time>2015-03-28T08:41:17.000Z</time>
      </trkpt>
      <trkpt lat="45.29946" lon="6.18889">
        <ele>1515.5999755859</ele>
        <time>2015-03-28T08:41:18.000Z</time>
      </trkpt>
      <trkpt lat="45.29947" lon="6.18887">
        <ele>1516.4000244141</ele>
        <time>2015-03-28T08:41:21.000Z</time>
      </trkpt>
      <trkpt lat="45.29947" lon="6.18886">
        <ele>1517.1999511719</ele>
        <time>2015-03-28T08:41:25.000Z</time>
      </trkpt>
      <trkpt lat="45.29948" lon="6.18884">
        <ele>1517.5999755859</ele>
        <time>2015-03-28T08:41:27.000Z</time>
      </trkpt>
      <trkpt lat="45.29948" lon="6.1888">
        <ele>1518.1999511719</ele>
        <time>2015-03-28T08:41:31.000Z</time>
      </trkpt>
      <trkpt lat="45.29949" lon="6.18879">
        <ele>1518.8000488281</ele>
        <time>2015-03-28T08:41:32.000Z</time>
      </trkpt>
      <trkpt lat="45.29951" lon="6.18873">
        <ele>1519.8000488281</ele>
        <time>2015-03-28T08:41:38.000Z</time>
      </trkpt>
      <trkpt lat="45.29952" lon="6.18872">
        <ele>1520</ele>
        <time>2015-03-28T08:41:40.000Z</time>
      </trkpt>
      <trkpt lat="45.29954" lon="6.18869">
        <ele>1520.8000488281</ele>
        <time>2015-03-28T08:41:44.000Z</time>
      </trkpt>
      <trkpt lat="45.29955" lon="6.18867">
        <ele>1521.1999511719</ele>
        <time>2015-03-28T08:41:46.000Z</time>
      </trkpt>
      <trkpt lat="45.29957" lon="6.18863">
        <ele>1521.8000488281</ele>
        <time>2015-03-28T08:41:51.000Z</time>
      </trkpt>
      <trkpt lat="45.29958" lon="6.18861">
        <ele>1522.1999511719</ele>
        <time>2015-03-28T08:41:54.000Z</time>
      </trkpt>
      <trkpt lat="45.29957" lon="6.18859">
        <ele>1523</ele>
        <time>2015-03-28T08:41:56.000Z</time>
      </trkpt>
      <trkpt lat="45.29955" lon="6.18857">
        <ele>1523.4000244141</ele>
        <time>2015-03-28T08:41:59.000Z</time>
      </trkpt>
      <trkpt lat="45.29953" lon="6.18857">
        <ele>1524.1999511719</ele>
        <time>2015-03-28T08:42:02.000Z</time>
      </trkpt>
      <trkpt lat="45.29952" lon="6.18857">
        <ele>1524.5999755859</ele>
        <time>2015-03-28T08:42:04.000Z</time>
      </trkpt>
      <trkpt lat="45.29949" lon="6.18855">
        <ele>1525.4000244141</ele>
        <time>2015-03-28T08:42:08.000Z</time>
      </trkpt>
      <trkpt lat="45.29948" lon="6.18855">
        <ele>1525.5999755859</ele>
        <time>2015-03-28T08:42:09.000Z</time>
      </trkpt>
      <trkpt lat="45.29948" lon="6.18853">
        <ele>1526.5999755859</ele>
        <time>2015-03-28T08:42:15.000Z</time>
      </trkpt>
      <trkpt lat="45.29948" lon="6.18848">
        <ele>1528</ele>
        <time>2015-03-28T08:42:20.000Z</time>
      </trkpt>
      <trkpt lat="45.29949" lon="6.18847">
        <ele>1528.4000244141</ele>
        <time>2015-03-28T08:42:22.000Z</time>
      </trkpt>
      <trkpt lat="45.2995" lon="6.18844">
        <ele>1529</ele>
        <time>2015-03-28T08:42:26.000Z</time>
      </trkpt>
      <trkpt lat="45.29948" lon="6.18843">
        <ele>1529</ele>
        <time>2015-03-28T08:42:28.000Z</time>
      </trkpt>
      <trkpt lat="45.29943" lon="6.1884">
        <ele>1530</ele>
        <time>2015-03-28T08:42:32.000Z</time>
      </trkpt>
      <trkpt lat="45.29942" lon="6.18838">
        <ele>1530.8000488281</ele>
        <time>2015-03-28T08:42:34.000Z</time>
      </trkpt>
      <trkpt lat="45.29941" lon="6.18838">
        <ele>1531.1999511719</ele>
        <time>2015-03-28T08:42:36.000Z</time>
      </trkpt>
      <trkpt lat="45.29939" lon="6.18838">
        <ele>1531.5999755859</ele>
        <time>2015-03-28T08:42:40.000Z</time>
      </trkpt>
      <trkpt lat="45.29936" lon="6.18837">
        <ele>1532.4000244141</ele>
        <time>2015-03-28T08:42:43.000Z</time>
      </trkpt>
      <trkpt lat="45.29936" lon="6.18836">
        <ele>1533.1999511719</ele>
        <time>2015-03-28T08:42:46.000Z</time>
      </trkpt>
      <trkpt lat="45.29937" lon="6.18834">
        <ele>1533.4000244141</ele>
        <time>2015-03-28T08:42:48.000Z</time>
      </trkpt>
      <trkpt lat="45.29937" lon="6.18833">
        <ele>1534.8000488281</ele>
        <time>2015-03-28T08:42:52.000Z</time>
      </trkpt>
      <trkpt lat="45.29939" lon="6.18831">
        <ele>1535.8000488281</ele>
        <time>2015-03-28T08:42:56.000Z</time>
      </trkpt>
      <trkpt lat="45.2994" lon="6.1883">
        <ele>1535.8000488281</ele>
        <time>2015-03-28T08:42:57.000Z</time>
      </trkpt>
      <trkpt lat="45.29942" lon="6.18826">
        <ele>1537</ele>
        <time>2015-03-28T08:43:03.000Z</time>
      </trkpt>
      <trkpt lat="45.29943" lon="6.18824">
        <ele>1538.5999755859</ele>
        <time>2015-03-28T08:43:08.000Z</time>
      </trkpt>
      <trkpt lat="45.29943" lon="6.18824">
        <ele>1538.5999755859</ele>
        <time>2015-03-28T08:43:11.000Z</time>
      </trkpt>
      <trkpt lat="45.29943" lon="6.18824">
        <ele>1538.5999755859</ele>
        <time>2015-03-28T08:43:26.000Z</time>
      </trkpt>
      <trkpt lat="45.29946" lon="6.18822">
        <ele>1538.8000488281</ele>
        <time>2015-03-28T08:43:32.000Z</time>
      </trkpt>
      <trkpt lat="45.29951" lon="6.18817">
        <ele>1539.5999755859</ele>
        <time>2015-03-28T08:43:39.000Z</time>
      </trkpt>
      <trkpt lat="45.29952" lon="6.18815">
        <ele>1540</ele>
        <time>2015-03-28T08:43:40.000Z</time>
      </trkpt>
      <trkpt lat="45.29954" lon="6.18813">
        <ele>1540.5999755859</ele>
        <time>2015-03-28T08:43:43.000Z</time>
      </trkpt>
      <trkpt lat="45.29956" lon="6.1881">
        <ele>1541.1999511719</ele>
        <time>2015-03-28T08:43:47.000Z</time>
      </trkpt>
      <trkpt lat="45.29956" lon="6.18808">
        <ele>1541.8000488281</ele>
        <time>2015-03-28T08:43:49.000Z</time>
      </trkpt>
      <trkpt lat="45.29958" lon="6.18806">
        <ele>1542.5999755859</ele>
        <time>2015-03-28T08:43:53.000Z</time>
      </trkpt>
      <trkpt lat="45.29959" lon="6.18804">
        <ele>1543.5999755859</ele>
        <time>2015-03-28T08:43:56.000Z</time>
      </trkpt>
      <trkpt lat="45.29958" lon="6.18802">
        <ele>1544.5999755859</ele>
        <time>2015-03-28T08:44:00.000Z</time>
      </trkpt>
      <trkpt lat="45.2996" lon="6.18794">
        <ele>1546</ele>
        <time>2015-03-28T08:44:06.000Z</time>
      </trkpt>
      <trkpt lat="45.29962" lon="6.18788">
        <ele>1546.5999755859</ele>
        <time>2015-03-28T08:44:12.000Z</time>
      </trkpt>
      <trkpt lat="45.29963" lon="6.18786">
        <ele>1547</ele>
        <time>2015-03-28T08:44:14.000Z</time>
      </trkpt>
      <trkpt lat="45.29966" lon="6.18782">
        <ele>1548.1999511719</ele>
        <time>2015-03-28T08:44:20.000Z</time>
      </trkpt>
      <trkpt lat="45.2997" lon="6.18779">
        <ele>1549.1999511719</ele>
        <time>2015-03-28T08:44:25.000Z</time>
      </trkpt>
      <trkpt lat="45.29972" lon="6.18777">
        <ele>1549.5999755859</ele>
        <time>2015-03-28T08:44:28.000Z</time>
      </trkpt>
      <trkpt lat="45.29975" lon="6.18772">
        <ele>1550.1999511719</ele>
        <time>2015-03-28T08:44:34.000Z</time>
      </trkpt>
      <trkpt lat="45.29975" lon="6.18771">
        <ele>1550.4000244141</ele>
        <time>2015-03-28T08:44:35.000Z</time>
      </trkpt>
      <trkpt lat="45.29978" lon="6.18767">
        <ele>1551.4000244141</ele>
        <time>2015-03-28T08:44:40.000Z</time>
      </trkpt>
      <trkpt lat="45.2998" lon="6.18764">
        <ele>1552.4000244141</ele>
        <time>2015-03-28T08:44:44.000Z</time>
      </trkpt>
      <trkpt lat="45.29982" lon="6.1876">
        <ele>1553.5999755859</ele>
        <time>2015-03-28T08:44:50.000Z</time>
      </trkpt>
      <trkpt lat="45.29985" lon="6.18757">
        <ele>1554</ele>
        <time>2015-03-28T08:44:54.000Z</time>
      </trkpt>
      <trkpt lat="45.29987" lon="6.18754">
        <ele>1554.8000488281</ele>
        <time>2015-03-28T08:44:58.000Z</time>
      </trkpt>
      <trkpt lat="45.29988" lon="6.1875">
        <ele>1555.4000244141</ele>
        <time>2015-03-28T08:45:01.000Z</time>
      </trkpt>
      <trkpt lat="45.29988" lon="6.18746">
        <ele>1555.8000488281</ele>
        <time>2015-03-28T08:45:05.000Z</time>
      </trkpt>
      <trkpt lat="45.29989" lon="6.18743">
        <ele>1557</ele>
        <time>2015-03-28T08:45:09.000Z</time>
      </trkpt>
      <trkpt lat="45.2999" lon="6.1874">
        <ele>1558.4000244141</ele>
        <time>2015-03-28T08:45:14.000Z</time>
      </trkpt>
      <trkpt lat="45.2999" lon="6.18738">
        <ele>1558.5999755859</ele>
        <time>2015-03-28T08:45:16.000Z</time>
      </trkpt>
      <trkpt lat="45.29993" lon="6.18732">
        <ele>1559.4000244141</ele>
        <time>2015-03-28T08:45:22.000Z</time>
      </trkpt>
      <trkpt lat="45.29993" lon="6.18728">
        <ele>1559.8000488281</ele>
        <time>2015-03-28T08:45:24.000Z</time>
      </trkpt>
      <trkpt lat="45.29994" lon="6.18726">
        <ele>1560.4000244141</ele>
        <time>2015-03-28T08:45:26.000Z</time>
      </trkpt>
      <trkpt lat="45.29996" lon="6.18726">
        <ele>1561.1999511719</ele>
        <time>2015-03-28T08:45:30.000Z</time>
      </trkpt>
      <trkpt lat="45.29996" lon="6.18726">
        <ele>1561.4000244141</ele>
        <time>2015-03-28T08:45:31.000Z</time>
      </trkpt>
      <trkpt lat="45.29997" lon="6.1872">
        <ele>1562.5999755859</ele>
        <time>2015-03-28T08:45:36.000Z</time>
      </trkpt>
      <trkpt lat="45.29997" lon="6.18718">
        <ele>1563.1999511719</ele>
        <time>2015-03-28T08:45:38.000Z</time>
      </trkpt>
      <trkpt lat="45.3" lon="6.18717">
        <ele>1563.8000488281</ele>
        <time>2015-03-28T08:45:42.000Z</time>
      </trkpt>
      <trkpt lat="45.30001" lon="6.18716">
        <ele>1564.1999511719</ele>
        <time>2015-03-28T08:45:44.000Z</time>
      </trkpt>
      <trkpt lat="45.3" lon="6.18711">
        <ele>1565</ele>
        <time>2015-03-28T08:45:48.000Z</time>
      </trkpt>
      <trkpt lat="45.3" lon="6.18709">
        <ele>1565.5999755859</ele>
        <time>2015-03-28T08:45:50.000Z</time>
      </trkpt>
      <trkpt lat="45.30001" lon="6.18705">
        <ele>1566.1999511719</ele>
        <time>2015-03-28T08:45:54.000Z</time>
      </trkpt>
      <trkpt lat="45.30001" lon="6.18703">
        <ele>1566.5999755859</ele>
        <time>2015-03-28T08:45:56.000Z</time>
      </trkpt>
      <trkpt lat="45.30002" lon="6.18702">
        <ele>1567.1999511719</ele>
        <time>2015-03-28T08:45:58.000Z</time>
      </trkpt>
      <trkpt lat="45.30003" lon="6.18698">
        <ele>1567.8000488281</ele>
        <time>2015-03-28T08:46:03.000Z</time>
      </trkpt>
      <trkpt lat="45.30004" lon="6.18694">
        <ele>1568.4000244141</ele>
        <time>2015-03-28T08:46:07.000Z</time>
      </trkpt>
      <trkpt lat="45.30004" lon="6.18692">
        <ele>1569</ele>
        <time>2015-03-28T08:46:09.000Z</time>
      </trkpt>
      <trkpt lat="45.30005" lon="6.18689">
        <ele>1569.5999755859</ele>
        <time>2015-03-28T08:46:11.000Z</time>
      </trkpt>
      <trkpt lat="45.30006" lon="6.18685">
        <ele>1570.4000244141</ele>
        <time>2015-03-28T08:46:16.000Z</time>
      </trkpt>
      <trkpt lat="45.30006" lon="6.18684">
        <ele>1570.5999755859</ele>
        <time>2015-03-28T08:46:17.000Z</time>
      </trkpt>
      <trkpt lat="45.30006" lon="6.18679">
        <ele>1571.4000244141</ele>
        <time>2015-03-28T08:46:22.000Z</time>
      </trkpt>
      <trkpt lat="45.30005" lon="6.18677">
        <ele>1571.8000488281</ele>
        <time>2015-03-28T08:46:23.000Z</time>
      </trkpt>
      <trkpt lat="45.30006" lon="6.18671">
        <ele>1572.8000488281</ele>
        <time>2015-03-28T08:46:28.000Z</time>
      </trkpt>
      <trkpt lat="45.30006" lon="6.1867">
        <ele>1573</ele>
        <time>2015-03-28T08:46:29.000Z</time>
      </trkpt>
      <trkpt lat="45.30004" lon="6.18666">
        <ele>1573.5999755859</ele>
        <time>2015-03-28T08:46:35.000Z</time>
      </trkpt>
      <trkpt lat="45.30005" lon="6.18664">
        <ele>1574</ele>
        <time>2015-03-28T08:46:36.000Z</time>
      </trkpt>
      <trkpt lat="45.30005" lon="6.18658">
        <ele>1575.1999511719</ele>
        <time>2015-03-28T08:46:41.000Z</time>
      </trkpt>
      <trkpt lat="45.30005" lon="6.18656">
        <ele>1575.1999511719</ele>
        <time>2015-03-28T08:46:42.000Z</time>
      </trkpt>
      <trkpt lat="45.30005" lon="6.18651">
        <ele>1576.1999511719</ele>
        <time>2015-03-28T08:46:47.000Z</time>
      </trkpt>
      <trkpt lat="45.30004" lon="6.18649">
        <ele>1576.8000488281</ele>
        <time>2015-03-28T08:46:49.000Z</time>
      </trkpt>
      <trkpt lat="45.30004" lon="6.18648">
        <ele>1577.4000244141</ele>
        <time>2015-03-28T08:46:51.000Z</time>
      </trkpt>
      <trkpt lat="45.30005" lon="6.18643">
        <ele>1578.1999511719</ele>
        <time>2015-03-28T08:46:55.000Z</time>
      </trkpt>
      <trkpt lat="45.30005" lon="6.1864">
        <ele>1578.4000244141</ele>
        <time>2015-03-28T08:46:57.000Z</time>
      </trkpt>
      <trkpt lat="45.30003" lon="6.18637">
        <ele>1579</ele>
        <time>2015-03-28T08:47:01.000Z</time>
      </trkpt>
      <trkpt lat="45.30002" lon="6.18635">
        <ele>1579.4000244141</ele>
        <time>2015-03-28T08:47:03.000Z</time>
      </trkpt>
      <trkpt lat="45.3" lon="6.18633">
        <ele>1580.1999511719</ele>
        <time>2015-03-28T08:47:07.000Z</time>
      </trkpt>
      <trkpt lat="45.29998" lon="6.18633">
        <ele>1580.5999755859</ele>
        <time>2015-03-28T08:47:09.000Z</time>
      </trkpt>
      <trkpt lat="45.29997" lon="6.18631">
        <ele>1581.8000488281</ele>
        <time>2015-03-28T08:47:13.000Z</time>
      </trkpt>
      <trkpt lat="45.29996" lon="6.1863">
        <ele>1582.8000488281</ele>
        <time>2015-03-28T08:47:16.000Z</time>
      </trkpt>
      <trkpt lat="45.29995" lon="6.18626">
        <ele>1583.4000244141</ele>
        <time>2015-03-28T08:47:19.000Z</time>
      </trkpt>
      <trkpt lat="45.29994" lon="6.18625">
        <ele>1583.8000488281</ele>
        <time>2015-03-28T08:47:22.000Z</time>
      </trkpt>
      <trkpt lat="45.29994" lon="6.18624">
        <ele>1584</ele>
        <time>2015-03-28T08:47:23.000Z</time>
      </trkpt>
      <trkpt lat="45.29994" lon="6.18622">
        <ele>1585</ele>
        <time>2015-03-28T08:47:27.000Z</time>
      </trkpt>
      <trkpt lat="45.29992" lon="6.18621">
        <ele>1585.5999755859</ele>
        <time>2015-03-28T08:47:29.000Z</time>
      </trkpt>
      <trkpt lat="45.29991" lon="6.18618">
        <ele>1586.1999511719</ele>
        <time>2015-03-28T08:47:31.000Z</time>
      </trkpt>
      <trkpt lat="45.2999" lon="6.18615">
        <ele>1586.8000488281</ele>
        <time>2015-03-28T08:47:34.000Z</time>
      </trkpt>
      <trkpt lat="45.29991" lon="6.18614">
        <ele>1587.4000244141</ele>
        <time>2015-03-28T08:47:36.000Z</time>
      </trkpt>
      <trkpt lat="45.29992" lon="6.18607">
        <ele>1588.5999755859</ele>
        <time>2015-03-28T08:47:40.000Z</time>
      </trkpt>
      <trkpt lat="45.29993" lon="6.18603">
        <ele>1589.4000244141</ele>
        <time>2015-03-28T08:47:45.000Z</time>
      </trkpt>
      <trkpt lat="45.29993" lon="6.18603">
        <ele>1589.5999755859</ele>
        <time>2015-03-28T08:47:46.000Z</time>
      </trkpt>
      <trkpt lat="45.29994" lon="6.18597">
        <ele>1590.5999755859</ele>
        <time>2015-03-28T08:47:51.000Z</time>
      </trkpt>
      <trkpt lat="45.29994" lon="6.18595">
        <ele>1590.5999755859</ele>
        <time>2015-03-28T08:47:53.000Z</time>
      </trkpt>
      <trkpt lat="45.29995" lon="6.18592">
        <ele>1591.8000488281</ele>
        <time>2015-03-28T08:47:56.000Z</time>
      </trkpt>
      <trkpt lat="45.29995" lon="6.18589">
        <ele>1592.1999511719</ele>
        <time>2015-03-28T08:47:58.000Z</time>
      </trkpt>
      <trkpt lat="45.29996" lon="6.18587">
        <ele>1592.8000488281</ele>
        <time>2015-03-28T08:48:01.000Z</time>
      </trkpt>
      <trkpt lat="45.29996" lon="6.18585">
        <ele>1593.4000244141</ele>
        <time>2015-03-28T08:48:05.000Z</time>
      </trkpt>
      <trkpt lat="45.29997" lon="6.18583">
        <ele>1594</ele>
        <time>2015-03-28T08:48:07.000Z</time>
      </trkpt>
      <trkpt lat="45.29997" lon="6.18581">
        <ele>1595</ele>
        <time>2015-03-28T08:48:11.000Z</time>
      </trkpt>
      <trkpt lat="45.29998" lon="6.18577">
        <ele>1596</ele>
        <time>2015-03-28T08:48:16.000Z</time>
      </trkpt>
      <trkpt lat="45.29998" lon="6.18569">
        <ele>1597.1999511719</ele>
        <time>2015-03-28T08:48:22.000Z</time>
      </trkpt>
      <trkpt lat="45.29998" lon="6.18564">
        <ele>1598.4000244141</ele>
        <time>2015-03-28T08:48:27.000Z</time>
      </trkpt>
      <trkpt lat="45.29998" lon="6.18562">
        <ele>1598.5999755859</ele>
        <time>2015-03-28T08:48:28.000Z</time>
      </trkpt>
      <trkpt lat="45.29998" lon="6.18557">
        <ele>1599.5999755859</ele>
        <time>2015-03-28T08:48:34.000Z</time>
      </trkpt>
      <trkpt lat="45.29999" lon="6.18547">
        <ele>1600.1999511719</ele>
        <time>2015-03-28T08:48:40.000Z</time>
      </trkpt>
      <trkpt lat="45.3" lon="6.18543">
        <ele>1600.8000488281</ele>
        <time>2015-03-28T08:48:43.000Z</time>
      </trkpt>
      <trkpt lat="45.30001" lon="6.1854">
        <ele>1601.5999755859</ele>
        <time>2015-03-28T08:48:47.000Z</time>
      </trkpt>
      <trkpt lat="45.30002" lon="6.18538">
        <ele>1601.8000488281</ele>
        <time>2015-03-28T08:48:48.000Z</time>
      </trkpt>
      <trkpt lat="45.30003" lon="6.18532">
        <ele>1602.8000488281</ele>
        <time>2015-03-28T08:48:53.000Z</time>
      </trkpt>
      <trkpt lat="45.30004" lon="6.18531">
        <ele>1603</ele>
        <time>2015-03-28T08:48:54.000Z</time>
      </trkpt>
      <trkpt lat="45.30006" lon="6.18524">
        <ele>1604</ele>
        <time>2015-03-28T08:49:00.000Z</time>
      </trkpt>
      <trkpt lat="45.30007" lon="6.18521">
        <ele>1605</ele>
        <time>2015-03-28T08:49:03.000Z</time>
      </trkpt>
      <trkpt lat="45.30009" lon="6.18516">
        <ele>1605.8000488281</ele>
        <time>2015-03-28T08:49:07.000Z</time>
      </trkpt>
      <trkpt lat="45.3001" lon="6.18514">
        <ele>1606.1999511719</ele>
        <time>2015-03-28T08:49:09.000Z</time>
      </trkpt>
      <trkpt lat="45.30012" lon="6.18509">
        <ele>1606.8000488281</ele>
        <time>2015-03-28T08:49:12.000Z</time>
      </trkpt>
      <trkpt lat="45.30014" lon="6.18506">
        <ele>1607.4000244141</ele>
        <time>2015-03-28T08:49:15.000Z</time>
      </trkpt>
      <trkpt lat="45.30016" lon="6.18503">
        <ele>1608.1999511719</ele>
        <time>2015-03-28T08:49:20.000Z</time>
      </trkpt>
      <trkpt lat="45.30017" lon="6.18502">
        <ele>1608.4000244141</ele>
        <time>2015-03-28T08:49:21.000Z</time>
      </trkpt>
      <trkpt lat="45.30018" lon="6.18499">
        <ele>1609.5999755859</ele>
        <time>2015-03-28T08:49:26.000Z</time>
      </trkpt>
      <trkpt lat="45.30019" lon="6.18498">
        <ele>1609.8000488281</ele>
        <time>2015-03-28T08:49:27.000Z</time>
      </trkpt>
      <trkpt lat="45.30022" lon="6.18495">
        <ele>1610.5999755859</ele>
        <time>2015-03-28T08:49:31.000Z</time>
      </trkpt>
      <trkpt lat="45.30024" lon="6.18492">
        <ele>1611.8000488281</ele>
        <time>2015-03-28T08:49:34.000Z</time>
      </trkpt>
      <trkpt lat="45.30026" lon="6.18488">
        <ele>1613</ele>
        <time>2015-03-28T08:49:40.000Z</time>
      </trkpt>
      <trkpt lat="45.30029" lon="6.18482">
        <ele>1614</ele>
        <time>2015-03-28T08:49:46.000Z</time>
      </trkpt>
      <trkpt lat="45.30027" lon="6.18478">
        <ele>1615</ele>
        <time>2015-03-28T08:49:50.000Z</time>
      </trkpt>
      <trkpt lat="45.30027" lon="6.18476">
        <ele>1615.8000488281</ele>
        <time>2015-03-28T08:49:53.000Z</time>
      </trkpt>
      <trkpt lat="45.30027" lon="6.18475">
        <ele>1616</ele>
        <time>2015-03-28T08:49:54.000Z</time>
      </trkpt>
      <trkpt lat="45.30027" lon="6.18469">
        <ele>1617.4000244141</ele>
        <time>2015-03-28T08:49:59.000Z</time>
      </trkpt>
      <trkpt lat="45.30028" lon="6.18464">
        <ele>1618.4000244141</ele>
        <time>2015-03-28T08:50:04.000Z</time>
      </trkpt>
      <trkpt lat="45.30028" lon="6.18462">
        <ele>1618.5999755859</ele>
        <time>2015-03-28T08:50:05.000Z</time>
      </trkpt>
      <trkpt lat="45.30029" lon="6.18459">
        <ele>1619.5999755859</ele>
        <time>2015-03-28T08:50:08.000Z</time>
      </trkpt>
      <trkpt lat="45.30031" lon="6.18456">
        <ele>1620.5999755859</ele>
        <time>2015-03-28T08:50:12.000Z</time>
      </trkpt>
      <trkpt lat="45.30035" lon="6.1845">
        <ele>1621.8000488281</ele>
        <time>2015-03-28T08:50:18.000Z</time>
      </trkpt>
      <trkpt lat="45.30037" lon="6.18449">
        <ele>1622.4000244141</ele>
        <time>2015-03-28T08:50:20.000Z</time>
      </trkpt>
      <trkpt lat="45.30037" lon="6.18447">
        <ele>1622.8000488281</ele>
        <time>2015-03-28T08:50:23.000Z</time>
      </trkpt>
      <trkpt lat="45.3004" lon="6.18442">
        <ele>1623.5999755859</ele>
        <time>2015-03-28T08:50:28.000Z</time>
      </trkpt>
      <trkpt lat="45.30041" lon="6.1844">
        <ele>1623.8000488281</ele>
        <time>2015-03-28T08:50:30.000Z</time>
      </trkpt>
      <trkpt lat="45.30041" lon="6.18437">
        <ele>1624.8000488281</ele>
        <time>2015-03-28T08:50:34.000Z</time>
      </trkpt>
      <trkpt lat="45.30042" lon="6.18436">
        <ele>1625.1999511719</ele>
        <time>2015-03-28T08:50:35.000Z</time>
      </trkpt>
      <trkpt lat="45.30042" lon="6.1843">
        <ele>1626</ele>
        <time>2015-03-28T08:50:41.000Z</time>
      </trkpt>
      <trkpt lat="45.30043" lon="6.18429">
        <ele>1626.1999511719</ele>
        <time>2015-03-28T08:50:42.000Z</time>
      </trkpt>
      <trkpt lat="45.30044" lon="6.18424">
        <ele>1626.5999755859</ele>
        <time>2015-03-28T08:50:48.000Z</time>
      </trkpt>
      <trkpt lat="45.30045" lon="6.1842">
        <ele>1627.1999511719</ele>
        <time>2015-03-28T08:50:53.000Z</time>
      </trkpt>
      <trkpt lat="45.30045" lon="6.1842">
        <ele>1627.5999755859</ele>
        <time>2015-03-28T08:50:57.000Z</time>
      </trkpt>
      <trkpt lat="45.30045" lon="6.1842">
        <ele>1627.8000488281</ele>
        <time>2015-03-28T08:51:13.000Z</time>
      </trkpt>
      <trkpt lat="45.30045" lon="6.1842">
        <ele>1628</ele>
        <time>2015-03-28T08:51:28.000Z</time>
      </trkpt>
      <trkpt lat="45.30045" lon="6.1842">
        <ele>1628</ele>
        <time>2015-03-28T08:51:44.000Z</time>
      </trkpt>
      <trkpt lat="45.30045" lon="6.1842">
        <ele>1627.8000488281</ele>
        <time>2015-03-28T08:51:59.000Z</time>
      </trkpt>
      <trkpt lat="45.30045" lon="6.1842">
        <ele>1628</ele>
        <time>2015-03-28T08:52:07.000Z</time>
      </trkpt>
      <trkpt lat="45.30045" lon="6.1842">
        <ele>1628</ele>
        <time>2015-03-28T08:52:25.000Z</time>
      </trkpt>
      <trkpt lat="45.30045" lon="6.1842">
        <ele>1628</ele>
        <time>2015-03-28T08:52:38.000Z</time>
      </trkpt>
      <trkpt lat="45.30045" lon="6.18419">
        <ele>1628</ele>
        <time>2015-03-28T08:52:50.000Z</time>
      </trkpt>
      <trkpt lat="45.30045" lon="6.18419">
        <ele>1628</ele>
        <time>2015-03-28T08:53:07.000Z</time>
      </trkpt>
      <trkpt lat="45.30045" lon="6.18419">
        <ele>1628</ele>
        <time>2015-03-28T08:53:21.000Z</time>
      </trkpt>
      <trkpt lat="45.30046" lon="6.18419">
        <ele>1628</ele>
        <time>2015-03-28T08:53:36.000Z</time>
      </trkpt>
      <trkpt lat="45.30046" lon="6.18419">
        <ele>1628</ele>
        <time>2015-03-28T08:53:51.000Z</time>
      </trkpt>
      <trkpt lat="45.30047" lon="6.18414">
        <ele>1628.1999511719</ele>
        <time>2015-03-28T08:54:06.000Z</time>
      </trkpt>
      <trkpt lat="45.30047" lon="6.18414">
        <ele>1628</ele>
        <time>2015-03-28T08:54:17.000Z</time>
      </trkpt>
      <trkpt lat="45.30047" lon="6.18414">
        <ele>1628.5999755859</ele>
        <time>2015-03-28T08:54:33.000Z</time>
      </trkpt>
      <trkpt lat="45.30048" lon="6.18415">
        <ele>1628.4000244141</ele>
        <time>2015-03-28T08:54:45.000Z</time>
      </trkpt>
      <trkpt lat="45.30048" lon="6.18415">
        <ele>1628.5999755859</ele>
        <time>2015-03-28T08:55:00.000Z</time>
      </trkpt>
      <trkpt lat="45.30048" lon="6.18415">
        <ele>1628.1999511719</ele>
        <time>2015-03-28T08:55:11.000Z</time>
      </trkpt>
      <trkpt lat="45.30048" lon="6.18416">
        <ele>1628.4000244141</ele>
        <time>2015-03-28T08:55:26.000Z</time>
      </trkpt>
      <trkpt lat="45.30048" lon="6.18416">
        <ele>1628.4000244141</ele>
        <time>2015-03-28T08:55:41.000Z</time>
      </trkpt>
      <trkpt lat="45.30048" lon="6.18418">
        <ele>1628.8000488281</ele>
        <time>2015-03-28T08:55:51.000Z</time>
      </trkpt>
      <trkpt lat="45.30048" lon="6.18418">
        <ele>1628.4000244141</ele>
        <time>2015-03-28T08:56:03.000Z</time>
      </trkpt>
      <trkpt lat="45.30048" lon="6.18418">
        <ele>1628.4000244141</ele>
        <time>2015-03-28T08:56:18.000Z</time>
      </trkpt>
      <trkpt lat="45.30048" lon="6.18418">
        <ele>1628.5999755859</ele>
        <time>2015-03-28T08:56:25.000Z</time>
      </trkpt>
      <trkpt lat="45.30049" lon="6.18415">
        <ele>1629.1999511719</ele>
        <time>2015-03-28T08:56:29.000Z</time>
      </trkpt>
      <trkpt lat="45.30048" lon="6.18414">
        <ele>1629.4000244141</ele>
        <time>2015-03-28T08:56:31.000Z</time>
      </trkpt>
      <trkpt lat="45.3005" lon="6.18403">
        <ele>1629.8000488281</ele>
        <time>2015-03-28T08:56:39.000Z</time>
      </trkpt>
      <trkpt lat="45.30051" lon="6.18397">
        <ele>1630.1999511719</ele>
        <time>2015-03-28T08:56:42.000Z</time>
      </trkpt>
      <trkpt lat="45.30051" lon="6.18393">
        <ele>1630.5999755859</ele>
        <time>2015-03-28T08:56:45.000Z</time>
      </trkpt>
      <trkpt lat="45.30051" lon="6.18387">
        <ele>1630.8000488281</ele>
        <time>2015-03-28T08:56:51.000Z</time>
      </trkpt>
      <trkpt lat="45.30051" lon="6.18383">
        <ele>1630.8000488281</ele>
        <time>2015-03-28T08:56:54.000Z</time>
      </trkpt>
      <trkpt lat="45.30051" lon="6.18381">
        <ele>1630.8000488281</ele>
        <time>2015-03-28T08:56:56.000Z</time>
      </trkpt>
      <trkpt lat="45.30052" lon="6.18378">
        <ele>1631.1999511719</ele>
        <time>2015-03-28T08:57:02.000Z</time>
      </trkpt>
      <trkpt lat="45.30051" lon="6.1837">
        <ele>1631.4000244141</ele>
        <time>2015-03-28T08:57:08.000Z</time>
      </trkpt>
      <trkpt lat="45.3005" lon="6.18363">
        <ele>1632.4000244141</ele>
        <time>2015-03-28T08:57:14.000Z</time>
      </trkpt>
      <trkpt lat="45.3005" lon="6.18355">
        <ele>1633</ele>
        <time>2015-03-28T08:57:20.000Z</time>
      </trkpt>
      <trkpt lat="45.30051" lon="6.18349">
        <ele>1633.5999755859</ele>
        <time>2015-03-28T08:57:25.000Z</time>
      </trkpt>
      <trkpt lat="45.30051" lon="6.18348">
        <ele>1633.5999755859</ele>
        <time>2015-03-28T08:57:26.000Z</time>
      </trkpt>
      <trkpt lat="45.3005" lon="6.18339">
        <ele>1634</ele>
        <time>2015-03-28T08:57:32.000Z</time>
      </trkpt>
      <trkpt lat="45.30051" lon="6.1833">
        <ele>1634.5999755859</ele>
        <time>2015-03-28T08:57:38.000Z</time>
      </trkpt>
      <trkpt lat="45.30051" lon="6.18329">
        <ele>1634.5999755859</ele>
        <time>2015-03-28T08:57:39.000Z</time>
      </trkpt>
      <trkpt lat="45.30051" lon="6.18328">
        <ele>1634.5999755859</ele>
        <time>2015-03-28T08:57:40.000Z</time>
      </trkpt>
      <trkpt lat="45.3005" lon="6.18322">
        <ele>1635</ele>
        <time>2015-03-28T08:57:46.000Z</time>
      </trkpt>
      <trkpt lat="45.30051" lon="6.18317">
        <ele>1635.5999755859</ele>
        <time>2015-03-28T08:57:51.000Z</time>
      </trkpt>
      <trkpt lat="45.30051" lon="6.18316">
        <ele>1636</ele>
        <time>2015-03-28T08:57:53.000Z</time>
      </trkpt>
      <trkpt lat="45.30051" lon="6.18309">
        <ele>1636.5999755859</ele>
        <time>2015-03-28T08:57:59.000Z</time>
      </trkpt>
      <trkpt lat="45.30051" lon="6.18309">
        <ele>1636.8000488281</ele>
        <time>2015-03-28T08:58:01.000Z</time>
      </trkpt>
      <trkpt lat="45.30049" lon="6.18301">
        <ele>1637.4000244141</ele>
        <time>2015-03-28T08:58:08.000Z</time>
      </trkpt>
      <trkpt lat="45.30047" lon="6.18293">
        <ele>1637.8000488281</ele>
        <time>2015-03-28T08:58:14.000Z</time>
      </trkpt>
      <trkpt lat="45.30047" lon="6.18291">
        <ele>1638</ele>
        <time>2015-03-28T08:58:16.000Z</time>
      </trkpt>
      <trkpt lat="45.30044" lon="6.18288">
        <ele>1638.8000488281</ele>
        <time>2015-03-28T08:58:21.000Z</time>
      </trkpt>
      <trkpt lat="45.30044" lon="6.18285">
        <ele>1639.8000488281</ele>
        <time>2015-03-28T08:58:24.000Z</time>
      </trkpt>
      <trkpt lat="45.30043" lon="6.18285">
        <ele>1640</ele>
        <time>2015-03-28T08:58:25.000Z</time>
      </trkpt>
      <trkpt lat="45.3004" lon="6.18281">
        <ele>1641</ele>
        <time>2015-03-28T08:58:31.000Z</time>
      </trkpt>
      <trkpt lat="45.3004" lon="6.18275">
        <ele>1642</ele>
        <time>2015-03-28T08:58:36.000Z</time>
      </trkpt>
      <trkpt lat="45.3004" lon="6.18274">
        <ele>1642</ele>
        <time>2015-03-28T08:58:37.000Z</time>
      </trkpt>
      <trkpt lat="45.3004" lon="6.1827">
        <ele>1643</ele>
        <time>2015-03-28T08:58:44.000Z</time>
      </trkpt>
      <trkpt lat="45.3004" lon="6.18265">
        <ele>1644.1999511719</ele>
        <time>2015-03-28T08:58:50.000Z</time>
      </trkpt>
      <trkpt lat="45.3004" lon="6.18264">
        <ele>1644.4000244141</ele>
        <time>2015-03-28T08:58:51.000Z</time>
      </trkpt>
      <trkpt lat="45.30041" lon="6.18256">
        <ele>1645.1999511719</ele>
        <time>2015-03-28T08:58:58.000Z</time>
      </trkpt>
      <trkpt lat="45.30041" lon="6.18254">
        <ele>1645.5999755859</ele>
        <time>2015-03-28T08:59:00.000Z</time>
      </trkpt>
      <trkpt lat="45.30042" lon="6.18251">
        <ele>1646.1999511719</ele>
        <time>2015-03-28T08:59:04.000Z</time>
      </trkpt>
      <trkpt lat="45.30043" lon="6.18247">
        <ele>1646.8000488281</ele>
        <time>2015-03-28T08:59:08.000Z</time>
      </trkpt>
      <trkpt lat="45.30044" lon="6.18246">
        <ele>1647.5999755859</ele>
        <time>2015-03-28T08:59:11.000Z</time>
      </trkpt>
      <trkpt lat="45.30045" lon="6.18246">
        <ele>1648</ele>
        <time>2015-03-28T08:59:13.000Z</time>
      </trkpt>
      <trkpt lat="45.30045" lon="6.18242">
        <ele>1648.5999755859</ele>
        <time>2015-03-28T08:59:17.000Z</time>
      </trkpt>
      <trkpt lat="45.30045" lon="6.18239">
        <ele>1649</ele>
        <time>2015-03-28T08:59:20.000Z</time>
      </trkpt>
      <trkpt lat="45.30043" lon="6.18236">
        <ele>1649.5999755859</ele>
        <time>2015-03-28T08:59:24.000Z</time>
      </trkpt>
      <trkpt lat="45.30041" lon="6.18234">
        <ele>1650.1999511719</ele>
        <time>2015-03-28T08:59:26.000Z</time>
      </trkpt>
      <trkpt lat="45.3004" lon="6.18231">
        <ele>1650.8000488281</ele>
        <time>2015-03-28T08:59:30.000Z</time>
      </trkpt>
      <trkpt lat="45.3004" lon="6.18228">
        <ele>1651.4000244141</ele>
        <time>2015-03-28T08:59:35.000Z</time>
      </trkpt>
      <trkpt lat="45.30042" lon="6.18227">
        <ele>1651.8000488281</ele>
        <time>2015-03-28T08:59:37.000Z</time>
      </trkpt>
      <trkpt lat="45.30046" lon="6.18223">
        <ele>1652.5999755859</ele>
        <time>2015-03-28T08:59:41.000Z</time>
      </trkpt>
      <trkpt lat="45.30047" lon="6.18221">
        <ele>1652.8000488281</ele>
        <time>2015-03-28T08:59:43.000Z</time>
      </trkpt>
      <trkpt lat="45.30051" lon="6.18216">
        <ele>1653.8000488281</ele>
        <time>2015-03-28T08:59:48.000Z</time>
      </trkpt>
      <trkpt lat="45.30051" lon="6.18215">
        <ele>1654.4000244141</ele>
        <time>2015-03-28T08:59:50.000Z</time>
      </trkpt>
      <trkpt lat="45.30051" lon="6.18214">
        <ele>1655</ele>
        <time>2015-03-28T08:59:52.000Z</time>
      </trkpt>
      <trkpt lat="45.30052" lon="6.18211">
        <ele>1655.4000244141</ele>
        <time>2015-03-28T08:59:56.000Z</time>
      </trkpt>
      <trkpt lat="45.30051" lon="6.18209">
        <ele>1656</ele>
        <time>2015-03-28T09:00:01.000Z</time>
      </trkpt>
      <trkpt lat="45.30051" lon="6.18208">
        <ele>1656.1999511719</ele>
        <time>2015-03-28T09:00:02.000Z</time>
      </trkpt>
      <trkpt lat="45.3005" lon="6.18203">
        <ele>1657</ele>
        <time>2015-03-28T09:00:08.000Z</time>
      </trkpt>
      <trkpt lat="45.3005" lon="6.18203">
        <ele>1657.4000244141</ele>
        <time>2015-03-28T09:00:10.000Z</time>
      </trkpt>
      <trkpt lat="45.30052" lon="6.182">
        <ele>1658</ele>
        <time>2015-03-28T09:00:14.000Z</time>
      </trkpt>
      <trkpt lat="45.30053" lon="6.18198">
        <ele>1658.8000488281</ele>
        <time>2015-03-28T09:00:17.000Z</time>
      </trkpt>
      <trkpt lat="45.30053" lon="6.18198">
        <ele>1659.1999511719</ele>
        <time>2015-03-28T09:00:19.000Z</time>
      </trkpt>
      <trkpt lat="45.30054" lon="6.18194">
        <ele>1659.4000244141</ele>
        <time>2015-03-28T09:00:24.000Z</time>
      </trkpt>
      <trkpt lat="45.30055" lon="6.1819">
        <ele>1660.4000244141</ele>
        <time>2015-03-28T09:00:29.000Z</time>
      </trkpt>
      <trkpt lat="45.30055" lon="6.18188">
        <ele>1661</ele>
        <time>2015-03-28T09:00:31.000Z</time>
      </trkpt>
      <trkpt lat="45.30057" lon="6.18185">
        <ele>1661.4000244141</ele>
        <time>2015-03-28T09:00:34.000Z</time>
      </trkpt>
      <trkpt lat="45.30058" lon="6.1818">
        <ele>1662.1999511719</ele>
        <time>2015-03-28T09:00:39.000Z</time>
      </trkpt>
      <trkpt lat="45.30059" lon="6.18177">
        <ele>1662.5999755859</ele>
        <time>2015-03-28T09:00:41.000Z</time>
      </trkpt>
      <trkpt lat="45.30059" lon="6.18174">
        <ele>1663.4000244141</ele>
        <time>2015-03-28T09:00:45.000Z</time>
      </trkpt>
      <trkpt lat="45.30059" lon="6.18173">
        <ele>1663.8000488281</ele>
        <time>2015-03-28T09:00:46.000Z</time>
      </trkpt>
      <trkpt lat="45.30059" lon="6.18167">
        <ele>1664.8000488281</ele>
        <time>2015-03-28T09:00:54.000Z</time>
      </trkpt>
      <trkpt lat="45.3006" lon="6.18164">
        <ele>1665.8000488281</ele>
        <time>2015-03-28T09:00:59.000Z</time>
      </trkpt>
      <trkpt lat="45.3006" lon="6.18163">
        <ele>1666.1999511719</ele>
        <time>2015-03-28T09:01:00.000Z</time>
      </trkpt>
      <trkpt lat="45.30061" lon="6.1816">
        <ele>1667</ele>
        <time>2015-03-28T09:01:04.000Z</time>
      </trkpt>
      <trkpt lat="45.30062" lon="6.18158">
        <ele>1667.4000244141</ele>
        <time>2015-03-28T09:01:07.000Z</time>
      </trkpt>
      <trkpt lat="45.30063" lon="6.18157">
        <ele>1668</ele>
        <time>2015-03-28T09:01:09.000Z</time>
      </trkpt>
      <trkpt lat="45.30062" lon="6.18153">
        <ele>1669</ele>
        <time>2015-03-28T09:01:13.000Z</time>
      </trkpt>
      <trkpt lat="45.30062" lon="6.18152">
        <ele>1669.1999511719</ele>
        <time>2015-03-28T09:01:14.000Z</time>
      </trkpt>
      <trkpt lat="45.30063" lon="6.18148">
        <ele>1670</ele>
        <time>2015-03-28T09:01:19.000Z</time>
      </trkpt>
      <trkpt lat="45.30063" lon="6.18146">
        <ele>1670.4000244141</ele>
        <time>2015-03-28T09:01:21.000Z</time>
      </trkpt>
      <trkpt lat="45.30064" lon="6.1814">
        <ele>1671.4000244141</ele>
        <time>2015-03-28T09:01:27.000Z</time>
      </trkpt>
      <trkpt lat="45.30064" lon="6.1814">
        <ele>1671.5999755859</ele>
        <time>2015-03-28T09:01:28.000Z</time>
      </trkpt>
      <trkpt lat="45.30068" lon="6.18133">
        <ele>1672.4000244141</ele>
        <time>2015-03-28T09:01:33.000Z</time>
      </trkpt>
      <trkpt lat="45.30069" lon="6.18132">
        <ele>1672.5999755859</ele>
        <time>2015-03-28T09:01:35.000Z</time>
      </trkpt>
      <trkpt lat="45.30068" lon="6.18131">
        <ele>1673.1999511719</ele>
        <time>2015-03-28T09:01:39.000Z</time>
      </trkpt>
      <trkpt lat="45.30067" lon="6.18128">
        <ele>1673.8000488281</ele>
        <time>2015-03-28T09:01:42.000Z</time>
      </trkpt>
      <trkpt lat="45.30067" lon="6.18125">
        <ele>1674.1999511719</ele>
        <time>2015-03-28T09:01:46.000Z</time>
      </trkpt>
      <trkpt lat="45.30066" lon="6.18123">
        <ele>1674.8000488281</ele>
        <time>2015-03-28T09:01:49.000Z</time>
      </trkpt>
      <trkpt lat="45.30067" lon="6.18121">
        <ele>1675</ele>
        <time>2015-03-28T09:01:52.000Z</time>
      </trkpt>
      <trkpt lat="45.30065" lon="6.18116">
        <ele>1676</ele>
        <time>2015-03-28T09:01:58.000Z</time>
      </trkpt>
      <trkpt lat="45.30063" lon="6.18115">
        <ele>1676.1999511719</ele>
        <time>2015-03-28T09:02:00.000Z</time>
      </trkpt>
      <trkpt lat="45.30064" lon="6.18112">
        <ele>1677</ele>
        <time>2015-03-28T09:02:04.000Z</time>
      </trkpt>
      <trkpt lat="45.30064" lon="6.18111">
        <ele>1677.5999755859</ele>
        <time>2015-03-28T09:02:06.000Z</time>
      </trkpt>
      <trkpt lat="45.30064" lon="6.18111">
        <ele>1678.1999511719</ele>
        <time>2015-03-28T09:02:08.000Z</time>
      </trkpt>
      <trkpt lat="45.30064" lon="6.18109">
        <ele>1678.1999511719</ele>
        <time>2015-03-28T09:02:17.000Z</time>
      </trkpt>
      <trkpt lat="45.30065" lon="6.18101">
        <ele>1679.1999511719</ele>
        <time>2015-03-28T09:02:23.000Z</time>
      </trkpt>
      <trkpt lat="45.30065" lon="6.18101">
        <ele>1679.4000244141</ele>
        <time>2015-03-28T09:02:24.000Z</time>
      </trkpt>
      <trkpt lat="45.30062" lon="6.18097">
        <ele>1680.4000244141</ele>
        <time>2015-03-28T09:02:29.000Z</time>
      </trkpt>
      <trkpt lat="45.30062" lon="6.18096">
        <ele>1680.5999755859</ele>
        <time>2015-03-28T09:02:30.000Z</time>
      </trkpt>
      <trkpt lat="45.30062" lon="6.18091">
        <ele>1681.8000488281</ele>
        <time>2015-03-28T09:02:36.000Z</time>
      </trkpt>
      <trkpt lat="45.30064" lon="6.18086">
        <ele>1682.5999755859</ele>
        <time>2015-03-28T09:02:42.000Z</time>
      </trkpt>
      <trkpt lat="45.30064" lon="6.18084">
        <ele>1682.8000488281</ele>
        <time>2015-03-28T09:02:43.000Z</time>
      </trkpt>
      <trkpt lat="45.30062" lon="6.18079">
        <ele>1683.4000244141</ele>
        <time>2015-03-28T09:02:48.000Z</time>
      </trkpt>
      <trkpt lat="45.30062" lon="6.18076">
        <ele>1683.8000488281</ele>
        <time>2015-03-28T09:02:52.000Z</time>
      </trkpt>
      <trkpt lat="45.30064" lon="6.18075">
        <ele>1684.1999511719</ele>
        <time>2015-03-28T09:02:54.000Z</time>
      </trkpt>
      <trkpt lat="45.30066" lon="6.18072">
        <ele>1684.4000244141</ele>
        <time>2015-03-28T09:02:56.000Z</time>
      </trkpt>
      <trkpt lat="45.30073" lon="6.18065">
        <ele>1685</ele>
        <time>2015-03-28T09:03:03.000Z</time>
      </trkpt>
      <trkpt lat="45.30073" lon="6.18065">
        <ele>1685.1999511719</ele>
        <time>2015-03-28T09:03:04.000Z</time>
      </trkpt>
      <trkpt lat="45.3007" lon="6.1806">
        <ele>1686.1999511719</ele>
        <time>2015-03-28T09:03:10.000Z</time>
      </trkpt>
      <trkpt lat="45.30069" lon="6.18059">
        <ele>1686.4000244141</ele>
        <time>2015-03-28T09:03:11.000Z</time>
      </trkpt>
      <trkpt lat="45.30069" lon="6.18055">
        <ele>1687.5999755859</ele>
        <time>2015-03-28T09:03:16.000Z</time>
      </trkpt>
      <trkpt lat="45.30069" lon="6.18053">
        <ele>1688</ele>
        <time>2015-03-28T09:03:18.000Z</time>
      </trkpt>
      <trkpt lat="45.30068" lon="6.18052">
        <ele>1688.8000488281</ele>
        <time>2015-03-28T09:03:21.000Z</time>
      </trkpt>
      <trkpt lat="45.30067" lon="6.18048">
        <ele>1690</ele>
        <time>2015-03-28T09:03:26.000Z</time>
      </trkpt>
      <trkpt lat="45.30068" lon="6.18046">
        <ele>1690.1999511719</ele>
        <time>2015-03-28T09:03:28.000Z</time>
      </trkpt>
      <trkpt lat="45.30068" lon="6.18044">
        <ele>1691.1999511719</ele>
        <time>2015-03-28T09:03:35.000Z</time>
      </trkpt>
      <trkpt lat="45.30068" lon="6.18044">
        <ele>1691.4000244141</ele>
        <time>2015-03-28T09:03:36.000Z</time>
      </trkpt>
      <trkpt lat="45.30068" lon="6.18044">
        <ele>1692.1999511719</ele>
        <time>2015-03-28T09:03:38.000Z</time>
      </trkpt>
      <trkpt lat="45.30068" lon="6.18044">
        <ele>1693</ele>
        <time>2015-03-28T09:03:45.000Z</time>
      </trkpt>
      <trkpt lat="45.30068" lon="6.18044">
        <ele>1693.1999511719</ele>
        <time>2015-03-28T09:03:50.000Z</time>
      </trkpt>
      <trkpt lat="45.30068" lon="6.18044">
        <ele>1694.1999511719</ele>
        <time>2015-03-28T09:03:53.000Z</time>
      </trkpt>
      <trkpt lat="45.30068" lon="6.18044">
        <ele>1694.5999755859</ele>
        <time>2015-03-28T09:03:54.000Z</time>
      </trkpt>
      <trkpt lat="45.30068" lon="6.18044">
        <ele>1695.8000488281</ele>
        <time>2015-03-28T09:03:57.000Z</time>
      </trkpt>
      <trkpt lat="45.30068" lon="6.18044">
        <ele>1695.8000488281</ele>
        <time>2015-03-28T09:03:59.000Z</time>
      </trkpt>
      <trkpt lat="45.30068" lon="6.18044">
        <ele>1696.8000488281</ele>
        <time>2015-03-28T09:04:06.000Z</time>
      </trkpt>
      <trkpt lat="45.30068" lon="6.18044">
        <ele>1697.1999511719</ele>
        <time>2015-03-28T09:04:07.000Z</time>
      </trkpt>
      <trkpt lat="45.30068" lon="6.18044">
        <ele>1698</ele>
        <time>2015-03-28T09:04:09.000Z</time>
      </trkpt>
      <trkpt lat="45.30068" lon="6.18043">
        <ele>1698.4000244141</ele>
        <time>2015-03-28T09:04:16.000Z</time>
      </trkpt>
      <trkpt lat="45.30068" lon="6.18043">
        <ele>1699.1999511719</ele>
        <time>2015-03-28T09:04:19.000Z</time>
      </trkpt>
      <trkpt lat="45.30068" lon="6.18043">
        <ele>1700.4000244141</ele>
        <time>2015-03-28T09:04:22.000Z</time>
      </trkpt>
      <trkpt lat="45.30068" lon="6.18043">
        <ele>1700.4000244141</ele>
        <time>2015-03-28T09:04:23.000Z</time>
      </trkpt>
      <trkpt lat="45.30068" lon="6.18043">
        <ele>1701.5999755859</ele>
        <time>2015-03-28T09:04:28.000Z</time>
      </trkpt>
      <trkpt lat="45.30069" lon="6.18041">
        <ele>1702</ele>
        <time>2015-03-28T09:04:31.000Z</time>
      </trkpt>
      <trkpt lat="45.3007" lon="6.18029">
        <ele>1702.5999755859</ele>
        <time>2015-03-28T09:04:36.000Z</time>
      </trkpt>
      <trkpt lat="45.3007" lon="6.18027">
        <ele>1702.8000488281</ele>
        <time>2015-03-28T09:04:37.000Z</time>
      </trkpt>
      <trkpt lat="45.30071" lon="6.18021">
        <ele>1703.5999755859</ele>
        <time>2015-03-28T09:04:40.000Z</time>
      </trkpt>
      <trkpt lat="45.3007" lon="6.18015">
        <ele>1704.5999755859</ele>
        <time>2015-03-28T09:04:46.000Z</time>
      </trkpt>
      <trkpt lat="45.3007" lon="6.18015">
        <ele>1705</ele>
        <time>2015-03-28T09:04:47.000Z</time>
      </trkpt>
      <trkpt lat="45.3007" lon="6.18015">
        <ele>1705.5999755859</ele>
        <time>2015-03-28T09:04:52.000Z</time>
      </trkpt>
      <trkpt lat="45.3007" lon="6.18015">
        <ele>1706</ele>
        <time>2015-03-28T09:04:56.000Z</time>
      </trkpt>
      <trkpt lat="45.3007" lon="6.18015">
        <ele>1707.1999511719</ele>
        <time>2015-03-28T09:04:59.000Z</time>
      </trkpt>
      <trkpt lat="45.3007" lon="6.18015">
        <ele>1708</ele>
        <time>2015-03-28T09:05:06.000Z</time>
      </trkpt>
      <trkpt lat="45.3007" lon="6.18015">
        <ele>1708.1999511719</ele>
        <time>2015-03-28T09:05:07.000Z</time>
      </trkpt>
      <trkpt lat="45.3007" lon="6.18015">
        <ele>1709.1999511719</ele>
        <time>2015-03-28T09:05:12.000Z</time>
      </trkpt>
      <trkpt lat="45.30071" lon="6.1801">
        <ele>1710</ele>
        <time>2015-03-28T09:05:17.000Z</time>
      </trkpt>
      <trkpt lat="45.30075" lon="6.17969">
        <ele>1710.4000244141</ele>
        <time>2015-03-28T09:05:19.000Z</time>
      </trkpt>
      <trkpt lat="45.30081" lon="6.17961">
        <ele>1711</ele>
        <time>2015-03-28T09:05:22.000Z</time>
      </trkpt>
      <trkpt lat="45.30085" lon="6.17959">
        <ele>1711.5999755859</ele>
        <time>2015-03-28T09:05:24.000Z</time>
      </trkpt>
      <trkpt lat="45.30091" lon="6.17954">
        <ele>1712.5999755859</ele>
        <time>2015-03-28T09:05:28.000Z</time>
      </trkpt>
      <trkpt lat="45.30091" lon="6.17953">
        <ele>1712.8000488281</ele>
        <time>2015-03-28T09:05:29.000Z</time>
      </trkpt>
      <trkpt lat="45.30093" lon="6.17948">
        <ele>1713.1999511719</ele>
        <time>2015-03-28T09:05:36.000Z</time>
      </trkpt>
      <trkpt lat="45.30094" lon="6.17947">
        <ele>1714</ele>
        <time>2015-03-28T09:05:38.000Z</time>
      </trkpt>
      <trkpt lat="45.30093" lon="6.17945">
        <ele>1715.1999511719</ele>
        <time>2015-03-28T09:05:41.000Z</time>
      </trkpt>
      <trkpt lat="45.30093" lon="6.17944">
        <ele>1715.1999511719</ele>
        <time>2015-03-28T09:05:42.000Z</time>
      </trkpt>
      <trkpt lat="45.30094" lon="6.1794">
        <ele>1715.8000488281</ele>
        <time>2015-03-28T09:05:48.000Z</time>
      </trkpt>
      <trkpt lat="45.30095" lon="6.1794">
        <ele>1716.1999511719</ele>
        <time>2015-03-28T09:05:49.000Z</time>
      </trkpt>
      <trkpt lat="45.30096" lon="6.17937">
        <ele>1717.1999511719</ele>
        <time>2015-03-28T09:05:52.000Z</time>
      </trkpt>
      <trkpt lat="45.30096" lon="6.17936">
        <ele>1717.4000244141</ele>
        <time>2015-03-28T09:05:53.000Z</time>
      </trkpt>
      <trkpt lat="45.30098" lon="6.17932">
        <ele>1718.1999511719</ele>
        <time>2015-03-28T09:05:59.000Z</time>
      </trkpt>
      <trkpt lat="45.30098" lon="6.17931">
        <ele>1718.4000244141</ele>
        <time>2015-03-28T09:06:00.000Z</time>
      </trkpt>
      <trkpt lat="45.30097" lon="6.17927">
        <ele>1719.1999511719</ele>
        <time>2015-03-28T09:06:05.000Z</time>
      </trkpt>
      <trkpt lat="45.30096" lon="6.17926">
        <ele>1719.4000244141</ele>
        <time>2015-03-28T09:06:06.000Z</time>
      </trkpt>
      <trkpt lat="45.30096" lon="6.1792">
        <ele>1720.4000244141</ele>
        <time>2015-03-28T09:06:13.000Z</time>
      </trkpt>
      <trkpt lat="45.30096" lon="6.17919">
        <ele>1720.4000244141</ele>
        <time>2015-03-28T09:06:14.000Z</time>
      </trkpt>
      <trkpt lat="45.30095" lon="6.17912">
        <ele>1721</ele>
        <time>2015-03-28T09:06:21.000Z</time>
      </trkpt>
      <trkpt lat="45.30096" lon="6.1791">
        <ele>1721.5999755859</ele>
        <time>2015-03-28T09:06:24.000Z</time>
      </trkpt>
      <trkpt lat="45.30095" lon="6.17908">
        <ele>1722.5999755859</ele>
        <time>2015-03-28T09:06:28.000Z</time>
      </trkpt>
      <trkpt lat="45.30095" lon="6.17908">
        <ele>1723</ele>
        <time>2015-03-28T09:06:29.000Z</time>
      </trkpt>
      <trkpt lat="45.30094" lon="6.17902">
        <ele>1723.8000488281</ele>
        <time>2015-03-28T09:06:36.000Z</time>
      </trkpt>
      <trkpt lat="45.30095" lon="6.17899">
        <ele>1725.1999511719</ele>
        <time>2015-03-28T09:06:39.000Z</time>
      </trkpt>
      <trkpt lat="45.30095" lon="6.17896">
        <ele>1725.8000488281</ele>
        <time>2015-03-28T09:06:43.000Z</time>
      </trkpt>
      <trkpt lat="45.30095" lon="6.17894">
        <ele>1726.4000244141</ele>
        <time>2015-03-28T09:06:46.000Z</time>
      </trkpt>
      <trkpt lat="45.30096" lon="6.17891">
        <ele>1727.1999511719</ele>
        <time>2015-03-28T09:06:48.000Z</time>
      </trkpt>
      <trkpt lat="45.30095" lon="6.17889">
        <ele>1727.5999755859</ele>
        <time>2015-03-28T09:06:50.000Z</time>
      </trkpt>
      <trkpt lat="45.30094" lon="6.17886">
        <ele>1727.8000488281</ele>
        <time>2015-03-28T09:06:54.000Z</time>
      </trkpt>
      <trkpt lat="45.30093" lon="6.17885">
        <ele>1728.8000488281</ele>
        <time>2015-03-28T09:06:58.000Z</time>
      </trkpt>
      <trkpt lat="45.30092" lon="6.17881">
        <ele>1730</ele>
        <time>2015-03-28T09:07:02.000Z</time>
      </trkpt>
      <trkpt lat="45.30092" lon="6.1788">
        <ele>1730</ele>
        <time>2015-03-28T09:07:03.000Z</time>
      </trkpt>
      <trkpt lat="45.30091" lon="6.17878">
        <ele>1731</ele>
        <time>2015-03-28T09:07:09.000Z</time>
      </trkpt>
      <trkpt lat="45.30092" lon="6.17878">
        <ele>1731.8000488281</ele>
        <time>2015-03-28T09:07:10.000Z</time>
      </trkpt>
      <trkpt lat="45.30092" lon="6.17873">
        <ele>1732.4000244141</ele>
        <time>2015-03-28T09:07:14.000Z</time>
      </trkpt>
      <trkpt lat="45.30093" lon="6.17868">
        <ele>1732.8000488281</ele>
        <time>2015-03-28T09:07:20.000Z</time>
      </trkpt>
      <trkpt lat="45.30097" lon="6.17863">
        <ele>1734</ele>
        <time>2015-03-28T09:07:25.000Z</time>
      </trkpt>
      <trkpt lat="45.30098" lon="6.17858">
        <ele>1734.8000488281</ele>
        <time>2015-03-28T09:07:31.000Z</time>
      </trkpt>
      <trkpt lat="45.30099" lon="6.17854">
        <ele>1735.4000244141</ele>
        <time>2015-03-28T09:07:34.000Z</time>
      </trkpt>
      <trkpt lat="45.301" lon="6.17851">
        <ele>1735.8000488281</ele>
        <time>2015-03-28T09:07:37.000Z</time>
      </trkpt>
      <trkpt lat="45.301" lon="6.17849">
        <ele>1736.5999755859</ele>
        <time>2015-03-28T09:07:40.000Z</time>
      </trkpt>
      <trkpt lat="45.301" lon="6.17847">
        <ele>1737</ele>
        <time>2015-03-28T09:07:43.000Z</time>
      </trkpt>
      <trkpt lat="45.30099" lon="6.17841">
        <ele>1737.5999755859</ele>
        <time>2015-03-28T09:07:49.000Z</time>
      </trkpt>
      <trkpt lat="45.30099" lon="6.17835">
        <ele>1738.4000244141</ele>
        <time>2015-03-28T09:07:55.000Z</time>
      </trkpt>
      <trkpt lat="45.30102" lon="6.17831">
        <ele>1738.5999755859</ele>
        <time>2015-03-28T09:08:00.000Z</time>
      </trkpt>
      <trkpt lat="45.30104" lon="6.17829">
        <ele>1739</ele>
        <time>2015-03-28T09:08:03.000Z</time>
      </trkpt>
      <trkpt lat="45.30107" lon="6.17823">
        <ele>1739.5999755859</ele>
        <time>2015-03-28T09:08:09.000Z</time>
      </trkpt>
      <trkpt lat="45.30107" lon="6.17822">
        <ele>1739.8000488281</ele>
        <time>2015-03-28T09:08:10.000Z</time>
      </trkpt>
      <trkpt lat="45.3011" lon="6.17819">
        <ele>1739.8000488281</ele>
        <time>2015-03-28T09:08:15.000Z</time>
      </trkpt>
      <trkpt lat="45.30112" lon="6.17813">
        <ele>1740.1999511719</ele>
        <time>2015-03-28T09:08:20.000Z</time>
      </trkpt>
      <trkpt lat="45.30115" lon="6.17808">
        <ele>1740.5999755859</ele>
        <time>2015-03-28T09:08:25.000Z</time>
      </trkpt>
      <trkpt lat="45.30117" lon="6.17806">
        <ele>1740.8000488281</ele>
        <time>2015-03-28T09:08:28.000Z</time>
      </trkpt>
      <trkpt lat="45.30118" lon="6.17804">
        <ele>1741.1999511719</ele>
        <time>2015-03-28T09:08:30.000Z</time>
      </trkpt>
      <trkpt lat="45.30119" lon="6.17799">
        <ele>1741.8000488281</ele>
        <time>2015-03-28T09:08:36.000Z</time>
      </trkpt>
      <trkpt lat="45.3012" lon="6.17799">
        <ele>1742</ele>
        <time>2015-03-28T09:08:37.000Z</time>
      </trkpt>
      <trkpt lat="45.3012" lon="6.17794">
        <ele>1741.8000488281</ele>
        <time>2015-03-28T09:08:42.000Z</time>
      </trkpt>
      <trkpt lat="45.30119" lon="6.17793">
        <ele>1742.4000244141</ele>
        <time>2015-03-28T09:08:49.000Z</time>
      </trkpt>
      <trkpt lat="45.30118" lon="6.17788">
        <ele>1742.5999755859</ele>
        <time>2015-03-28T09:08:56.000Z</time>
      </trkpt>
      <trkpt lat="45.30118" lon="6.17785">
        <ele>1743</ele>
        <time>2015-03-28T09:08:58.000Z</time>
      </trkpt>
      <trkpt lat="45.30117" lon="6.17782">
        <ele>1744.1999511719</ele>
        <time>2015-03-28T09:09:02.000Z</time>
      </trkpt>
      <trkpt lat="45.30117" lon="6.17782">
        <ele>1745.1999511719</ele>
        <time>2015-03-28T09:09:09.000Z</time>
      </trkpt>
      <trkpt lat="45.30117" lon="6.17782">
        <ele>1745.1999511719</ele>
        <time>2015-03-28T09:09:13.000Z</time>
      </trkpt>
      <trkpt lat="45.30116" lon="6.1778">
        <ele>1745.1999511719</ele>
        <time>2015-03-28T09:09:27.000Z</time>
      </trkpt>
      <trkpt lat="45.30116" lon="6.17779">
        <ele>1746.1999511719</ele>
        <time>2015-03-28T09:09:32.000Z</time>
      </trkpt>
      <trkpt lat="45.30116" lon="6.17779">
        <ele>1746.4000244141</ele>
        <time>2015-03-28T09:09:38.000Z</time>
      </trkpt>
      <trkpt lat="45.30116" lon="6.17779">
        <ele>1746.4000244141</ele>
        <time>2015-03-28T09:10:00.000Z</time>
      </trkpt>
      <trkpt lat="45.30116" lon="6.17776">
        <ele>1746.4000244141</ele>
        <time>2015-03-28T09:10:05.000Z</time>
      </trkpt>
      <trkpt lat="45.30114" lon="6.17771">
        <ele>1747.4000244141</ele>
        <time>2015-03-28T09:10:10.000Z</time>
      </trkpt>
      <trkpt lat="45.30113" lon="6.17769">
        <ele>1747.8000488281</ele>
        <time>2015-03-28T09:10:12.000Z</time>
      </trkpt>
      <trkpt lat="45.30113" lon="6.17767">
        <ele>1748.4000244141</ele>
        <time>2015-03-28T09:10:15.000Z</time>
      </trkpt>
      <trkpt lat="45.30113" lon="6.17766">
        <ele>1749.1999511719</ele>
        <time>2015-03-28T09:10:18.000Z</time>
      </trkpt>
      <trkpt lat="45.30112" lon="6.17764">
        <ele>1749.5999755859</ele>
        <time>2015-03-28T09:10:20.000Z</time>
      </trkpt>
      <trkpt lat="45.30113" lon="6.1776">
        <ele>1750.5999755859</ele>
        <time>2015-03-28T09:10:25.000Z</time>
      </trkpt>
      <trkpt lat="45.30113" lon="6.17756">
        <ele>1751.5999755859</ele>
        <time>2015-03-28T09:10:32.000Z</time>
      </trkpt>
      <trkpt lat="45.30113" lon="6.17752">
        <ele>1751.8000488281</ele>
        <time>2015-03-28T09:10:36.000Z</time>
      </trkpt>
      <trkpt lat="45.30113" lon="6.17751">
        <ele>1752</ele>
        <time>2015-03-28T09:10:37.000Z</time>
      </trkpt>
      <trkpt lat="45.30113" lon="6.17746">
        <ele>1753</ele>
        <time>2015-03-28T09:10:43.000Z</time>
      </trkpt>
      <trkpt lat="45.30111" lon="6.17741">
        <ele>1754.1999511719</ele>
        <time>2015-03-28T09:10:48.000Z</time>
      </trkpt>
      <trkpt lat="45.30111" lon="6.1774">
        <ele>1755.4000244141</ele>
        <time>2015-03-28T09:10:53.000Z</time>
      </trkpt>
      <trkpt lat="45.30111" lon="6.1774">
        <ele>1755.4000244141</ele>
        <time>2015-03-28T09:10:54.000Z</time>
      </trkpt>
      <trkpt lat="45.30111" lon="6.1774">
        <ele>1755.5999755859</ele>
        <time>2015-03-28T09:11:01.000Z</time>
      </trkpt>
      <trkpt lat="45.30111" lon="6.1774">
        <ele>1755.5999755859</ele>
        <time>2015-03-28T09:11:20.000Z</time>
      </trkpt>
      <trkpt lat="45.30111" lon="6.1774">
        <ele>1755.8000488281</ele>
        <time>2015-03-28T09:11:37.000Z</time>
      </trkpt>
      <trkpt lat="45.30112" lon="6.17737">
        <ele>1755.8000488281</ele>
        <time>2015-03-28T09:11:48.000Z</time>
      </trkpt>
      <trkpt lat="45.30111" lon="6.17732">
        <ele>1756.4000244141</ele>
        <time>2015-03-28T09:11:53.000Z</time>
      </trkpt>
      <trkpt lat="45.30111" lon="6.17729">
        <ele>1757.5999755859</ele>
        <time>2015-03-28T09:11:58.000Z</time>
      </trkpt>
      <trkpt lat="45.30111" lon="6.17728">
        <ele>1757.5999755859</ele>
        <time>2015-03-28T09:11:59.000Z</time>
      </trkpt>
      <trkpt lat="45.30109" lon="6.17724">
        <ele>1758.5999755859</ele>
        <time>2015-03-28T09:12:05.000Z</time>
      </trkpt>
      <trkpt lat="45.30108" lon="6.17721">
        <ele>1759.5999755859</ele>
        <time>2015-03-28T09:12:10.000Z</time>
      </trkpt>
      <trkpt lat="45.30107" lon="6.17719">
        <ele>1759.8000488281</ele>
        <time>2015-03-28T09:12:11.000Z</time>
      </trkpt>
      <trkpt lat="45.30106" lon="6.17717">
        <ele>1760.5999755859</ele>
        <time>2015-03-28T09:12:16.000Z</time>
      </trkpt>
      <trkpt lat="45.30106" lon="6.17717">
        <ele>1760.8000488281</ele>
        <time>2015-03-28T09:12:17.000Z</time>
      </trkpt>
      <trkpt lat="45.30105" lon="6.17715">
        <ele>1762</ele>
        <time>2015-03-28T09:12:21.000Z</time>
      </trkpt>
      <trkpt lat="45.30105" lon="6.17713">
        <ele>1762.1999511719</ele>
        <time>2015-03-28T09:12:24.000Z</time>
      </trkpt>
      <trkpt lat="45.30102" lon="6.1771">
        <ele>1763.1999511719</ele>
        <time>2015-03-28T09:12:30.000Z</time>
      </trkpt>
      <trkpt lat="45.30101" lon="6.17709">
        <ele>1764.1999511719</ele>
        <time>2015-03-28T09:12:34.000Z</time>
      </trkpt>
      <trkpt lat="45.30101" lon="6.17708">
        <ele>1764.4000244141</ele>
        <time>2015-03-28T09:12:35.000Z</time>
      </trkpt>
      <trkpt lat="45.301" lon="6.17706">
        <ele>1765.5999755859</ele>
        <time>2015-03-28T09:12:39.000Z</time>
      </trkpt>
      <trkpt lat="45.301" lon="6.17705">
        <ele>1766</ele>
        <time>2015-03-28T09:12:41.000Z</time>
      </trkpt>
      <trkpt lat="45.30099" lon="6.17703">
        <ele>1766.4000244141</ele>
        <time>2015-03-28T09:12:45.000Z</time>
      </trkpt>
      <trkpt lat="45.30098" lon="6.17702">
        <ele>1766.8000488281</ele>
        <time>2015-03-28T09:12:46.000Z</time>
      </trkpt>
      <trkpt lat="45.30097" lon="6.17699">
        <ele>1767.8000488281</ele>
        <time>2015-03-28T09:12:52.000Z</time>
      </trkpt>
      <trkpt lat="45.30097" lon="6.17699">
        <ele>1768</ele>
        <time>2015-03-28T09:12:53.000Z</time>
      </trkpt>
      <trkpt lat="45.30096" lon="6.17696">
        <ele>1769</ele>
        <time>2015-03-28T09:12:57.000Z</time>
      </trkpt>
      <trkpt lat="45.30096" lon="6.17696">
        <ele>1769.4000244141</ele>
        <time>2015-03-28T09:12:58.000Z</time>
      </trkpt>
      <trkpt lat="45.30095" lon="6.17693">
        <ele>1770.1999511719</ele>
        <time>2015-03-28T09:13:02.000Z</time>
      </trkpt>
      <trkpt lat="45.30094" lon="6.17691">
        <ele>1771</ele>
        <time>2015-03-28T09:13:05.000Z</time>
      </trkpt>
      <trkpt lat="45.30093" lon="6.17691">
        <ele>1771.1999511719</ele>
        <time>2015-03-28T09:13:07.000Z</time>
      </trkpt>
      <trkpt lat="45.30092" lon="6.17687">
        <ele>1772.1999511719</ele>
        <time>2015-03-28T09:13:11.000Z</time>
      </trkpt>
      <trkpt lat="45.30092" lon="6.17687">
        <ele>1772.1999511719</ele>
        <time>2015-03-28T09:13:12.000Z</time>
      </trkpt>
      <trkpt lat="45.30091" lon="6.17683">
        <ele>1773.1999511719</ele>
        <time>2015-03-28T09:13:17.000Z</time>
      </trkpt>
      <trkpt lat="45.3009" lon="6.17678">
        <ele>1774.1999511719</ele>
        <time>2015-03-28T09:13:24.000Z</time>
      </trkpt>
      <trkpt lat="45.30088" lon="6.17673">
        <ele>1775</ele>
        <time>2015-03-28T09:13:29.000Z</time>
      </trkpt>
      <trkpt lat="45.30088" lon="6.17672">
        <ele>1775.4000244141</ele>
        <time>2015-03-28T09:13:30.000Z</time>
      </trkpt>
      <trkpt lat="45.30087" lon="6.17672">
        <ele>1776.4000244141</ele>
        <time>2015-03-28T09:13:34.000Z</time>
      </trkpt>
      <trkpt lat="45.30086" lon="6.1767">
        <ele>1777.1999511719</ele>
        <time>2015-03-28T09:13:37.000Z</time>
      </trkpt>
      <trkpt lat="45.30086" lon="6.1767">
        <ele>1777.5999755859</ele>
        <time>2015-03-28T09:13:38.000Z</time>
      </trkpt>
      <trkpt lat="45.30086" lon="6.17666">
        <ele>1778.1999511719</ele>
        <time>2015-03-28T09:13:42.000Z</time>
      </trkpt>
      <trkpt lat="45.30085" lon="6.17665">
        <ele>1778.5999755859</ele>
        <time>2015-03-28T09:13:44.000Z</time>
      </trkpt>
      <trkpt lat="45.30085" lon="6.17659">
        <ele>1778.8000488281</ele>
        <time>2015-03-28T09:13:49.000Z</time>
      </trkpt>
      <trkpt lat="45.30082" lon="6.17652">
        <ele>1779.4000244141</ele>
        <time>2015-03-28T09:13:55.000Z</time>
      </trkpt>
      <trkpt lat="45.30082" lon="6.17651">
        <ele>1779.5999755859</ele>
        <time>2015-03-28T09:13:56.000Z</time>
      </trkpt>
      <trkpt lat="45.30082" lon="6.17645">
        <ele>1780.8000488281</ele>
        <time>2015-03-28T09:14:00.000Z</time>
      </trkpt>
      <trkpt lat="45.30083" lon="6.17644">
        <ele>1780.8000488281</ele>
        <time>2015-03-28T09:14:01.000Z</time>
      </trkpt>
      <trkpt lat="45.30084" lon="6.17639">
        <ele>1781.8000488281</ele>
        <time>2015-03-28T09:14:07.000Z</time>
      </trkpt>
      <trkpt lat="45.30084" lon="6.17638">
        <ele>1782.1999511719</ele>
        <time>2015-03-28T09:14:08.000Z</time>
      </trkpt>
      <trkpt lat="45.30084" lon="6.17633">
        <ele>1783</ele>
        <time>2015-03-28T09:14:14.000Z</time>
      </trkpt>
      <trkpt lat="45.30084" lon="6.17632">
        <ele>1783</ele>
        <time>2015-03-28T09:14:15.000Z</time>
      </trkpt>
      <trkpt lat="45.30084" lon="6.17627">
        <ele>1783.4000244141</ele>
        <time>2015-03-28T09:14:21.000Z</time>
      </trkpt>
      <trkpt lat="45.30084" lon="6.17627">
        <ele>1784.1999511719</ele>
        <time>2015-03-28T09:14:22.000Z</time>
      </trkpt>
      <trkpt lat="45.30082" lon="6.17623">
        <ele>1785.1999511719</ele>
        <time>2015-03-28T09:14:28.000Z</time>
      </trkpt>
      <trkpt lat="45.30078" lon="6.17619">
        <ele>1786.1999511719</ele>
        <time>2015-03-28T09:14:33.000Z</time>
      </trkpt>
      <trkpt lat="45.30077" lon="6.17618">
        <ele>1787.4000244141</ele>
        <time>2015-03-28T09:14:37.000Z</time>
      </trkpt>
      <trkpt lat="45.30077" lon="6.17617">
        <ele>1788</ele>
        <time>2015-03-28T09:14:38.000Z</time>
      </trkpt>
      <trkpt lat="45.30074" lon="6.17617">
        <ele>1788.5999755859</ele>
        <time>2015-03-28T09:14:41.000Z</time>
      </trkpt>
      <trkpt lat="45.30073" lon="6.17614">
        <ele>1789.5999755859</ele>
        <time>2015-03-28T09:14:46.000Z</time>
      </trkpt>
      <trkpt lat="45.30075" lon="6.17607">
        <ele>1790.8000488281</ele>
        <time>2015-03-28T09:14:54.000Z</time>
      </trkpt>
      <trkpt lat="45.30075" lon="6.17607">
        <ele>1791</ele>
        <time>2015-03-28T09:14:55.000Z</time>
      </trkpt>
      <trkpt lat="45.30079" lon="6.17602">
        <ele>1791.8000488281</ele>
        <time>2015-03-28T09:15:02.000Z</time>
      </trkpt>
      <trkpt lat="45.30083" lon="6.176">
        <ele>1793.1999511719</ele>
        <time>2015-03-28T09:15:06.000Z</time>
      </trkpt>
      <trkpt lat="45.30086" lon="6.17598">
        <ele>1793.8000488281</ele>
        <time>2015-03-28T09:15:09.000Z</time>
      </trkpt>
      <trkpt lat="45.30086" lon="6.17597">
        <ele>1794.4000244141</ele>
        <time>2015-03-28T09:15:10.000Z</time>
      </trkpt>
      <trkpt lat="45.30088" lon="6.17593">
        <ele>1795.1999511719</ele>
        <time>2015-03-28T09:15:16.000Z</time>
      </trkpt>
      <trkpt lat="45.30089" lon="6.17592">
        <ele>1795.5999755859</ele>
        <time>2015-03-28T09:15:18.000Z</time>
      </trkpt>
      <trkpt lat="45.30088" lon="6.1759">
        <ele>1796.4000244141</ele>
        <time>2015-03-28T09:15:25.000Z</time>
      </trkpt>
      <trkpt lat="45.30087" lon="6.1759">
        <ele>1796.5999755859</ele>
        <time>2015-03-28T09:15:36.000Z</time>
      </trkpt>
      <trkpt lat="45.30087" lon="6.1759">
        <ele>1796.5999755859</ele>
        <time>2015-03-28T09:15:38.000Z</time>
      </trkpt>
      <trkpt lat="45.30086" lon="6.17587">
        <ele>1796.4000244141</ele>
        <time>2015-03-28T09:15:47.000Z</time>
      </trkpt>
      <trkpt lat="45.30083" lon="6.17581">
        <ele>1797.1999511719</ele>
        <time>2015-03-28T09:15:54.000Z</time>
      </trkpt>
      <trkpt lat="45.30081" lon="6.17578">
        <ele>1797.5999755859</ele>
        <time>2015-03-28T09:15:58.000Z</time>
      </trkpt>
      <trkpt lat="45.30081" lon="6.17576">
        <ele>1797.8000488281</ele>
        <time>2015-03-28T09:16:00.000Z</time>
      </trkpt>
      <trkpt lat="45.3008" lon="6.17569">
        <ele>1798.5999755859</ele>
        <time>2015-03-28T09:16:07.000Z</time>
      </trkpt>
      <trkpt lat="45.3008" lon="6.17568">
        <ele>1798.8000488281</ele>
        <time>2015-03-28T09:16:08.000Z</time>
      </trkpt>
      <trkpt lat="45.30079" lon="6.17564">
        <ele>1799.8000488281</ele>
        <time>2015-03-28T09:16:13.000Z</time>
      </trkpt>
      <trkpt lat="45.30079" lon="6.17562">
        <ele>1800.8000488281</ele>
        <time>2015-03-28T09:16:16.000Z</time>
      </trkpt>
      <trkpt lat="45.30079" lon="6.1756">
        <ele>1801</ele>
        <time>2015-03-28T09:16:18.000Z</time>
      </trkpt>
      <trkpt lat="45.30081" lon="6.17557">
        <ele>1801.8000488281</ele>
        <time>2015-03-28T09:16:24.000Z</time>
      </trkpt>
      <trkpt lat="45.30081" lon="6.17557">
        <ele>1802.1999511719</ele>
        <time>2015-03-28T09:16:25.000Z</time>
      </trkpt>
      <trkpt lat="45.30081" lon="6.17556">
        <ele>1803.5999755859</ele>
        <time>2015-03-28T09:16:29.000Z</time>
      </trkpt>
      <trkpt lat="45.30081" lon="6.17554">
        <ele>1804</ele>
        <time>2015-03-28T09:16:31.000Z</time>
      </trkpt>
      <trkpt lat="45.30083" lon="6.17547">
        <ele>1804.5999755859</ele>
        <time>2015-03-28T09:16:38.000Z</time>
      </trkpt>
      <trkpt lat="45.30083" lon="6.17546">
        <ele>1804.8000488281</ele>
        <time>2015-03-28T09:16:39.000Z</time>
      </trkpt>
      <trkpt lat="45.30081" lon="6.17541">
        <ele>1805.5999755859</ele>
        <time>2015-03-28T09:16:46.000Z</time>
      </trkpt>
      <trkpt lat="45.30082" lon="6.17541">
        <ele>1805.5999755859</ele>
        <time>2015-03-28T09:16:47.000Z</time>
      </trkpt>
      <trkpt lat="45.30084" lon="6.17536">
        <ele>1806.8000488281</ele>
        <time>2015-03-28T09:16:53.000Z</time>
      </trkpt>
      <trkpt lat="45.30084" lon="6.17533">
        <ele>1808.1999511719</ele>
        <time>2015-03-28T09:16:57.000Z</time>
      </trkpt>
      <trkpt lat="45.30085" lon="6.17531">
        <ele>1808.8000488281</ele>
        <time>2015-03-28T09:17:00.000Z</time>
      </trkpt>
      <trkpt lat="45.30084" lon="6.17526">
        <ele>1809</ele>
        <time>2015-03-28T09:17:06.000Z</time>
      </trkpt>
      <trkpt lat="45.30084" lon="6.17523">
        <ele>1809.1999511719</ele>
        <time>2015-03-28T09:17:08.000Z</time>
      </trkpt>
      <trkpt lat="45.30085" lon="6.17521">
        <ele>1810.4000244141</ele>
        <time>2015-03-28T09:17:11.000Z</time>
      </trkpt>
      <trkpt lat="45.30086" lon="6.17518">
        <ele>1811.8000488281</ele>
        <time>2015-03-28T09:17:15.000Z</time>
      </trkpt>
      <trkpt lat="45.30086" lon="6.17516">
        <ele>1812</ele>
        <time>2015-03-28T09:17:17.000Z</time>
      </trkpt>
      <trkpt lat="45.30087" lon="6.17511">
        <ele>1812.8000488281</ele>
        <time>2015-03-28T09:17:21.000Z</time>
      </trkpt>
      <trkpt lat="45.30088" lon="6.17508">
        <ele>1813</ele>
        <time>2015-03-28T09:17:23.000Z</time>
      </trkpt>
      <trkpt lat="45.30088" lon="6.17505">
        <ele>1814</ele>
        <time>2015-03-28T09:17:29.000Z</time>
      </trkpt>
      <trkpt lat="45.3009" lon="6.17501">
        <ele>1815</ele>
        <time>2015-03-28T09:17:33.000Z</time>
      </trkpt>
      <trkpt lat="45.30089" lon="6.175">
        <ele>1816</ele>
        <time>2015-03-28T09:17:35.000Z</time>
      </trkpt>
      <trkpt lat="45.30088" lon="6.17499">
        <ele>1816.1999511719</ele>
        <time>2015-03-28T09:17:36.000Z</time>
      </trkpt>
      <trkpt lat="45.30085" lon="6.17499">
        <ele>1817</ele>
        <time>2015-03-28T09:17:40.000Z</time>
      </trkpt>
      <trkpt lat="45.30086" lon="6.17497">
        <ele>1817.1999511719</ele>
        <time>2015-03-28T09:17:43.000Z</time>
      </trkpt>
      <trkpt lat="45.30084" lon="6.17494">
        <ele>1818.4000244141</ele>
        <time>2015-03-28T09:17:48.000Z</time>
      </trkpt>
      <trkpt lat="45.30084" lon="6.17493">
        <ele>1819</ele>
        <time>2015-03-28T09:17:50.000Z</time>
      </trkpt>
      <trkpt lat="45.30084" lon="6.17492">
        <ele>1819.4000244141</ele>
        <time>2015-03-28T09:17:51.000Z</time>
      </trkpt>
      <trkpt lat="45.30084" lon="6.1749">
        <ele>1820</ele>
        <time>2015-03-28T09:17:57.000Z</time>
      </trkpt>
      <trkpt lat="45.30084" lon="6.1749">
        <ele>1820.4000244141</ele>
        <time>2015-03-28T09:17:58.000Z</time>
      </trkpt>
      <trkpt lat="45.30084" lon="6.17488">
        <ele>1821.5999755859</ele>
        <time>2015-03-28T09:18:02.000Z</time>
      </trkpt>
      <trkpt lat="45.30084" lon="6.17488">
        <ele>1821.8000488281</ele>
        <time>2015-03-28T09:18:03.000Z</time>
      </trkpt>
      <trkpt lat="45.30084" lon="6.17485">
        <ele>1822.8000488281</ele>
        <time>2015-03-28T09:18:09.000Z</time>
      </trkpt>
      <trkpt lat="45.30082" lon="6.17483">
        <ele>1823.1999511719</ele>
        <time>2015-03-28T09:18:13.000Z</time>
      </trkpt>
      <trkpt lat="45.30081" lon="6.1748">
        <ele>1823.8000488281</ele>
        <time>2015-03-28T09:18:17.000Z</time>
      </trkpt>
      <trkpt lat="45.30081" lon="6.17479">
        <ele>1824.4000244141</ele>
        <time>2015-03-28T09:18:18.000Z</time>
      </trkpt>
      <trkpt lat="45.30079" lon="6.17476">
        <ele>1825.1999511719</ele>
        <time>2015-03-28T09:18:20.000Z</time>
      </trkpt>
      <trkpt lat="45.30079" lon="6.17473">
        <ele>1826.5999755859</ele>
        <time>2015-03-28T09:18:23.000Z</time>
      </trkpt>
      <trkpt lat="45.30079" lon="6.17473">
        <ele>1826.8000488281</ele>
        <time>2015-03-28T09:18:24.000Z</time>
      </trkpt>
      <trkpt lat="45.30078" lon="6.17469">
        <ele>1827.5999755859</ele>
        <time>2015-03-28T09:18:31.000Z</time>
      </trkpt>
      <trkpt lat="45.30078" lon="6.17468">
        <ele>1828</ele>
        <time>2015-03-28T09:18:32.000Z</time>
      </trkpt>
      <trkpt lat="45.30078" lon="6.17468">
        <ele>1829.1999511719</ele>
        <time>2015-03-28T09:18:35.000Z</time>
      </trkpt>
      <trkpt lat="45.30078" lon="6.17466">
        <ele>1829.4000244141</ele>
        <time>2015-03-28T09:18:36.000Z</time>
      </trkpt>
      <trkpt lat="45.30077" lon="6.1746">
        <ele>1829.8000488281</ele>
        <time>2015-03-28T09:18:41.000Z</time>
      </trkpt>
      <trkpt lat="45.30076" lon="6.17457">
        <ele>1830.1999511719</ele>
        <time>2015-03-28T09:18:45.000Z</time>
      </trkpt>
      <trkpt lat="45.30077" lon="6.17457">
        <ele>1830.4000244141</ele>
        <time>2015-03-28T09:18:46.000Z</time>
      </trkpt>
      <trkpt lat="45.30077" lon="6.17456">
        <ele>1831.4000244141</ele>
        <time>2015-03-28T09:18:48.000Z</time>
      </trkpt>
      <trkpt lat="45.30076" lon="6.17455">
        <ele>1832.1999511719</ele>
        <time>2015-03-28T09:18:51.000Z</time>
      </trkpt>
      <trkpt lat="45.30076" lon="6.17455">
        <ele>1832.4000244141</ele>
        <time>2015-03-28T09:18:52.000Z</time>
      </trkpt>
      <trkpt lat="45.30074" lon="6.17452">
        <ele>1833</ele>
        <time>2015-03-28T09:18:56.000Z</time>
      </trkpt>
      <trkpt lat="45.30073" lon="6.17448">
        <ele>1833.5999755859</ele>
        <time>2015-03-28T09:19:01.000Z</time>
      </trkpt>
      <trkpt lat="45.30072" lon="6.17446">
        <ele>1834.8000488281</ele>
        <time>2015-03-28T09:19:05.000Z</time>
      </trkpt>
      <trkpt lat="45.30071" lon="6.17445">
        <ele>1835.8000488281</ele>
        <time>2015-03-28T09:19:10.000Z</time>
      </trkpt>
      <trkpt lat="45.30071" lon="6.17445">
        <ele>1835.8000488281</ele>
        <time>2015-03-28T09:19:11.000Z</time>
      </trkpt>
      <trkpt lat="45.30069" lon="6.17442">
        <ele>1837</ele>
        <time>2015-03-28T09:19:15.000Z</time>
      </trkpt>
      <trkpt lat="45.30069" lon="6.1744">
        <ele>1838.1999511719</ele>
        <time>2015-03-28T09:19:19.000Z</time>
      </trkpt>
      <trkpt lat="45.30069" lon="6.1744">
        <ele>1838.5999755859</ele>
        <time>2015-03-28T09:19:21.000Z</time>
      </trkpt>
      <trkpt lat="45.30069" lon="6.1744">
        <ele>1839</ele>
        <time>2015-03-28T09:19:23.000Z</time>
      </trkpt>
      <trkpt lat="45.30069" lon="6.1744">
        <ele>1839</ele>
        <time>2015-03-28T09:19:32.000Z</time>
      </trkpt>
      <trkpt lat="45.30069" lon="6.17438">
        <ele>1839</ele>
        <time>2015-03-28T09:19:40.000Z</time>
      </trkpt>
      <trkpt lat="45.30068" lon="6.17437">
        <ele>1839.1999511719</ele>
        <time>2015-03-28T09:19:42.000Z</time>
      </trkpt>
      <trkpt lat="45.30067" lon="6.17435">
        <ele>1839.8000488281</ele>
        <time>2015-03-28T09:19:45.000Z</time>
      </trkpt>
      <trkpt lat="45.30065" lon="6.17435">
        <ele>1840.4000244141</ele>
        <time>2015-03-28T09:19:50.000Z</time>
      </trkpt>
      <trkpt lat="45.30065" lon="6.17434">
        <ele>1841.1999511719</ele>
        <time>2015-03-28T09:19:52.000Z</time>
      </trkpt>
      <trkpt lat="45.30065" lon="6.17434">
        <ele>1841.5999755859</ele>
        <time>2015-03-28T09:19:53.000Z</time>
      </trkpt>
      <trkpt lat="45.30063" lon="6.17429">
        <ele>1842.1999511719</ele>
        <time>2015-03-28T09:19:57.000Z</time>
      </trkpt>
      <trkpt lat="45.30062" lon="6.17428">
        <ele>1842.8000488281</ele>
        <time>2015-03-28T09:20:01.000Z</time>
      </trkpt>
      <trkpt lat="45.3006" lon="6.17428">
        <ele>1844</ele>
        <time>2015-03-28T09:20:04.000Z</time>
      </trkpt>
      <trkpt lat="45.3006" lon="6.17426">
        <ele>1845</ele>
        <time>2015-03-28T09:20:06.000Z</time>
      </trkpt>
      <trkpt lat="45.3006" lon="6.17426">
        <ele>1845.1999511719</ele>
        <time>2015-03-28T09:20:07.000Z</time>
      </trkpt>
      <trkpt lat="45.3006" lon="6.17423">
        <ele>1845.5999755859</ele>
        <time>2015-03-28T09:20:11.000Z</time>
      </trkpt>
      <trkpt lat="45.30058" lon="6.1742">
        <ele>1846.1999511719</ele>
        <time>2015-03-28T09:20:16.000Z</time>
      </trkpt>
      <trkpt lat="45.30058" lon="6.17419">
        <ele>1846.4000244141</ele>
        <time>2015-03-28T09:20:17.000Z</time>
      </trkpt>
      <trkpt lat="45.30058" lon="6.17417">
        <ele>1847.4000244141</ele>
        <time>2015-03-28T09:20:20.000Z</time>
      </trkpt>
      <trkpt lat="45.30057" lon="6.17414">
        <ele>1848.5999755859</ele>
        <time>2015-03-28T09:20:23.000Z</time>
      </trkpt>
      <trkpt lat="45.30052" lon="6.17411">
        <ele>1849</ele>
        <time>2015-03-28T09:20:30.000Z</time>
      </trkpt>
      <trkpt lat="45.3005" lon="6.17412">
        <ele>1850</ele>
        <time>2015-03-28T09:20:35.000Z</time>
      </trkpt>
      <trkpt lat="45.3005" lon="6.17412">
        <ele>1851.1999511719</ele>
        <time>2015-03-28T09:20:38.000Z</time>
      </trkpt>
      <trkpt lat="45.3005" lon="6.17412">
        <ele>1852.1999511719</ele>
        <time>2015-03-28T09:20:43.000Z</time>
      </trkpt>
      <trkpt lat="45.30048" lon="6.1741">
        <ele>1852.4000244141</ele>
        <time>2015-03-28T09:20:47.000Z</time>
      </trkpt>
      <trkpt lat="45.30045" lon="6.17404">
        <ele>1853.1999511719</ele>
        <time>2015-03-28T09:20:55.000Z</time>
      </trkpt>
      <trkpt lat="45.30045" lon="6.17404">
        <ele>1853.4000244141</ele>
        <time>2015-03-28T09:20:56.000Z</time>
      </trkpt>
      <trkpt lat="45.30044" lon="6.17403">
        <ele>1854.1999511719</ele>
        <time>2015-03-28T09:20:59.000Z</time>
      </trkpt>
      <trkpt lat="45.30043" lon="6.17402">
        <ele>1855.1999511719</ele>
        <time>2015-03-28T09:21:02.000Z</time>
      </trkpt>
      <trkpt lat="45.30042" lon="6.17401">
        <ele>1855.4000244141</ele>
        <time>2015-03-28T09:21:06.000Z</time>
      </trkpt>
      <trkpt lat="45.30042" lon="6.174">
        <ele>1855.5999755859</ele>
        <time>2015-03-28T09:21:07.000Z</time>
      </trkpt>
      <trkpt lat="45.3004" lon="6.174">
        <ele>1856.4000244141</ele>
        <time>2015-03-28T09:21:10.000Z</time>
      </trkpt>
      <trkpt lat="45.30039" lon="6.17399">
        <ele>1857.4000244141</ele>
        <time>2015-03-28T09:21:12.000Z</time>
      </trkpt>
      <trkpt lat="45.30039" lon="6.17398">
        <ele>1857.8000488281</ele>
        <time>2015-03-28T09:21:13.000Z</time>
      </trkpt>
      <trkpt lat="45.30039" lon="6.17394">
        <ele>1858.4000244141</ele>
        <time>2015-03-28T09:21:17.000Z</time>
      </trkpt>
      <trkpt lat="45.30038" lon="6.17392">
        <ele>1858.8000488281</ele>
        <time>2015-03-28T09:21:21.000Z</time>
      </trkpt>
      <trkpt lat="45.30038" lon="6.17391">
        <ele>1859.1999511719</ele>
        <time>2015-03-28T09:21:23.000Z</time>
      </trkpt>
      <trkpt lat="45.30036" lon="6.17388">
        <ele>1860</ele>
        <time>2015-03-28T09:21:27.000Z</time>
      </trkpt>
      <trkpt lat="45.30035" lon="6.17387">
        <ele>1860.1999511719</ele>
        <time>2015-03-28T09:21:29.000Z</time>
      </trkpt>
      <trkpt lat="45.30034" lon="6.17383">
        <ele>1861.4000244141</ele>
        <time>2015-03-28T09:21:35.000Z</time>
      </trkpt>
      <trkpt lat="45.30034" lon="6.17382">
        <ele>1861.5999755859</ele>
        <time>2015-03-28T09:21:36.000Z</time>
      </trkpt>
      <trkpt lat="45.3003" lon="6.1738">
        <ele>1862.4000244141</ele>
        <time>2015-03-28T09:21:41.000Z</time>
      </trkpt>
      <trkpt lat="45.30027" lon="6.17379">
        <ele>1863</ele>
        <time>2015-03-28T09:21:45.000Z</time>
      </trkpt>
      <trkpt lat="45.30026" lon="6.1738">
        <ele>1863.8000488281</ele>
        <time>2015-03-28T09:21:48.000Z</time>
      </trkpt>
      <trkpt lat="45.30025" lon="6.1738">
        <ele>1865</ele>
        <time>2015-03-28T09:21:51.000Z</time>
      </trkpt>
      <trkpt lat="45.30025" lon="6.17379">
        <ele>1865.5999755859</ele>
        <time>2015-03-28T09:21:53.000Z</time>
      </trkpt>
      <trkpt lat="45.30024" lon="6.17377">
        <ele>1866</ele>
        <time>2015-03-28T09:21:58.000Z</time>
      </trkpt>
      <trkpt lat="45.30024" lon="6.17373">
        <ele>1867.4000244141</ele>
        <time>2015-03-28T09:22:01.000Z</time>
      </trkpt>
      <trkpt lat="45.30024" lon="6.17371">
        <ele>1867.8000488281</ele>
        <time>2015-03-28T09:22:03.000Z</time>
      </trkpt>
      <trkpt lat="45.30023" lon="6.1737">
        <ele>1868.4000244141</ele>
        <time>2015-03-28T09:22:06.000Z</time>
      </trkpt>
      <trkpt lat="45.30023" lon="6.1737">
        <ele>1868.1999511719</ele>
        <time>2015-03-28T09:22:15.000Z</time>
      </trkpt>
      <trkpt lat="45.30024" lon="6.17369">
        <ele>1868.1999511719</ele>
        <time>2015-03-28T09:22:23.000Z</time>
      </trkpt>
      <trkpt lat="45.30023" lon="6.17367">
        <ele>1868.4000244141</ele>
        <time>2015-03-28T09:22:33.000Z</time>
      </trkpt>
      <trkpt lat="45.30022" lon="6.17361">
        <ele>1869.5999755859</ele>
        <time>2015-03-28T09:22:39.000Z</time>
      </trkpt>
      <trkpt lat="45.30022" lon="6.17361">
        <ele>1869.8000488281</ele>
        <time>2015-03-28T09:22:41.000Z</time>
      </trkpt>
      <trkpt lat="45.30017" lon="6.17357">
        <ele>1870.5999755859</ele>
        <time>2015-03-28T09:22:48.000Z</time>
      </trkpt>
      <trkpt lat="45.30019" lon="6.17354">
        <ele>1871.5999755859</ele>
        <time>2015-03-28T09:22:52.000Z</time>
      </trkpt>
      <trkpt lat="45.3002" lon="6.17354">
        <ele>1872</ele>
        <time>2015-03-28T09:22:59.000Z</time>
      </trkpt>
      <trkpt lat="45.3002" lon="6.17351">
        <ele>1872.1999511719</ele>
        <time>2015-03-28T09:23:10.000Z</time>
      </trkpt>
      <trkpt lat="45.30019" lon="6.1735">
        <ele>1872.8000488281</ele>
        <time>2015-03-28T09:23:12.000Z</time>
      </trkpt>
      <trkpt lat="45.30019" lon="6.17347">
        <ele>1874</ele>
        <time>2015-03-28T09:23:17.000Z</time>
      </trkpt>
      <trkpt lat="45.30018" lon="6.17345">
        <ele>1874.1999511719</ele>
        <time>2015-03-28T09:23:19.000Z</time>
      </trkpt>
      <trkpt lat="45.30018" lon="6.17341">
        <ele>1875</ele>
        <time>2015-03-28T09:23:24.000Z</time>
      </trkpt>
      <trkpt lat="45.30018" lon="6.17338">
        <ele>1875.5999755859</ele>
        <time>2015-03-28T09:23:27.000Z</time>
      </trkpt>
      <trkpt lat="45.30017" lon="6.17335">
        <ele>1876</ele>
        <time>2015-03-28T09:23:29.000Z</time>
      </trkpt>
      <trkpt lat="45.30018" lon="6.17332">
        <ele>1877.1999511719</ele>
        <time>2015-03-28T09:23:34.000Z</time>
      </trkpt>
      <trkpt lat="45.30018" lon="6.1733">
        <ele>1877.5999755859</ele>
        <time>2015-03-28T09:23:37.000Z</time>
      </trkpt>
      <trkpt lat="45.30022" lon="6.17323">
        <ele>1878.4000244141</ele>
        <time>2015-03-28T09:23:43.000Z</time>
      </trkpt>
      <trkpt lat="45.30024" lon="6.1732">
        <ele>1879</ele>
        <time>2015-03-28T09:23:46.000Z</time>
      </trkpt>
      <trkpt lat="45.30025" lon="6.17319">
        <ele>1879.4000244141</ele>
        <time>2015-03-28T09:23:48.000Z</time>
      </trkpt>
      <trkpt lat="45.30027" lon="6.17314">
        <ele>1880.4000244141</ele>
        <time>2015-03-28T09:23:54.000Z</time>
      </trkpt>
      <trkpt lat="45.30028" lon="6.17313">
        <ele>1880.8000488281</ele>
        <time>2015-03-28T09:23:56.000Z</time>
      </trkpt>
      <trkpt lat="45.30028" lon="6.17311">
        <ele>1881.5999755859</ele>
        <time>2015-03-28T09:23:59.000Z</time>
      </trkpt>
      <trkpt lat="45.30028" lon="6.17306">
        <ele>1882.8000488281</ele>
        <time>2015-03-28T09:24:06.000Z</time>
      </trkpt>
      <trkpt lat="45.30031" lon="6.17299">
        <ele>1883.8000488281</ele>
        <time>2015-03-28T09:24:14.000Z</time>
      </trkpt>
      <trkpt lat="45.30032" lon="6.17298">
        <ele>1884</ele>
        <time>2015-03-28T09:24:15.000Z</time>
      </trkpt>
      <trkpt lat="45.30032" lon="6.17296">
        <ele>1884.8000488281</ele>
        <time>2015-03-28T09:24:19.000Z</time>
      </trkpt>
      <trkpt lat="45.30031" lon="6.17293">
        <ele>1885.8000488281</ele>
        <time>2015-03-28T09:24:23.000Z</time>
      </trkpt>
      <trkpt lat="45.30032" lon="6.17289">
        <ele>1886.8000488281</ele>
        <time>2015-03-28T09:24:28.000Z</time>
      </trkpt>
      <trkpt lat="45.30032" lon="6.17288">
        <ele>1887</ele>
        <time>2015-03-28T09:24:29.000Z</time>
      </trkpt>
      <trkpt lat="45.30034" lon="6.1728">
        <ele>1888.1999511719</ele>
        <time>2015-03-28T09:24:37.000Z</time>
      </trkpt>
      <trkpt lat="45.30034" lon="6.17279">
        <ele>1888.4000244141</ele>
        <time>2015-03-28T09:24:38.000Z</time>
      </trkpt>
      <trkpt lat="45.30036" lon="6.17276">
        <ele>1889.1999511719</ele>
        <time>2015-03-28T09:24:42.000Z</time>
      </trkpt>
      <trkpt lat="45.30035" lon="6.17272">
        <ele>1890.1999511719</ele>
        <time>2015-03-28T09:24:47.000Z</time>
      </trkpt>
      <trkpt lat="45.30036" lon="6.17271">
        <ele>1890.4000244141</ele>
        <time>2015-03-28T09:24:48.000Z</time>
      </trkpt>
      <trkpt lat="45.30038" lon="6.17268">
        <ele>1891.4000244141</ele>
        <time>2015-03-28T09:24:54.000Z</time>
      </trkpt>
      <trkpt lat="45.30039" lon="6.17266">
        <ele>1892</ele>
        <time>2015-03-28T09:24:58.000Z</time>
      </trkpt>
      <trkpt lat="45.30039" lon="6.17265">
        <ele>1892.4000244141</ele>
        <time>2015-03-28T09:25:00.000Z</time>
      </trkpt>
      <trkpt lat="45.30039" lon="6.17262">
        <ele>1893</ele>
        <time>2015-03-28T09:25:07.000Z</time>
      </trkpt>
      <trkpt lat="45.30039" lon="6.17258">
        <ele>1893.5999755859</ele>
        <time>2015-03-28T09:25:11.000Z</time>
      </trkpt>
      <trkpt lat="45.30038" lon="6.17256">
        <ele>1894.1999511719</ele>
        <time>2015-03-28T09:25:14.000Z</time>
      </trkpt>
      <trkpt lat="45.30037" lon="6.17254">
        <ele>1894.8000488281</ele>
        <time>2015-03-28T09:25:18.000Z</time>
      </trkpt>
      <trkpt lat="45.30037" lon="6.17252">
        <ele>1895.4000244141</ele>
        <time>2015-03-28T09:25:21.000Z</time>
      </trkpt>
      <trkpt lat="45.30037" lon="6.17249">
        <ele>1896</ele>
        <time>2015-03-28T09:25:23.000Z</time>
      </trkpt>
      <trkpt lat="45.30036" lon="6.17244">
        <ele>1897</ele>
        <time>2015-03-28T09:25:29.000Z</time>
      </trkpt>
      <trkpt lat="45.30042" lon="6.17236">
        <ele>1898.1999511719</ele>
        <time>2015-03-28T09:25:36.000Z</time>
      </trkpt>
      <trkpt lat="45.30042" lon="6.17236">
        <ele>1898.4000244141</ele>
        <time>2015-03-28T09:25:37.000Z</time>
      </trkpt>
      <trkpt lat="45.30043" lon="6.17231">
        <ele>1899.4000244141</ele>
        <time>2015-03-28T09:25:44.000Z</time>
      </trkpt>
      <trkpt lat="45.30044" lon="6.1723">
        <ele>1899.4000244141</ele>
        <time>2015-03-28T09:25:45.000Z</time>
      </trkpt>
      <trkpt lat="45.30048" lon="6.17226">
        <ele>1900.4000244141</ele>
        <time>2015-03-28T09:25:50.000Z</time>
      </trkpt>
      <trkpt lat="45.3005" lon="6.17222">
        <ele>1901.4000244141</ele>
        <time>2015-03-28T09:25:54.000Z</time>
      </trkpt>
      <trkpt lat="45.30051" lon="6.17221">
        <ele>1901.5999755859</ele>
        <time>2015-03-28T09:25:55.000Z</time>
      </trkpt>
      <trkpt lat="45.30051" lon="6.17217">
        <ele>1902.8000488281</ele>
        <time>2015-03-28T09:26:01.000Z</time>
      </trkpt>
      <trkpt lat="45.3005" lon="6.17216">
        <ele>1903.1999511719</ele>
        <time>2015-03-28T09:26:03.000Z</time>
      </trkpt>
      <trkpt lat="45.3005" lon="6.17214">
        <ele>1904</ele>
        <time>2015-03-28T09:26:06.000Z</time>
      </trkpt>
      <trkpt lat="45.30049" lon="6.17211">
        <ele>1904.8000488281</ele>
        <time>2015-03-28T09:26:10.000Z</time>
      </trkpt>
      <trkpt lat="45.30049" lon="6.17209">
        <ele>1905</ele>
        <time>2015-03-28T09:26:13.000Z</time>
      </trkpt>
      <trkpt lat="45.30049" lon="6.17206">
        <ele>1905.5999755859</ele>
        <time>2015-03-28T09:26:17.000Z</time>
      </trkpt>
      <trkpt lat="45.30048" lon="6.17204">
        <ele>1906.1999511719</ele>
        <time>2015-03-28T09:26:19.000Z</time>
      </trkpt>
      <trkpt lat="45.30049" lon="6.17199">
        <ele>1907.1999511719</ele>
        <time>2015-03-28T09:26:24.000Z</time>
      </trkpt>
      <trkpt lat="45.3005" lon="6.17198">
        <ele>1907.4000244141</ele>
        <time>2015-03-28T09:26:26.000Z</time>
      </trkpt>
      <trkpt lat="45.3005" lon="6.17195">
        <ele>1908.4000244141</ele>
        <time>2015-03-28T09:26:32.000Z</time>
      </trkpt>
      <trkpt lat="45.30049" lon="6.1719">
        <ele>1909.4000244141</ele>
        <time>2015-03-28T09:26:36.000Z</time>
      </trkpt>
      <trkpt lat="45.30048" lon="6.17185">
        <ele>1910.5999755859</ele>
        <time>2015-03-28T09:26:44.000Z</time>
      </trkpt>
      <trkpt lat="45.30049" lon="6.17183">
        <ele>1912</ele>
        <time>2015-03-28T09:26:48.000Z</time>
      </trkpt>
      <trkpt lat="45.30049" lon="6.17181">
        <ele>1912.5999755859</ele>
        <time>2015-03-28T09:26:53.000Z</time>
      </trkpt>
      <trkpt lat="45.30048" lon="6.17179">
        <ele>1913</ele>
        <time>2015-03-28T09:26:55.000Z</time>
      </trkpt>
      <trkpt lat="45.30049" lon="6.17176">
        <ele>1914.4000244141</ele>
        <time>2015-03-28T09:26:59.000Z</time>
      </trkpt>
      <trkpt lat="45.30047" lon="6.17174">
        <ele>1915.4000244141</ele>
        <time>2015-03-28T09:27:06.000Z</time>
      </trkpt>
      <trkpt lat="45.30045" lon="6.17172">
        <ele>1916.1999511719</ele>
        <time>2015-03-28T09:27:09.000Z</time>
      </trkpt>
      <trkpt lat="45.30045" lon="6.17172">
        <ele>1916.4000244141</ele>
        <time>2015-03-28T09:27:10.000Z</time>
      </trkpt>
      <trkpt lat="45.30042" lon="6.1717">
        <ele>1917.4000244141</ele>
        <time>2015-03-28T09:27:16.000Z</time>
      </trkpt>
      <trkpt lat="45.30042" lon="6.1717">
        <ele>1917.5999755859</ele>
        <time>2015-03-28T09:27:17.000Z</time>
      </trkpt>
      <trkpt lat="45.3004" lon="6.17169">
        <ele>1918.8000488281</ele>
        <time>2015-03-28T09:27:21.000Z</time>
      </trkpt>
      <trkpt lat="45.30039" lon="6.17168">
        <ele>1918.8000488281</ele>
        <time>2015-03-28T09:27:23.000Z</time>
      </trkpt>
      <trkpt lat="45.30037" lon="6.17164">
        <ele>1920</ele>
        <time>2015-03-28T09:27:28.000Z</time>
      </trkpt>
      <trkpt lat="45.30037" lon="6.17162">
        <ele>1920.4000244141</ele>
        <time>2015-03-28T09:27:30.000Z</time>
      </trkpt>
      <trkpt lat="45.30038" lon="6.17158">
        <ele>1921</ele>
        <time>2015-03-28T09:27:34.000Z</time>
      </trkpt>
      <trkpt lat="45.3004" lon="6.17155">
        <ele>1921.5999755859</ele>
        <time>2015-03-28T09:27:37.000Z</time>
      </trkpt>
      <trkpt lat="45.30041" lon="6.17152">
        <ele>1922</ele>
        <time>2015-03-28T09:27:40.000Z</time>
      </trkpt>
      <trkpt lat="45.30043" lon="6.1715">
        <ele>1922.8000488281</ele>
        <time>2015-03-28T09:27:43.000Z</time>
      </trkpt>
      <trkpt lat="45.30044" lon="6.17148">
        <ele>1923.1999511719</ele>
        <time>2015-03-28T09:27:45.000Z</time>
      </trkpt>
      <trkpt lat="45.30045" lon="6.17144">
        <ele>1924</ele>
        <time>2015-03-28T09:27:49.000Z</time>
      </trkpt>
      <trkpt lat="45.30045" lon="6.17143">
        <ele>1924.1999511719</ele>
        <time>2015-03-28T09:27:50.000Z</time>
      </trkpt>
      <trkpt lat="45.30044" lon="6.17138">
        <ele>1925.4000244141</ele>
        <time>2015-03-28T09:27:56.000Z</time>
      </trkpt>
      <trkpt lat="45.30044" lon="6.17137">
        <ele>1925.8000488281</ele>
        <time>2015-03-28T09:27:57.000Z</time>
      </trkpt>
      <trkpt lat="45.30043" lon="6.17135">
        <ele>1926.5999755859</ele>
        <time>2015-03-28T09:27:59.000Z</time>
      </trkpt>
      <trkpt lat="45.30043" lon="6.17133">
        <ele>1927.5999755859</ele>
        <time>2015-03-28T09:28:02.000Z</time>
      </trkpt>
      <trkpt lat="45.30043" lon="6.1713">
        <ele>1928.1999511719</ele>
        <time>2015-03-28T09:28:06.000Z</time>
      </trkpt>
      <trkpt lat="45.30045" lon="6.17126">
        <ele>1928.5999755859</ele>
        <time>2015-03-28T09:28:10.000Z</time>
      </trkpt>
      <trkpt lat="45.30045" lon="6.17123">
        <ele>1929.8000488281</ele>
        <time>2015-03-28T09:28:15.000Z</time>
      </trkpt>
      <trkpt lat="45.30045" lon="6.17122">
        <ele>1930.4000244141</ele>
        <time>2015-03-28T09:28:17.000Z</time>
      </trkpt>
      <trkpt lat="45.30046" lon="6.17122">
        <ele>1930.8000488281</ele>
        <time>2015-03-28T09:28:19.000Z</time>
      </trkpt>
      <trkpt lat="45.30047" lon="6.17119">
        <ele>1932</ele>
        <time>2015-03-28T09:28:24.000Z</time>
      </trkpt>
      <trkpt lat="45.30046" lon="6.17119">
        <ele>1932.1999511719</ele>
        <time>2015-03-28T09:28:25.000Z</time>
      </trkpt>
      <trkpt lat="45.30045" lon="6.17116">
        <ele>1933.1999511719</ele>
        <time>2015-03-28T09:28:31.000Z</time>
      </trkpt>
      <trkpt lat="45.30045" lon="6.17115">
        <ele>1933.4000244141</ele>
        <time>2015-03-28T09:28:32.000Z</time>
      </trkpt>
      <trkpt lat="45.30045" lon="6.17115">
        <ele>1934.1999511719</ele>
        <time>2015-03-28T09:28:35.000Z</time>
      </trkpt>
      <trkpt lat="45.30044" lon="6.17114">
        <ele>1934.8000488281</ele>
        <time>2015-03-28T09:28:37.000Z</time>
      </trkpt>
      <trkpt lat="45.30045" lon="6.17111">
        <ele>1935.1999511719</ele>
        <time>2015-03-28T09:28:39.000Z</time>
      </trkpt>
      <trkpt lat="45.30046" lon="6.17107">
        <ele>1936.4000244141</ele>
        <time>2015-03-28T09:28:44.000Z</time>
      </trkpt>
      <trkpt lat="45.30047" lon="6.17106">
        <ele>1936.5999755859</ele>
        <time>2015-03-28T09:28:46.000Z</time>
      </trkpt>
      <trkpt lat="45.30047" lon="6.17103">
        <ele>1937.4000244141</ele>
        <time>2015-03-28T09:28:50.000Z</time>
      </trkpt>
      <trkpt lat="45.30048" lon="6.171">
        <ele>1938</ele>
        <time>2015-03-28T09:28:54.000Z</time>
      </trkpt>
      <trkpt lat="45.30049" lon="6.17099">
        <ele>1938.5999755859</ele>
        <time>2015-03-28T09:28:57.000Z</time>
      </trkpt>
      <trkpt lat="45.3005" lon="6.17095">
        <ele>1939.5999755859</ele>
        <time>2015-03-28T09:29:02.000Z</time>
      </trkpt>
      <trkpt lat="45.30051" lon="6.17092">
        <ele>1940.8000488281</ele>
        <time>2015-03-28T09:29:06.000Z</time>
      </trkpt>
      <trkpt lat="45.30051" lon="6.1709">
        <ele>1941.8000488281</ele>
        <time>2015-03-28T09:29:10.000Z</time>
      </trkpt>
      <trkpt lat="45.30052" lon="6.17089">
        <ele>1942</ele>
        <time>2015-03-28T09:29:11.000Z</time>
      </trkpt>
      <trkpt lat="45.30053" lon="6.17086">
        <ele>1942.8000488281</ele>
        <time>2015-03-28T09:29:15.000Z</time>
      </trkpt>
      <trkpt lat="45.30057" lon="6.17083">
        <ele>1944</ele>
        <time>2015-03-28T09:29:21.000Z</time>
      </trkpt>
      <trkpt lat="45.30057" lon="6.17082">
        <ele>1944.1999511719</ele>
        <time>2015-03-28T09:29:22.000Z</time>
      </trkpt>
      <trkpt lat="45.30057" lon="6.17079">
        <ele>1945</ele>
        <time>2015-03-28T09:29:27.000Z</time>
      </trkpt>
      <trkpt lat="45.30055" lon="6.17079">
        <ele>1945.8000488281</ele>
        <time>2015-03-28T09:29:31.000Z</time>
      </trkpt>
      <trkpt lat="45.30055" lon="6.17079">
        <ele>1946.1999511719</ele>
        <time>2015-03-28T09:29:33.000Z</time>
      </trkpt>
      <trkpt lat="45.30056" lon="6.17078">
        <ele>1947.1999511719</ele>
        <time>2015-03-28T09:29:38.000Z</time>
      </trkpt>
      <trkpt lat="45.30059" lon="6.17075">
        <ele>1947.8000488281</ele>
        <time>2015-03-28T09:29:41.000Z</time>
      </trkpt>
      <trkpt lat="45.30059" lon="6.17075">
        <ele>1948.4000244141</ele>
        <time>2015-03-28T09:29:43.000Z</time>
      </trkpt>
      <trkpt lat="45.30061" lon="6.17073">
        <ele>1949.5999755859</ele>
        <time>2015-03-28T09:29:50.000Z</time>
      </trkpt>
      <trkpt lat="45.30063" lon="6.1707">
        <ele>1950</ele>
        <time>2015-03-28T09:29:53.000Z</time>
      </trkpt>
      <trkpt lat="45.30065" lon="6.17068">
        <ele>1950.5999755859</ele>
        <time>2015-03-28T09:29:56.000Z</time>
      </trkpt>
      <trkpt lat="45.30067" lon="6.17065">
        <ele>1951.8000488281</ele>
        <time>2015-03-28T09:30:00.000Z</time>
      </trkpt>
      <trkpt lat="45.30071" lon="6.17061">
        <ele>1952.8000488281</ele>
        <time>2015-03-28T09:30:05.000Z</time>
      </trkpt>
      <trkpt lat="45.30072" lon="6.17058">
        <ele>1954</ele>
        <time>2015-03-28T09:30:10.000Z</time>
      </trkpt>
      <trkpt lat="45.30075" lon="6.17056">
        <ele>1955</ele>
        <time>2015-03-28T09:30:17.000Z</time>
      </trkpt>
      <trkpt lat="45.30075" lon="6.17056">
        <ele>1955.1999511719</ele>
        <time>2015-03-28T09:30:18.000Z</time>
      </trkpt>
      <trkpt lat="45.30076" lon="6.17055">
        <ele>1956.4000244141</ele>
        <time>2015-03-28T09:30:24.000Z</time>
      </trkpt>
      <trkpt lat="45.30076" lon="6.17054">
        <ele>1957</ele>
        <time>2015-03-28T09:30:28.000Z</time>
      </trkpt>
      <trkpt lat="45.30076" lon="6.17054">
        <ele>1957.5999755859</ele>
        <time>2015-03-28T09:30:30.000Z</time>
      </trkpt>
      <trkpt lat="45.30079" lon="6.17052">
        <ele>1958.5999755859</ele>
        <time>2015-03-28T09:30:35.000Z</time>
      </trkpt>
      <trkpt lat="45.30083" lon="6.1705">
        <ele>1959.1999511719</ele>
        <time>2015-03-28T09:30:37.000Z</time>
      </trkpt>
      <trkpt lat="45.30086" lon="6.17049">
        <ele>1959.8000488281</ele>
        <time>2015-03-28T09:30:39.000Z</time>
      </trkpt>
      <trkpt lat="45.30091" lon="6.17045">
        <ele>1960.8000488281</ele>
        <time>2015-03-28T09:30:44.000Z</time>
      </trkpt>
      <trkpt lat="45.30091" lon="6.17045">
        <ele>1961.4000244141</ele>
        <time>2015-03-28T09:30:47.000Z</time>
      </trkpt>
      <trkpt lat="45.30089" lon="6.17042">
        <ele>1962</ele>
        <time>2015-03-28T09:30:52.000Z</time>
      </trkpt>
      <trkpt lat="45.30089" lon="6.17042">
        <ele>1962.4000244141</ele>
        <time>2015-03-28T09:30:54.000Z</time>
      </trkpt>
      <trkpt lat="45.30088" lon="6.17042">
        <ele>1963.1999511719</ele>
        <time>2015-03-28T09:30:58.000Z</time>
      </trkpt>
      <trkpt lat="45.30087" lon="6.17041">
        <ele>1963.5999755859</ele>
        <time>2015-03-28T09:31:02.000Z</time>
      </trkpt>
      <trkpt lat="45.30087" lon="6.17041">
        <ele>1963.4000244141</ele>
        <time>2015-03-28T09:31:15.000Z</time>
      </trkpt>
      <trkpt lat="45.30087" lon="6.17041">
        <ele>1963.1999511719</ele>
        <time>2015-03-28T09:31:20.000Z</time>
      </trkpt>
      <trkpt lat="45.30087" lon="6.17041">
        <ele>1963.1999511719</ele>
        <time>2015-03-28T09:31:23.000Z</time>
      </trkpt>
      <trkpt lat="45.30087" lon="6.17041">
        <ele>1963</ele>
        <time>2015-03-28T09:31:40.000Z</time>
      </trkpt>
      <trkpt lat="45.30085" lon="6.17038">
        <ele>1963.4000244141</ele>
        <time>2015-03-28T09:31:46.000Z</time>
      </trkpt>
      <trkpt lat="45.30084" lon="6.17035">
        <ele>1964.1999511719</ele>
        <time>2015-03-28T09:31:50.000Z</time>
      </trkpt>
      <trkpt lat="45.30085" lon="6.17035">
        <ele>1964.8000488281</ele>
        <time>2015-03-28T09:31:53.000Z</time>
      </trkpt>
      <trkpt lat="45.30083" lon="6.17033">
        <ele>1965.1999511719</ele>
        <time>2015-03-28T09:31:56.000Z</time>
      </trkpt>
      <trkpt lat="45.30084" lon="6.17033">
        <ele>1966.1999511719</ele>
        <time>2015-03-28T09:32:01.000Z</time>
      </trkpt>
      <trkpt lat="45.30082" lon="6.17031">
        <ele>1966.4000244141</ele>
        <time>2015-03-28T09:32:09.000Z</time>
      </trkpt>
      <trkpt lat="45.30075" lon="6.17027">
        <ele>1967.4000244141</ele>
        <time>2015-03-28T09:32:14.000Z</time>
      </trkpt>
      <trkpt lat="45.30075" lon="6.17023">
        <ele>1968.4000244141</ele>
        <time>2015-03-28T09:32:19.000Z</time>
      </trkpt>
      <trkpt lat="45.30075" lon="6.17022">
        <ele>1968.5999755859</ele>
        <time>2015-03-28T09:32:20.000Z</time>
      </trkpt>
      <trkpt lat="45.30073" lon="6.17021">
        <ele>1969.4000244141</ele>
        <time>2015-03-28T09:32:24.000Z</time>
      </trkpt>
      <trkpt lat="45.30072" lon="6.17018">
        <ele>1970.1999511719</ele>
        <time>2015-03-28T09:32:27.000Z</time>
      </trkpt>
      <trkpt lat="45.30071" lon="6.17017">
        <ele>1970.5999755859</ele>
        <time>2015-03-28T09:32:29.000Z</time>
      </trkpt>
      <trkpt lat="45.30068" lon="6.17013">
        <ele>1971.5999755859</ele>
        <time>2015-03-28T09:32:34.000Z</time>
      </trkpt>
      <trkpt lat="45.30064" lon="6.17008">
        <ele>1972.8000488281</ele>
        <time>2015-03-28T09:32:40.000Z</time>
      </trkpt>
      <trkpt lat="45.30061" lon="6.17005">
        <ele>1973.8000488281</ele>
        <time>2015-03-28T09:32:46.000Z</time>
      </trkpt>
      <trkpt lat="45.3006" lon="6.17005">
        <ele>1973.8000488281</ele>
        <time>2015-03-28T09:32:47.000Z</time>
      </trkpt>
      <trkpt lat="45.30059" lon="6.17004">
        <ele>1974.4000244141</ele>
        <time>2015-03-28T09:32:51.000Z</time>
      </trkpt>
      <trkpt lat="45.30058" lon="6.17003">
        <ele>1974.8000488281</ele>
        <time>2015-03-28T09:32:53.000Z</time>
      </trkpt>
      <trkpt lat="45.30059" lon="6.17002">
        <ele>1975.8000488281</ele>
        <time>2015-03-28T09:32:58.000Z</time>
      </trkpt>
      <trkpt lat="45.30055" lon="6.16998">
        <ele>1977</ele>
        <time>2015-03-28T09:33:04.000Z</time>
      </trkpt>
      <trkpt lat="45.30054" lon="6.16996">
        <ele>1977.5999755859</ele>
        <time>2015-03-28T09:33:07.000Z</time>
      </trkpt>
      <trkpt lat="45.30052" lon="6.16994">
        <ele>1978.1999511719</ele>
        <time>2015-03-28T09:33:10.000Z</time>
      </trkpt>
      <trkpt lat="45.3005" lon="6.16993">
        <ele>1978.5999755859</ele>
        <time>2015-03-28T09:33:12.000Z</time>
      </trkpt>
      <trkpt lat="45.30049" lon="6.16991">
        <ele>1979.1999511719</ele>
        <time>2015-03-28T09:33:15.000Z</time>
      </trkpt>
      <trkpt lat="45.30049" lon="6.16991">
        <ele>1979.5999755859</ele>
        <time>2015-03-28T09:33:17.000Z</time>
      </trkpt>
      <trkpt lat="45.30047" lon="6.16989">
        <ele>1980.4000244141</ele>
        <time>2015-03-28T09:33:22.000Z</time>
      </trkpt>
      <trkpt lat="45.30046" lon="6.16988">
        <ele>1980.8000488281</ele>
        <time>2015-03-28T09:33:24.000Z</time>
      </trkpt>
      <trkpt lat="45.30043" lon="6.16985">
        <ele>1981.5999755859</ele>
        <time>2015-03-28T09:33:28.000Z</time>
      </trkpt>
      <trkpt lat="45.30042" lon="6.16984">
        <ele>1982</ele>
        <time>2015-03-28T09:33:30.000Z</time>
      </trkpt>
      <trkpt lat="45.30042" lon="6.16983">
        <ele>1982.5999755859</ele>
        <time>2015-03-28T09:33:34.000Z</time>
      </trkpt>
      <trkpt lat="45.30041" lon="6.16983">
        <ele>1983</ele>
        <time>2015-03-28T09:33:36.000Z</time>
      </trkpt>
      <trkpt lat="45.30039" lon="6.16981">
        <ele>1983.8000488281</ele>
        <time>2015-03-28T09:33:40.000Z</time>
      </trkpt>
      <trkpt lat="45.30039" lon="6.1698">
        <ele>1984.1999511719</ele>
        <time>2015-03-28T09:33:43.000Z</time>
      </trkpt>
      <trkpt lat="45.30038" lon="6.16979">
        <ele>1984.8000488281</ele>
        <time>2015-03-28T09:33:47.000Z</time>
      </trkpt>
      <trkpt lat="45.30038" lon="6.16978">
        <ele>1985.1999511719</ele>
        <time>2015-03-28T09:33:49.000Z</time>
      </trkpt>
      <trkpt lat="45.30037" lon="6.16976">
        <ele>1985.8000488281</ele>
        <time>2015-03-28T09:33:52.000Z</time>
      </trkpt>
      <trkpt lat="45.30036" lon="6.16975">
        <ele>1986.1999511719</ele>
        <time>2015-03-28T09:33:55.000Z</time>
      </trkpt>
      <trkpt lat="45.30035" lon="6.16972">
        <ele>1986.8000488281</ele>
        <time>2015-03-28T09:33:59.000Z</time>
      </trkpt>
      <trkpt lat="45.30034" lon="6.16969">
        <ele>1987.5999755859</ele>
        <time>2015-03-28T09:34:02.000Z</time>
      </trkpt>
      <trkpt lat="45.30033" lon="6.16969">
        <ele>1988</ele>
        <time>2015-03-28T09:34:04.000Z</time>
      </trkpt>
      <trkpt lat="45.30032" lon="6.16967">
        <ele>1988.4000244141</ele>
        <time>2015-03-28T09:34:07.000Z</time>
      </trkpt>
      <trkpt lat="45.3003" lon="6.16966">
        <ele>1989.1999511719</ele>
        <time>2015-03-28T09:34:11.000Z</time>
      </trkpt>
      <trkpt lat="45.3003" lon="6.16964">
        <ele>1989.4000244141</ele>
        <time>2015-03-28T09:34:13.000Z</time>
      </trkpt>
      <trkpt lat="45.30027" lon="6.16961">
        <ele>1990.1999511719</ele>
        <time>2015-03-28T09:34:17.000Z</time>
      </trkpt>
      <trkpt lat="45.30026" lon="6.16959">
        <ele>1990.5999755859</ele>
        <time>2015-03-28T09:34:19.000Z</time>
      </trkpt>
      <trkpt lat="45.30026" lon="6.16955">
        <ele>1991.1999511719</ele>
        <time>2015-03-28T09:34:22.000Z</time>
      </trkpt>
      <trkpt lat="45.30027" lon="6.16952">
        <ele>1992.1999511719</ele>
        <time>2015-03-28T09:34:25.000Z</time>
      </trkpt>
      <trkpt lat="45.30027" lon="6.16951">
        <ele>1992.4000244141</ele>
        <time>2015-03-28T09:34:26.000Z</time>
      </trkpt>
      <trkpt lat="45.30027" lon="6.16952">
        <ele>1992.8000488281</ele>
        <time>2015-03-28T09:34:32.000Z</time>
      </trkpt>
      <trkpt lat="45.3003" lon="6.1695">
        <ele>1993.5999755859</ele>
        <time>2015-03-28T09:34:37.000Z</time>
      </trkpt>
      <trkpt lat="45.3003" lon="6.1695">
        <ele>1993.8000488281</ele>
        <time>2015-03-28T09:34:38.000Z</time>
      </trkpt>
      <trkpt lat="45.30032" lon="6.1695">
        <ele>1994.5999755859</ele>
        <time>2015-03-28T09:34:43.000Z</time>
      </trkpt>
      <trkpt lat="45.30034" lon="6.16949">
        <ele>1995</ele>
        <time>2015-03-28T09:34:45.000Z</time>
      </trkpt>
      <trkpt lat="45.30034" lon="6.16947">
        <ele>1995.5999755859</ele>
        <time>2015-03-28T09:34:48.000Z</time>
      </trkpt>
      <trkpt lat="45.30035" lon="6.16947">
        <ele>1996.1999511719</ele>
        <time>2015-03-28T09:34:50.000Z</time>
      </trkpt>
      <trkpt lat="45.30038" lon="6.16945">
        <ele>1996.8000488281</ele>
        <time>2015-03-28T09:34:54.000Z</time>
      </trkpt>
      <trkpt lat="45.30041" lon="6.16943">
        <ele>1998</ele>
        <time>2015-03-28T09:35:00.000Z</time>
      </trkpt>
      <trkpt lat="45.30044" lon="6.16942">
        <ele>1999</ele>
        <time>2015-03-28T09:35:06.000Z</time>
      </trkpt>
      <trkpt lat="45.30045" lon="6.16941">
        <ele>1999.5999755859</ele>
        <time>2015-03-28T09:35:09.000Z</time>
      </trkpt>
      <trkpt lat="45.30047" lon="6.1694">
        <ele>2000.4000244141</ele>
        <time>2015-03-28T09:35:13.000Z</time>
      </trkpt>
      <trkpt lat="45.30049" lon="6.16939">
        <ele>2001.4000244141</ele>
        <time>2015-03-28T09:35:19.000Z</time>
      </trkpt>
      <trkpt lat="45.3005" lon="6.16939">
        <ele>2001.5999755859</ele>
        <time>2015-03-28T09:35:20.000Z</time>
      </trkpt>
      <trkpt lat="45.30052" lon="6.16938">
        <ele>2002.8000488281</ele>
        <time>2015-03-28T09:35:25.000Z</time>
      </trkpt>
      <trkpt lat="45.30055" lon="6.16937">
        <ele>2003.4000244141</ele>
        <time>2015-03-28T09:35:28.000Z</time>
      </trkpt>
      <trkpt lat="45.30056" lon="6.16936">
        <ele>2003.8000488281</ele>
        <time>2015-03-28T09:35:31.000Z</time>
      </trkpt>
      <trkpt lat="45.30056" lon="6.16936">
        <ele>2004.1999511719</ele>
        <time>2015-03-28T09:35:34.000Z</time>
      </trkpt>
      <trkpt lat="45.30054" lon="6.16934">
        <ele>2004.5999755859</ele>
        <time>2015-03-28T09:35:39.000Z</time>
      </trkpt>
      <trkpt lat="45.30053" lon="6.16932">
        <ele>2005</ele>
        <time>2015-03-28T09:35:41.000Z</time>
      </trkpt>
      <trkpt lat="45.30051" lon="6.16928">
        <ele>2006</ele>
        <time>2015-03-28T09:35:45.000Z</time>
      </trkpt>
      <trkpt lat="45.3005" lon="6.16927">
        <ele>2006.4000244141</ele>
        <time>2015-03-28T09:35:46.000Z</time>
      </trkpt>
      <trkpt lat="45.30048" lon="6.16925">
        <ele>2007</ele>
        <time>2015-03-28T09:35:51.000Z</time>
      </trkpt>
      <trkpt lat="45.30048" lon="6.16925">
        <ele>2007.1999511719</ele>
        <time>2015-03-28T09:35:52.000Z</time>
      </trkpt>
      <trkpt lat="45.30045" lon="6.16923">
        <ele>2007.8000488281</ele>
        <time>2015-03-28T09:35:56.000Z</time>
      </trkpt>
      <trkpt lat="45.30044" lon="6.16921">
        <ele>2008.4000244141</ele>
        <time>2015-03-28T09:35:59.000Z</time>
      </trkpt>
      <trkpt lat="45.30043" lon="6.1692">
        <ele>2009.1999511719</ele>
        <time>2015-03-28T09:36:02.000Z</time>
      </trkpt>
      <trkpt lat="45.30042" lon="6.16919">
        <ele>2009.4000244141</ele>
        <time>2015-03-28T09:36:03.000Z</time>
      </trkpt>
      <trkpt lat="45.30039" lon="6.16916">
        <ele>2010</ele>
        <time>2015-03-28T09:36:07.000Z</time>
      </trkpt>
      <trkpt lat="45.30036" lon="6.16914">
        <ele>2010.4000244141</ele>
        <time>2015-03-28T09:36:11.000Z</time>
      </trkpt>
      <trkpt lat="45.30035" lon="6.16912">
        <ele>2010.8000488281</ele>
        <time>2015-03-28T09:36:13.000Z</time>
      </trkpt>
      <trkpt lat="45.30034" lon="6.1691">
        <ele>2011.5999755859</ele>
        <time>2015-03-28T09:36:17.000Z</time>
      </trkpt>
      <trkpt lat="45.30032" lon="6.16908">
        <ele>2012.4000244141</ele>
        <time>2015-03-28T09:36:23.000Z</time>
      </trkpt>
      <trkpt lat="45.30032" lon="6.16907">
        <ele>2012.5999755859</ele>
        <time>2015-03-28T09:36:24.000Z</time>
      </trkpt>
      <trkpt lat="45.30031" lon="6.16903">
        <ele>2013.5999755859</ele>
        <time>2015-03-28T09:36:29.000Z</time>
      </trkpt>
      <trkpt lat="45.30031" lon="6.16903">
        <ele>2013.5999755859</ele>
        <time>2015-03-28T09:36:30.000Z</time>
      </trkpt>
      <trkpt lat="45.30032" lon="6.16902">
        <ele>2014.8000488281</ele>
        <time>2015-03-28T09:36:36.000Z</time>
      </trkpt>
      <trkpt lat="45.30031" lon="6.16901">
        <ele>2015.8000488281</ele>
        <time>2015-03-28T09:36:41.000Z</time>
      </trkpt>
      <trkpt lat="45.30031" lon="6.16901">
        <ele>2016</ele>
        <time>2015-03-28T09:36:42.000Z</time>
      </trkpt>
      <trkpt lat="45.30031" lon="6.16899">
        <ele>2016.8000488281</ele>
        <time>2015-03-28T09:36:46.000Z</time>
      </trkpt>
      <trkpt lat="45.30031" lon="6.16899">
        <ele>2017</ele>
        <time>2015-03-28T09:36:48.000Z</time>
      </trkpt>
      <trkpt lat="45.30031" lon="6.16898">
        <ele>2017.8000488281</ele>
        <time>2015-03-28T09:36:52.000Z</time>
      </trkpt>
      <trkpt lat="45.30031" lon="6.16898">
        <ele>2018.1999511719</ele>
        <time>2015-03-28T09:36:54.000Z</time>
      </trkpt>
      <trkpt lat="45.30033" lon="6.16895">
        <ele>2019.1999511719</ele>
        <time>2015-03-28T09:37:01.000Z</time>
      </trkpt>
      <trkpt lat="45.30035" lon="6.16892">
        <ele>2020.1999511719</ele>
        <time>2015-03-28T09:37:06.000Z</time>
      </trkpt>
      <trkpt lat="45.30038" lon="6.1689">
        <ele>2020.8000488281</ele>
        <time>2015-03-28T09:37:11.000Z</time>
      </trkpt>
      <trkpt lat="45.3004" lon="6.16888">
        <ele>2021.1999511719</ele>
        <time>2015-03-28T09:37:14.000Z</time>
      </trkpt>
      <trkpt lat="45.30043" lon="6.16886">
        <ele>2022</ele>
        <time>2015-03-28T09:37:18.000Z</time>
      </trkpt>
      <trkpt lat="45.30043" lon="6.16885">
        <ele>2022.4000244141</ele>
        <time>2015-03-28T09:37:19.000Z</time>
      </trkpt>
      <trkpt lat="45.30047" lon="6.16884">
        <ele>2023.4000244141</ele>
        <time>2015-03-28T09:37:24.000Z</time>
      </trkpt>
      <trkpt lat="45.30048" lon="6.16883">
        <ele>2023.5999755859</ele>
        <time>2015-03-28T09:37:26.000Z</time>
      </trkpt>
      <trkpt lat="45.3005" lon="6.16881">
        <ele>2024.4000244141</ele>
        <time>2015-03-28T09:37:30.000Z</time>
      </trkpt>
      <trkpt lat="45.30052" lon="6.16878">
        <ele>2025.8000488281</ele>
        <time>2015-03-28T09:37:37.000Z</time>
      </trkpt>
      <trkpt lat="45.30051" lon="6.16876">
        <ele>2026.5999755859</ele>
        <time>2015-03-28T09:37:43.000Z</time>
      </trkpt>
      <trkpt lat="45.3005" lon="6.16875">
        <ele>2026.8000488281</ele>
        <time>2015-03-28T09:37:44.000Z</time>
      </trkpt>
      <trkpt lat="45.30046" lon="6.16873">
        <ele>2027.8000488281</ele>
        <time>2015-03-28T09:37:48.000Z</time>
      </trkpt>
      <trkpt lat="45.30045" lon="6.16873">
        <ele>2027.8000488281</ele>
        <time>2015-03-28T09:37:49.000Z</time>
      </trkpt>
      <trkpt lat="45.30042" lon="6.16871">
        <ele>2028.5999755859</ele>
        <time>2015-03-28T09:37:54.000Z</time>
      </trkpt>
      <trkpt lat="45.30042" lon="6.1687">
        <ele>2029</ele>
        <time>2015-03-28T09:37:56.000Z</time>
      </trkpt>
      <trkpt lat="45.3004" lon="6.16868">
        <ele>2030.1999511719</ele>
        <time>2015-03-28T09:38:01.000Z</time>
      </trkpt>
      <trkpt lat="45.30037" lon="6.16867">
        <ele>2030.8000488281</ele>
        <time>2015-03-28T09:38:03.000Z</time>
      </trkpt>
      <trkpt lat="45.30036" lon="6.16864">
        <ele>2031.4000244141</ele>
        <time>2015-03-28T09:38:06.000Z</time>
      </trkpt>
      <trkpt lat="45.30035" lon="6.16864">
        <ele>2031.8000488281</ele>
        <time>2015-03-28T09:38:08.000Z</time>
      </trkpt>
      <trkpt lat="45.30033" lon="6.16862">
        <ele>2032.4000244141</ele>
        <time>2015-03-28T09:38:12.000Z</time>
      </trkpt>
      <trkpt lat="45.30032" lon="6.16861">
        <ele>2032.5999755859</ele>
        <time>2015-03-28T09:38:13.000Z</time>
      </trkpt>
      <trkpt lat="45.30029" lon="6.16858">
        <ele>2033.5999755859</ele>
        <time>2015-03-28T09:38:17.000Z</time>
      </trkpt>
      <trkpt lat="45.30029" lon="6.16857">
        <ele>2033.8000488281</ele>
        <time>2015-03-28T09:38:18.000Z</time>
      </trkpt>
      <trkpt lat="45.30026" lon="6.16856">
        <ele>2034.5999755859</ele>
        <time>2015-03-28T09:38:22.000Z</time>
      </trkpt>
      <trkpt lat="45.30025" lon="6.16856">
        <ele>2034.8000488281</ele>
        <time>2015-03-28T09:38:24.000Z</time>
      </trkpt>
      <trkpt lat="45.30025" lon="6.16855">
        <ele>2035.5999755859</ele>
        <time>2015-03-28T09:38:30.000Z</time>
      </trkpt>
      <trkpt lat="45.30025" lon="6.16855">
        <ele>2035.8000488281</ele>
        <time>2015-03-28T09:38:31.000Z</time>
      </trkpt>
      <trkpt lat="45.30025" lon="6.16855">
        <ele>2036</ele>
        <time>2015-03-28T09:38:49.000Z</time>
      </trkpt>
      <trkpt lat="45.3003" lon="6.16852">
        <ele>2036.4000244141</ele>
        <time>2015-03-28T09:38:56.000Z</time>
      </trkpt>
      <trkpt lat="45.30031" lon="6.16851">
        <ele>2036.8000488281</ele>
        <time>2015-03-28T09:38:58.000Z</time>
      </trkpt>
      <trkpt lat="45.30032" lon="6.16849">
        <ele>2037.8000488281</ele>
        <time>2015-03-28T09:39:03.000Z</time>
      </trkpt>
      <trkpt lat="45.30032" lon="6.16848">
        <ele>2037.8000488281</ele>
        <time>2015-03-28T09:39:04.000Z</time>
      </trkpt>
      <trkpt lat="45.30034" lon="6.16846">
        <ele>2038.8000488281</ele>
        <time>2015-03-28T09:39:10.000Z</time>
      </trkpt>
      <trkpt lat="45.30036" lon="6.16844">
        <ele>2040</ele>
        <time>2015-03-28T09:39:13.000Z</time>
      </trkpt>
      <trkpt lat="45.30038" lon="6.16843">
        <ele>2040.8000488281</ele>
        <time>2015-03-28T09:39:16.000Z</time>
      </trkpt>
      <trkpt lat="45.30038" lon="6.16842">
        <ele>2041</ele>
        <time>2015-03-28T09:39:18.000Z</time>
      </trkpt>
      <trkpt lat="45.30041" lon="6.16839">
        <ele>2042.1999511719</ele>
        <time>2015-03-28T09:39:23.000Z</time>
      </trkpt>
      <trkpt lat="45.30043" lon="6.16838">
        <ele>2042.5999755859</ele>
        <time>2015-03-28T09:39:25.000Z</time>
      </trkpt>
      <trkpt lat="45.30045" lon="6.16837">
        <ele>2043.4000244141</ele>
        <time>2015-03-28T09:39:28.000Z</time>
      </trkpt>
      <trkpt lat="45.30045" lon="6.16835">
        <ele>2044.1999511719</ele>
        <time>2015-03-28T09:39:32.000Z</time>
      </trkpt>
      <trkpt lat="45.30045" lon="6.16835">
        <ele>2044.5999755859</ele>
        <time>2015-03-28T09:39:33.000Z</time>
      </trkpt>
      <trkpt lat="45.30043" lon="6.16833">
        <ele>2045.5999755859</ele>
        <time>2015-03-28T09:39:37.000Z</time>
      </trkpt>
      <trkpt lat="45.30042" lon="6.16831">
        <ele>2046</ele>
        <time>2015-03-28T09:39:39.000Z</time>
      </trkpt>
      <trkpt lat="45.3004" lon="6.16827">
        <ele>2046.8000488281</ele>
        <time>2015-03-28T09:39:43.000Z</time>
      </trkpt>
      <trkpt lat="45.3004" lon="6.16827">
        <ele>2047.1999511719</ele>
        <time>2015-03-28T09:39:45.000Z</time>
      </trkpt>
      <trkpt lat="45.30036" lon="6.16823">
        <ele>2047.8000488281</ele>
        <time>2015-03-28T09:39:48.000Z</time>
      </trkpt>
      <trkpt lat="45.30033" lon="6.16822">
        <ele>2048.3999023438</ele>
        <time>2015-03-28T09:39:51.000Z</time>
      </trkpt>
      <trkpt lat="45.30032" lon="6.16821">
        <ele>2048.8000488281</ele>
        <time>2015-03-28T09:39:53.000Z</time>
      </trkpt>
      <trkpt lat="45.30031" lon="6.16819">
        <ele>2049.3999023438</ele>
        <time>2015-03-28T09:39:57.000Z</time>
      </trkpt>
      <trkpt lat="45.30028" lon="6.16817">
        <ele>2050</ele>
        <time>2015-03-28T09:40:01.000Z</time>
      </trkpt>
      <trkpt lat="45.30027" lon="6.16817">
        <ele>2050.6000976562</ele>
        <time>2015-03-28T09:40:03.000Z</time>
      </trkpt>
      <trkpt lat="45.30026" lon="6.16816">
        <ele>2051.1999511719</ele>
        <time>2015-03-28T09:40:05.000Z</time>
      </trkpt>
      <trkpt lat="45.30026" lon="6.16816">
        <ele>2052.1999511719</ele>
        <time>2015-03-28T09:40:11.000Z</time>
      </trkpt>
      <trkpt lat="45.30026" lon="6.16816">
        <ele>2052.1999511719</ele>
        <time>2015-03-28T09:40:12.000Z</time>
      </trkpt>
      <trkpt lat="45.30027" lon="6.16811">
        <ele>2053</ele>
        <time>2015-03-28T09:40:18.000Z</time>
      </trkpt>
      <trkpt lat="45.30028" lon="6.1681">
        <ele>2053.1999511719</ele>
        <time>2015-03-28T09:40:19.000Z</time>
      </trkpt>
      <trkpt lat="45.3003" lon="6.16808">
        <ele>2054.1999511719</ele>
        <time>2015-03-28T09:40:24.000Z</time>
      </trkpt>
      <trkpt lat="45.30031" lon="6.16807">
        <ele>2054.8000488281</ele>
        <time>2015-03-28T09:40:25.000Z</time>
      </trkpt>
      <trkpt lat="45.30032" lon="6.16805">
        <ele>2055.6000976562</ele>
        <time>2015-03-28T09:40:29.000Z</time>
      </trkpt>
      <trkpt lat="45.30033" lon="6.16804">
        <ele>2055.8000488281</ele>
        <time>2015-03-28T09:40:31.000Z</time>
      </trkpt>
      <trkpt lat="45.30033" lon="6.16803">
        <ele>2056.8000488281</ele>
        <time>2015-03-28T09:40:35.000Z</time>
      </trkpt>
      <trkpt lat="45.30033" lon="6.16803">
        <ele>2057</ele>
        <time>2015-03-28T09:40:36.000Z</time>
      </trkpt>
      <trkpt lat="45.30036" lon="6.16799">
        <ele>2057.8000488281</ele>
        <time>2015-03-28T09:40:42.000Z</time>
      </trkpt>
      <trkpt lat="45.30037" lon="6.16798">
        <ele>2058.1999511719</ele>
        <time>2015-03-28T09:40:43.000Z</time>
      </trkpt>
      <trkpt lat="45.30041" lon="6.16796">
        <ele>2059.1999511719</ele>
        <time>2015-03-28T09:40:49.000Z</time>
      </trkpt>
      <trkpt lat="45.30041" lon="6.16796">
        <ele>2059.3999023438</ele>
        <time>2015-03-28T09:40:50.000Z</time>
      </trkpt>
      <trkpt lat="45.30042" lon="6.16796">
        <ele>2060.3999023438</ele>
        <time>2015-03-28T09:40:55.000Z</time>
      </trkpt>
      <trkpt lat="45.30042" lon="6.16796">
        <ele>2061</ele>
        <time>2015-03-28T09:40:58.000Z</time>
      </trkpt>
      <trkpt lat="45.30041" lon="6.16795">
        <ele>2061.1999511719</ele>
        <time>2015-03-28T09:41:05.000Z</time>
      </trkpt>
      <trkpt lat="45.3004" lon="6.16794">
        <ele>2061.3999023438</ele>
        <time>2015-03-28T09:41:07.000Z</time>
      </trkpt>
      <trkpt lat="45.30037" lon="6.16792">
        <ele>2062</ele>
        <time>2015-03-28T09:41:10.000Z</time>
      </trkpt>
      <trkpt lat="45.30034" lon="6.16789">
        <ele>2062.6000976562</ele>
        <time>2015-03-28T09:41:13.000Z</time>
      </trkpt>
      <trkpt lat="45.30034" lon="6.16788">
        <ele>2063</ele>
        <time>2015-03-28T09:41:15.000Z</time>
      </trkpt>
      <trkpt lat="45.3003" lon="6.16787">
        <ele>2063.1999511719</ele>
        <time>2015-03-28T09:41:17.000Z</time>
      </trkpt>
      <trkpt lat="45.30026" lon="6.16787">
        <ele>2063.6000976562</ele>
        <time>2015-03-28T09:41:20.000Z</time>
      </trkpt>
      <trkpt lat="45.30024" lon="6.16787">
        <ele>2063.8000488281</ele>
        <time>2015-03-28T09:41:21.000Z</time>
      </trkpt>
      <trkpt lat="45.30019" lon="6.16787">
        <ele>2064.6000976562</ele>
        <time>2015-03-28T09:41:25.000Z</time>
      </trkpt>
      <trkpt lat="45.30017" lon="6.16788">
        <ele>2065</ele>
        <time>2015-03-28T09:41:27.000Z</time>
      </trkpt>
      <trkpt lat="45.30012" lon="6.16788">
        <ele>2065.6000976562</ele>
        <time>2015-03-28T09:41:31.000Z</time>
      </trkpt>
      <trkpt lat="45.30013" lon="6.16788">
        <ele>2066</ele>
        <time>2015-03-28T09:41:33.000Z</time>
      </trkpt>
      <trkpt lat="45.30012" lon="6.16786">
        <ele>2066.6000976562</ele>
        <time>2015-03-28T09:41:37.000Z</time>
      </trkpt>
      <trkpt lat="45.30012" lon="6.16785">
        <ele>2066.8000488281</ele>
        <time>2015-03-28T09:41:39.000Z</time>
      </trkpt>
      <trkpt lat="45.30008" lon="6.16784">
        <ele>2067.3999023438</ele>
        <time>2015-03-28T09:41:44.000Z</time>
      </trkpt>
      <trkpt lat="45.30007" lon="6.16784">
        <ele>2067.6000976562</ele>
        <time>2015-03-28T09:41:46.000Z</time>
      </trkpt>
      <trkpt lat="45.30005" lon="6.16783">
        <ele>2068.1999511719</ele>
        <time>2015-03-28T09:41:49.000Z</time>
      </trkpt>
      <trkpt lat="45.30004" lon="6.16782">
        <ele>2068.8000488281</ele>
        <time>2015-03-28T09:41:52.000Z</time>
      </trkpt>
      <trkpt lat="45.30003" lon="6.16782">
        <ele>2069.1999511719</ele>
        <time>2015-03-28T09:41:55.000Z</time>
      </trkpt>
      <trkpt lat="45.30002" lon="6.16781">
        <ele>2069.8000488281</ele>
        <time>2015-03-28T09:42:00.000Z</time>
      </trkpt>
      <trkpt lat="45.3" lon="6.16781">
        <ele>2070.6000976562</ele>
        <time>2015-03-28T09:42:05.000Z</time>
      </trkpt>
      <trkpt lat="45.29998" lon="6.16781">
        <ele>2071.1999511719</ele>
        <time>2015-03-28T09:42:07.000Z</time>
      </trkpt>
      <trkpt lat="45.29996" lon="6.16781">
        <ele>2072</ele>
        <time>2015-03-28T09:42:11.000Z</time>
      </trkpt>
      <trkpt lat="45.29995" lon="6.16781">
        <ele>2072.1999511719</ele>
        <time>2015-03-28T09:42:14.000Z</time>
      </trkpt>
      <trkpt lat="45.29995" lon="6.1678">
        <ele>2073.3999023438</ele>
        <time>2015-03-28T09:42:19.000Z</time>
      </trkpt>
      <trkpt lat="45.29997" lon="6.16776">
        <ele>2074.6000976562</ele>
        <time>2015-03-28T09:42:25.000Z</time>
      </trkpt>
      <trkpt lat="45.29998" lon="6.16772">
        <ele>2075.6000976562</ele>
        <time>2015-03-28T09:42:30.000Z</time>
      </trkpt>
      <trkpt lat="45.30002" lon="6.16767">
        <ele>2076.1999511719</ele>
        <time>2015-03-28T09:42:34.000Z</time>
      </trkpt>
      <trkpt lat="45.30003" lon="6.16765">
        <ele>2076.6000976562</ele>
        <time>2015-03-28T09:42:36.000Z</time>
      </trkpt>
      <trkpt lat="45.30006" lon="6.16762">
        <ele>2077.3999023438</ele>
        <time>2015-03-28T09:42:40.000Z</time>
      </trkpt>
      <trkpt lat="45.30007" lon="6.16762">
        <ele>2077.6000976562</ele>
        <time>2015-03-28T09:42:41.000Z</time>
      </trkpt>
      <trkpt lat="45.30008" lon="6.16759">
        <ele>2078.8000488281</ele>
        <time>2015-03-28T09:42:47.000Z</time>
      </trkpt>
      <trkpt lat="45.30009" lon="6.16756">
        <ele>2079.8000488281</ele>
        <time>2015-03-28T09:42:53.000Z</time>
      </trkpt>
      <trkpt lat="45.3001" lon="6.16754">
        <ele>2080.6000976562</ele>
        <time>2015-03-28T09:43:00.000Z</time>
      </trkpt>
      <trkpt lat="45.3001" lon="6.16754">
        <ele>2081</ele>
        <time>2015-03-28T09:43:02.000Z</time>
      </trkpt>
      <trkpt lat="45.30012" lon="6.16753">
        <ele>2081.8000488281</ele>
        <time>2015-03-28T09:43:06.000Z</time>
      </trkpt>
      <trkpt lat="45.30013" lon="6.16752">
        <ele>2082</ele>
        <time>2015-03-28T09:43:07.000Z</time>
      </trkpt>
      <trkpt lat="45.30017" lon="6.16747">
        <ele>2083.1999511719</ele>
        <time>2015-03-28T09:43:13.000Z</time>
      </trkpt>
      <trkpt lat="45.30023" lon="6.16742">
        <ele>2084.1999511719</ele>
        <time>2015-03-28T09:43:18.000Z</time>
      </trkpt>
      <trkpt lat="45.30023" lon="6.16741">
        <ele>2084.6000976562</ele>
        <time>2015-03-28T09:43:20.000Z</time>
      </trkpt>
      <trkpt lat="45.30025" lon="6.16739">
        <ele>2085.1999511719</ele>
        <time>2015-03-28T09:43:24.000Z</time>
      </trkpt>
      <trkpt lat="45.30025" lon="6.16738">
        <ele>2085.8000488281</ele>
        <time>2015-03-28T09:43:28.000Z</time>
      </trkpt>
      <trkpt lat="45.30026" lon="6.16737">
        <ele>2086.3999023438</ele>
        <time>2015-03-28T09:43:31.000Z</time>
      </trkpt>
      <trkpt lat="45.30028" lon="6.16736">
        <ele>2087.3999023438</ele>
        <time>2015-03-28T09:43:36.000Z</time>
      </trkpt>
      <trkpt lat="45.30029" lon="6.16735">
        <ele>2087.8000488281</ele>
        <time>2015-03-28T09:43:37.000Z</time>
      </trkpt>
      <trkpt lat="45.30034" lon="6.16734">
        <ele>2088.6000976562</ele>
        <time>2015-03-28T09:43:41.000Z</time>
      </trkpt>
      <trkpt lat="45.3004" lon="6.16729">
        <ele>2089.6000976562</ele>
        <time>2015-03-28T09:43:48.000Z</time>
      </trkpt>
      <trkpt lat="45.30041" lon="6.16728">
        <ele>2089.8000488281</ele>
        <time>2015-03-28T09:43:49.000Z</time>
      </trkpt>
      <trkpt lat="45.30042" lon="6.16727">
        <ele>2091</ele>
        <time>2015-03-28T09:43:56.000Z</time>
      </trkpt>
      <trkpt lat="45.30042" lon="6.16727">
        <ele>2091.3999023438</ele>
        <time>2015-03-28T09:43:58.000Z</time>
      </trkpt>
      <trkpt lat="45.30042" lon="6.16727">
        <ele>2092</ele>
        <time>2015-03-28T09:44:00.000Z</time>
      </trkpt>
      <trkpt lat="45.30042" lon="6.16727">
        <ele>2092.8000488281</ele>
        <time>2015-03-28T09:44:09.000Z</time>
      </trkpt>
      <trkpt lat="45.30042" lon="6.16727">
        <ele>2093</ele>
        <time>2015-03-28T09:44:12.000Z</time>
      </trkpt>
      <trkpt lat="45.30049" lon="6.16721">
        <ele>2094</ele>
        <time>2015-03-28T09:44:18.000Z</time>
      </trkpt>
      <trkpt lat="45.30049" lon="6.16721">
        <ele>2094.3999023438</ele>
        <time>2015-03-28T09:44:21.000Z</time>
      </trkpt>
      <trkpt lat="45.3005" lon="6.16721">
        <ele>2095</ele>
        <time>2015-03-28T09:44:25.000Z</time>
      </trkpt>
      <trkpt lat="45.30055" lon="6.1672">
        <ele>2096.3999023438</ele>
        <time>2015-03-28T09:44:28.000Z</time>
      </trkpt>
      <trkpt lat="45.3006" lon="6.16718">
        <ele>2097</ele>
        <time>2015-03-28T09:44:31.000Z</time>
      </trkpt>
      <trkpt lat="45.30063" lon="6.16717">
        <ele>2097.3999023438</ele>
        <time>2015-03-28T09:44:33.000Z</time>
      </trkpt>
      <trkpt lat="45.30068" lon="6.16714">
        <ele>2098.6000976562</ele>
        <time>2015-03-28T09:44:38.000Z</time>
      </trkpt>
      <trkpt lat="45.30068" lon="6.16714">
        <ele>2099.3999023438</ele>
        <time>2015-03-28T09:44:41.000Z</time>
      </trkpt>
      <trkpt lat="45.30067" lon="6.16715">
        <ele>2099.6000976562</ele>
        <time>2015-03-28T09:44:43.000Z</time>
      </trkpt>
      <trkpt lat="45.30068" lon="6.16715">
        <ele>2100.3999023438</ele>
        <time>2015-03-28T09:44:49.000Z</time>
      </trkpt>
      <trkpt lat="45.30069" lon="6.16714">
        <ele>2100.6000976562</ele>
        <time>2015-03-28T09:44:50.000Z</time>
      </trkpt>
      <trkpt lat="45.30069" lon="6.16714">
        <ele>2101.3999023438</ele>
        <time>2015-03-28T09:44:58.000Z</time>
      </trkpt>
      <trkpt lat="45.30069" lon="6.16714">
        <ele>2102</ele>
        <time>2015-03-28T09:45:04.000Z</time>
      </trkpt>
      <trkpt lat="45.30064" lon="6.16707">
        <ele>2103</ele>
        <time>2015-03-28T09:45:10.000Z</time>
      </trkpt>
      <trkpt lat="45.3006" lon="6.16704">
        <ele>2104</ele>
        <time>2015-03-28T09:45:15.000Z</time>
      </trkpt>
      <trkpt lat="45.30059" lon="6.16703">
        <ele>2104.1999511719</ele>
        <time>2015-03-28T09:45:16.000Z</time>
      </trkpt>
      <trkpt lat="45.30056" lon="6.16701">
        <ele>2105.1999511719</ele>
        <time>2015-03-28T09:45:21.000Z</time>
      </trkpt>
      <trkpt lat="45.30056" lon="6.16701">
        <ele>2105.3999023438</ele>
        <time>2015-03-28T09:45:22.000Z</time>
      </trkpt>
      <trkpt lat="45.30053" lon="6.16695">
        <ele>2106.3999023438</ele>
        <time>2015-03-28T09:45:28.000Z</time>
      </trkpt>
      <trkpt lat="45.3005" lon="6.16691">
        <ele>2107.3999023438</ele>
        <time>2015-03-28T09:45:33.000Z</time>
      </trkpt>
      <trkpt lat="45.30049" lon="6.16688">
        <ele>2108.1999511719</ele>
        <time>2015-03-28T09:45:36.000Z</time>
      </trkpt>
      <trkpt lat="45.30048" lon="6.16687">
        <ele>2108.3999023438</ele>
        <time>2015-03-28T09:45:37.000Z</time>
      </trkpt>
      <trkpt lat="45.30045" lon="6.16684">
        <ele>2109.3999023438</ele>
        <time>2015-03-28T09:45:41.000Z</time>
      </trkpt>
      <trkpt lat="45.30044" lon="6.16683">
        <ele>2110</ele>
        <time>2015-03-28T09:45:43.000Z</time>
      </trkpt>
      <trkpt lat="45.30042" lon="6.1668">
        <ele>2110.6000976562</ele>
        <time>2015-03-28T09:45:46.000Z</time>
      </trkpt>
      <trkpt lat="45.30041" lon="6.16678">
        <ele>2111</ele>
        <time>2015-03-28T09:45:49.000Z</time>
      </trkpt>
      <trkpt lat="45.3004" lon="6.16676">
        <ele>2111.6000976562</ele>
        <time>2015-03-28T09:45:52.000Z</time>
      </trkpt>
      <trkpt lat="45.30038" lon="6.16672">
        <ele>2112.1999511719</ele>
        <time>2015-03-28T09:45:58.000Z</time>
      </trkpt>
      <trkpt lat="45.30036" lon="6.16671">
        <ele>2112.8000488281</ele>
        <time>2015-03-28T09:46:01.000Z</time>
      </trkpt>
      <trkpt lat="45.30033" lon="6.16668">
        <ele>2114</ele>
        <time>2015-03-28T09:46:05.000Z</time>
      </trkpt>
      <trkpt lat="45.30033" lon="6.16667">
        <ele>2114.3999023438</ele>
        <time>2015-03-28T09:46:07.000Z</time>
      </trkpt>
      <trkpt lat="45.30032" lon="6.16666">
        <ele>2115.1999511719</ele>
        <time>2015-03-28T09:46:10.000Z</time>
      </trkpt>
      <trkpt lat="45.30032" lon="6.16666">
        <ele>2116.1999511719</ele>
        <time>2015-03-28T09:46:15.000Z</time>
      </trkpt>
      <trkpt lat="45.30032" lon="6.16666">
        <ele>2116.6000976562</ele>
        <time>2015-03-28T09:46:18.000Z</time>
      </trkpt>
      <trkpt lat="45.30031" lon="6.16664">
        <ele>2117.1999511719</ele>
        <time>2015-03-28T09:46:22.000Z</time>
      </trkpt>
      <trkpt lat="45.30028" lon="6.16661">
        <ele>2118.3999023438</ele>
        <time>2015-03-28T09:46:28.000Z</time>
      </trkpt>
      <trkpt lat="45.30025" lon="6.16657">
        <ele>2119.6000976562</ele>
        <time>2015-03-28T09:46:33.000Z</time>
      </trkpt>
      <trkpt lat="45.30024" lon="6.16656">
        <ele>2120.1999511719</ele>
        <time>2015-03-28T09:46:35.000Z</time>
      </trkpt>
      <trkpt lat="45.30022" lon="6.16655">
        <ele>2120.6000976562</ele>
        <time>2015-03-28T09:46:37.000Z</time>
      </trkpt>
      <trkpt lat="45.3002" lon="6.16653">
        <ele>2121.6000976562</ele>
        <time>2015-03-28T09:46:41.000Z</time>
      </trkpt>
      <trkpt lat="45.30019" lon="6.16652">
        <ele>2121.6000976562</ele>
        <time>2015-03-28T09:46:42.000Z</time>
      </trkpt>
      <trkpt lat="45.30014" lon="6.16648">
        <ele>2122.8000488281</ele>
        <time>2015-03-28T09:46:49.000Z</time>
      </trkpt>
      <trkpt lat="45.30012" lon="6.16648">
        <ele>2123.3999023438</ele>
        <time>2015-03-28T09:46:51.000Z</time>
      </trkpt>
      <trkpt lat="45.30011" lon="6.16646">
        <ele>2123.8000488281</ele>
        <time>2015-03-28T09:46:53.000Z</time>
      </trkpt>
      <trkpt lat="45.30011" lon="6.16643">
        <ele>2125</ele>
        <time>2015-03-28T09:46:57.000Z</time>
      </trkpt>
      <trkpt lat="45.30011" lon="6.16643">
        <ele>2125</ele>
        <time>2015-03-28T09:46:58.000Z</time>
      </trkpt>
      <trkpt lat="45.30011" lon="6.16641">
        <ele>2126</ele>
        <time>2015-03-28T09:47:04.000Z</time>
      </trkpt>
      <trkpt lat="45.30011" lon="6.16638">
        <ele>2126.8000488281</ele>
        <time>2015-03-28T09:47:10.000Z</time>
      </trkpt>
      <trkpt lat="45.30011" lon="6.16638">
        <ele>2127</ele>
        <time>2015-03-28T09:47:11.000Z</time>
      </trkpt>
      <trkpt lat="45.30009" lon="6.16637">
        <ele>2128.1999511719</ele>
        <time>2015-03-28T09:47:16.000Z</time>
      </trkpt>
      <trkpt lat="45.30009" lon="6.16637">
        <ele>2128.3999023438</ele>
        <time>2015-03-28T09:47:17.000Z</time>
      </trkpt>
      <trkpt lat="45.30005" lon="6.16635">
        <ele>2129.1999511719</ele>
        <time>2015-03-28T09:47:23.000Z</time>
      </trkpt>
      <trkpt lat="45.30005" lon="6.16635">
        <ele>2129.3999023438</ele>
        <time>2015-03-28T09:47:24.000Z</time>
      </trkpt>
      <trkpt lat="45.30001" lon="6.16634">
        <ele>2130.3999023438</ele>
        <time>2015-03-28T09:47:29.000Z</time>
      </trkpt>
      <trkpt lat="45.3" lon="6.16634">
        <ele>2130.6000976562</ele>
        <time>2015-03-28T09:47:30.000Z</time>
      </trkpt>
      <trkpt lat="45.29996" lon="6.16633">
        <ele>2131.6000976562</ele>
        <time>2015-03-28T09:47:36.000Z</time>
      </trkpt>
      <trkpt lat="45.29996" lon="6.16633">
        <ele>2132.6000976562</ele>
        <time>2015-03-28T09:47:43.000Z</time>
      </trkpt>
      <trkpt lat="45.29996" lon="6.16633">
        <ele>2132.8000488281</ele>
        <time>2015-03-28T09:47:46.000Z</time>
      </trkpt>
      <trkpt lat="45.29994" lon="6.16632">
        <ele>2132.8000488281</ele>
        <time>2015-03-28T09:47:52.000Z</time>
      </trkpt>
      <trkpt lat="45.29987" lon="6.16632">
        <ele>2133.8000488281</ele>
        <time>2015-03-28T09:47:58.000Z</time>
      </trkpt>
      <trkpt lat="45.29987" lon="6.16632">
        <ele>2134</ele>
        <time>2015-03-28T09:47:59.000Z</time>
      </trkpt>
      <trkpt lat="45.29984" lon="6.16633">
        <ele>2134.8000488281</ele>
        <time>2015-03-28T09:48:02.000Z</time>
      </trkpt>
      <trkpt lat="45.29981" lon="6.16633">
        <ele>2135.6000976562</ele>
        <time>2015-03-28T09:48:06.000Z</time>
      </trkpt>
      <trkpt lat="45.29981" lon="6.16633">
        <ele>2135.8000488281</ele>
        <time>2015-03-28T09:48:07.000Z</time>
      </trkpt>
      <trkpt lat="45.29978" lon="6.16634">
        <ele>2136.8000488281</ele>
        <time>2015-03-28T09:48:12.000Z</time>
      </trkpt>
      <trkpt lat="45.29976" lon="6.16634">
        <ele>2137</ele>
        <time>2015-03-28T09:48:13.000Z</time>
      </trkpt>
      <trkpt lat="45.29974" lon="6.16635">
        <ele>2137.8000488281</ele>
        <time>2015-03-28T09:48:18.000Z</time>
      </trkpt>
      <trkpt lat="45.29971" lon="6.16635">
        <ele>2138</ele>
        <time>2015-03-28T09:48:20.000Z</time>
      </trkpt>
      <trkpt lat="45.2997" lon="6.16636">
        <ele>2138.3999023438</ele>
        <time>2015-03-28T09:48:22.000Z</time>
      </trkpt>
      <trkpt lat="45.29969" lon="6.16636">
        <ele>2139.3999023438</ele>
        <time>2015-03-28T09:48:26.000Z</time>
      </trkpt>
      <trkpt lat="45.29967" lon="6.16637">
        <ele>2140.1999511719</ele>
        <time>2015-03-28T09:48:30.000Z</time>
      </trkpt>
      <trkpt lat="45.29966" lon="6.16637">
        <ele>2140.3999023438</ele>
        <time>2015-03-28T09:48:32.000Z</time>
      </trkpt>
      <trkpt lat="45.29965" lon="6.16637">
        <ele>2141.1999511719</ele>
        <time>2015-03-28T09:48:36.000Z</time>
      </trkpt>
      <trkpt lat="45.29963" lon="6.16638">
        <ele>2141.6000976562</ele>
        <time>2015-03-28T09:48:38.000Z</time>
      </trkpt>
      <trkpt lat="45.29961" lon="6.16637">
        <ele>2142.3999023438</ele>
        <time>2015-03-28T09:48:42.000Z</time>
      </trkpt>
      <trkpt lat="45.29961" lon="6.16637">
        <ele>2142.6000976562</ele>
        <time>2015-03-28T09:48:43.000Z</time>
      </trkpt>
      <trkpt lat="45.2996" lon="6.16634">
        <ele>2143.8000488281</ele>
        <time>2015-03-28T09:48:49.000Z</time>
      </trkpt>
      <trkpt lat="45.29961" lon="6.16633">
        <ele>2144.1999511719</ele>
        <time>2015-03-28T09:48:50.000Z</time>
      </trkpt>
      <trkpt lat="45.29962" lon="6.16632">
        <ele>2144.8000488281</ele>
        <time>2015-03-28T09:48:52.000Z</time>
      </trkpt>
      <trkpt lat="45.29963" lon="6.16628">
        <ele>2145</ele>
        <time>2015-03-28T09:48:59.000Z</time>
      </trkpt>
      <trkpt lat="45.29963" lon="6.16624">
        <ele>2145.8000488281</ele>
        <time>2015-03-28T09:49:03.000Z</time>
      </trkpt>
      <trkpt lat="45.29962" lon="6.16622">
        <ele>2146.1999511719</ele>
        <time>2015-03-28T09:49:06.000Z</time>
      </trkpt>
      <trkpt lat="45.2996" lon="6.1662">
        <ele>2147</ele>
        <time>2015-03-28T09:49:09.000Z</time>
      </trkpt>
      <trkpt lat="45.29959" lon="6.16616">
        <ele>2147.6000976562</ele>
        <time>2015-03-28T09:49:13.000Z</time>
      </trkpt>
      <trkpt lat="45.29958" lon="6.16616">
        <ele>2148</ele>
        <time>2015-03-28T09:49:14.000Z</time>
      </trkpt>
      <trkpt lat="45.29958" lon="6.16615">
        <ele>2149</ele>
        <time>2015-03-28T09:49:17.000Z</time>
      </trkpt>
      <trkpt lat="45.29955" lon="6.16613">
        <ele>2150</ele>
        <time>2015-03-28T09:49:21.000Z</time>
      </trkpt>
      <trkpt lat="45.29955" lon="6.16613">
        <ele>2150</ele>
        <time>2015-03-28T09:49:22.000Z</time>
      </trkpt>
      <trkpt lat="45.29953" lon="6.16608">
        <ele>2151.1999511719</ele>
        <time>2015-03-28T09:49:27.000Z</time>
      </trkpt>
      <trkpt lat="45.29952" lon="6.16605">
        <ele>2152.1999511719</ele>
        <time>2015-03-28T09:49:31.000Z</time>
      </trkpt>
      <trkpt lat="45.29952" lon="6.16603">
        <ele>2152.8000488281</ele>
        <time>2015-03-28T09:49:35.000Z</time>
      </trkpt>
      <trkpt lat="45.29951" lon="6.16603">
        <ele>2153.8000488281</ele>
        <time>2015-03-28T09:49:38.000Z</time>
      </trkpt>
      <trkpt lat="45.29951" lon="6.16601">
        <ele>2154.8000488281</ele>
        <time>2015-03-28T09:49:41.000Z</time>
      </trkpt>
      <trkpt lat="45.29955" lon="6.16594">
        <ele>2156.1999511719</ele>
        <time>2015-03-28T09:49:48.000Z</time>
      </trkpt>
      <trkpt lat="45.29956" lon="6.16593">
        <ele>2156.8000488281</ele>
        <time>2015-03-28T09:49:50.000Z</time>
      </trkpt>
      <trkpt lat="45.29958" lon="6.16591">
        <ele>2157.1999511719</ele>
        <time>2015-03-28T09:49:54.000Z</time>
      </trkpt>
      <trkpt lat="45.29959" lon="6.1659">
        <ele>2157.8000488281</ele>
        <time>2015-03-28T09:49:57.000Z</time>
      </trkpt>
      <trkpt lat="45.29966" lon="6.16586">
        <ele>2158.1999511719</ele>
        <time>2015-03-28T09:50:00.000Z</time>
      </trkpt>
      <trkpt lat="45.29968" lon="6.16583">
        <ele>2159.3999023438</ele>
        <time>2015-03-28T09:50:04.000Z</time>
      </trkpt>
      <trkpt lat="45.29972" lon="6.16578">
        <ele>2160.3999023438</ele>
        <time>2015-03-28T09:50:10.000Z</time>
      </trkpt>
      <trkpt lat="45.29971" lon="6.16575">
        <ele>2161.3999023438</ele>
        <time>2015-03-28T09:50:17.000Z</time>
      </trkpt>
      <trkpt lat="45.29976" lon="6.16572">
        <ele>2162.6000976562</ele>
        <time>2015-03-28T09:50:24.000Z</time>
      </trkpt>
      <trkpt lat="45.29974" lon="6.16572">
        <ele>2162.8000488281</ele>
        <time>2015-03-28T09:50:26.000Z</time>
      </trkpt>
      <trkpt lat="45.29968" lon="6.16572">
        <ele>2163.6000976562</ele>
        <time>2015-03-28T09:50:33.000Z</time>
      </trkpt>
      <trkpt lat="45.29959" lon="6.16572">
        <ele>2164.8000488281</ele>
        <time>2015-03-28T09:50:40.000Z</time>
      </trkpt>
      <trkpt lat="45.29958" lon="6.16572">
        <ele>2165</ele>
        <time>2015-03-28T09:50:41.000Z</time>
      </trkpt>
      <trkpt lat="45.29955" lon="6.1657">
        <ele>2166</ele>
        <time>2015-03-28T09:50:45.000Z</time>
      </trkpt>
      <trkpt lat="45.29953" lon="6.16568">
        <ele>2166.6000976562</ele>
        <time>2015-03-28T09:50:49.000Z</time>
      </trkpt>
      <trkpt lat="45.29951" lon="6.16567">
        <ele>2167.1999511719</ele>
        <time>2015-03-28T09:50:51.000Z</time>
      </trkpt>
      <trkpt lat="45.29943" lon="6.16565">
        <ele>2168.3999023438</ele>
        <time>2015-03-28T09:50:57.000Z</time>
      </trkpt>
      <trkpt lat="45.2994" lon="6.16564">
        <ele>2169.3999023438</ele>
        <time>2015-03-28T09:51:02.000Z</time>
      </trkpt>
      <trkpt lat="45.29938" lon="6.16563">
        <ele>2170</ele>
        <time>2015-03-28T09:51:04.000Z</time>
      </trkpt>
      <trkpt lat="45.29937" lon="6.1656">
        <ele>2170.6000976562</ele>
        <time>2015-03-28T09:51:08.000Z</time>
      </trkpt>
      <trkpt lat="45.29935" lon="6.16559">
        <ele>2171.1999511719</ele>
        <time>2015-03-28T09:51:13.000Z</time>
      </trkpt>
      <trkpt lat="45.29935" lon="6.16559">
        <ele>2171.6000976562</ele>
        <time>2015-03-28T09:51:14.000Z</time>
      </trkpt>
      <trkpt lat="45.29934" lon="6.16557">
        <ele>2172.6000976562</ele>
        <time>2015-03-28T09:51:19.000Z</time>
      </trkpt>
      <trkpt lat="45.29933" lon="6.16557">
        <ele>2173</ele>
        <time>2015-03-28T09:51:20.000Z</time>
      </trkpt>
      <trkpt lat="45.2993" lon="6.16556">
        <ele>2173.8000488281</ele>
        <time>2015-03-28T09:51:25.000Z</time>
      </trkpt>
      <trkpt lat="45.29929" lon="6.16556">
        <ele>2174</ele>
        <time>2015-03-28T09:51:27.000Z</time>
      </trkpt>
      <trkpt lat="45.29926" lon="6.16557">
        <ele>2174.8000488281</ele>
        <time>2015-03-28T09:51:32.000Z</time>
      </trkpt>
      <trkpt lat="45.29926" lon="6.16557">
        <ele>2175.8000488281</ele>
        <time>2015-03-28T09:51:36.000Z</time>
      </trkpt>
      <trkpt lat="45.29926" lon="6.16557">
        <ele>2176</ele>
        <time>2015-03-28T09:51:37.000Z</time>
      </trkpt>
      <trkpt lat="45.29922" lon="6.16559">
        <ele>2177.1999511719</ele>
        <time>2015-03-28T09:51:42.000Z</time>
      </trkpt>
      <trkpt lat="45.29921" lon="6.16559">
        <ele>2177.1999511719</ele>
        <time>2015-03-28T09:51:43.000Z</time>
      </trkpt>
      <trkpt lat="45.29917" lon="6.16558">
        <ele>2178.1999511719</ele>
        <time>2015-03-28T09:51:48.000Z</time>
      </trkpt>
      <trkpt lat="45.29916" lon="6.16558">
        <ele>2178.3999023438</ele>
        <time>2015-03-28T09:51:49.000Z</time>
      </trkpt>
      <trkpt lat="45.29914" lon="6.16557">
        <ele>2179.1999511719</ele>
        <time>2015-03-28T09:51:54.000Z</time>
      </trkpt>
      <trkpt lat="45.29914" lon="6.16557">
        <ele>2179.8000488281</ele>
        <time>2015-03-28T09:51:58.000Z</time>
      </trkpt>
      <trkpt lat="45.29914" lon="6.16557">
        <ele>2179.8000488281</ele>
        <time>2015-03-28T09:52:01.000Z</time>
      </trkpt>
      <trkpt lat="45.29914" lon="6.16557">
        <ele>2180.1999511719</ele>
        <time>2015-03-28T09:52:07.000Z</time>
      </trkpt>
      <trkpt lat="45.29914" lon="6.16557">
        <ele>2180.1999511719</ele>
        <time>2015-03-28T09:52:09.000Z</time>
      </trkpt>
      <trkpt lat="45.29917" lon="6.16552">
        <ele>2180.6000976562</ele>
        <time>2015-03-28T09:52:14.000Z</time>
      </trkpt>
      <trkpt lat="45.29917" lon="6.16552">
        <ele>2180.6000976562</ele>
        <time>2015-03-28T09:52:28.000Z</time>
      </trkpt>
      <trkpt lat="45.29917" lon="6.16552">
        <ele>2181</ele>
        <time>2015-03-28T09:52:44.000Z</time>
      </trkpt>
      <trkpt lat="45.29917" lon="6.16553">
        <ele>2180.6000976562</ele>
        <time>2015-03-28T09:52:57.000Z</time>
      </trkpt>
      <trkpt lat="45.29917" lon="6.16553">
        <ele>2181</ele>
        <time>2015-03-28T09:53:20.000Z</time>
      </trkpt>
      <trkpt lat="45.29917" lon="6.16553">
        <ele>2181</ele>
        <time>2015-03-28T09:53:34.000Z</time>
      </trkpt>
      <trkpt lat="45.29917" lon="6.16553">
        <ele>2180.8000488281</ele>
        <time>2015-03-28T09:53:52.000Z</time>
      </trkpt>
      <trkpt lat="45.29917" lon="6.16553">
        <ele>2180.6000976562</ele>
        <time>2015-03-28T09:54:19.000Z</time>
      </trkpt>
      <trkpt lat="45.29917" lon="6.16553">
        <ele>2181.3999023438</ele>
        <time>2015-03-28T09:54:27.000Z</time>
      </trkpt>
      <trkpt lat="45.29917" lon="6.16553">
        <ele>2181.6000976562</ele>
        <time>2015-03-28T09:54:29.000Z</time>
      </trkpt>
      <trkpt lat="45.29917" lon="6.16553">
        <ele>2181.3999023438</ele>
        <time>2015-03-28T09:54:49.000Z</time>
      </trkpt>
      <trkpt lat="45.29917" lon="6.16553">
        <ele>2181.3999023438</ele>
        <time>2015-03-28T09:55:06.000Z</time>
      </trkpt>
      <trkpt lat="45.29917" lon="6.16553">
        <ele>2181.1999511719</ele>
        <time>2015-03-28T09:55:26.000Z</time>
      </trkpt>
      <trkpt lat="45.29917" lon="6.16553">
        <ele>2181.3999023438</ele>
        <time>2015-03-28T09:55:45.000Z</time>
      </trkpt>
      <trkpt lat="45.29917" lon="6.16553">
        <ele>2181.3999023438</ele>
        <time>2015-03-28T09:55:55.000Z</time>
      </trkpt>
      <trkpt lat="45.29917" lon="6.16553">
        <ele>2181.6000976562</ele>
        <time>2015-03-28T09:56:08.000Z</time>
      </trkpt>
      <trkpt lat="45.29918" lon="6.16547">
        <ele>2181.8000488281</ele>
        <time>2015-03-28T09:56:16.000Z</time>
      </trkpt>
      <trkpt lat="45.29918" lon="6.1654">
        <ele>2182.3999023438</ele>
        <time>2015-03-28T09:56:21.000Z</time>
      </trkpt>
      <trkpt lat="45.29917" lon="6.16539">
        <ele>2182.6000976562</ele>
        <time>2015-03-28T09:56:22.000Z</time>
      </trkpt>
      <trkpt lat="45.29916" lon="6.16535">
        <ele>2183.3999023438</ele>
        <time>2015-03-28T09:56:27.000Z</time>
      </trkpt>
      <trkpt lat="45.29915" lon="6.16533">
        <ele>2183.6000976562</ele>
        <time>2015-03-28T09:56:29.000Z</time>
      </trkpt>
      <trkpt lat="45.29915" lon="6.1653">
        <ele>2184.3999023438</ele>
        <time>2015-03-28T09:56:33.000Z</time>
      </trkpt>
      <trkpt lat="45.29914" lon="6.16529">
        <ele>2184.8000488281</ele>
        <time>2015-03-28T09:56:35.000Z</time>
      </trkpt>
      <trkpt lat="45.29913" lon="6.16523">
        <ele>2185.3999023438</ele>
        <time>2015-03-28T09:56:41.000Z</time>
      </trkpt>
      <trkpt lat="45.29913" lon="6.16522">
        <ele>2185.6000976562</ele>
        <time>2015-03-28T09:56:42.000Z</time>
      </trkpt>
      <trkpt lat="45.29913" lon="6.1652">
        <ele>2186.1999511719</ele>
        <time>2015-03-28T09:56:46.000Z</time>
      </trkpt>
      <trkpt lat="45.29912" lon="6.16515">
        <ele>2186.8000488281</ele>
        <time>2015-03-28T09:56:50.000Z</time>
      </trkpt>
      <trkpt lat="45.29911" lon="6.16511">
        <ele>2187.3999023438</ele>
        <time>2015-03-28T09:56:53.000Z</time>
      </trkpt>
      <trkpt lat="45.29911" lon="6.1651">
        <ele>2188</ele>
        <time>2015-03-28T09:56:57.000Z</time>
      </trkpt>
      <trkpt lat="45.29909" lon="6.16509">
        <ele>2188.1999511719</ele>
        <time>2015-03-28T09:57:00.000Z</time>
      </trkpt>
      <trkpt lat="45.29907" lon="6.16507">
        <ele>2188.6000976562</ele>
        <time>2015-03-28T09:57:05.000Z</time>
      </trkpt>
      <trkpt lat="45.29906" lon="6.16505">
        <ele>2189.1999511719</ele>
        <time>2015-03-28T09:57:08.000Z</time>
      </trkpt>
      <trkpt lat="45.29904" lon="6.16501">
        <ele>2190</ele>
        <time>2015-03-28T09:57:12.000Z</time>
      </trkpt>
      <trkpt lat="45.29903" lon="6.165">
        <ele>2190.3999023438</ele>
        <time>2015-03-28T09:57:14.000Z</time>
      </trkpt>
      <trkpt lat="45.29901" lon="6.16498">
        <ele>2191</ele>
        <time>2015-03-28T09:57:18.000Z</time>
      </trkpt>
      <trkpt lat="45.29901" lon="6.16496">
        <ele>2191.6000976562</ele>
        <time>2015-03-28T09:57:22.000Z</time>
      </trkpt>
      <trkpt lat="45.299" lon="6.16496">
        <ele>2191.6000976562</ele>
        <time>2015-03-28T09:57:23.000Z</time>
      </trkpt>
      <trkpt lat="45.29899" lon="6.16492">
        <ele>2192.6000976562</ele>
        <time>2015-03-28T09:57:29.000Z</time>
      </trkpt>
      <trkpt lat="45.29897" lon="6.16487">
        <ele>2193.1999511719</ele>
        <time>2015-03-28T09:57:34.000Z</time>
      </trkpt>
      <trkpt lat="45.29896" lon="6.16485">
        <ele>2193.8000488281</ele>
        <time>2015-03-28T09:57:37.000Z</time>
      </trkpt>
      <trkpt lat="45.29895" lon="6.16484">
        <ele>2194</ele>
        <time>2015-03-28T09:57:41.000Z</time>
      </trkpt>
      <trkpt lat="45.29894" lon="6.16482">
        <ele>2194.8000488281</ele>
        <time>2015-03-28T09:57:44.000Z</time>
      </trkpt>
      <trkpt lat="45.29893" lon="6.16478">
        <ele>2195.6000976562</ele>
        <time>2015-03-28T09:57:49.000Z</time>
      </trkpt>
      <trkpt lat="45.29893" lon="6.16477">
        <ele>2196</ele>
        <time>2015-03-28T09:57:50.000Z</time>
      </trkpt>
      <trkpt lat="45.29891" lon="6.16474">
        <ele>2196.3999023438</ele>
        <time>2015-03-28T09:57:54.000Z</time>
      </trkpt>
      <trkpt lat="45.29889" lon="6.16471">
        <ele>2197.1999511719</ele>
        <time>2015-03-28T09:57:58.000Z</time>
      </trkpt>
      <trkpt lat="45.29888" lon="6.1647">
        <ele>2197.6000976562</ele>
        <time>2015-03-28T09:58:00.000Z</time>
      </trkpt>
      <trkpt lat="45.29887" lon="6.16468">
        <ele>2198.1999511719</ele>
        <time>2015-03-28T09:58:03.000Z</time>
      </trkpt>
      <trkpt lat="45.29887" lon="6.16465">
        <ele>2198.6000976562</ele>
        <time>2015-03-28T09:58:06.000Z</time>
      </trkpt>
      <trkpt lat="45.29889" lon="6.16461">
        <ele>2199.6000976562</ele>
        <time>2015-03-28T09:58:11.000Z</time>
      </trkpt>
      <trkpt lat="45.2989" lon="6.16457">
        <ele>2200.3999023438</ele>
        <time>2015-03-28T09:58:15.000Z</time>
      </trkpt>
      <trkpt lat="45.2989" lon="6.16456">
        <ele>2200.8000488281</ele>
        <time>2015-03-28T09:58:17.000Z</time>
      </trkpt>
      <trkpt lat="45.2989" lon="6.16454">
        <ele>2201.1999511719</ele>
        <time>2015-03-28T09:58:19.000Z</time>
      </trkpt>
      <trkpt lat="45.29891" lon="6.16451">
        <ele>2201.8000488281</ele>
        <time>2015-03-28T09:58:23.000Z</time>
      </trkpt>
      <trkpt lat="45.29891" lon="6.16445">
        <ele>2202.6000976562</ele>
        <time>2015-03-28T09:58:29.000Z</time>
      </trkpt>
      <trkpt lat="45.29891" lon="6.16445">
        <ele>2203</ele>
        <time>2015-03-28T09:58:30.000Z</time>
      </trkpt>
      <trkpt lat="45.29891" lon="6.16443">
        <ele>2204</ele>
        <time>2015-03-28T09:58:35.000Z</time>
      </trkpt>
      <trkpt lat="45.29891" lon="6.16438">
        <ele>2205</ele>
        <time>2015-03-28T09:58:41.000Z</time>
      </trkpt>
      <trkpt lat="45.29889" lon="6.16431">
        <ele>2206.1999511719</ele>
        <time>2015-03-28T09:58:48.000Z</time>
      </trkpt>
      <trkpt lat="45.29889" lon="6.1643">
        <ele>2206.1999511719</ele>
        <time>2015-03-28T09:58:49.000Z</time>
      </trkpt>
      <trkpt lat="45.29889" lon="6.16425">
        <ele>2206.8000488281</ele>
        <time>2015-03-28T09:58:55.000Z</time>
      </trkpt>
      <trkpt lat="45.29888" lon="6.16419">
        <ele>2207.1999511719</ele>
        <time>2015-03-28T09:59:00.000Z</time>
      </trkpt>
      <trkpt lat="45.29887" lon="6.16419">
        <ele>2207.1999511719</ele>
        <time>2015-03-28T09:59:01.000Z</time>
      </trkpt>
      <trkpt lat="45.29887" lon="6.16414">
        <ele>2208.1999511719</ele>
        <time>2015-03-28T09:59:07.000Z</time>
      </trkpt>
      <trkpt lat="45.29886" lon="6.16413">
        <ele>2208.6000976562</ele>
        <time>2015-03-28T09:59:09.000Z</time>
      </trkpt>
      <trkpt lat="45.29886" lon="6.16408">
        <ele>2209.3999023438</ele>
        <time>2015-03-28T09:59:14.000Z</time>
      </trkpt>
      <trkpt lat="45.29886" lon="6.16405">
        <ele>2209.8000488281</ele>
        <time>2015-03-28T09:59:17.000Z</time>
      </trkpt>
      <trkpt lat="45.29884" lon="6.164">
        <ele>2210.6000976562</ele>
        <time>2015-03-28T09:59:23.000Z</time>
      </trkpt>
      <trkpt lat="45.29882" lon="6.16395">
        <ele>2211.1999511719</ele>
        <time>2015-03-28T09:59:29.000Z</time>
      </trkpt>
      <trkpt lat="45.2988" lon="6.1639">
        <ele>2211.8000488281</ele>
        <time>2015-03-28T09:59:35.000Z</time>
      </trkpt>
      <trkpt lat="45.2988" lon="6.16389">
        <ele>2212.1999511719</ele>
        <time>2015-03-28T09:59:37.000Z</time>
      </trkpt>
      <trkpt lat="45.2988" lon="6.16387">
        <ele>2212.8000488281</ele>
        <time>2015-03-28T09:59:40.000Z</time>
      </trkpt>
      <trkpt lat="45.29879" lon="6.16384">
        <ele>2213.1999511719</ele>
        <time>2015-03-28T09:59:43.000Z</time>
      </trkpt>
      <trkpt lat="45.29878" lon="6.16381">
        <ele>2213.6000976562</ele>
        <time>2015-03-28T09:59:48.000Z</time>
      </trkpt>
      <trkpt lat="45.29878" lon="6.1638">
        <ele>2214</ele>
        <time>2015-03-28T09:59:52.000Z</time>
      </trkpt>
      <trkpt lat="45.29877" lon="6.16376">
        <ele>2214.3999023438</ele>
        <time>2015-03-28T09:59:56.000Z</time>
      </trkpt>
      <trkpt lat="45.29876" lon="6.16372">
        <ele>2215.1999511719</ele>
        <time>2015-03-28T10:00:01.000Z</time>
      </trkpt>
      <trkpt lat="45.29875" lon="6.1637">
        <ele>2215.6000976562</ele>
        <time>2015-03-28T10:00:03.000Z</time>
      </trkpt>
      <trkpt lat="45.29874" lon="6.16366">
        <ele>2216.3999023438</ele>
        <time>2015-03-28T10:00:07.000Z</time>
      </trkpt>
      <trkpt lat="45.29874" lon="6.16365">
        <ele>2216.8000488281</ele>
        <time>2015-03-28T10:00:09.000Z</time>
      </trkpt>
      <trkpt lat="45.29873" lon="6.16361">
        <ele>2217.6000976562</ele>
        <time>2015-03-28T10:00:13.000Z</time>
      </trkpt>
      <trkpt lat="45.29872" lon="6.16359">
        <ele>2217.8000488281</ele>
        <time>2015-03-28T10:00:15.000Z</time>
      </trkpt>
      <trkpt lat="45.29871" lon="6.16353">
        <ele>2218.6000976562</ele>
        <time>2015-03-28T10:00:21.000Z</time>
      </trkpt>
      <trkpt lat="45.29867" lon="6.16345">
        <ele>2219.1999511719</ele>
        <time>2015-03-28T10:00:27.000Z</time>
      </trkpt>
      <trkpt lat="45.29867" lon="6.16343">
        <ele>2219.8000488281</ele>
        <time>2015-03-28T10:00:33.000Z</time>
      </trkpt>
      <trkpt lat="45.29867" lon="6.16343">
        <ele>2219.8000488281</ele>
        <time>2015-03-28T10:00:34.000Z</time>
      </trkpt>
      <trkpt lat="45.29865" lon="6.16337">
        <ele>2220.3999023438</ele>
        <time>2015-03-28T10:00:40.000Z</time>
      </trkpt>
      <trkpt lat="45.29864" lon="6.16334">
        <ele>2220.8000488281</ele>
        <time>2015-03-28T10:00:43.000Z</time>
      </trkpt>
      <trkpt lat="45.29863" lon="6.16332">
        <ele>2221.1999511719</ele>
        <time>2015-03-28T10:00:45.000Z</time>
      </trkpt>
      <trkpt lat="45.2986" lon="6.16329">
        <ele>2222</ele>
        <time>2015-03-28T10:00:50.000Z</time>
      </trkpt>
      <trkpt lat="45.2986" lon="6.16327">
        <ele>2222.6000976562</ele>
        <time>2015-03-28T10:00:52.000Z</time>
      </trkpt>
      <trkpt lat="45.2986" lon="6.16324">
        <ele>2223</ele>
        <time>2015-03-28T10:00:55.000Z</time>
      </trkpt>
      <trkpt lat="45.2986" lon="6.16324">
        <ele>2223.3999023438</ele>
        <time>2015-03-28T10:00:57.000Z</time>
      </trkpt>
      <trkpt lat="45.29859" lon="6.16322">
        <ele>2224.1999511719</ele>
        <time>2015-03-28T10:01:00.000Z</time>
      </trkpt>
      <trkpt lat="45.29859" lon="6.1632">
        <ele>2224.6000976562</ele>
        <time>2015-03-28T10:01:02.000Z</time>
      </trkpt>
      <trkpt lat="45.29859" lon="6.16316">
        <ele>2224.8000488281</ele>
        <time>2015-03-28T10:01:08.000Z</time>
      </trkpt>
      <trkpt lat="45.29858" lon="6.16314">
        <ele>2225.3999023438</ele>
        <time>2015-03-28T10:01:11.000Z</time>
      </trkpt>
      <trkpt lat="45.29858" lon="6.16312">
        <ele>2226</ele>
        <time>2015-03-28T10:01:13.000Z</time>
      </trkpt>
      <trkpt lat="45.29858" lon="6.1631">
        <ele>2226.8000488281</ele>
        <time>2015-03-28T10:01:15.000Z</time>
      </trkpt>
      <trkpt lat="45.29858" lon="6.16309">
        <ele>2227.1999511719</ele>
        <time>2015-03-28T10:01:17.000Z</time>
      </trkpt>
      <trkpt lat="45.29857" lon="6.16306">
        <ele>2228</ele>
        <time>2015-03-28T10:01:20.000Z</time>
      </trkpt>
      <trkpt lat="45.29856" lon="6.16305">
        <ele>2228.3999023438</ele>
        <time>2015-03-28T10:01:22.000Z</time>
      </trkpt>
      <trkpt lat="45.29856" lon="6.16302">
        <ele>2229</ele>
        <time>2015-03-28T10:01:26.000Z</time>
      </trkpt>
      <trkpt lat="45.29856" lon="6.16301">
        <ele>2229</ele>
        <time>2015-03-28T10:01:27.000Z</time>
      </trkpt>
      <trkpt lat="45.29854" lon="6.16297">
        <ele>2230.1999511719</ele>
        <time>2015-03-28T10:01:32.000Z</time>
      </trkpt>
      <trkpt lat="45.29854" lon="6.16297">
        <ele>2230.6000976562</ele>
        <time>2015-03-28T10:01:33.000Z</time>
      </trkpt>
      <trkpt lat="45.29853" lon="6.16293">
        <ele>2231.3999023438</ele>
        <time>2015-03-28T10:01:37.000Z</time>
      </trkpt>
      <trkpt lat="45.29851" lon="6.16291">
        <ele>2232</ele>
        <time>2015-03-28T10:01:40.000Z</time>
      </trkpt>
      <trkpt lat="45.29851" lon="6.16289">
        <ele>2232.3999023438</ele>
        <time>2015-03-28T10:01:43.000Z</time>
      </trkpt>
      <trkpt lat="45.2985" lon="6.16287">
        <ele>2233.1999511719</ele>
        <time>2015-03-28T10:01:47.000Z</time>
      </trkpt>
      <trkpt lat="45.29849" lon="6.16284">
        <ele>2233.6000976562</ele>
        <time>2015-03-28T10:01:49.000Z</time>
      </trkpt>
      <trkpt lat="45.29849" lon="6.1628">
        <ele>2234.6000976562</ele>
        <time>2015-03-28T10:01:55.000Z</time>
      </trkpt>
      <trkpt lat="45.29847" lon="6.16276">
        <ele>2235.6000976562</ele>
        <time>2015-03-28T10:02:02.000Z</time>
      </trkpt>
      <trkpt lat="45.29847" lon="6.16275">
        <ele>2236</ele>
        <time>2015-03-28T10:02:03.000Z</time>
      </trkpt>
      <trkpt lat="45.29846" lon="6.16271">
        <ele>2236.8000488281</ele>
        <time>2015-03-28T10:02:09.000Z</time>
      </trkpt>
      <trkpt lat="45.29846" lon="6.16271">
        <ele>2237.1999511719</ele>
        <time>2015-03-28T10:02:10.000Z</time>
      </trkpt>
      <trkpt lat="45.29846" lon="6.16269">
        <ele>2238.1999511719</ele>
        <time>2015-03-28T10:02:16.000Z</time>
      </trkpt>
      <trkpt lat="45.29846" lon="6.16269">
        <ele>2238.3999023438</ele>
        <time>2015-03-28T10:02:17.000Z</time>
      </trkpt>
      <trkpt lat="45.29846" lon="6.16269">
        <ele>2239</ele>
        <time>2015-03-28T10:02:36.000Z</time>
      </trkpt>
      <trkpt lat="45.29844" lon="6.16267">
        <ele>2239.1999511719</ele>
        <time>2015-03-28T10:02:43.000Z</time>
      </trkpt>
      <trkpt lat="45.29843" lon="6.16263">
        <ele>2239.3999023438</ele>
        <time>2015-03-28T10:02:47.000Z</time>
      </trkpt>
      <trkpt lat="45.29843" lon="6.16262">
        <ele>2239.3999023438</ele>
        <time>2015-03-28T10:02:48.000Z</time>
      </trkpt>
      <trkpt lat="45.29843" lon="6.1626">
        <ele>2239.8000488281</ele>
        <time>2015-03-28T10:02:50.000Z</time>
      </trkpt>
      <trkpt lat="45.29843" lon="6.16259">
        <ele>2240.3999023438</ele>
        <time>2015-03-28T10:02:52.000Z</time>
      </trkpt>
      <trkpt lat="45.29842" lon="6.16253">
        <ele>2241.6000976562</ele>
        <time>2015-03-28T10:02:58.000Z</time>
      </trkpt>
      <trkpt lat="45.29843" lon="6.16247">
        <ele>2241.8000488281</ele>
        <time>2015-03-28T10:03:03.000Z</time>
      </trkpt>
      <trkpt lat="45.29846" lon="6.16242">
        <ele>2243</ele>
        <time>2015-03-28T10:03:09.000Z</time>
      </trkpt>
      <trkpt lat="45.29847" lon="6.16237">
        <ele>2244</ele>
        <time>2015-03-28T10:03:14.000Z</time>
      </trkpt>
      <trkpt lat="45.29848" lon="6.16237">
        <ele>2244.3999023438</ele>
        <time>2015-03-28T10:03:15.000Z</time>
      </trkpt>
      <trkpt lat="45.29848" lon="6.16233">
        <ele>2245</ele>
        <time>2015-03-28T10:03:20.000Z</time>
      </trkpt>
      <trkpt lat="45.29848" lon="6.16232">
        <ele>2245.8000488281</ele>
        <time>2015-03-28T10:03:23.000Z</time>
      </trkpt>
      <trkpt lat="45.29848" lon="6.16231">
        <ele>2246</ele>
        <time>2015-03-28T10:03:24.000Z</time>
      </trkpt>
      <trkpt lat="45.29849" lon="6.16229">
        <ele>2247.1999511719</ele>
        <time>2015-03-28T10:03:28.000Z</time>
      </trkpt>
      <trkpt lat="45.29849" lon="6.16229">
        <ele>2247.3999023438</ele>
        <time>2015-03-28T10:03:29.000Z</time>
      </trkpt>
      <trkpt lat="45.29849" lon="6.16223">
        <ele>2248.6000976562</ele>
        <time>2015-03-28T10:03:35.000Z</time>
      </trkpt>
      <trkpt lat="45.29849" lon="6.1622">
        <ele>2249.8000488281</ele>
        <time>2015-03-28T10:03:41.000Z</time>
      </trkpt>
      <trkpt lat="45.29849" lon="6.16218">
        <ele>2250.8000488281</ele>
        <time>2015-03-28T10:03:46.000Z</time>
      </trkpt>
      <trkpt lat="45.29849" lon="6.16212">
        <ele>2251.6000976562</ele>
        <time>2015-03-28T10:03:52.000Z</time>
      </trkpt>
      <trkpt lat="45.29849" lon="6.16211">
        <ele>2252</ele>
        <time>2015-03-28T10:03:53.000Z</time>
      </trkpt>
      <trkpt lat="45.29849" lon="6.16209">
        <ele>2252.8000488281</ele>
        <time>2015-03-28T10:03:58.000Z</time>
      </trkpt>
      <trkpt lat="45.29849" lon="6.16206">
        <ele>2253.3999023438</ele>
        <time>2015-03-28T10:04:03.000Z</time>
      </trkpt>
      <trkpt lat="45.29849" lon="6.16202">
        <ele>2254.3999023438</ele>
        <time>2015-03-28T10:04:07.000Z</time>
      </trkpt>
      <trkpt lat="45.29849" lon="6.16201">
        <ele>2254.6000976562</ele>
        <time>2015-03-28T10:04:08.000Z</time>
      </trkpt>
      <trkpt lat="45.29848" lon="6.16195">
        <ele>2255.3999023438</ele>
        <time>2015-03-28T10:04:14.000Z</time>
      </trkpt>
      <trkpt lat="45.29848" lon="6.16194">
        <ele>2255.8000488281</ele>
        <time>2015-03-28T10:04:15.000Z</time>
      </trkpt>
      <trkpt lat="45.29848" lon="6.16193">
        <ele>2256.8000488281</ele>
        <time>2015-03-28T10:04:18.000Z</time>
      </trkpt>
      <trkpt lat="45.29848" lon="6.16189">
        <ele>2257.8000488281</ele>
        <time>2015-03-28T10:04:22.000Z</time>
      </trkpt>
      <trkpt lat="45.29848" lon="6.16187">
        <ele>2258</ele>
        <time>2015-03-28T10:04:23.000Z</time>
      </trkpt>
      <trkpt lat="45.29848" lon="6.16182">
        <ele>2258.3999023438</ele>
        <time>2015-03-28T10:04:28.000Z</time>
      </trkpt>
      <trkpt lat="45.29849" lon="6.16179">
        <ele>2259</ele>
        <time>2015-03-28T10:04:31.000Z</time>
      </trkpt>
      <trkpt lat="45.29851" lon="6.16177">
        <ele>2259.6000976562</ele>
        <time>2015-03-28T10:04:35.000Z</time>
      </trkpt>
      <trkpt lat="45.29852" lon="6.16176">
        <ele>2260</ele>
        <time>2015-03-28T10:04:38.000Z</time>
      </trkpt>
      <trkpt lat="45.29852" lon="6.16176">
        <ele>2261</ele>
        <time>2015-03-28T10:04:42.000Z</time>
      </trkpt>
      <trkpt lat="45.29852" lon="6.16176">
        <ele>2262.1999511719</ele>
        <time>2015-03-28T10:04:48.000Z</time>
      </trkpt>
      <trkpt lat="45.29852" lon="6.16176">
        <ele>2262</ele>
        <time>2015-03-28T10:04:53.000Z</time>
      </trkpt>
      <trkpt lat="45.29852" lon="6.16176">
        <ele>2262.3999023438</ele>
        <time>2015-03-28T10:05:07.000Z</time>
      </trkpt>
      <trkpt lat="45.29852" lon="6.16176">
        <ele>2263.3999023438</ele>
        <time>2015-03-28T10:05:12.000Z</time>
      </trkpt>
      <trkpt lat="45.29852" lon="6.16176">
        <ele>2264.3999023438</ele>
        <time>2015-03-28T10:05:15.000Z</time>
      </trkpt>
      <trkpt lat="45.29852" lon="6.16176">
        <ele>2265</ele>
        <time>2015-03-28T10:05:17.000Z</time>
      </trkpt>
      <trkpt lat="45.29852" lon="6.16176">
        <ele>2265.6000976562</ele>
        <time>2015-03-28T10:05:19.000Z</time>
      </trkpt>
      <trkpt lat="45.29852" lon="6.16176">
        <ele>2266.8000488281</ele>
        <time>2015-03-28T10:05:24.000Z</time>
      </trkpt>
      <trkpt lat="45.29852" lon="6.16176">
        <ele>2267</ele>
        <time>2015-03-28T10:05:25.000Z</time>
      </trkpt>
      <trkpt lat="45.29848" lon="6.16169">
        <ele>2268</ele>
        <time>2015-03-28T10:05:29.000Z</time>
      </trkpt>
      <trkpt lat="45.29847" lon="6.16168">
        <ele>2268.3999023438</ele>
        <time>2015-03-28T10:05:30.000Z</time>
      </trkpt>
      <trkpt lat="45.29847" lon="6.16166">
        <ele>2269</ele>
        <time>2015-03-28T10:05:32.000Z</time>
      </trkpt>
      <trkpt lat="45.29847" lon="6.16162">
        <ele>2270</ele>
        <time>2015-03-28T10:05:36.000Z</time>
      </trkpt>
      <trkpt lat="45.29848" lon="6.1616">
        <ele>2270.1999511719</ele>
        <time>2015-03-28T10:05:37.000Z</time>
      </trkpt>
      <trkpt lat="45.29848" lon="6.16157">
        <ele>2271.1999511719</ele>
        <time>2015-03-28T10:05:40.000Z</time>
      </trkpt>
      <trkpt lat="45.29848" lon="6.16153">
        <ele>2271.6000976562</ele>
        <time>2015-03-28T10:05:45.000Z</time>
      </trkpt>
      <trkpt lat="45.29848" lon="6.1615">
        <ele>2272.1999511719</ele>
        <time>2015-03-28T10:05:49.000Z</time>
      </trkpt>
      <trkpt lat="45.2985" lon="6.16147">
        <ele>2273</ele>
        <time>2015-03-28T10:05:53.000Z</time>
      </trkpt>
      <trkpt lat="45.29851" lon="6.16146">
        <ele>2273.3999023438</ele>
        <time>2015-03-28T10:05:55.000Z</time>
      </trkpt>
      <trkpt lat="45.29853" lon="6.16143">
        <ele>2274</ele>
        <time>2015-03-28T10:05:59.000Z</time>
      </trkpt>
      <trkpt lat="45.29854" lon="6.16143">
        <ele>2274.3999023438</ele>
        <time>2015-03-28T10:06:01.000Z</time>
      </trkpt>
      <trkpt lat="45.29855" lon="6.16141">
        <ele>2275</ele>
        <time>2015-03-28T10:06:05.000Z</time>
      </trkpt>
      <trkpt lat="45.29857" lon="6.1614">
        <ele>2275.3999023438</ele>
        <time>2015-03-28T10:06:10.000Z</time>
      </trkpt>
      <trkpt lat="45.29857" lon="6.1614">
        <ele>2275.8000488281</ele>
        <time>2015-03-28T10:06:12.000Z</time>
      </trkpt>
      <trkpt lat="45.29857" lon="6.1614">
        <ele>2276.6000976562</ele>
        <time>2015-03-28T10:06:16.000Z</time>
      </trkpt>
      <trkpt lat="45.29857" lon="6.1614">
        <ele>2276.8000488281</ele>
        <time>2015-03-28T10:06:18.000Z</time>
      </trkpt>
      <trkpt lat="45.29857" lon="6.1614">
        <ele>2277.6000976562</ele>
        <time>2015-03-28T10:06:25.000Z</time>
      </trkpt>
      <trkpt lat="45.29857" lon="6.1614">
        <ele>2277.8000488281</ele>
        <time>2015-03-28T10:06:26.000Z</time>
      </trkpt>
      <trkpt lat="45.29857" lon="6.1614">
        <ele>2279</ele>
        <time>2015-03-28T10:06:32.000Z</time>
      </trkpt>
      <trkpt lat="45.29857" lon="6.1614">
        <ele>2280.1999511719</ele>
        <time>2015-03-28T10:06:38.000Z</time>
      </trkpt>
      <trkpt lat="45.29857" lon="6.1614">
        <ele>2280.1999511719</ele>
        <time>2015-03-28T10:06:39.000Z</time>
      </trkpt>
      <trkpt lat="45.29857" lon="6.1614">
        <ele>2281.1999511719</ele>
        <time>2015-03-28T10:06:44.000Z</time>
      </trkpt>
      <trkpt lat="45.29857" lon="6.1614">
        <ele>2281.6000976562</ele>
        <time>2015-03-28T10:06:46.000Z</time>
      </trkpt>
      <trkpt lat="45.29857" lon="6.1614">
        <ele>2282.3999023438</ele>
        <time>2015-03-28T10:06:51.000Z</time>
      </trkpt>
      <trkpt lat="45.29857" lon="6.1614">
        <ele>2282.6000976562</ele>
        <time>2015-03-28T10:06:53.000Z</time>
      </trkpt>
      <trkpt lat="45.29859" lon="6.16138">
        <ele>2283.3999023438</ele>
        <time>2015-03-28T10:06:57.000Z</time>
      </trkpt>
      <trkpt lat="45.29861" lon="6.16134">
        <ele>2284</ele>
        <time>2015-03-28T10:06:59.000Z</time>
      </trkpt>
      <trkpt lat="45.29862" lon="6.16128">
        <ele>2284.6000976562</ele>
        <time>2015-03-28T10:07:03.000Z</time>
      </trkpt>
      <trkpt lat="45.29862" lon="6.16127">
        <ele>2284.6000976562</ele>
        <time>2015-03-28T10:07:04.000Z</time>
      </trkpt>
      <trkpt lat="45.29862" lon="6.16122">
        <ele>2285.6000976562</ele>
        <time>2015-03-28T10:07:09.000Z</time>
      </trkpt>
      <trkpt lat="45.29864" lon="6.16119">
        <ele>2286</ele>
        <time>2015-03-28T10:07:11.000Z</time>
      </trkpt>
      <trkpt lat="45.29865" lon="6.16115">
        <ele>2286.8000488281</ele>
        <time>2015-03-28T10:07:15.000Z</time>
      </trkpt>
      <trkpt lat="45.29865" lon="6.16114">
        <ele>2286.8000488281</ele>
        <time>2015-03-28T10:07:16.000Z</time>
      </trkpt>
      <trkpt lat="45.29866" lon="6.16111">
        <ele>2287.8000488281</ele>
        <time>2015-03-28T10:07:21.000Z</time>
      </trkpt>
      <trkpt lat="45.29866" lon="6.16111">
        <ele>2288</ele>
        <time>2015-03-28T10:07:22.000Z</time>
      </trkpt>
      <trkpt lat="45.29865" lon="6.16107">
        <ele>2288.8000488281</ele>
        <time>2015-03-28T10:07:27.000Z</time>
      </trkpt>
      <trkpt lat="45.29864" lon="6.16104">
        <ele>2289</ele>
        <time>2015-03-28T10:07:29.000Z</time>
      </trkpt>
      <trkpt lat="45.29866" lon="6.161">
        <ele>2290</ele>
        <time>2015-03-28T10:07:34.000Z</time>
      </trkpt>
      <trkpt lat="45.29871" lon="6.16096">
        <ele>2291.1999511719</ele>
        <time>2015-03-28T10:07:39.000Z</time>
      </trkpt>
      <trkpt lat="45.29873" lon="6.16094">
        <ele>2291.8000488281</ele>
        <time>2015-03-28T10:07:43.000Z</time>
      </trkpt>
      <trkpt lat="45.29873" lon="6.16094">
        <ele>2292.1999511719</ele>
        <time>2015-03-28T10:07:47.000Z</time>
      </trkpt>
      <trkpt lat="45.29873" lon="6.16094">
        <ele>2292.8000488281</ele>
        <time>2015-03-28T10:07:50.000Z</time>
      </trkpt>
      <trkpt lat="45.29873" lon="6.16094">
        <ele>2293.1999511719</ele>
        <time>2015-03-28T10:07:52.000Z</time>
      </trkpt>
      <trkpt lat="45.29873" lon="6.16094">
        <ele>2293.8000488281</ele>
        <time>2015-03-28T10:07:56.000Z</time>
      </trkpt>
      <trkpt lat="45.29877" lon="6.16091">
        <ele>2294.3999023438</ele>
        <time>2015-03-28T10:07:59.000Z</time>
      </trkpt>
      <trkpt lat="45.29879" lon="6.1609">
        <ele>2294.6000976562</ele>
        <time>2015-03-28T10:08:00.000Z</time>
      </trkpt>
      <trkpt lat="45.29884" lon="6.16086">
        <ele>2295.3999023438</ele>
        <time>2015-03-28T10:08:05.000Z</time>
      </trkpt>
      <trkpt lat="45.29885" lon="6.16085">
        <ele>2296.6000976562</ele>
        <time>2015-03-28T10:08:10.000Z</time>
      </trkpt>
      <trkpt lat="45.29885" lon="6.16085">
        <ele>2297</ele>
        <time>2015-03-28T10:08:12.000Z</time>
      </trkpt>
      <trkpt lat="45.29885" lon="6.16085">
        <ele>2297.8000488281</ele>
        <time>2015-03-28T10:08:15.000Z</time>
      </trkpt>
      <trkpt lat="45.2988" lon="6.16079">
        <ele>2298.3999023438</ele>
        <time>2015-03-28T10:08:19.000Z</time>
      </trkpt>
      <trkpt lat="45.29878" lon="6.16075">
        <ele>2299</ele>
        <time>2015-03-28T10:08:22.000Z</time>
      </trkpt>
      <trkpt lat="45.29879" lon="6.16073">
        <ele>2299.1999511719</ele>
        <time>2015-03-28T10:08:24.000Z</time>
      </trkpt>
      <trkpt lat="45.29879" lon="6.16069">
        <ele>2300.1999511719</ele>
        <time>2015-03-28T10:08:28.000Z</time>
      </trkpt>
      <trkpt lat="45.2988" lon="6.16067">
        <ele>2300.3999023438</ele>
        <time>2015-03-28T10:08:30.000Z</time>
      </trkpt>
      <trkpt lat="45.2988" lon="6.16063">
        <ele>2301.1999511719</ele>
        <time>2015-03-28T10:08:33.000Z</time>
      </trkpt>
      <trkpt lat="45.2988" lon="6.1606">
        <ele>2301.6000976562</ele>
        <time>2015-03-28T10:08:36.000Z</time>
      </trkpt>
      <trkpt lat="45.29878" lon="6.16054">
        <ele>2302.3999023438</ele>
        <time>2015-03-28T10:08:42.000Z</time>
      </trkpt>
      <trkpt lat="45.29878" lon="6.16053">
        <ele>2302.6000976562</ele>
        <time>2015-03-28T10:08:43.000Z</time>
      </trkpt>
      <trkpt lat="45.29877" lon="6.16047">
        <ele>2303.3999023438</ele>
        <time>2015-03-28T10:08:48.000Z</time>
      </trkpt>
      <trkpt lat="45.29878" lon="6.16044">
        <ele>2303.8000488281</ele>
        <time>2015-03-28T10:08:50.000Z</time>
      </trkpt>
      <trkpt lat="45.29879" lon="6.16042">
        <ele>2304.6000976562</ele>
        <time>2015-03-28T10:08:53.000Z</time>
      </trkpt>
      <trkpt lat="45.29881" lon="6.16038">
        <ele>2305.1999511719</ele>
        <time>2015-03-28T10:08:56.000Z</time>
      </trkpt>
      <trkpt lat="45.29883" lon="6.16036">
        <ele>2305.6000976562</ele>
        <time>2015-03-28T10:08:59.000Z</time>
      </trkpt>
      <trkpt lat="45.29885" lon="6.16033">
        <ele>2306.1999511719</ele>
        <time>2015-03-28T10:09:02.000Z</time>
      </trkpt>
      <trkpt lat="45.29888" lon="6.16031">
        <ele>2306.8000488281</ele>
        <time>2015-03-28T10:09:05.000Z</time>
      </trkpt>
      <trkpt lat="45.29889" lon="6.1603">
        <ele>2307.3999023438</ele>
        <time>2015-03-28T10:09:09.000Z</time>
      </trkpt>
      <trkpt lat="45.29889" lon="6.1603">
        <ele>2307.8000488281</ele>
        <time>2015-03-28T10:09:11.000Z</time>
      </trkpt>
      <trkpt lat="45.29889" lon="6.1603">
        <ele>2309</ele>
        <time>2015-03-28T10:09:16.000Z</time>
      </trkpt>
      <trkpt lat="45.29882" lon="6.16027">
        <ele>2310.1999511719</ele>
        <time>2015-03-28T10:09:22.000Z</time>
      </trkpt>
      <trkpt lat="45.2988" lon="6.16026">
        <ele>2310.1999511719</ele>
        <time>2015-03-28T10:09:23.000Z</time>
      </trkpt>
      <trkpt lat="45.29871" lon="6.16017">
        <ele>2311.1999511719</ele>
        <time>2015-03-28T10:09:29.000Z</time>
      </trkpt>
      <trkpt lat="45.29871" lon="6.16015">
        <ele>2311.6000976562</ele>
        <time>2015-03-28T10:09:31.000Z</time>
      </trkpt>
      <trkpt lat="45.29875" lon="6.16013">
        <ele>2312.3999023438</ele>
        <time>2015-03-28T10:09:34.000Z</time>
      </trkpt>
      <trkpt lat="45.29881" lon="6.1601">
        <ele>2313</ele>
        <time>2015-03-28T10:09:38.000Z</time>
      </trkpt>
      <trkpt lat="45.29881" lon="6.1601">
        <ele>2313.3999023438</ele>
        <time>2015-03-28T10:09:39.000Z</time>
      </trkpt>
      <trkpt lat="45.29883" lon="6.16009">
        <ele>2314</ele>
        <time>2015-03-28T10:09:43.000Z</time>
      </trkpt>
      <trkpt lat="45.29885" lon="6.16008">
        <ele>2314.3999023438</ele>
        <time>2015-03-28T10:09:46.000Z</time>
      </trkpt>
      <trkpt lat="45.29889" lon="6.16008">
        <ele>2315</ele>
        <time>2015-03-28T10:09:49.000Z</time>
      </trkpt>
      <trkpt lat="45.29893" lon="6.16008">
        <ele>2315.6000976562</ele>
        <time>2015-03-28T10:09:52.000Z</time>
      </trkpt>
      <trkpt lat="45.29893" lon="6.16008">
        <ele>2316</ele>
        <time>2015-03-28T10:09:54.000Z</time>
      </trkpt>
      <trkpt lat="45.29893" lon="6.16008">
        <ele>2316.6000976562</ele>
        <time>2015-03-28T10:09:59.000Z</time>
      </trkpt>
      <trkpt lat="45.29893" lon="6.16008">
        <ele>2317.6000976562</ele>
        <time>2015-03-28T10:10:04.000Z</time>
      </trkpt>
      <trkpt lat="45.29893" lon="6.16008">
        <ele>2317.8000488281</ele>
        <time>2015-03-28T10:10:05.000Z</time>
      </trkpt>
      <trkpt lat="45.29893" lon="6.16008">
        <ele>2319</ele>
        <time>2015-03-28T10:10:09.000Z</time>
      </trkpt>
      <trkpt lat="45.29893" lon="6.16008">
        <ele>2319.1999511719</ele>
        <time>2015-03-28T10:10:14.000Z</time>
      </trkpt>
      <trkpt lat="45.29879" lon="6.15999">
        <ele>2320</ele>
        <time>2015-03-28T10:10:21.000Z</time>
      </trkpt>
      <trkpt lat="45.29879" lon="6.15998">
        <ele>2320.1999511719</ele>
        <time>2015-03-28T10:10:22.000Z</time>
      </trkpt>
      <trkpt lat="45.29874" lon="6.15992">
        <ele>2321</ele>
        <time>2015-03-28T10:10:28.000Z</time>
      </trkpt>
      <trkpt lat="45.29874" lon="6.15991">
        <ele>2321.1999511719</ele>
        <time>2015-03-28T10:10:29.000Z</time>
      </trkpt>
      <trkpt lat="45.29873" lon="6.15988">
        <ele>2322.6000976562</ele>
        <time>2015-03-28T10:10:32.000Z</time>
      </trkpt>
      <trkpt lat="45.29869" lon="6.15981">
        <ele>2323.3999023438</ele>
        <time>2015-03-28T10:10:37.000Z</time>
      </trkpt>
      <trkpt lat="45.29868" lon="6.1598">
        <ele>2323.6000976562</ele>
        <time>2015-03-28T10:10:39.000Z</time>
      </trkpt>
      <trkpt lat="45.29868" lon="6.1598">
        <ele>2325</ele>
        <time>2015-03-28T10:10:43.000Z</time>
      </trkpt>
      <trkpt lat="45.29866" lon="6.15979">
        <ele>2325.6000976562</ele>
        <time>2015-03-28T10:10:45.000Z</time>
      </trkpt>
      <trkpt lat="45.29866" lon="6.15979">
        <ele>2326.1999511719</ele>
        <time>2015-03-28T10:10:47.000Z</time>
      </trkpt>
      <trkpt lat="45.29861" lon="6.15973">
        <ele>2326.8000488281</ele>
        <time>2015-03-28T10:10:52.000Z</time>
      </trkpt>
      <trkpt lat="45.2986" lon="6.15971">
        <ele>2327.1999511719</ele>
        <time>2015-03-28T10:10:56.000Z</time>
      </trkpt>
      <trkpt lat="45.2986" lon="6.15971">
        <ele>2327.6000976562</ele>
        <time>2015-03-28T10:10:59.000Z</time>
      </trkpt>
      <trkpt lat="45.29862" lon="6.15971">
        <ele>2328.1999511719</ele>
        <time>2015-03-28T10:11:04.000Z</time>
      </trkpt>
      <trkpt lat="45.29862" lon="6.15971">
        <ele>2328.3999023438</ele>
        <time>2015-03-28T10:11:05.000Z</time>
      </trkpt>
      <trkpt lat="45.29869" lon="6.15969">
        <ele>2329.6000976562</ele>
        <time>2015-03-28T10:11:10.000Z</time>
      </trkpt>
      <trkpt lat="45.2987" lon="6.15969">
        <ele>2329.6000976562</ele>
        <time>2015-03-28T10:11:11.000Z</time>
      </trkpt>
      <trkpt lat="45.29872" lon="6.15968">
        <ele>2330.6000976562</ele>
        <time>2015-03-28T10:11:16.000Z</time>
      </trkpt>
      <trkpt lat="45.29876" lon="6.15966">
        <ele>2331.6000976562</ele>
        <time>2015-03-28T10:11:21.000Z</time>
      </trkpt>
      <trkpt lat="45.29876" lon="6.15966">
        <ele>2331.6000976562</ele>
        <time>2015-03-28T10:11:22.000Z</time>
      </trkpt>
      <trkpt lat="45.29882" lon="6.15966">
        <ele>2332.1999511719</ele>
        <time>2015-03-28T10:11:26.000Z</time>
      </trkpt>
      <trkpt lat="45.29886" lon="6.15965">
        <ele>2332.8000488281</ele>
        <time>2015-03-28T10:11:31.000Z</time>
      </trkpt>
      <trkpt lat="45.29888" lon="6.15965">
        <ele>2333.1999511719</ele>
        <time>2015-03-28T10:11:34.000Z</time>
      </trkpt>
      <trkpt lat="45.2989" lon="6.15965">
        <ele>2334</ele>
        <time>2015-03-28T10:11:37.000Z</time>
      </trkpt>
      <trkpt lat="45.29893" lon="6.15963">
        <ele>2335</ele>
        <time>2015-03-28T10:11:40.000Z</time>
      </trkpt>
      <trkpt lat="45.29893" lon="6.15963">
        <ele>2335.3999023438</ele>
        <time>2015-03-28T10:11:41.000Z</time>
      </trkpt>
      <trkpt lat="45.29894" lon="6.15963">
        <ele>2336.1999511719</ele>
        <time>2015-03-28T10:11:45.000Z</time>
      </trkpt>
      <trkpt lat="45.29894" lon="6.15963">
        <ele>2336.8000488281</ele>
        <time>2015-03-28T10:11:47.000Z</time>
      </trkpt>
      <trkpt lat="45.29894" lon="6.15963">
        <ele>2337.3999023438</ele>
        <time>2015-03-28T10:11:49.000Z</time>
      </trkpt>
      <trkpt lat="45.29894" lon="6.15963">
        <ele>2337.3999023438</ele>
        <time>2015-03-28T10:11:56.000Z</time>
      </trkpt>
      <trkpt lat="45.29888" lon="6.1596">
        <ele>2338.1999511719</ele>
        <time>2015-03-28T10:12:02.000Z</time>
      </trkpt>
      <trkpt lat="45.29885" lon="6.15957">
        <ele>2338.6000976562</ele>
        <time>2015-03-28T10:12:04.000Z</time>
      </trkpt>
      <trkpt lat="45.29878" lon="6.15951">
        <ele>2339.3999023438</ele>
        <time>2015-03-28T10:12:11.000Z</time>
      </trkpt>
      <trkpt lat="45.29877" lon="6.15949">
        <ele>2339.6000976562</ele>
        <time>2015-03-28T10:12:13.000Z</time>
      </trkpt>
      <trkpt lat="45.29874" lon="6.15945">
        <ele>2340.8000488281</ele>
        <time>2015-03-28T10:12:19.000Z</time>
      </trkpt>
      <trkpt lat="45.29872" lon="6.15942">
        <ele>2342</ele>
        <time>2015-03-28T10:12:27.000Z</time>
      </trkpt>
      <trkpt lat="45.29868" lon="6.15936">
        <ele>2343.1999511719</ele>
        <time>2015-03-28T10:12:31.000Z</time>
      </trkpt>
      <trkpt lat="45.29866" lon="6.15935">
        <ele>2343.8000488281</ele>
        <time>2015-03-28T10:12:33.000Z</time>
      </trkpt>
      <trkpt lat="45.29865" lon="6.15935">
        <ele>2344.3999023438</ele>
        <time>2015-03-28T10:12:35.000Z</time>
      </trkpt>
      <trkpt lat="45.29865" lon="6.15934">
        <ele>2345.3999023438</ele>
        <time>2015-03-28T10:12:43.000Z</time>
      </trkpt>
      <trkpt lat="45.29865" lon="6.15934">
        <ele>2345.6000976562</ele>
        <time>2015-03-28T10:12:44.000Z</time>
      </trkpt>
      <trkpt lat="45.29868" lon="6.15934">
        <ele>2346.3999023438</ele>
        <time>2015-03-28T10:12:50.000Z</time>
      </trkpt>
      <trkpt lat="45.29872" lon="6.15933">
        <ele>2346.3999023438</ele>
        <time>2015-03-28T10:12:55.000Z</time>
      </trkpt>
      <trkpt lat="45.29874" lon="6.15933">
        <ele>2347.6000976562</ele>
        <time>2015-03-28T10:13:00.000Z</time>
      </trkpt>
      <trkpt lat="45.29875" lon="6.15933">
        <ele>2348.3999023438</ele>
        <time>2015-03-28T10:13:06.000Z</time>
      </trkpt>
      <trkpt lat="45.29875" lon="6.15933">
        <ele>2348.6000976562</ele>
        <time>2015-03-28T10:13:07.000Z</time>
      </trkpt>
      <trkpt lat="45.29876" lon="6.15932">
        <ele>2349.8000488281</ele>
        <time>2015-03-28T10:13:13.000Z</time>
      </trkpt>
      <trkpt lat="45.29876" lon="6.15932">
        <ele>2350.8000488281</ele>
        <time>2015-03-28T10:13:19.000Z</time>
      </trkpt>
      <trkpt lat="45.29876" lon="6.15932">
        <ele>2351.1999511719</ele>
        <time>2015-03-28T10:13:23.000Z</time>
      </trkpt>
      <trkpt lat="45.29875" lon="6.15931">
        <ele>2351.8000488281</ele>
        <time>2015-03-28T10:13:32.000Z</time>
      </trkpt>
      <trkpt lat="45.29875" lon="6.15931">
        <ele>2351.8000488281</ele>
        <time>2015-03-28T10:13:34.000Z</time>
      </trkpt>
      <trkpt lat="45.29873" lon="6.15929">
        <ele>2352.3999023438</ele>
        <time>2015-03-28T10:13:39.000Z</time>
      </trkpt>
      <trkpt lat="45.29873" lon="6.15927">
        <ele>2353</ele>
        <time>2015-03-28T10:13:42.000Z</time>
      </trkpt>
      <trkpt lat="45.2987" lon="6.15922">
        <ele>2354</ele>
        <time>2015-03-28T10:13:48.000Z</time>
      </trkpt>
      <trkpt lat="45.29868" lon="6.1592">
        <ele>2354.1999511719</ele>
        <time>2015-03-28T10:13:54.000Z</time>
      </trkpt>
      <trkpt lat="45.29868" lon="6.1592">
        <ele>2354.8000488281</ele>
        <time>2015-03-28T10:14:03.000Z</time>
      </trkpt>
      <trkpt lat="45.29868" lon="6.1592">
        <ele>2355.1999511719</ele>
        <time>2015-03-28T10:14:07.000Z</time>
      </trkpt>
      <trkpt lat="45.29868" lon="6.1592">
        <ele>2356</ele>
        <time>2015-03-28T10:14:16.000Z</time>
      </trkpt>
      <trkpt lat="45.29866" lon="6.15918">
        <ele>2355.3999023438</ele>
        <time>2015-03-28T10:14:22.000Z</time>
      </trkpt>
      <trkpt lat="45.29861" lon="6.15914">
        <ele>2356</ele>
        <time>2015-03-28T10:14:30.000Z</time>
      </trkpt>
      <trkpt lat="45.2986" lon="6.15912">
        <ele>2356.3999023438</ele>
        <time>2015-03-28T10:14:32.000Z</time>
      </trkpt>
      <trkpt lat="45.29858" lon="6.1591">
        <ele>2357</ele>
        <time>2015-03-28T10:14:37.000Z</time>
      </trkpt>
      <trkpt lat="45.29856" lon="6.15909">
        <ele>2357.3999023438</ele>
        <time>2015-03-28T10:14:39.000Z</time>
      </trkpt>
      <trkpt lat="45.29857" lon="6.15909">
        <ele>2358.1999511719</ele>
        <time>2015-03-28T10:14:46.000Z</time>
      </trkpt>
      <trkpt lat="45.29857" lon="6.15909">
        <ele>2358.3999023438</ele>
        <time>2015-03-28T10:14:48.000Z</time>
      </trkpt>
      <trkpt lat="45.29857" lon="6.15909">
        <ele>2358.1999511719</ele>
        <time>2015-03-28T10:15:00.000Z</time>
      </trkpt>
      <trkpt lat="45.29857" lon="6.15909">
        <ele>2359.3999023438</ele>
        <time>2015-03-28T10:15:13.000Z</time>
      </trkpt>
      <trkpt lat="45.29859" lon="6.15908">
        <ele>2359.3999023438</ele>
        <time>2015-03-28T10:15:15.000Z</time>
      </trkpt>
      <trkpt lat="45.29863" lon="6.15907">
        <ele>2359.6000976562</ele>
        <time>2015-03-28T10:15:18.000Z</time>
      </trkpt>
      <trkpt lat="45.29869" lon="6.15905">
        <ele>2360.6000976562</ele>
        <time>2015-03-28T10:15:23.000Z</time>
      </trkpt>
      <trkpt lat="45.29869" lon="6.15905">
        <ele>2360.8000488281</ele>
        <time>2015-03-28T10:15:24.000Z</time>
      </trkpt>
      <trkpt lat="45.29869" lon="6.15905">
        <ele>2361.8000488281</ele>
        <time>2015-03-28T10:15:29.000Z</time>
      </trkpt>
      <trkpt lat="45.29869" lon="6.15905">
        <ele>2362.1999511719</ele>
        <time>2015-03-28T10:15:31.000Z</time>
      </trkpt>
      <trkpt lat="45.29869" lon="6.15905">
        <ele>2362.8000488281</ele>
        <time>2015-03-28T10:15:36.000Z</time>
      </trkpt>
      <trkpt lat="45.29869" lon="6.15905">
        <ele>2363.3999023438</ele>
        <time>2015-03-28T10:15:41.000Z</time>
      </trkpt>
      <trkpt lat="45.29869" lon="6.15903">
        <ele>2363.8000488281</ele>
        <time>2015-03-28T10:15:45.000Z</time>
      </trkpt>
      <trkpt lat="45.29868" lon="6.15901">
        <ele>2364.1999511719</ele>
        <time>2015-03-28T10:15:49.000Z</time>
      </trkpt>
      <trkpt lat="45.29867" lon="6.15899">
        <ele>2365</ele>
        <time>2015-03-28T10:15:54.000Z</time>
      </trkpt>
      <trkpt lat="45.29866" lon="6.15896">
        <ele>2365.3999023438</ele>
        <time>2015-03-28T10:15:58.000Z</time>
      </trkpt>
      <trkpt lat="45.29866" lon="6.15893">
        <ele>2366.1999511719</ele>
        <time>2015-03-28T10:16:03.000Z</time>
      </trkpt>
      <trkpt lat="45.29865" lon="6.15892">
        <ele>2367</ele>
        <time>2015-03-28T10:16:06.000Z</time>
      </trkpt>
      <trkpt lat="45.29865" lon="6.15891">
        <ele>2367.1999511719</ele>
        <time>2015-03-28T10:16:08.000Z</time>
      </trkpt>
      <trkpt lat="45.29865" lon="6.15891">
        <ele>2368.1999511719</ele>
        <time>2015-03-28T10:16:14.000Z</time>
      </trkpt>
      <trkpt lat="45.29865" lon="6.15891">
        <ele>2368.3999023438</ele>
        <time>2015-03-28T10:16:15.000Z</time>
      </trkpt>
      <trkpt lat="45.29859" lon="6.15887">
        <ele>2369.6000976562</ele>
        <time>2015-03-28T10:16:21.000Z</time>
      </trkpt>
      <trkpt lat="45.29859" lon="6.15887">
        <ele>2370.6000976562</ele>
        <time>2015-03-28T10:16:27.000Z</time>
      </trkpt>
      <trkpt lat="45.29859" lon="6.15887">
        <ele>2371</ele>
        <time>2015-03-28T10:16:31.000Z</time>
      </trkpt>
      <trkpt lat="45.29859" lon="6.15887">
        <ele>2371.1999511719</ele>
        <time>2015-03-28T10:16:40.000Z</time>
      </trkpt>
      <trkpt lat="45.29859" lon="6.15887">
        <ele>2371.8000488281</ele>
        <time>2015-03-28T10:16:48.000Z</time>
      </trkpt>
      <trkpt lat="45.29859" lon="6.15887">
        <ele>2372</ele>
        <time>2015-03-28T10:16:49.000Z</time>
      </trkpt>
      <trkpt lat="45.29859" lon="6.15887">
        <ele>2373</ele>
        <time>2015-03-28T10:16:53.000Z</time>
      </trkpt>
      <trkpt lat="45.2986" lon="6.15886">
        <ele>2373.8000488281</ele>
        <time>2015-03-28T10:16:57.000Z</time>
      </trkpt>
      <trkpt lat="45.2986" lon="6.15886">
        <ele>2374</ele>
        <time>2015-03-28T10:16:58.000Z</time>
      </trkpt>
      <trkpt lat="45.2986" lon="6.15886">
        <ele>2374.8000488281</ele>
        <time>2015-03-28T10:17:06.000Z</time>
      </trkpt>
      <trkpt lat="45.2986" lon="6.15886">
        <ele>2375</ele>
        <time>2015-03-28T10:17:09.000Z</time>
      </trkpt>
      <trkpt lat="45.2986" lon="6.15886">
        <ele>2375.3999023438</ele>
        <time>2015-03-28T10:17:16.000Z</time>
      </trkpt>
      <trkpt lat="45.29862" lon="6.1588">
        <ele>2375.3999023438</ele>
        <time>2015-03-28T10:17:25.000Z</time>
      </trkpt>
      <trkpt lat="45.29864" lon="6.15878">
        <ele>2376</ele>
        <time>2015-03-28T10:17:30.000Z</time>
      </trkpt>
      <trkpt lat="45.29864" lon="6.15878">
        <ele>2376.1999511719</ele>
        <time>2015-03-28T10:17:32.000Z</time>
      </trkpt>
      <trkpt lat="45.29864" lon="6.15876">
        <ele>2377</ele>
        <time>2015-03-28T10:17:40.000Z</time>
      </trkpt>
      <trkpt lat="45.29863" lon="6.15874">
        <ele>2378</ele>
        <time>2015-03-28T10:17:48.000Z</time>
      </trkpt>
      <trkpt lat="45.29862" lon="6.15872">
        <ele>2378.1999511719</ele>
        <time>2015-03-28T10:17:51.000Z</time>
      </trkpt>
      <trkpt lat="45.29861" lon="6.15871">
        <ele>2379.1999511719</ele>
        <time>2015-03-28T10:17:55.000Z</time>
      </trkpt>
      <trkpt lat="45.2986" lon="6.1587">
        <ele>2379.1999511719</ele>
        <time>2015-03-28T10:17:56.000Z</time>
      </trkpt>
      <trkpt lat="45.29857" lon="6.15867">
        <ele>2379.6000976562</ele>
        <time>2015-03-28T10:18:03.000Z</time>
      </trkpt>
      <trkpt lat="45.29857" lon="6.15869">
        <ele>2380.1999511719</ele>
        <time>2015-03-28T10:18:07.000Z</time>
      </trkpt>
      <trkpt lat="45.29857" lon="6.1587">
        <ele>2380.3999023438</ele>
        <time>2015-03-28T10:18:08.000Z</time>
      </trkpt>
      <trkpt lat="45.29857" lon="6.1587">
        <ele>2380.8000488281</ele>
        <time>2015-03-28T10:18:13.000Z</time>
      </trkpt>
      <trkpt lat="45.29858" lon="6.15869">
        <ele>2381.1999511719</ele>
        <time>2015-03-28T10:18:21.000Z</time>
      </trkpt>
      <trkpt lat="45.29858" lon="6.15869">
        <ele>2381.3999023438</ele>
        <time>2015-03-28T10:18:22.000Z</time>
      </trkpt>
      <trkpt lat="45.29859" lon="6.15867">
        <ele>2381.3999023438</ele>
        <time>2015-03-28T10:18:27.000Z</time>
      </trkpt>
      <trkpt lat="45.2986" lon="6.15866">
        <ele>2381.3999023438</ele>
        <time>2015-03-28T10:18:33.000Z</time>
      </trkpt>
      <trkpt lat="45.2986" lon="6.15865">
        <ele>2382.3999023438</ele>
        <time>2015-03-28T10:18:41.000Z</time>
      </trkpt>
      <trkpt lat="45.2986" lon="6.15865">
        <ele>2382.6000976562</ele>
        <time>2015-03-28T10:18:43.000Z</time>
      </trkpt>
      <trkpt lat="45.2986" lon="6.15865">
        <ele>2383.6000976562</ele>
        <time>2015-03-28T10:18:49.000Z</time>
      </trkpt>
      <trkpt lat="45.2986" lon="6.15865">
        <ele>2384</ele>
        <time>2015-03-28T10:18:50.000Z</time>
      </trkpt>
      <trkpt lat="45.2986" lon="6.15865">
        <ele>2385</ele>
        <time>2015-03-28T10:18:52.000Z</time>
      </trkpt>
      <trkpt lat="45.2986" lon="6.15865">
        <ele>2385.6000976562</ele>
        <time>2015-03-28T10:19:02.000Z</time>
      </trkpt>
      <trkpt lat="45.29861" lon="6.15865">
        <ele>2386</ele>
        <time>2015-03-28T10:19:09.000Z</time>
      </trkpt>
      <trkpt lat="45.2986" lon="6.15865">
        <ele>2386</ele>
        <time>2015-03-28T10:19:10.000Z</time>
      </trkpt>
      <trkpt lat="45.29861" lon="6.15864">
        <ele>2386.6000976562</ele>
        <time>2015-03-28T10:19:20.000Z</time>
      </trkpt>
      <trkpt lat="45.2986" lon="6.15862">
        <ele>2387</ele>
        <time>2015-03-28T10:19:24.000Z</time>
      </trkpt>
      <trkpt lat="45.29859" lon="6.15861">
        <ele>2388.3999023438</ele>
        <time>2015-03-28T10:19:28.000Z</time>
      </trkpt>
      <trkpt lat="45.29859" lon="6.15861">
        <ele>2389</ele>
        <time>2015-03-28T10:19:29.000Z</time>
      </trkpt>
      <trkpt lat="45.29859" lon="6.1586">
        <ele>2389.6000976562</ele>
        <time>2015-03-28T10:19:30.000Z</time>
      </trkpt>
      <trkpt lat="45.29858" lon="6.15857">
        <ele>2390.8000488281</ele>
        <time>2015-03-28T10:19:35.000Z</time>
      </trkpt>
      <trkpt lat="45.29857" lon="6.15856">
        <ele>2392</ele>
        <time>2015-03-28T10:19:38.000Z</time>
      </trkpt>
      <trkpt lat="45.29858" lon="6.15856">
        <ele>2392.6000976562</ele>
        <time>2015-03-28T10:19:43.000Z</time>
      </trkpt>
      <trkpt lat="45.29856" lon="6.15853">
        <ele>2392.1999511719</ele>
        <time>2015-03-28T10:19:50.000Z</time>
      </trkpt>
      <trkpt lat="45.29854" lon="6.15847">
        <ele>2392.1999511719</ele>
        <time>2015-03-28T10:19:56.000Z</time>
      </trkpt>
      <trkpt lat="45.29853" lon="6.15841">
        <ele>2393.1999511719</ele>
        <time>2015-03-28T10:20:01.000Z</time>
      </trkpt>
      <trkpt lat="45.29853" lon="6.1584">
        <ele>2393.3999023438</ele>
        <time>2015-03-28T10:20:02.000Z</time>
      </trkpt>
      <trkpt lat="45.29852" lon="6.1584">
        <ele>2394.1999511719</ele>
        <time>2015-03-28T10:20:07.000Z</time>
      </trkpt>
      <trkpt lat="45.29852" lon="6.15839">
        <ele>2395</ele>
        <time>2015-03-28T10:20:19.000Z</time>
      </trkpt>
      <trkpt lat="45.29852" lon="6.15834">
        <ele>2394.8000488281</ele>
        <time>2015-03-28T10:20:25.000Z</time>
      </trkpt>
      <trkpt lat="45.29852" lon="6.15831">
        <ele>2395.3999023438</ele>
        <time>2015-03-28T10:20:28.000Z</time>
      </trkpt>
      <trkpt lat="45.29852" lon="6.15827">
        <ele>2395.6000976562</ele>
        <time>2015-03-28T10:20:31.000Z</time>
      </trkpt>
      <trkpt lat="45.29852" lon="6.1582">
        <ele>2396</ele>
        <time>2015-03-28T10:20:38.000Z</time>
      </trkpt>
      <trkpt lat="45.29853" lon="6.15816">
        <ele>2396.3999023438</ele>
        <time>2015-03-28T10:20:42.000Z</time>
      </trkpt>
      <trkpt lat="45.29853" lon="6.15816">
        <ele>2396.6000976562</ele>
        <time>2015-03-28T10:20:43.000Z</time>
      </trkpt>
      <trkpt lat="45.29855" lon="6.15813">
        <ele>2397.3999023438</ele>
        <time>2015-03-28T10:20:48.000Z</time>
      </trkpt>
      <trkpt lat="45.29855" lon="6.15813">
        <ele>2397.6000976562</ele>
        <time>2015-03-28T10:20:49.000Z</time>
      </trkpt>
      <trkpt lat="45.29855" lon="6.15813">
        <ele>2398.6000976562</ele>
        <time>2015-03-28T10:20:52.000Z</time>
      </trkpt>
      <trkpt lat="45.29855" lon="6.15813">
        <ele>2398.8000488281</ele>
        <time>2015-03-28T10:20:59.000Z</time>
      </trkpt>
      <trkpt lat="45.29856" lon="6.15808">
        <ele>2399.3999023438</ele>
        <time>2015-03-28T10:21:05.000Z</time>
      </trkpt>
      <trkpt lat="45.29856" lon="6.15807">
        <ele>2399.8000488281</ele>
        <time>2015-03-28T10:21:06.000Z</time>
      </trkpt>
      <trkpt lat="45.29858" lon="6.15801">
        <ele>2400.6000976562</ele>
        <time>2015-03-28T10:21:10.000Z</time>
      </trkpt>
      <trkpt lat="45.29858" lon="6.15798">
        <ele>2401</ele>
        <time>2015-03-28T10:21:12.000Z</time>
      </trkpt>
      <trkpt lat="45.2986" lon="6.15795">
        <ele>2401.8000488281</ele>
        <time>2015-03-28T10:21:15.000Z</time>
      </trkpt>
      <trkpt lat="45.2986" lon="6.15794">
        <ele>2402</ele>
        <time>2015-03-28T10:21:16.000Z</time>
      </trkpt>
      <trkpt lat="45.29859" lon="6.15789">
        <ele>2403</ele>
        <time>2015-03-28T10:21:20.000Z</time>
      </trkpt>
      <trkpt lat="45.29859" lon="6.15788">
        <ele>2403.1999511719</ele>
        <time>2015-03-28T10:21:21.000Z</time>
      </trkpt>
      <trkpt lat="45.29859" lon="6.15785">
        <ele>2404</ele>
        <time>2015-03-28T10:21:24.000Z</time>
      </trkpt>
      <trkpt lat="45.29859" lon="6.15779">
        <ele>2404.3999023438</ele>
        <time>2015-03-28T10:21:28.000Z</time>
      </trkpt>
      <trkpt lat="45.29859" lon="6.15775">
        <ele>2405</ele>
        <time>2015-03-28T10:21:32.000Z</time>
      </trkpt>
      <trkpt lat="45.29859" lon="6.15774">
        <ele>2405.1999511719</ele>
        <time>2015-03-28T10:21:33.000Z</time>
      </trkpt>
      <trkpt lat="45.29859" lon="6.15767">
        <ele>2406.1999511719</ele>
        <time>2015-03-28T10:21:38.000Z</time>
      </trkpt>
      <trkpt lat="45.29859" lon="6.15767">
        <ele>2406.3999023438</ele>
        <time>2015-03-28T10:21:39.000Z</time>
      </trkpt>
      <trkpt lat="45.2986" lon="6.15762">
        <ele>2407.1999511719</ele>
        <time>2015-03-28T10:21:44.000Z</time>
      </trkpt>
      <trkpt lat="45.2986" lon="6.1576">
        <ele>2407.1999511719</ele>
        <time>2015-03-28T10:21:45.000Z</time>
      </trkpt>
      <trkpt lat="45.29861" lon="6.15754">
        <ele>2407.3999023438</ele>
        <time>2015-03-28T10:21:50.000Z</time>
      </trkpt>
      <trkpt lat="45.29861" lon="6.15752">
        <ele>2408</ele>
        <time>2015-03-28T10:21:55.000Z</time>
      </trkpt>
      <trkpt lat="45.29862" lon="6.15749">
        <ele>2408.3999023438</ele>
        <time>2015-03-28T10:21:58.000Z</time>
      </trkpt>
      <trkpt lat="45.29862" lon="6.15747">
        <ele>2408.6000976562</ele>
        <time>2015-03-28T10:22:00.000Z</time>
      </trkpt>
      <trkpt lat="45.29864" lon="6.1574">
        <ele>2409.6000976562</ele>
        <time>2015-03-28T10:22:05.000Z</time>
      </trkpt>
      <trkpt lat="45.29865" lon="6.15735">
        <ele>2410.8000488281</ele>
        <time>2015-03-28T10:22:09.000Z</time>
      </trkpt>
      <trkpt lat="45.29866" lon="6.15734">
        <ele>2411</ele>
        <time>2015-03-28T10:22:11.000Z</time>
      </trkpt>
      <trkpt lat="45.29867" lon="6.15731">
        <ele>2411.8000488281</ele>
        <time>2015-03-28T10:22:16.000Z</time>
      </trkpt>
      <trkpt lat="45.29868" lon="6.15728">
        <ele>2413</ele>
        <time>2015-03-28T10:22:23.000Z</time>
      </trkpt>
      <trkpt lat="45.29869" lon="6.15722">
        <ele>2414.1999511719</ele>
        <time>2015-03-28T10:22:29.000Z</time>
      </trkpt>
      <trkpt lat="45.2987" lon="6.15718">
        <ele>2415.1999511719</ele>
        <time>2015-03-28T10:22:35.000Z</time>
      </trkpt>
      <trkpt lat="45.29871" lon="6.15716">
        <ele>2415.1999511719</ele>
        <time>2015-03-28T10:22:36.000Z</time>
      </trkpt>
      <trkpt lat="45.29871" lon="6.15715">
        <ele>2416</ele>
        <time>2015-03-28T10:22:39.000Z</time>
      </trkpt>
      <trkpt lat="45.29873" lon="6.15712">
        <ele>2416.3999023438</ele>
        <time>2015-03-28T10:22:43.000Z</time>
      </trkpt>
      <trkpt lat="45.29873" lon="6.1571">
        <ele>2417</ele>
        <time>2015-03-28T10:22:48.000Z</time>
      </trkpt>
      <trkpt lat="45.29873" lon="6.15709">
        <ele>2417.3999023438</ele>
        <time>2015-03-28T10:22:52.000Z</time>
      </trkpt>
      <trkpt lat="45.29873" lon="6.15708">
        <ele>2417.8000488281</ele>
        <time>2015-03-28T10:22:53.000Z</time>
      </trkpt>
      <trkpt lat="45.29874" lon="6.15706">
        <ele>2418.3999023438</ele>
        <time>2015-03-28T10:22:58.000Z</time>
      </trkpt>
      <trkpt lat="45.29875" lon="6.157">
        <ele>2419.3999023438</ele>
        <time>2015-03-28T10:23:04.000Z</time>
      </trkpt>
      <trkpt lat="45.29876" lon="6.15698">
        <ele>2419.6000976562</ele>
        <time>2015-03-28T10:23:05.000Z</time>
      </trkpt>
      <trkpt lat="45.29876" lon="6.15694">
        <ele>2420.1999511719</ele>
        <time>2015-03-28T10:23:09.000Z</time>
      </trkpt>
      <trkpt lat="45.29876" lon="6.15694">
        <ele>2420.8000488281</ele>
        <time>2015-03-28T10:23:13.000Z</time>
      </trkpt>
      <trkpt lat="45.29877" lon="6.15692">
        <ele>2421.3999023438</ele>
        <time>2015-03-28T10:23:15.000Z</time>
      </trkpt>
      <trkpt lat="45.29877" lon="6.1569">
        <ele>2422</ele>
        <time>2015-03-28T10:23:17.000Z</time>
      </trkpt>
      <trkpt lat="45.29878" lon="6.15687">
        <ele>2422.6000976562</ele>
        <time>2015-03-28T10:23:21.000Z</time>
      </trkpt>
      <trkpt lat="45.29879" lon="6.15686">
        <ele>2423.1999511719</ele>
        <time>2015-03-28T10:23:24.000Z</time>
      </trkpt>
      <trkpt lat="45.29879" lon="6.15685">
        <ele>2423.3999023438</ele>
        <time>2015-03-28T10:23:26.000Z</time>
      </trkpt>
      <trkpt lat="45.2988" lon="6.15682">
        <ele>2424.3999023438</ele>
        <time>2015-03-28T10:23:30.000Z</time>
      </trkpt>
      <trkpt lat="45.29881" lon="6.15681">
        <ele>2424.8000488281</ele>
        <time>2015-03-28T10:23:32.000Z</time>
      </trkpt>
      <trkpt lat="45.29881" lon="6.1568">
        <ele>2425.3999023438</ele>
        <time>2015-03-28T10:23:35.000Z</time>
      </trkpt>
      <trkpt lat="45.29881" lon="6.1568">
        <ele>2425.8000488281</ele>
        <time>2015-03-28T10:23:37.000Z</time>
      </trkpt>
      <trkpt lat="45.29881" lon="6.15678">
        <ele>2426.6000976562</ele>
        <time>2015-03-28T10:23:43.000Z</time>
      </trkpt>
      <trkpt lat="45.29881" lon="6.15677">
        <ele>2426.8000488281</ele>
        <time>2015-03-28T10:23:44.000Z</time>
      </trkpt>
      <trkpt lat="45.29885" lon="6.15672">
        <ele>2427.6000976562</ele>
        <time>2015-03-28T10:23:50.000Z</time>
      </trkpt>
      <trkpt lat="45.29886" lon="6.1567">
        <ele>2428.6000976562</ele>
        <time>2015-03-28T10:23:55.000Z</time>
      </trkpt>
      <trkpt lat="45.29886" lon="6.1567">
        <ele>2429.3999023438</ele>
        <time>2015-03-28T10:23:58.000Z</time>
      </trkpt>
      <trkpt lat="45.29888" lon="6.15667">
        <ele>2429.6000976562</ele>
        <time>2015-03-28T10:24:03.000Z</time>
      </trkpt>
      <trkpt lat="45.29888" lon="6.15666">
        <ele>2429.8000488281</ele>
        <time>2015-03-28T10:24:04.000Z</time>
      </trkpt>
      <trkpt lat="45.2989" lon="6.15665">
        <ele>2430.8000488281</ele>
        <time>2015-03-28T10:24:09.000Z</time>
      </trkpt>
      <trkpt lat="45.29891" lon="6.15664">
        <ele>2430.8000488281</ele>
        <time>2015-03-28T10:24:10.000Z</time>
      </trkpt>
      <trkpt lat="45.29896" lon="6.15661">
        <ele>2431.8000488281</ele>
        <time>2015-03-28T10:24:15.000Z</time>
      </trkpt>
      <trkpt lat="45.29896" lon="6.1566">
        <ele>2432</ele>
        <time>2015-03-28T10:24:16.000Z</time>
      </trkpt>
      <trkpt lat="45.29899" lon="6.15658">
        <ele>2432.8000488281</ele>
        <time>2015-03-28T10:24:21.000Z</time>
      </trkpt>
      <trkpt lat="45.29901" lon="6.15658">
        <ele>2433.1999511719</ele>
        <time>2015-03-28T10:24:23.000Z</time>
      </trkpt>
      <trkpt lat="45.29903" lon="6.15655">
        <ele>2434</ele>
        <time>2015-03-28T10:24:26.000Z</time>
      </trkpt>
      <trkpt lat="45.29904" lon="6.15654">
        <ele>2434.6000976562</ele>
        <time>2015-03-28T10:24:28.000Z</time>
      </trkpt>
      <trkpt lat="45.29906" lon="6.15652">
        <ele>2435</ele>
        <time>2015-03-28T10:24:34.000Z</time>
      </trkpt>
      <trkpt lat="45.29906" lon="6.15652">
        <ele>2435.1999511719</ele>
        <time>2015-03-28T10:24:39.000Z</time>
      </trkpt>
      <trkpt lat="45.29906" lon="6.15652">
        <ele>2436</ele>
        <time>2015-03-28T10:24:47.000Z</time>
      </trkpt>
      <trkpt lat="45.29906" lon="6.15652">
        <ele>2436.3999023438</ele>
        <time>2015-03-28T10:24:49.000Z</time>
      </trkpt>
      <trkpt lat="45.29906" lon="6.15652">
        <ele>2435.3999023438</ele>
        <time>2015-03-28T10:24:59.000Z</time>
      </trkpt>
      <trkpt lat="45.29906" lon="6.15652">
        <ele>2435.1999511719</ele>
        <time>2015-03-28T10:25:00.000Z</time>
      </trkpt>
      <trkpt lat="45.29906" lon="6.15652">
        <ele>2436</ele>
        <time>2015-03-28T10:25:13.000Z</time>
      </trkpt>
      <trkpt lat="45.29906" lon="6.15652">
        <ele>2436.6000976562</ele>
        <time>2015-03-28T10:25:16.000Z</time>
      </trkpt>
      <trkpt lat="45.29906" lon="6.15652">
        <ele>2436.3999023438</ele>
        <time>2015-03-28T10:25:21.000Z</time>
      </trkpt>
      <trkpt lat="45.29906" lon="6.15653">
        <ele>2436</ele>
        <time>2015-03-28T10:25:33.000Z</time>
      </trkpt>
      <trkpt lat="45.29905" lon="6.15653">
        <ele>2436</ele>
        <time>2015-03-28T10:25:45.000Z</time>
      </trkpt>
      <trkpt lat="45.29905" lon="6.15653">
        <ele>2436</ele>
        <time>2015-03-28T10:26:01.000Z</time>
      </trkpt>
      <trkpt lat="45.29905" lon="6.15653">
        <ele>2436.1999511719</ele>
        <time>2015-03-28T10:26:16.000Z</time>
      </trkpt>
      <trkpt lat="45.29905" lon="6.15653">
        <ele>2436.3999023438</ele>
        <time>2015-03-28T10:26:32.000Z</time>
      </trkpt>
      <trkpt lat="45.29905" lon="6.15653">
        <ele>2437.3999023438</ele>
        <time>2015-03-28T10:26:48.000Z</time>
      </trkpt>
      <trkpt lat="45.29905" lon="6.15653">
        <ele>2436.8000488281</ele>
        <time>2015-03-28T10:27:03.000Z</time>
      </trkpt>
      <trkpt lat="45.29905" lon="6.15653">
        <ele>2436.6000976562</ele>
        <time>2015-03-28T10:27:19.000Z</time>
      </trkpt>
      <trkpt lat="45.29905" lon="6.15653">
        <ele>2436.8000488281</ele>
        <time>2015-03-28T10:27:34.000Z</time>
      </trkpt>
      <trkpt lat="45.29904" lon="6.15653">
        <ele>2435.3999023438</ele>
        <time>2015-03-28T10:27:54.000Z</time>
      </trkpt>
      <trkpt lat="45.29904" lon="6.15653">
        <ele>2436</ele>
        <time>2015-03-28T10:28:10.000Z</time>
      </trkpt>
      <trkpt lat="45.29904" lon="6.15653">
        <ele>2436</ele>
        <time>2015-03-28T10:28:32.000Z</time>
      </trkpt>
      <trkpt lat="45.29904" lon="6.15653">
        <ele>2436.1999511719</ele>
        <time>2015-03-28T10:28:47.000Z</time>
      </trkpt>
      <trkpt lat="45.29904" lon="6.15653">
        <ele>2436.6000976562</ele>
        <time>2015-03-28T10:28:52.000Z</time>
      </trkpt>
      <trkpt lat="45.29904" lon="6.15653">
        <ele>2436.8000488281</ele>
        <time>2015-03-28T10:29:01.000Z</time>
      </trkpt>
      <trkpt lat="45.29904" lon="6.15653">
        <ele>2437.6000976562</ele>
        <time>2015-03-28T10:29:20.000Z</time>
      </trkpt>
      <trkpt lat="45.29904" lon="6.15653">
        <ele>2437.8000488281</ele>
        <time>2015-03-28T10:29:22.000Z</time>
      </trkpt>
      <trkpt lat="45.29904" lon="6.15653">
        <ele>2437</ele>
        <time>2015-03-28T10:29:38.000Z</time>
      </trkpt>
      <trkpt lat="45.29904" lon="6.15653">
        <ele>2437.1999511719</ele>
        <time>2015-03-28T10:29:50.000Z</time>
      </trkpt>
      <trkpt lat="45.29904" lon="6.15653">
        <ele>2437.1999511719</ele>
        <time>2015-03-28T10:30:02.000Z</time>
      </trkpt>
      <trkpt lat="45.29904" lon="6.15654">
        <ele>2437</ele>
        <time>2015-03-28T10:30:17.000Z</time>
      </trkpt>
      <trkpt lat="45.29904" lon="6.15654">
        <ele>2436.6000976562</ele>
        <time>2015-03-28T10:30:22.000Z</time>
      </trkpt>
      <trkpt lat="45.29904" lon="6.15654">
        <ele>2436.6000976562</ele>
        <time>2015-03-28T10:30:29.000Z</time>
      </trkpt>
      <trkpt lat="45.29904" lon="6.15654">
        <ele>2436.1999511719</ele>
        <time>2015-03-28T10:30:46.000Z</time>
      </trkpt>
      <trkpt lat="45.29904" lon="6.15654">
        <ele>2436</ele>
        <time>2015-03-28T10:30:58.000Z</time>
      </trkpt>
      <trkpt lat="45.29904" lon="6.15654">
        <ele>2435.6000976562</ele>
        <time>2015-03-28T10:31:18.000Z</time>
      </trkpt>
      <trkpt lat="45.29904" lon="6.15654">
        <ele>2435.8000488281</ele>
        <time>2015-03-28T10:31:36.000Z</time>
      </trkpt>
      <trkpt lat="45.29904" lon="6.15654">
        <ele>2435.8000488281</ele>
        <time>2015-03-28T10:31:47.000Z</time>
      </trkpt>
      <trkpt lat="45.29904" lon="6.15654">
        <ele>2436.3999023438</ele>
        <time>2015-03-28T10:32:00.000Z</time>
      </trkpt>
      <trkpt lat="45.29904" lon="6.15654">
        <ele>2437.3999023438</ele>
        <time>2015-03-28T10:32:12.000Z</time>
      </trkpt>
      <trkpt lat="45.29904" lon="6.15654">
        <ele>2437.6000976562</ele>
        <time>2015-03-28T10:32:13.000Z</time>
      </trkpt>
      <trkpt lat="45.29904" lon="6.15654">
        <ele>2438.6000976562</ele>
        <time>2015-03-28T10:32:24.000Z</time>
      </trkpt>
      <trkpt lat="45.29904" lon="6.15654">
        <ele>2438.6000976562</ele>
        <time>2015-03-28T10:32:27.000Z</time>
      </trkpt>
      <trkpt lat="45.29904" lon="6.15654">
        <ele>2437.8000488281</ele>
        <time>2015-03-28T10:32:39.000Z</time>
      </trkpt>
      <trkpt lat="45.29904" lon="6.15654">
        <ele>2437.3999023438</ele>
        <time>2015-03-28T10:32:40.000Z</time>
      </trkpt>
      <trkpt lat="45.29904" lon="6.15654">
        <ele>2438</ele>
        <time>2015-03-28T10:32:55.000Z</time>
      </trkpt>
      <trkpt lat="45.29904" lon="6.15654">
        <ele>2437.1999511719</ele>
        <time>2015-03-28T10:33:17.000Z</time>
      </trkpt>
      <trkpt lat="45.29904" lon="6.15654">
        <ele>2437</ele>
        <time>2015-03-28T10:33:42.000Z</time>
      </trkpt>
      <trkpt lat="45.29904" lon="6.15654">
        <ele>2436.6000976562</ele>
        <time>2015-03-28T10:34:00.000Z</time>
      </trkpt>
      <trkpt lat="45.29904" lon="6.15654">
        <ele>2436.3999023438</ele>
        <time>2015-03-28T10:34:15.000Z</time>
      </trkpt>
      <trkpt lat="45.29904" lon="6.15654">
        <ele>2436.3999023438</ele>
        <time>2015-03-28T10:34:20.000Z</time>
      </trkpt>
      <trkpt lat="45.29904" lon="6.15654">
        <ele>2436.8000488281</ele>
        <time>2015-03-28T10:34:34.000Z</time>
      </trkpt>
      <trkpt lat="45.29904" lon="6.15654">
        <ele>2436.8000488281</ele>
        <time>2015-03-28T10:34:48.000Z</time>
      </trkpt>
      <trkpt lat="45.29903" lon="6.15654">
        <ele>2437</ele>
        <time>2015-03-28T10:35:05.000Z</time>
      </trkpt>
      <trkpt lat="45.29905" lon="6.15654">
        <ele>2437</ele>
        <time>2015-03-28T10:35:17.000Z</time>
      </trkpt>
      <trkpt lat="45.29907" lon="6.15654">
        <ele>2437.3999023438</ele>
        <time>2015-03-28T10:35:20.000Z</time>
      </trkpt>
      <trkpt lat="45.2991" lon="6.15656">
        <ele>2438.8000488281</ele>
        <time>2015-03-28T10:35:25.000Z</time>
      </trkpt>
      <trkpt lat="45.2991" lon="6.15658">
        <ele>2439.8000488281</ele>
        <time>2015-03-28T10:35:29.000Z</time>
      </trkpt>
      <trkpt lat="45.29911" lon="6.1566">
        <ele>2440.6000976562</ele>
        <time>2015-03-28T10:35:32.000Z</time>
      </trkpt>
      <trkpt lat="45.29911" lon="6.1566">
        <ele>2440.8000488281</ele>
        <time>2015-03-28T10:35:33.000Z</time>
      </trkpt>
      <trkpt lat="45.29911" lon="6.15663">
        <ele>2441.8000488281</ele>
        <time>2015-03-28T10:35:37.000Z</time>
      </trkpt>
      <trkpt lat="45.29911" lon="6.15663">
        <ele>2442.1999511719</ele>
        <time>2015-03-28T10:35:38.000Z</time>
      </trkpt>
      <trkpt lat="45.29911" lon="6.15665">
        <ele>2443</ele>
        <time>2015-03-28T10:35:41.000Z</time>
      </trkpt>
      <trkpt lat="45.29911" lon="6.15667">
        <ele>2444</ele>
        <time>2015-03-28T10:35:43.000Z</time>
      </trkpt>
      <trkpt lat="45.29912" lon="6.15667">
        <ele>2444.3999023438</ele>
        <time>2015-03-28T10:35:45.000Z</time>
      </trkpt>
      <trkpt lat="45.29913" lon="6.15667">
        <ele>2445.1999511719</ele>
        <time>2015-03-28T10:35:51.000Z</time>
      </trkpt>
      <trkpt lat="45.29914" lon="6.15666">
        <ele>2445.3999023438</ele>
        <time>2015-03-28T10:35:52.000Z</time>
      </trkpt>
      <trkpt lat="45.2992" lon="6.15663">
        <ele>2445.8000488281</ele>
        <time>2015-03-28T10:35:57.000Z</time>
      </trkpt>
      <trkpt lat="45.29921" lon="6.15662">
        <ele>2446.3999023438</ele>
        <time>2015-03-28T10:36:00.000Z</time>
      </trkpt>
      <trkpt lat="45.29922" lon="6.15661">
        <ele>2447</ele>
        <time>2015-03-28T10:36:02.000Z</time>
      </trkpt>
      <trkpt lat="45.29923" lon="6.15661">
        <ele>2447.6000976562</ele>
        <time>2015-03-28T10:36:04.000Z</time>
      </trkpt>
      <trkpt lat="45.29925" lon="6.1566">
        <ele>2448.3999023438</ele>
        <time>2015-03-28T10:36:07.000Z</time>
      </trkpt>
      <trkpt lat="45.29926" lon="6.15659">
        <ele>2448.1999511719</ele>
        <time>2015-03-28T10:36:13.000Z</time>
      </trkpt>
      <trkpt lat="45.29926" lon="6.1566">
        <ele>2448.8000488281</ele>
        <time>2015-03-28T10:36:18.000Z</time>
      </trkpt>
      <trkpt lat="45.29926" lon="6.1566">
        <ele>2449</ele>
        <time>2015-03-28T10:36:19.000Z</time>
      </trkpt>
      <trkpt lat="45.29926" lon="6.15662">
        <ele>2449.8000488281</ele>
        <time>2015-03-28T10:36:22.000Z</time>
      </trkpt>
      <trkpt lat="45.29926" lon="6.15665">
        <ele>2450.3999023438</ele>
        <time>2015-03-28T10:36:26.000Z</time>
      </trkpt>
      <trkpt lat="45.29926" lon="6.15666">
        <ele>2451</ele>
        <time>2015-03-28T10:36:31.000Z</time>
      </trkpt>
      <trkpt lat="45.29926" lon="6.15667">
        <ele>2451.8000488281</ele>
        <time>2015-03-28T10:36:34.000Z</time>
      </trkpt>
      <trkpt lat="45.29926" lon="6.15668">
        <ele>2452</ele>
        <time>2015-03-28T10:36:35.000Z</time>
      </trkpt>
      <trkpt lat="45.29926" lon="6.1567">
        <ele>2453.1999511719</ele>
        <time>2015-03-28T10:36:41.000Z</time>
      </trkpt>
      <trkpt lat="45.29926" lon="6.1567">
        <ele>2453.3999023438</ele>
        <time>2015-03-28T10:36:42.000Z</time>
      </trkpt>
      <trkpt lat="45.29928" lon="6.1567">
        <ele>2453.3999023438</ele>
        <time>2015-03-28T10:36:47.000Z</time>
      </trkpt>
      <trkpt lat="45.29933" lon="6.15669">
        <ele>2454.3999023438</ele>
        <time>2015-03-28T10:36:51.000Z</time>
      </trkpt>
      <trkpt lat="45.29933" lon="6.15669">
        <ele>2454.8000488281</ele>
        <time>2015-03-28T10:36:52.000Z</time>
      </trkpt>
      <trkpt lat="45.29934" lon="6.15668">
        <ele>2455.6000976562</ele>
        <time>2015-03-28T10:36:54.000Z</time>
      </trkpt>
      <trkpt lat="45.29936" lon="6.15667">
        <ele>2456</ele>
        <time>2015-03-28T10:36:57.000Z</time>
      </trkpt>
      <trkpt lat="45.29937" lon="6.15665">
        <ele>2456.8000488281</ele>
        <time>2015-03-28T10:37:02.000Z</time>
      </trkpt>
      <trkpt lat="45.29938" lon="6.15665">
        <ele>2458</ele>
        <time>2015-03-28T10:37:05.000Z</time>
      </trkpt>
      <trkpt lat="45.2994" lon="6.15663">
        <ele>2458.1999511719</ele>
        <time>2015-03-28T10:37:10.000Z</time>
      </trkpt>
      <trkpt lat="45.29942" lon="6.15661">
        <ele>2458.8000488281</ele>
        <time>2015-03-28T10:37:15.000Z</time>
      </trkpt>
      <trkpt lat="45.29943" lon="6.15661">
        <ele>2459</ele>
        <time>2015-03-28T10:37:16.000Z</time>
      </trkpt>
      <trkpt lat="45.29945" lon="6.15659">
        <ele>2459.3999023438</ele>
        <time>2015-03-28T10:37:21.000Z</time>
      </trkpt>
      <trkpt lat="45.29946" lon="6.15658">
        <ele>2459.6000976562</ele>
        <time>2015-03-28T10:37:27.000Z</time>
      </trkpt>
      <trkpt lat="45.29946" lon="6.15658">
        <ele>2460.1999511719</ele>
        <time>2015-03-28T10:37:29.000Z</time>
      </trkpt>
      <trkpt lat="45.29945" lon="6.15662">
        <ele>2461.3999023438</ele>
        <time>2015-03-28T10:37:34.000Z</time>
      </trkpt>
      <trkpt lat="45.29945" lon="6.15667">
        <ele>2462.3999023438</ele>
        <time>2015-03-28T10:37:40.000Z</time>
      </trkpt>
      <trkpt lat="45.29946" lon="6.15673">
        <ele>2463.3999023438</ele>
        <time>2015-03-28T10:37:48.000Z</time>
      </trkpt>
      <trkpt lat="45.29946" lon="6.15674">
        <ele>2463.6000976562</ele>
        <time>2015-03-28T10:37:49.000Z</time>
      </trkpt>
      <trkpt lat="45.29946" lon="6.15678">
        <ele>2464</ele>
        <time>2015-03-28T10:37:55.000Z</time>
      </trkpt>
      <trkpt lat="45.29946" lon="6.15679">
        <ele>2464.8000488281</ele>
        <time>2015-03-28T10:37:57.000Z</time>
      </trkpt>
      <trkpt lat="45.29946" lon="6.15679">
        <ele>2466</ele>
        <time>2015-03-28T10:37:59.000Z</time>
      </trkpt>
      <trkpt lat="45.29948" lon="6.15678">
        <ele>2466.3999023438</ele>
        <time>2015-03-28T10:38:03.000Z</time>
      </trkpt>
      <trkpt lat="45.29951" lon="6.15677">
        <ele>2467</ele>
        <time>2015-03-28T10:38:08.000Z</time>
      </trkpt>
      <trkpt lat="45.29954" lon="6.15675">
        <ele>2468.1999511719</ele>
        <time>2015-03-28T10:38:14.000Z</time>
      </trkpt>
      <trkpt lat="45.29955" lon="6.15674">
        <ele>2469.1999511719</ele>
        <time>2015-03-28T10:38:17.000Z</time>
      </trkpt>
      <trkpt lat="45.29956" lon="6.15673">
        <ele>2469.8000488281</ele>
        <time>2015-03-28T10:38:20.000Z</time>
      </trkpt>
      <trkpt lat="45.29958" lon="6.15671">
        <ele>2470.1999511719</ele>
        <time>2015-03-28T10:38:26.000Z</time>
      </trkpt>
      <trkpt lat="45.2996" lon="6.1567">
        <ele>2471.1999511719</ele>
        <time>2015-03-28T10:38:30.000Z</time>
      </trkpt>
      <trkpt lat="45.29962" lon="6.15668">
        <ele>2471.6000976562</ele>
        <time>2015-03-28T10:38:31.000Z</time>
      </trkpt>
      <trkpt lat="45.29963" lon="6.15667">
        <ele>2471.8000488281</ele>
        <time>2015-03-28T10:38:36.000Z</time>
      </trkpt>
      <trkpt lat="45.29963" lon="6.1567">
        <ele>2472.8000488281</ele>
        <time>2015-03-28T10:38:42.000Z</time>
      </trkpt>
      <trkpt lat="45.29964" lon="6.15671">
        <ele>2473</ele>
        <time>2015-03-28T10:38:43.000Z</time>
      </trkpt>
      <trkpt lat="45.29965" lon="6.15675">
        <ele>2473.3999023438</ele>
        <time>2015-03-28T10:38:50.000Z</time>
      </trkpt>
      <trkpt lat="45.29966" lon="6.15678">
        <ele>2474</ele>
        <time>2015-03-28T10:38:54.000Z</time>
      </trkpt>
      <trkpt lat="45.29966" lon="6.15679">
        <ele>2475</ele>
        <time>2015-03-28T10:38:56.000Z</time>
      </trkpt>
      <trkpt lat="45.29966" lon="6.1568">
        <ele>2475.3999023438</ele>
        <time>2015-03-28T10:38:57.000Z</time>
      </trkpt>
      <trkpt lat="45.29967" lon="6.15682">
        <ele>2476.1999511719</ele>
        <time>2015-03-28T10:39:00.000Z</time>
      </trkpt>
      <trkpt lat="45.29967" lon="6.15684">
        <ele>2476.1999511719</ele>
        <time>2015-03-28T10:39:04.000Z</time>
      </trkpt>
      <trkpt lat="45.29967" lon="6.15686">
        <ele>2477.3999023438</ele>
        <time>2015-03-28T10:39:09.000Z</time>
      </trkpt>
      <trkpt lat="45.29967" lon="6.15686">
        <ele>2478.3999023438</ele>
        <time>2015-03-28T10:39:13.000Z</time>
      </trkpt>
      <trkpt lat="45.2997" lon="6.15684">
        <ele>2478.6000976562</ele>
        <time>2015-03-28T10:39:20.000Z</time>
      </trkpt>
      <trkpt lat="45.29971" lon="6.15684">
        <ele>2479.3999023438</ele>
        <time>2015-03-28T10:39:22.000Z</time>
      </trkpt>
      <trkpt lat="45.29972" lon="6.15684">
        <ele>2479.6000976562</ele>
        <time>2015-03-28T10:39:23.000Z</time>
      </trkpt>
      <trkpt lat="45.29973" lon="6.15683">
        <ele>2480.8000488281</ele>
        <time>2015-03-28T10:39:26.000Z</time>
      </trkpt>
      <trkpt lat="45.29974" lon="6.15682">
        <ele>2481</ele>
        <time>2015-03-28T10:39:28.000Z</time>
      </trkpt>
      <trkpt lat="45.29978" lon="6.1568">
        <ele>2481.1999511719</ele>
        <time>2015-03-28T10:39:34.000Z</time>
      </trkpt>
      <trkpt lat="45.2998" lon="6.15677">
        <ele>2482</ele>
        <time>2015-03-28T10:39:39.000Z</time>
      </trkpt>
      <trkpt lat="45.2998" lon="6.15677">
        <ele>2482.1999511719</ele>
        <time>2015-03-28T10:39:40.000Z</time>
      </trkpt>
      <trkpt lat="45.29983" lon="6.15674">
        <ele>2483.1999511719</ele>
        <time>2015-03-28T10:39:47.000Z</time>
      </trkpt>
      <trkpt lat="45.29985" lon="6.15673">
        <ele>2484</ele>
        <time>2015-03-28T10:39:49.000Z</time>
      </trkpt>
      <trkpt lat="45.29985" lon="6.15673">
        <ele>2484.1999511719</ele>
        <time>2015-03-28T10:39:50.000Z</time>
      </trkpt>
      <trkpt lat="45.29987" lon="6.15672">
        <ele>2484.8000488281</ele>
        <time>2015-03-28T10:39:56.000Z</time>
      </trkpt>
      <trkpt lat="45.29987" lon="6.15671">
        <ele>2485.3999023438</ele>
        <time>2015-03-28T10:39:58.000Z</time>
      </trkpt>
      <trkpt lat="45.29989" lon="6.15671">
        <ele>2485.8000488281</ele>
        <time>2015-03-28T10:40:03.000Z</time>
      </trkpt>
      <trkpt lat="45.2999" lon="6.15669">
        <ele>2486.3999023438</ele>
        <time>2015-03-28T10:40:06.000Z</time>
      </trkpt>
      <trkpt lat="45.29991" lon="6.15669">
        <ele>2486.8000488281</ele>
        <time>2015-03-28T10:40:10.000Z</time>
      </trkpt>
      <trkpt lat="45.2999" lon="6.1567">
        <ele>2487.3999023438</ele>
        <time>2015-03-28T10:40:17.000Z</time>
      </trkpt>
      <trkpt lat="45.2999" lon="6.15672">
        <ele>2487.6000976562</ele>
        <time>2015-03-28T10:40:20.000Z</time>
      </trkpt>
      <trkpt lat="45.29991" lon="6.15678">
        <ele>2488.1999511719</ele>
        <time>2015-03-28T10:40:28.000Z</time>
      </trkpt>
      <trkpt lat="45.29991" lon="6.15678">
        <ele>2488.8000488281</ele>
        <time>2015-03-28T10:40:30.000Z</time>
      </trkpt>
      <trkpt lat="45.29993" lon="6.1568">
        <ele>2490</ele>
        <time>2015-03-28T10:40:36.000Z</time>
      </trkpt>
      <trkpt lat="45.29995" lon="6.15679">
        <ele>2490.8000488281</ele>
        <time>2015-03-28T10:40:43.000Z</time>
      </trkpt>
      <trkpt lat="45.29995" lon="6.15679">
        <ele>2491</ele>
        <time>2015-03-28T10:40:45.000Z</time>
      </trkpt>
      <trkpt lat="45.29995" lon="6.15679">
        <ele>2491.8000488281</ele>
        <time>2015-03-28T10:40:52.000Z</time>
      </trkpt>
      <trkpt lat="45.29995" lon="6.15679">
        <ele>2492</ele>
        <time>2015-03-28T10:40:56.000Z</time>
      </trkpt>
      <trkpt lat="45.29995" lon="6.15679">
        <ele>2492.1999511719</ele>
        <time>2015-03-28T10:41:04.000Z</time>
      </trkpt>
      <trkpt lat="45.29995" lon="6.15679">
        <ele>2493.1999511719</ele>
        <time>2015-03-28T10:41:12.000Z</time>
      </trkpt>
      <trkpt lat="45.30002" lon="6.15672">
        <ele>2494.6000976562</ele>
        <time>2015-03-28T10:41:19.000Z</time>
      </trkpt>
      <trkpt lat="45.30006" lon="6.15671">
        <ele>2495.6000976562</ele>
        <time>2015-03-28T10:41:24.000Z</time>
      </trkpt>
      <trkpt lat="45.30007" lon="6.15671">
        <ele>2495.6000976562</ele>
        <time>2015-03-28T10:41:26.000Z</time>
      </trkpt>
      <trkpt lat="45.30009" lon="6.15669">
        <ele>2496.8000488281</ele>
        <time>2015-03-28T10:41:32.000Z</time>
      </trkpt>
      <trkpt lat="45.30011" lon="6.15668">
        <ele>2497.1999511719</ele>
        <time>2015-03-28T10:41:35.000Z</time>
      </trkpt>
      <trkpt lat="45.30013" lon="6.15668">
        <ele>2497.8000488281</ele>
        <time>2015-03-28T10:41:41.000Z</time>
      </trkpt>
      <trkpt lat="45.30013" lon="6.15669">
        <ele>2498.3999023438</ele>
        <time>2015-03-28T10:41:43.000Z</time>
      </trkpt>
      <trkpt lat="45.30014" lon="6.15671">
        <ele>2499</ele>
        <time>2015-03-28T10:41:50.000Z</time>
      </trkpt>
      <trkpt lat="45.30014" lon="6.15675">
        <ele>2500.1999511719</ele>
        <time>2015-03-28T10:41:57.000Z</time>
      </trkpt>
      <trkpt lat="45.30014" lon="6.15678">
        <ele>2500.8000488281</ele>
        <time>2015-03-28T10:42:02.000Z</time>
      </trkpt>
      <trkpt lat="45.30014" lon="6.15679">
        <ele>2501.1999511719</ele>
        <time>2015-03-28T10:42:04.000Z</time>
      </trkpt>
      <trkpt lat="45.30013" lon="6.15683">
        <ele>2502.3999023438</ele>
        <time>2015-03-28T10:42:10.000Z</time>
      </trkpt>
      <trkpt lat="45.30013" lon="6.15683">
        <ele>2503.3999023438</ele>
        <time>2015-03-28T10:42:19.000Z</time>
      </trkpt>
      <trkpt lat="45.30013" lon="6.15683">
        <ele>2503.3999023438</ele>
        <time>2015-03-28T10:42:21.000Z</time>
      </trkpt>
      <trkpt lat="45.30014" lon="6.15681">
        <ele>2503.1999511719</ele>
        <time>2015-03-28T10:42:33.000Z</time>
      </trkpt>
      <trkpt lat="45.30017" lon="6.1568">
        <ele>2504.6000976562</ele>
        <time>2015-03-28T10:42:37.000Z</time>
      </trkpt>
      <trkpt lat="45.30018" lon="6.15679">
        <ele>2504.8000488281</ele>
        <time>2015-03-28T10:42:39.000Z</time>
      </trkpt>
      <trkpt lat="45.3002" lon="6.15678">
        <ele>2505.6000976562</ele>
        <time>2015-03-28T10:42:43.000Z</time>
      </trkpt>
      <trkpt lat="45.30021" lon="6.15678">
        <ele>2505.8000488281</ele>
        <time>2015-03-28T10:42:44.000Z</time>
      </trkpt>
      <trkpt lat="45.30023" lon="6.15677">
        <ele>2506.8000488281</ele>
        <time>2015-03-28T10:42:48.000Z</time>
      </trkpt>
      <trkpt lat="45.30024" lon="6.15676">
        <ele>2507.6000976562</ele>
        <time>2015-03-28T10:42:51.000Z</time>
      </trkpt>
      <trkpt lat="45.30024" lon="6.15676">
        <ele>2508</ele>
        <time>2015-03-28T10:42:54.000Z</time>
      </trkpt>
      <trkpt lat="45.30026" lon="6.15676">
        <ele>2509</ele>
        <time>2015-03-28T10:42:58.000Z</time>
      </trkpt>
      <trkpt lat="45.30026" lon="6.15676">
        <ele>2509.1999511719</ele>
        <time>2015-03-28T10:42:59.000Z</time>
      </trkpt>
      <trkpt lat="45.30026" lon="6.15676">
        <ele>2510</ele>
        <time>2015-03-28T10:43:06.000Z</time>
      </trkpt>
      <trkpt lat="45.30026" lon="6.15677">
        <ele>2510.3999023438</ele>
        <time>2015-03-28T10:43:09.000Z</time>
      </trkpt>
      <trkpt lat="45.30027" lon="6.15679">
        <ele>2510.6000976562</ele>
        <time>2015-03-28T10:43:12.000Z</time>
      </trkpt>
      <trkpt lat="45.30027" lon="6.1568">
        <ele>2511.3999023438</ele>
        <time>2015-03-28T10:43:17.000Z</time>
      </trkpt>
      <trkpt lat="45.30027" lon="6.15682">
        <ele>2511.8000488281</ele>
        <time>2015-03-28T10:43:19.000Z</time>
      </trkpt>
      <trkpt lat="45.30026" lon="6.15683">
        <ele>2512.6000976562</ele>
        <time>2015-03-28T10:43:23.000Z</time>
      </trkpt>
      <trkpt lat="45.30026" lon="6.15683">
        <ele>2513.6000976562</ele>
        <time>2015-03-28T10:43:28.000Z</time>
      </trkpt>
      <trkpt lat="45.30026" lon="6.15683">
        <ele>2513.6000976562</ele>
        <time>2015-03-28T10:43:29.000Z</time>
      </trkpt>
      <trkpt lat="45.30027" lon="6.15682">
        <ele>2514</ele>
        <time>2015-03-28T10:43:39.000Z</time>
      </trkpt>
      <trkpt lat="45.3003" lon="6.15681">
        <ele>2514.1999511719</ele>
        <time>2015-03-28T10:43:45.000Z</time>
      </trkpt>
      <trkpt lat="45.30031" lon="6.15681">
        <ele>2514.6000976562</ele>
        <time>2015-03-28T10:43:46.000Z</time>
      </trkpt>
      <trkpt lat="45.30034" lon="6.15681">
        <ele>2515.6000976562</ele>
        <time>2015-03-28T10:43:51.000Z</time>
      </trkpt>
      <trkpt lat="45.30034" lon="6.15681">
        <ele>2515.6000976562</ele>
        <time>2015-03-28T10:43:52.000Z</time>
      </trkpt>
      <trkpt lat="45.30035" lon="6.15679">
        <ele>2516.1999511719</ele>
        <time>2015-03-28T10:43:57.000Z</time>
      </trkpt>
      <trkpt lat="45.30036" lon="6.15679">
        <ele>2516.6000976562</ele>
        <time>2015-03-28T10:44:04.000Z</time>
      </trkpt>
      <trkpt lat="45.30036" lon="6.1568">
        <ele>2517.6000976562</ele>
        <time>2015-03-28T10:44:08.000Z</time>
      </trkpt>
      <trkpt lat="45.30036" lon="6.15682">
        <ele>2518.1999511719</ele>
        <time>2015-03-28T10:44:13.000Z</time>
      </trkpt>
      <trkpt lat="45.30036" lon="6.15684">
        <ele>2518.8000488281</ele>
        <time>2015-03-28T10:44:16.000Z</time>
      </trkpt>
      <trkpt lat="45.30035" lon="6.15685">
        <ele>2519.1999511719</ele>
        <time>2015-03-28T10:44:20.000Z</time>
      </trkpt>
      <trkpt lat="45.30035" lon="6.15686">
        <ele>2519.8000488281</ele>
        <time>2015-03-28T10:44:24.000Z</time>
      </trkpt>
      <trkpt lat="45.30035" lon="6.15686">
        <ele>2520.1999511719</ele>
        <time>2015-03-28T10:44:30.000Z</time>
      </trkpt>
      <trkpt lat="45.30036" lon="6.15686">
        <ele>2520.3999023438</ele>
        <time>2015-03-28T10:44:38.000Z</time>
      </trkpt>
      <trkpt lat="45.30038" lon="6.15685">
        <ele>2521</ele>
        <time>2015-03-28T10:44:41.000Z</time>
      </trkpt>
      <trkpt lat="45.3004" lon="6.15684">
        <ele>2521.6000976562</ele>
        <time>2015-03-28T10:44:44.000Z</time>
      </trkpt>
      <trkpt lat="45.30041" lon="6.15683">
        <ele>2522</ele>
        <time>2015-03-28T10:44:47.000Z</time>
      </trkpt>
      <trkpt lat="45.30043" lon="6.15683">
        <ele>2522.6000976562</ele>
        <time>2015-03-28T10:44:49.000Z</time>
      </trkpt>
      <trkpt lat="45.30044" lon="6.15682">
        <ele>2523.1999511719</ele>
        <time>2015-03-28T10:44:52.000Z</time>
      </trkpt>
      <trkpt lat="45.30045" lon="6.15681">
        <ele>2524.3999023438</ele>
        <time>2015-03-28T10:44:55.000Z</time>
      </trkpt>
      <trkpt lat="45.30046" lon="6.1568">
        <ele>2525.3999023438</ele>
        <time>2015-03-28T10:44:59.000Z</time>
      </trkpt>
      <trkpt lat="45.30047" lon="6.1568">
        <ele>2525.8000488281</ele>
        <time>2015-03-28T10:45:02.000Z</time>
      </trkpt>
      <trkpt lat="45.30048" lon="6.15681">
        <ele>2526.3999023438</ele>
        <time>2015-03-28T10:45:11.000Z</time>
      </trkpt>
      <trkpt lat="45.30048" lon="6.15681">
        <ele>2526.6000976562</ele>
        <time>2015-03-28T10:45:12.000Z</time>
      </trkpt>
      <trkpt lat="45.30048" lon="6.15684">
        <ele>2526.6000976562</ele>
        <time>2015-03-28T10:45:19.000Z</time>
      </trkpt>
      <trkpt lat="45.30048" lon="6.15687">
        <ele>2527.6000976562</ele>
        <time>2015-03-28T10:45:26.000Z</time>
      </trkpt>
      <trkpt lat="45.30048" lon="6.15687">
        <ele>2528</ele>
        <time>2015-03-28T10:45:27.000Z</time>
      </trkpt>
      <trkpt lat="45.30048" lon="6.15687">
        <ele>2528.6000976562</ele>
        <time>2015-03-28T10:45:31.000Z</time>
      </trkpt>
      <trkpt lat="45.30048" lon="6.15687">
        <ele>2529</ele>
        <time>2015-03-28T10:45:39.000Z</time>
      </trkpt>
      <trkpt lat="45.30053" lon="6.15685">
        <ele>2529.3999023438</ele>
        <time>2015-03-28T10:45:45.000Z</time>
      </trkpt>
      <trkpt lat="45.30054" lon="6.15685">
        <ele>2529.8000488281</ele>
        <time>2015-03-28T10:45:48.000Z</time>
      </trkpt>
      <trkpt lat="45.30056" lon="6.15684">
        <ele>2530.1999511719</ele>
        <time>2015-03-28T10:45:51.000Z</time>
      </trkpt>
      <trkpt lat="45.30057" lon="6.15684">
        <ele>2530.8000488281</ele>
        <time>2015-03-28T10:45:55.000Z</time>
      </trkpt>
      <trkpt lat="45.30057" lon="6.15684">
        <ele>2531.6000976562</ele>
        <time>2015-03-28T10:45:58.000Z</time>
      </trkpt>
      <trkpt lat="45.30057" lon="6.15684">
        <ele>2532</ele>
        <time>2015-03-28T10:45:59.000Z</time>
      </trkpt>
      <trkpt lat="45.30057" lon="6.15685">
        <ele>2533</ele>
        <time>2015-03-28T10:46:03.000Z</time>
      </trkpt>
      <trkpt lat="45.30057" lon="6.15687">
        <ele>2533</ele>
        <time>2015-03-28T10:46:05.000Z</time>
      </trkpt>
      <trkpt lat="45.30056" lon="6.15691">
        <ele>2532.8000488281</ele>
        <time>2015-03-28T10:46:11.000Z</time>
      </trkpt>
      <trkpt lat="45.30056" lon="6.15696">
        <ele>2533.6000976562</ele>
        <time>2015-03-28T10:46:17.000Z</time>
      </trkpt>
      <trkpt lat="45.30057" lon="6.15695">
        <ele>2534</ele>
        <time>2015-03-28T10:46:28.000Z</time>
      </trkpt>
      <trkpt lat="45.30058" lon="6.15695">
        <ele>2534</ele>
        <time>2015-03-28T10:46:29.000Z</time>
      </trkpt>
      <trkpt lat="45.3006" lon="6.15693">
        <ele>2535.1999511719</ele>
        <time>2015-03-28T10:46:34.000Z</time>
      </trkpt>
      <trkpt lat="45.30061" lon="6.15693">
        <ele>2536.1999511719</ele>
        <time>2015-03-28T10:46:37.000Z</time>
      </trkpt>
      <trkpt lat="45.30065" lon="6.15691">
        <ele>2537.1999511719</ele>
        <time>2015-03-28T10:46:42.000Z</time>
      </trkpt>
      <trkpt lat="45.30065" lon="6.15691">
        <ele>2537.3999023438</ele>
        <time>2015-03-28T10:46:43.000Z</time>
      </trkpt>
      <trkpt lat="45.30067" lon="6.1569">
        <ele>2538.6000976562</ele>
        <time>2015-03-28T10:46:47.000Z</time>
      </trkpt>
      <trkpt lat="45.30068" lon="6.15689">
        <ele>2539</ele>
        <time>2015-03-28T10:46:49.000Z</time>
      </trkpt>
      <trkpt lat="45.30071" lon="6.15688">
        <ele>2539.6000976562</ele>
        <time>2015-03-28T10:46:54.000Z</time>
      </trkpt>
      <trkpt lat="45.30073" lon="6.15688">
        <ele>2540</ele>
        <time>2015-03-28T10:46:57.000Z</time>
      </trkpt>
      <trkpt lat="45.30075" lon="6.15688">
        <ele>2540.8000488281</ele>
        <time>2015-03-28T10:47:00.000Z</time>
      </trkpt>
      <trkpt lat="45.30075" lon="6.15688">
        <ele>2542</ele>
        <time>2015-03-28T10:47:04.000Z</time>
      </trkpt>
      <trkpt lat="45.30075" lon="6.15688">
        <ele>2542</ele>
        <time>2015-03-28T10:47:05.000Z</time>
      </trkpt>
      <trkpt lat="45.30075" lon="6.15688">
        <ele>2542.3999023438</ele>
        <time>2015-03-28T10:47:23.000Z</time>
      </trkpt>
      <trkpt lat="45.30075" lon="6.15688">
        <ele>2542.6000976562</ele>
        <time>2015-03-28T10:47:38.000Z</time>
      </trkpt>
      <trkpt lat="45.30075" lon="6.15688">
        <ele>2543</ele>
        <time>2015-03-28T10:47:41.000Z</time>
      </trkpt>
      <trkpt lat="45.30079" lon="6.1569">
        <ele>2544</ele>
        <time>2015-03-28T10:47:47.000Z</time>
      </trkpt>
      <trkpt lat="45.30082" lon="6.15691">
        <ele>2545.1999511719</ele>
        <time>2015-03-28T10:47:55.000Z</time>
      </trkpt>
      <trkpt lat="45.30082" lon="6.15691">
        <ele>2545.3999023438</ele>
        <time>2015-03-28T10:47:56.000Z</time>
      </trkpt>
      <trkpt lat="45.30085" lon="6.15694">
        <ele>2546.3999023438</ele>
        <time>2015-03-28T10:48:04.000Z</time>
      </trkpt>
      <trkpt lat="45.30085" lon="6.15694">
        <ele>2546.8000488281</ele>
        <time>2015-03-28T10:48:15.000Z</time>
      </trkpt>
      <trkpt lat="45.30089" lon="6.15695">
        <ele>2547.3999023438</ele>
        <time>2015-03-28T10:48:21.000Z</time>
      </trkpt>
      <trkpt lat="45.30091" lon="6.15696">
        <ele>2548.3999023438</ele>
        <time>2015-03-28T10:48:24.000Z</time>
      </trkpt>
      <trkpt lat="45.30092" lon="6.15696">
        <ele>2548.6000976562</ele>
        <time>2015-03-28T10:48:25.000Z</time>
      </trkpt>
      <trkpt lat="45.30096" lon="6.15701">
        <ele>2549.3999023438</ele>
        <time>2015-03-28T10:48:32.000Z</time>
      </trkpt>
      <trkpt lat="45.30096" lon="6.15701">
        <ele>2549.6000976562</ele>
        <time>2015-03-28T10:48:33.000Z</time>
      </trkpt>
      <trkpt lat="45.30098" lon="6.15703">
        <ele>2550.8000488281</ele>
        <time>2015-03-28T10:48:37.000Z</time>
      </trkpt>
      <trkpt lat="45.30099" lon="6.15702">
        <ele>2551.1999511719</ele>
        <time>2015-03-28T10:48:39.000Z</time>
      </trkpt>
      <trkpt lat="45.301" lon="6.15697">
        <ele>2552</ele>
        <time>2015-03-28T10:48:45.000Z</time>
      </trkpt>
      <trkpt lat="45.30102" lon="6.15695">
        <ele>2552.8000488281</ele>
        <time>2015-03-28T10:48:47.000Z</time>
      </trkpt>
      <trkpt lat="45.30102" lon="6.15694">
        <ele>2553.1999511719</ele>
        <time>2015-03-28T10:48:48.000Z</time>
      </trkpt>
      <trkpt lat="45.30105" lon="6.15689">
        <ele>2553.8000488281</ele>
        <time>2015-03-28T10:48:53.000Z</time>
      </trkpt>
      <trkpt lat="45.30105" lon="6.15688">
        <ele>2554.8000488281</ele>
        <time>2015-03-28T10:48:56.000Z</time>
      </trkpt>
      <trkpt lat="45.30105" lon="6.15685">
        <ele>2555.1999511719</ele>
        <time>2015-03-28T10:49:00.000Z</time>
      </trkpt>
      <trkpt lat="45.30106" lon="6.15683">
        <ele>2556</ele>
        <time>2015-03-28T10:49:03.000Z</time>
      </trkpt>
      <trkpt lat="45.30107" lon="6.1568">
        <ele>2556.3999023438</ele>
        <time>2015-03-28T10:49:06.000Z</time>
      </trkpt>
      <trkpt lat="45.30108" lon="6.15677">
        <ele>2557</ele>
        <time>2015-03-28T10:49:11.000Z</time>
      </trkpt>
      <trkpt lat="45.30108" lon="6.15678">
        <ele>2557.1999511719</ele>
        <time>2015-03-28T10:49:14.000Z</time>
      </trkpt>
      <trkpt lat="45.30108" lon="6.15678">
        <ele>2558</ele>
        <time>2015-03-28T10:49:20.000Z</time>
      </trkpt>
      <trkpt lat="45.30108" lon="6.15678">
        <ele>2557.6000976562</ele>
        <time>2015-03-28T10:49:28.000Z</time>
      </trkpt>
      <trkpt lat="45.30109" lon="6.15679">
        <ele>2558</ele>
        <time>2015-03-28T10:49:36.000Z</time>
      </trkpt>
      <trkpt lat="45.30112" lon="6.15686">
        <ele>2559.1999511719</ele>
        <time>2015-03-28T10:49:43.000Z</time>
      </trkpt>
      <trkpt lat="45.30112" lon="6.15686">
        <ele>2559.3999023438</ele>
        <time>2015-03-28T10:49:46.000Z</time>
      </trkpt>
      <trkpt lat="45.30113" lon="6.15686">
        <ele>2560.1999511719</ele>
        <time>2015-03-28T10:49:48.000Z</time>
      </trkpt>
      <trkpt lat="45.30114" lon="6.15692">
        <ele>2561.1999511719</ele>
        <time>2015-03-28T10:49:54.000Z</time>
      </trkpt>
      <trkpt lat="45.30114" lon="6.15694">
        <ele>2561.3999023438</ele>
        <time>2015-03-28T10:49:55.000Z</time>
      </trkpt>
      <trkpt lat="45.30115" lon="6.15703">
        <ele>2562.1999511719</ele>
        <time>2015-03-28T10:50:01.000Z</time>
      </trkpt>
      <trkpt lat="45.30115" lon="6.15704">
        <ele>2562.6000976562</ele>
        <time>2015-03-28T10:50:02.000Z</time>
      </trkpt>
      <trkpt lat="45.30116" lon="6.15705">
        <ele>2563.1999511719</ele>
        <time>2015-03-28T10:50:06.000Z</time>
      </trkpt>
      <trkpt lat="45.30117" lon="6.15706">
        <ele>2564</ele>
        <time>2015-03-28T10:50:09.000Z</time>
      </trkpt>
      <trkpt lat="45.30117" lon="6.15706">
        <ele>2564.3999023438</ele>
        <time>2015-03-28T10:50:12.000Z</time>
      </trkpt>
      <trkpt lat="45.30118" lon="6.15702">
        <ele>2564.8000488281</ele>
        <time>2015-03-28T10:50:20.000Z</time>
      </trkpt>
      <trkpt lat="45.3012" lon="6.15696">
        <ele>2565.6000976562</ele>
        <time>2015-03-28T10:50:24.000Z</time>
      </trkpt>
      <trkpt lat="45.3012" lon="6.15694">
        <ele>2565.8000488281</ele>
        <time>2015-03-28T10:50:25.000Z</time>
      </trkpt>
      <trkpt lat="45.30122" lon="6.15686">
        <ele>2566.6000976562</ele>
        <time>2015-03-28T10:50:30.000Z</time>
      </trkpt>
      <trkpt lat="45.30123" lon="6.15683">
        <ele>2567.1999511719</ele>
        <time>2015-03-28T10:50:33.000Z</time>
      </trkpt>
      <trkpt lat="45.30125" lon="6.15676">
        <ele>2567.8000488281</ele>
        <time>2015-03-28T10:50:39.000Z</time>
      </trkpt>
      <trkpt lat="45.30127" lon="6.15671">
        <ele>2568.3999023438</ele>
        <time>2015-03-28T10:50:42.000Z</time>
      </trkpt>
      <trkpt lat="45.30127" lon="6.1567">
        <ele>2569</ele>
        <time>2015-03-28T10:50:45.000Z</time>
      </trkpt>
      <trkpt lat="45.30126" lon="6.15671">
        <ele>2569.8000488281</ele>
        <time>2015-03-28T10:50:50.000Z</time>
      </trkpt>
      <trkpt lat="45.30126" lon="6.15671">
        <ele>2570</ele>
        <time>2015-03-28T10:50:51.000Z</time>
      </trkpt>
      <trkpt lat="45.30126" lon="6.15673">
        <ele>2571.1999511719</ele>
        <time>2015-03-28T10:50:56.000Z</time>
      </trkpt>
      <trkpt lat="45.30126" lon="6.15674">
        <ele>2571.3999023438</ele>
        <time>2015-03-28T10:50:59.000Z</time>
      </trkpt>
      <trkpt lat="45.3013" lon="6.15679">
        <ele>2572.1999511719</ele>
        <time>2015-03-28T10:51:06.000Z</time>
      </trkpt>
      <trkpt lat="45.3013" lon="6.15681">
        <ele>2572.6000976562</ele>
        <time>2015-03-28T10:51:09.000Z</time>
      </trkpt>
      <trkpt lat="45.3013" lon="6.15681">
        <ele>2573.1999511719</ele>
        <time>2015-03-28T10:51:14.000Z</time>
      </trkpt>
      <trkpt lat="45.3013" lon="6.15681">
        <ele>2573.8000488281</ele>
        <time>2015-03-28T10:51:19.000Z</time>
      </trkpt>
      <trkpt lat="45.30133" lon="6.15675">
        <ele>2574.1999511719</ele>
        <time>2015-03-28T10:51:24.000Z</time>
      </trkpt>
      <trkpt lat="45.30133" lon="6.15674">
        <ele>2574.6000976562</ele>
        <time>2015-03-28T10:51:26.000Z</time>
      </trkpt>
      <trkpt lat="45.30134" lon="6.15672">
        <ele>2575.3999023438</ele>
        <time>2015-03-28T10:51:29.000Z</time>
      </trkpt>
      <trkpt lat="45.30135" lon="6.1567">
        <ele>2575.6000976562</ele>
        <time>2015-03-28T10:51:32.000Z</time>
      </trkpt>
      <trkpt lat="45.30136" lon="6.15668">
        <ele>2576.6000976562</ele>
        <time>2015-03-28T10:51:37.000Z</time>
      </trkpt>
      <trkpt lat="45.30138" lon="6.15669">
        <ele>2578</ele>
        <time>2015-03-28T10:51:44.000Z</time>
      </trkpt>
      <trkpt lat="45.30138" lon="6.1567">
        <ele>2578.1999511719</ele>
        <time>2015-03-28T10:51:45.000Z</time>
      </trkpt>
      <trkpt lat="45.3014" lon="6.15673">
        <ele>2579</ele>
        <time>2015-03-28T10:51:50.000Z</time>
      </trkpt>
      <trkpt lat="45.3014" lon="6.15676">
        <ele>2579.3999023438</ele>
        <time>2015-03-28T10:51:54.000Z</time>
      </trkpt>
      <trkpt lat="45.30141" lon="6.15682">
        <ele>2580</ele>
        <time>2015-03-28T10:52:00.000Z</time>
      </trkpt>
      <trkpt lat="45.30142" lon="6.15683">
        <ele>2580.3999023438</ele>
        <time>2015-03-28T10:52:02.000Z</time>
      </trkpt>
      <trkpt lat="45.30143" lon="6.15686">
        <ele>2581.3999023438</ele>
        <time>2015-03-28T10:52:08.000Z</time>
      </trkpt>
      <trkpt lat="45.30144" lon="6.15688">
        <ele>2582.3999023438</ele>
        <time>2015-03-28T10:52:15.000Z</time>
      </trkpt>
      <trkpt lat="45.30144" lon="6.1569">
        <ele>2582.8000488281</ele>
        <time>2015-03-28T10:52:16.000Z</time>
      </trkpt>
      <trkpt lat="45.30145" lon="6.15691">
        <ele>2583.6000976562</ele>
        <time>2015-03-28T10:52:25.000Z</time>
      </trkpt>
      <trkpt lat="45.30147" lon="6.15687">
        <ele>2583.8000488281</ele>
        <time>2015-03-28T10:52:32.000Z</time>
      </trkpt>
      <trkpt lat="45.30148" lon="6.15686">
        <ele>2584</ele>
        <time>2015-03-28T10:52:33.000Z</time>
      </trkpt>
      <trkpt lat="45.30152" lon="6.15682">
        <ele>2585</ele>
        <time>2015-03-28T10:52:38.000Z</time>
      </trkpt>
      <trkpt lat="45.30154" lon="6.1568">
        <ele>2585.3999023438</ele>
        <time>2015-03-28T10:52:41.000Z</time>
      </trkpt>
      <trkpt lat="45.30156" lon="6.15677">
        <ele>2586.1999511719</ele>
        <time>2015-03-28T10:52:46.000Z</time>
      </trkpt>
      <trkpt lat="45.30158" lon="6.15675">
        <ele>2586.1999511719</ele>
        <time>2015-03-28T10:52:49.000Z</time>
      </trkpt>
      <trkpt lat="45.30162" lon="6.15672">
        <ele>2587.3999023438</ele>
        <time>2015-03-28T10:52:55.000Z</time>
      </trkpt>
      <trkpt lat="45.30162" lon="6.15672">
        <ele>2588.6000976562</ele>
        <time>2015-03-28T10:52:58.000Z</time>
      </trkpt>
      <trkpt lat="45.30162" lon="6.15672">
        <ele>2589.3999023438</ele>
        <time>2015-03-28T10:53:03.000Z</time>
      </trkpt>
      <trkpt lat="45.30162" lon="6.15672">
        <ele>2589.6000976562</ele>
        <time>2015-03-28T10:53:04.000Z</time>
      </trkpt>
      <trkpt lat="45.30162" lon="6.15672">
        <ele>2589.8000488281</ele>
        <time>2015-03-28T10:53:17.000Z</time>
      </trkpt>
      <trkpt lat="45.30164" lon="6.15676">
        <ele>2590.3999023438</ele>
        <time>2015-03-28T10:53:26.000Z</time>
      </trkpt>
      <trkpt lat="45.30164" lon="6.15677">
        <ele>2590.6000976562</ele>
        <time>2015-03-28T10:53:27.000Z</time>
      </trkpt>
      <trkpt lat="45.30169" lon="6.15682">
        <ele>2591.8000488281</ele>
        <time>2015-03-28T10:53:36.000Z</time>
      </trkpt>
      <trkpt lat="45.3017" lon="6.15683">
        <ele>2593</ele>
        <time>2015-03-28T10:53:41.000Z</time>
      </trkpt>
      <trkpt lat="45.30173" lon="6.15685">
        <ele>2594</ele>
        <time>2015-03-28T10:53:46.000Z</time>
      </trkpt>
      <trkpt lat="45.30177" lon="6.1568">
        <ele>2595.1999511719</ele>
        <time>2015-03-28T10:53:53.000Z</time>
      </trkpt>
      <trkpt lat="45.30177" lon="6.15678">
        <ele>2595.1999511719</ele>
        <time>2015-03-28T10:53:54.000Z</time>
      </trkpt>
      <trkpt lat="45.30181" lon="6.15674">
        <ele>2596.1999511719</ele>
        <time>2015-03-28T10:53:59.000Z</time>
      </trkpt>
      <trkpt lat="45.30183" lon="6.15673">
        <ele>2596.3999023438</ele>
        <time>2015-03-28T10:54:00.000Z</time>
      </trkpt>
      <trkpt lat="45.30184" lon="6.1567">
        <ele>2597.1999511719</ele>
        <time>2015-03-28T10:54:04.000Z</time>
      </trkpt>
      <trkpt lat="45.30185" lon="6.15669">
        <ele>2597.6000976562</ele>
        <time>2015-03-28T10:54:06.000Z</time>
      </trkpt>
      <trkpt lat="45.30186" lon="6.15668">
        <ele>2598.1999511719</ele>
        <time>2015-03-28T10:54:10.000Z</time>
      </trkpt>
      <trkpt lat="45.30187" lon="6.15666">
        <ele>2598.6000976562</ele>
        <time>2015-03-28T10:54:13.000Z</time>
      </trkpt>
      <trkpt lat="45.30188" lon="6.15662">
        <ele>2599.1999511719</ele>
        <time>2015-03-28T10:54:16.000Z</time>
      </trkpt>
      <trkpt lat="45.30188" lon="6.15662">
        <ele>2599.8000488281</ele>
        <time>2015-03-28T10:54:19.000Z</time>
      </trkpt>
      <trkpt lat="45.30188" lon="6.15662">
        <ele>2600.3999023438</ele>
        <time>2015-03-28T10:54:22.000Z</time>
      </trkpt>
      <trkpt lat="45.30187" lon="6.15664">
        <ele>2601.1999511719</ele>
        <time>2015-03-28T10:54:30.000Z</time>
      </trkpt>
      <trkpt lat="45.30187" lon="6.15665">
        <ele>2601.3999023438</ele>
        <time>2015-03-28T10:54:31.000Z</time>
      </trkpt>
      <trkpt lat="45.30191" lon="6.15671">
        <ele>2602.3999023438</ele>
        <time>2015-03-28T10:54:39.000Z</time>
      </trkpt>
      <trkpt lat="45.30193" lon="6.15679">
        <ele>2603.3999023438</ele>
        <time>2015-03-28T10:54:46.000Z</time>
      </trkpt>
      <trkpt lat="45.30194" lon="6.1568">
        <ele>2603.6000976562</ele>
        <time>2015-03-28T10:54:47.000Z</time>
      </trkpt>
      <trkpt lat="45.30196" lon="6.15682">
        <ele>2604</ele>
        <time>2015-03-28T10:54:53.000Z</time>
      </trkpt>
      <trkpt lat="45.30197" lon="6.15685">
        <ele>2604.8000488281</ele>
        <time>2015-03-28T10:54:59.000Z</time>
      </trkpt>
      <trkpt lat="45.30202" lon="6.15687">
        <ele>2605.8000488281</ele>
        <time>2015-03-28T10:55:09.000Z</time>
      </trkpt>
      <trkpt lat="45.30202" lon="6.15689">
        <ele>2607</ele>
        <time>2015-03-28T10:55:13.000Z</time>
      </trkpt>
      <trkpt lat="45.30202" lon="6.15689">
        <ele>2607.1999511719</ele>
        <time>2015-03-28T10:55:17.000Z</time>
      </trkpt>
      <trkpt lat="45.30202" lon="6.15689">
        <ele>2608</ele>
        <time>2015-03-28T10:55:25.000Z</time>
      </trkpt>
      <trkpt lat="45.30202" lon="6.15689">
        <ele>2608.1999511719</ele>
        <time>2015-03-28T10:55:28.000Z</time>
      </trkpt>
      <trkpt lat="45.30203" lon="6.1569">
        <ele>2608.8000488281</ele>
        <time>2015-03-28T10:55:33.000Z</time>
      </trkpt>
      <trkpt lat="45.30205" lon="6.15686">
        <ele>2608.8000488281</ele>
        <time>2015-03-28T10:55:35.000Z</time>
      </trkpt>
      <trkpt lat="45.30208" lon="6.15685">
        <ele>2609</ele>
        <time>2015-03-28T10:55:39.000Z</time>
      </trkpt>
      <trkpt lat="45.30209" lon="6.15685">
        <ele>2609.1999511719</ele>
        <time>2015-03-28T10:55:40.000Z</time>
      </trkpt>
      <trkpt lat="45.3021" lon="6.15685">
        <ele>2609.1999511719</ele>
        <time>2015-03-28T10:55:41.000Z</time>
      </trkpt>
      <trkpt lat="45.30213" lon="6.15686">
        <ele>2610.1999511719</ele>
        <time>2015-03-28T10:55:48.000Z</time>
      </trkpt>
      <trkpt lat="45.30216" lon="6.15686">
        <ele>2611.1999511719</ele>
        <time>2015-03-28T10:55:53.000Z</time>
      </trkpt>
      <trkpt lat="45.30218" lon="6.15686">
        <ele>2612</ele>
        <time>2015-03-28T10:55:57.000Z</time>
      </trkpt>
      <trkpt lat="45.3022" lon="6.15685">
        <ele>2612.3999023438</ele>
        <time>2015-03-28T10:56:00.000Z</time>
      </trkpt>
      <trkpt lat="45.30222" lon="6.15685">
        <ele>2613</ele>
        <time>2015-03-28T10:56:03.000Z</time>
      </trkpt>
      <trkpt lat="45.30223" lon="6.15686">
        <ele>2613.3999023438</ele>
        <time>2015-03-28T10:56:05.000Z</time>
      </trkpt>
      <trkpt lat="45.30223" lon="6.15686">
        <ele>2613.3999023438</ele>
        <time>2015-03-28T10:56:06.000Z</time>
      </trkpt>
      <trkpt lat="45.30224" lon="6.15686">
        <ele>2614</ele>
        <time>2015-03-28T10:56:08.000Z</time>
      </trkpt>
      <trkpt lat="45.30224" lon="6.15686">
        <ele>2614.6000976562</ele>
        <time>2015-03-28T10:56:11.000Z</time>
      </trkpt>
      <trkpt lat="45.30224" lon="6.15686">
        <ele>2615</ele>
        <time>2015-03-28T10:56:16.000Z</time>
      </trkpt>
      <trkpt lat="45.30225" lon="6.15686">
        <ele>2614.3999023438</ele>
        <time>2015-03-28T10:56:30.000Z</time>
      </trkpt>
      <trkpt lat="45.30225" lon="6.15684">
        <ele>2615</ele>
        <time>2015-03-28T10:56:37.000Z</time>
      </trkpt>
      <trkpt lat="45.30225" lon="6.15684">
        <ele>2615</ele>
        <time>2015-03-28T10:56:55.000Z</time>
      </trkpt>
      <trkpt lat="45.30225" lon="6.15684">
        <ele>2614.8000488281</ele>
        <time>2015-03-28T10:57:09.000Z</time>
      </trkpt>
      <trkpt lat="45.30226" lon="6.15684">
        <ele>2615.1999511719</ele>
        <time>2015-03-28T10:57:25.000Z</time>
      </trkpt>
      <trkpt lat="45.30226" lon="6.15684">
        <ele>2615.1999511719</ele>
        <time>2015-03-28T10:57:41.000Z</time>
      </trkpt>
      <trkpt lat="45.30226" lon="6.15684">
        <ele>2615.6000976562</ele>
        <time>2015-03-28T10:57:51.000Z</time>
      </trkpt>
      <trkpt lat="45.30226" lon="6.15684">
        <ele>2615.6000976562</ele>
        <time>2015-03-28T10:57:52.000Z</time>
      </trkpt>
      <trkpt lat="45.30225" lon="6.15683">
        <ele>2615.6000976562</ele>
        <time>2015-03-28T10:58:06.000Z</time>
      </trkpt>
      <trkpt lat="45.30225" lon="6.15683">
        <ele>2615.3999023438</ele>
        <time>2015-03-28T10:58:19.000Z</time>
      </trkpt>
      <trkpt lat="45.30225" lon="6.15683">
        <ele>2615.1999511719</ele>
        <time>2015-03-28T10:58:36.000Z</time>
      </trkpt>
      <trkpt lat="45.30225" lon="6.15683">
        <ele>2615.1999511719</ele>
        <time>2015-03-28T10:58:43.000Z</time>
      </trkpt>
      <trkpt lat="45.30225" lon="6.15683">
        <ele>2615</ele>
        <time>2015-03-28T10:58:58.000Z</time>
      </trkpt>
      <trkpt lat="45.30225" lon="6.15683">
        <ele>2615.3999023438</ele>
        <time>2015-03-28T10:59:16.000Z</time>
      </trkpt>
      <trkpt lat="45.30225" lon="6.15683">
        <ele>2615.8000488281</ele>
        <time>2015-03-28T10:59:36.000Z</time>
      </trkpt>
      <trkpt lat="45.30226" lon="6.15683">
        <ele>2616.1999511719</ele>
        <time>2015-03-28T10:59:54.000Z</time>
      </trkpt>
      <trkpt lat="45.30226" lon="6.15683">
        <ele>2615.3999023438</ele>
        <time>2015-03-28T11:00:10.000Z</time>
      </trkpt>
      <trkpt lat="45.30226" lon="6.15683">
        <ele>2615.3999023438</ele>
        <time>2015-03-28T11:00:22.000Z</time>
      </trkpt>
      <trkpt lat="45.30226" lon="6.15683">
        <ele>2615.1999511719</ele>
        <time>2015-03-28T11:00:29.000Z</time>
      </trkpt>
      <trkpt lat="45.30227" lon="6.15684">
        <ele>2616.6000976562</ele>
        <time>2015-03-28T11:00:41.000Z</time>
      </trkpt>
      <trkpt lat="45.30231" lon="6.15688">
        <ele>2617.8000488281</ele>
        <time>2015-03-28T11:00:47.000Z</time>
      </trkpt>
      <trkpt lat="45.30231" lon="6.15689">
        <ele>2618</ele>
        <time>2015-03-28T11:00:48.000Z</time>
      </trkpt>
      <trkpt lat="45.30232" lon="6.15691">
        <ele>2618.8000488281</ele>
        <time>2015-03-28T11:00:52.000Z</time>
      </trkpt>
      <trkpt lat="45.30233" lon="6.15691">
        <ele>2619.6000976562</ele>
        <time>2015-03-28T11:00:55.000Z</time>
      </trkpt>
      <trkpt lat="45.30235" lon="6.15691">
        <ele>2620</ele>
        <time>2015-03-28T11:00:58.000Z</time>
      </trkpt>
      <trkpt lat="45.30235" lon="6.1569">
        <ele>2620.3999023438</ele>
        <time>2015-03-28T11:01:00.000Z</time>
      </trkpt>
      <trkpt lat="45.30235" lon="6.1569">
        <ele>2621</ele>
        <time>2015-03-28T11:01:04.000Z</time>
      </trkpt>
      <trkpt lat="45.30236" lon="6.15687">
        <ele>2621.1999511719</ele>
        <time>2015-03-28T11:01:08.000Z</time>
      </trkpt>
      <trkpt lat="45.30238" lon="6.15683">
        <ele>2622</ele>
        <time>2015-03-28T11:01:12.000Z</time>
      </trkpt>
      <trkpt lat="45.30238" lon="6.15683">
        <ele>2622.1999511719</ele>
        <time>2015-03-28T11:01:13.000Z</time>
      </trkpt>
      <trkpt lat="45.30242" lon="6.1568">
        <ele>2622.6000976562</ele>
        <time>2015-03-28T11:01:18.000Z</time>
      </trkpt>
      <trkpt lat="45.30242" lon="6.15679">
        <ele>2623.1999511719</ele>
        <time>2015-03-28T11:01:20.000Z</time>
      </trkpt>
      <trkpt lat="45.30243" lon="6.15677">
        <ele>2623.8000488281</ele>
        <time>2015-03-28T11:01:22.000Z</time>
      </trkpt>
      <trkpt lat="45.30244" lon="6.15676">
        <ele>2624.3999023438</ele>
        <time>2015-03-28T11:01:25.000Z</time>
      </trkpt>
      <trkpt lat="45.30244" lon="6.15675">
        <ele>2624.8000488281</ele>
        <time>2015-03-28T11:01:28.000Z</time>
      </trkpt>
      <trkpt lat="45.30245" lon="6.15675">
        <ele>2625.3999023438</ele>
        <time>2015-03-28T11:01:32.000Z</time>
      </trkpt>
      <trkpt lat="45.30246" lon="6.15673">
        <ele>2625.8000488281</ele>
        <time>2015-03-28T11:01:34.000Z</time>
      </trkpt>
      <trkpt lat="45.30249" lon="6.1567">
        <ele>2626.3999023438</ele>
        <time>2015-03-28T11:01:39.000Z</time>
      </trkpt>
      <trkpt lat="45.30249" lon="6.1567">
        <ele>2626.6000976562</ele>
        <time>2015-03-28T11:01:40.000Z</time>
      </trkpt>
      <trkpt lat="45.30249" lon="6.1567">
        <ele>2627.8000488281</ele>
        <time>2015-03-28T11:01:45.000Z</time>
      </trkpt>
      <trkpt lat="45.30248" lon="6.1567">
        <ele>2628</ele>
        <time>2015-03-28T11:01:54.000Z</time>
      </trkpt>
      <trkpt lat="45.3025" lon="6.15673">
        <ele>2628.3999023438</ele>
        <time>2015-03-28T11:02:00.000Z</time>
      </trkpt>
      <trkpt lat="45.3025" lon="6.15674">
        <ele>2628.8000488281</ele>
        <time>2015-03-28T11:02:03.000Z</time>
      </trkpt>
      <trkpt lat="45.3025" lon="6.15674">
        <ele>2629.6000976562</ele>
        <time>2015-03-28T11:02:07.000Z</time>
      </trkpt>
      <trkpt lat="45.30251" lon="6.15675">
        <ele>2630</ele>
        <time>2015-03-28T11:02:09.000Z</time>
      </trkpt>
      <trkpt lat="45.30251" lon="6.15676">
        <ele>2630.6000976562</ele>
        <time>2015-03-28T11:02:11.000Z</time>
      </trkpt>
      <trkpt lat="45.30252" lon="6.15677">
        <ele>2631.1999511719</ele>
        <time>2015-03-28T11:02:13.000Z</time>
      </trkpt>
      <trkpt lat="45.30253" lon="6.15679">
        <ele>2631.8000488281</ele>
        <time>2015-03-28T11:02:16.000Z</time>
      </trkpt>
      <trkpt lat="45.30255" lon="6.1568">
        <ele>2632.3999023438</ele>
        <time>2015-03-28T11:02:19.000Z</time>
      </trkpt>
      <trkpt lat="45.30256" lon="6.15681">
        <ele>2632.6000976562</ele>
        <time>2015-03-28T11:02:21.000Z</time>
      </trkpt>
      <trkpt lat="45.30258" lon="6.15683">
        <ele>2632.8000488281</ele>
        <time>2015-03-28T11:02:26.000Z</time>
      </trkpt>
      <trkpt lat="45.30259" lon="6.15684">
        <ele>2633.6000976562</ele>
        <time>2015-03-28T11:02:31.000Z</time>
      </trkpt>
      <trkpt lat="45.3026" lon="6.15684">
        <ele>2633.6000976562</ele>
        <time>2015-03-28T11:02:32.000Z</time>
      </trkpt>
      <trkpt lat="45.3026" lon="6.15685">
        <ele>2634.6000976562</ele>
        <time>2015-03-28T11:02:35.000Z</time>
      </trkpt>
      <trkpt lat="45.3026" lon="6.15685">
        <ele>2634.8000488281</ele>
        <time>2015-03-28T11:02:43.000Z</time>
      </trkpt>
      <trkpt lat="45.3026" lon="6.15682">
        <ele>2635.3999023438</ele>
        <time>2015-03-28T11:02:50.000Z</time>
      </trkpt>
      <trkpt lat="45.30262" lon="6.15678">
        <ele>2635.6000976562</ele>
        <time>2015-03-28T11:02:52.000Z</time>
      </trkpt>
      <trkpt lat="45.30264" lon="6.15677">
        <ele>2635.8000488281</ele>
        <time>2015-03-28T11:02:54.000Z</time>
      </trkpt>
      <trkpt lat="45.30267" lon="6.15675">
        <ele>2637</ele>
        <time>2015-03-28T11:02:58.000Z</time>
      </trkpt>
      <trkpt lat="45.30268" lon="6.15674">
        <ele>2637.6000976562</ele>
        <time>2015-03-28T11:03:00.000Z</time>
      </trkpt>
      <trkpt lat="45.30268" lon="6.15673">
        <ele>2638</ele>
        <time>2015-03-28T11:03:03.000Z</time>
      </trkpt>
      <trkpt lat="45.30269" lon="6.15672">
        <ele>2638.3999023438</ele>
        <time>2015-03-28T11:03:05.000Z</time>
      </trkpt>
      <trkpt lat="45.3027" lon="6.1567">
        <ele>2639</ele>
        <time>2015-03-28T11:03:08.000Z</time>
      </trkpt>
      <trkpt lat="45.3027" lon="6.15669">
        <ele>2639.1999511719</ele>
        <time>2015-03-28T11:03:11.000Z</time>
      </trkpt>
      <trkpt lat="45.30271" lon="6.15668">
        <ele>2640</ele>
        <time>2015-03-28T11:03:16.000Z</time>
      </trkpt>
      <trkpt lat="45.30273" lon="6.15665">
        <ele>2641.3999023438</ele>
        <time>2015-03-28T11:03:21.000Z</time>
      </trkpt>
      <trkpt lat="45.30274" lon="6.15662">
        <ele>2642.3999023438</ele>
        <time>2015-03-28T11:03:30.000Z</time>
      </trkpt>
      <trkpt lat="45.30274" lon="6.1566">
        <ele>2642.3999023438</ele>
        <time>2015-03-28T11:03:32.000Z</time>
      </trkpt>
      <trkpt lat="45.30275" lon="6.15658">
        <ele>2643</ele>
        <time>2015-03-28T11:03:36.000Z</time>
      </trkpt>
      <trkpt lat="45.30276" lon="6.15657">
        <ele>2643.6000976562</ele>
        <time>2015-03-28T11:03:39.000Z</time>
      </trkpt>
      <trkpt lat="45.30276" lon="6.15658">
        <ele>2644</ele>
        <time>2015-03-28T11:03:41.000Z</time>
      </trkpt>
      <trkpt lat="45.30275" lon="6.1566">
        <ele>2644.6000976562</ele>
        <time>2015-03-28T11:03:43.000Z</time>
      </trkpt>
      <trkpt lat="45.30277" lon="6.15663">
        <ele>2646</ele>
        <time>2015-03-28T11:03:46.000Z</time>
      </trkpt>
      <trkpt lat="45.30277" lon="6.15663">
        <ele>2646.1999511719</ele>
        <time>2015-03-28T11:03:47.000Z</time>
      </trkpt>
      <trkpt lat="45.30277" lon="6.15663">
        <ele>2647</ele>
        <time>2015-03-28T11:03:54.000Z</time>
      </trkpt>
      <trkpt lat="45.30278" lon="6.15664">
        <ele>2647</ele>
        <time>2015-03-28T11:03:58.000Z</time>
      </trkpt>
      <trkpt lat="45.3028" lon="6.15667">
        <ele>2648</ele>
        <time>2015-03-28T11:04:02.000Z</time>
      </trkpt>
      <trkpt lat="45.3028" lon="6.15667">
        <ele>2648.3999023438</ele>
        <time>2015-03-28T11:04:04.000Z</time>
      </trkpt>
      <trkpt lat="45.30282" lon="6.15669">
        <ele>2648.8000488281</ele>
        <time>2015-03-28T11:04:08.000Z</time>
      </trkpt>
      <trkpt lat="45.30283" lon="6.1567">
        <ele>2649.1999511719</ele>
        <time>2015-03-28T11:04:10.000Z</time>
      </trkpt>
      <trkpt lat="45.30284" lon="6.15671">
        <ele>2649.3999023438</ele>
        <time>2015-03-28T11:04:12.000Z</time>
      </trkpt>
      <trkpt lat="45.30285" lon="6.15673">
        <ele>2650</ele>
        <time>2015-03-28T11:04:16.000Z</time>
      </trkpt>
      <trkpt lat="45.30286" lon="6.15674">
        <ele>2650.1999511719</ele>
        <time>2015-03-28T11:04:18.000Z</time>
      </trkpt>
      <trkpt lat="45.30286" lon="6.15675">
        <ele>2650.3999023438</ele>
        <time>2015-03-28T11:04:20.000Z</time>
      </trkpt>
      <trkpt lat="45.30288" lon="6.15677">
        <ele>2651.1999511719</ele>
        <time>2015-03-28T11:04:25.000Z</time>
      </trkpt>
      <trkpt lat="45.30288" lon="6.15678">
        <ele>2651.1999511719</ele>
        <time>2015-03-28T11:04:27.000Z</time>
      </trkpt>
      <trkpt lat="45.30288" lon="6.15681">
        <ele>2651.8000488281</ele>
        <time>2015-03-28T11:04:31.000Z</time>
      </trkpt>
      <trkpt lat="45.30289" lon="6.15682">
        <ele>2652.3999023438</ele>
        <time>2015-03-28T11:04:34.000Z</time>
      </trkpt>
      <trkpt lat="45.3029" lon="6.15684">
        <ele>2652.6000976562</ele>
        <time>2015-03-28T11:04:36.000Z</time>
      </trkpt>
      <trkpt lat="45.30292" lon="6.15689">
        <ele>2653.3999023438</ele>
        <time>2015-03-28T11:04:43.000Z</time>
      </trkpt>
      <trkpt lat="45.30295" lon="6.15691">
        <ele>2654.1999511719</ele>
        <time>2015-03-28T11:04:50.000Z</time>
      </trkpt>
      <trkpt lat="45.30295" lon="6.15691">
        <ele>2654.3999023438</ele>
        <time>2015-03-28T11:04:51.000Z</time>
      </trkpt>
      <trkpt lat="45.30296" lon="6.15692">
        <ele>2654.8000488281</ele>
        <time>2015-03-28T11:04:59.000Z</time>
      </trkpt>
      <trkpt lat="45.30297" lon="6.15695">
        <ele>2655.6000976562</ele>
        <time>2015-03-28T11:05:03.000Z</time>
      </trkpt>
      <trkpt lat="45.30298" lon="6.15696">
        <ele>2655.8000488281</ele>
        <time>2015-03-28T11:05:06.000Z</time>
      </trkpt>
      <trkpt lat="45.303" lon="6.15699">
        <ele>2656.6000976562</ele>
        <time>2015-03-28T11:05:11.000Z</time>
      </trkpt>
      <trkpt lat="45.30301" lon="6.15699">
        <ele>2656.6000976562</ele>
        <time>2015-03-28T11:05:12.000Z</time>
      </trkpt>
      <trkpt lat="45.30303" lon="6.15702">
        <ele>2657.1999511719</ele>
        <time>2015-03-28T11:05:18.000Z</time>
      </trkpt>
      <trkpt lat="45.30303" lon="6.15703">
        <ele>2657.6000976562</ele>
        <time>2015-03-28T11:05:21.000Z</time>
      </trkpt>
      <trkpt lat="45.30303" lon="6.15703">
        <ele>2658.8000488281</ele>
        <time>2015-03-28T11:05:25.000Z</time>
      </trkpt>
      <trkpt lat="45.30303" lon="6.15703">
        <ele>2658.8000488281</ele>
        <time>2015-03-28T11:05:26.000Z</time>
      </trkpt>
      <trkpt lat="45.30305" lon="6.15701">
        <ele>2658.8000488281</ele>
        <time>2015-03-28T11:05:36.000Z</time>
      </trkpt>
      <trkpt lat="45.30305" lon="6.15699">
        <ele>2659.3999023438</ele>
        <time>2015-03-28T11:05:41.000Z</time>
      </trkpt>
      <trkpt lat="45.30305" lon="6.15698">
        <ele>2659.8000488281</ele>
        <time>2015-03-28T11:05:43.000Z</time>
      </trkpt>
      <trkpt lat="45.30305" lon="6.15698">
        <ele>2660.8000488281</ele>
        <time>2015-03-28T11:05:47.000Z</time>
      </trkpt>
      <trkpt lat="45.30305" lon="6.15698">
        <ele>2661</ele>
        <time>2015-03-28T11:05:48.000Z</time>
      </trkpt>
      <trkpt lat="45.30305" lon="6.15697">
        <ele>2661.1999511719</ele>
        <time>2015-03-28T11:05:53.000Z</time>
      </trkpt>
      <trkpt lat="45.30306" lon="6.15696">
        <ele>2662.1999511719</ele>
        <time>2015-03-28T11:05:57.000Z</time>
      </trkpt>
      <trkpt lat="45.30306" lon="6.15696">
        <ele>2662.6000976562</ele>
        <time>2015-03-28T11:05:59.000Z</time>
      </trkpt>
      <trkpt lat="45.30307" lon="6.15694">
        <ele>2663.1999511719</ele>
        <time>2015-03-28T11:06:04.000Z</time>
      </trkpt>
      <trkpt lat="45.30307" lon="6.15694">
        <ele>2663.1999511719</ele>
        <time>2015-03-28T11:06:05.000Z</time>
      </trkpt>
      <trkpt lat="45.30307" lon="6.15693">
        <ele>2662.8000488281</ele>
        <time>2015-03-28T11:06:11.000Z</time>
      </trkpt>
      <trkpt lat="45.30309" lon="6.15694">
        <ele>2663.1999511719</ele>
        <time>2015-03-28T11:06:18.000Z</time>
      </trkpt>
      <trkpt lat="45.3031" lon="6.15696">
        <ele>2663.3999023438</ele>
        <time>2015-03-28T11:06:24.000Z</time>
      </trkpt>
      <trkpt lat="45.30311" lon="6.15697">
        <ele>2664</ele>
        <time>2015-03-28T11:06:29.000Z</time>
      </trkpt>
      <trkpt lat="45.30312" lon="6.15698">
        <ele>2664.1999511719</ele>
        <time>2015-03-28T11:06:31.000Z</time>
      </trkpt>
      <trkpt lat="45.30313" lon="6.157">
        <ele>2665</ele>
        <time>2015-03-28T11:06:34.000Z</time>
      </trkpt>
      <trkpt lat="45.30313" lon="6.157">
        <ele>2665.1999511719</ele>
        <time>2015-03-28T11:06:35.000Z</time>
      </trkpt>
      <trkpt lat="45.30314" lon="6.15702">
        <ele>2666.1999511719</ele>
        <time>2015-03-28T11:06:39.000Z</time>
      </trkpt>
      <trkpt lat="45.30314" lon="6.15702">
        <ele>2666.6000976562</ele>
        <time>2015-03-28T11:06:41.000Z</time>
      </trkpt>
      <trkpt lat="45.30314" lon="6.15702">
        <ele>2667.3999023438</ele>
        <time>2015-03-28T11:06:47.000Z</time>
      </trkpt>
      <trkpt lat="45.30314" lon="6.15702">
        <ele>2667.3999023438</ele>
        <time>2015-03-28T11:06:54.000Z</time>
      </trkpt>
      <trkpt lat="45.30315" lon="6.15702">
        <ele>2667.1999511719</ele>
        <time>2015-03-28T11:07:10.000Z</time>
      </trkpt>
      <trkpt lat="45.30316" lon="6.15704">
        <ele>2668.1999511719</ele>
        <time>2015-03-28T11:07:17.000Z</time>
      </trkpt>
      <trkpt lat="45.30319" lon="6.15709">
        <ele>2668.8000488281</ele>
        <time>2015-03-28T11:07:23.000Z</time>
      </trkpt>
      <trkpt lat="45.30319" lon="6.1571">
        <ele>2669.3999023438</ele>
        <time>2015-03-28T11:07:24.000Z</time>
      </trkpt>
      <trkpt lat="45.3032" lon="6.15713">
        <ele>2670</ele>
        <time>2015-03-28T11:07:28.000Z</time>
      </trkpt>
      <trkpt lat="45.30321" lon="6.15713">
        <ele>2670.1999511719</ele>
        <time>2015-03-28T11:07:30.000Z</time>
      </trkpt>
      <trkpt lat="45.30321" lon="6.15717">
        <ele>2671</ele>
        <time>2015-03-28T11:07:34.000Z</time>
      </trkpt>
      <trkpt lat="45.30322" lon="6.15718">
        <ele>2671.3999023438</ele>
        <time>2015-03-28T11:07:37.000Z</time>
      </trkpt>
      <trkpt lat="45.30324" lon="6.15719">
        <ele>2672.1999511719</ele>
        <time>2015-03-28T11:07:41.000Z</time>
      </trkpt>
      <trkpt lat="45.30326" lon="6.15722">
        <ele>2673.1999511719</ele>
        <time>2015-03-28T11:07:47.000Z</time>
      </trkpt>
      <trkpt lat="45.30326" lon="6.15723">
        <ele>2673.3999023438</ele>
        <time>2015-03-28T11:07:48.000Z</time>
      </trkpt>
      <trkpt lat="45.30329" lon="6.15725">
        <ele>2673.8000488281</ele>
        <time>2015-03-28T11:07:54.000Z</time>
      </trkpt>
      <trkpt lat="45.3033" lon="6.15725">
        <ele>2674.6000976562</ele>
        <time>2015-03-28T11:07:57.000Z</time>
      </trkpt>
      <trkpt lat="45.3033" lon="6.15726">
        <ele>2675.1999511719</ele>
        <time>2015-03-28T11:08:02.000Z</time>
      </trkpt>
      <trkpt lat="45.3033" lon="6.15726">
        <ele>2675.6000976562</ele>
        <time>2015-03-28T11:08:06.000Z</time>
      </trkpt>
      <trkpt lat="45.30331" lon="6.15726">
        <ele>2675.6000976562</ele>
        <time>2015-03-28T11:08:13.000Z</time>
      </trkpt>
      <trkpt lat="45.30335" lon="6.15729">
        <ele>2676.8000488281</ele>
        <time>2015-03-28T11:08:19.000Z</time>
      </trkpt>
      <trkpt lat="45.30338" lon="6.1573">
        <ele>2677.8000488281</ele>
        <time>2015-03-28T11:08:24.000Z</time>
      </trkpt>
      <trkpt lat="45.30338" lon="6.1573">
        <ele>2678</ele>
        <time>2015-03-28T11:08:26.000Z</time>
      </trkpt>
      <trkpt lat="45.30338" lon="6.15731">
        <ele>2678</ele>
        <time>2015-03-28T11:08:34.000Z</time>
      </trkpt>
      <trkpt lat="45.3034" lon="6.15732">
        <ele>2678.8000488281</ele>
        <time>2015-03-28T11:08:40.000Z</time>
      </trkpt>
      <trkpt lat="45.30341" lon="6.15733">
        <ele>2679</ele>
        <time>2015-03-28T11:08:41.000Z</time>
      </trkpt>
      <trkpt lat="45.30344" lon="6.15737">
        <ele>2679.3999023438</ele>
        <time>2015-03-28T11:08:47.000Z</time>
      </trkpt>
      <trkpt lat="45.30347" lon="6.15739">
        <ele>2680</ele>
        <time>2015-03-28T11:08:51.000Z</time>
      </trkpt>
      <trkpt lat="45.30347" lon="6.15739">
        <ele>2680.1999511719</ele>
        <time>2015-03-28T11:08:52.000Z</time>
      </trkpt>
      <trkpt lat="45.30349" lon="6.15741">
        <ele>2680.8000488281</ele>
        <time>2015-03-28T11:08:58.000Z</time>
      </trkpt>
      <trkpt lat="45.30349" lon="6.15741">
        <ele>2681.1999511719</ele>
        <time>2015-03-28T11:08:59.000Z</time>
      </trkpt>
      <trkpt lat="45.30352" lon="6.15743">
        <ele>2681.3999023438</ele>
        <time>2015-03-28T11:09:04.000Z</time>
      </trkpt>
      <trkpt lat="45.30353" lon="6.15744">
        <ele>2682.1999511719</ele>
        <time>2015-03-28T11:09:08.000Z</time>
      </trkpt>
      <trkpt lat="45.30353" lon="6.15744">
        <ele>2682.3999023438</ele>
        <time>2015-03-28T11:09:10.000Z</time>
      </trkpt>
      <trkpt lat="45.30354" lon="6.15745">
        <ele>2683.1999511719</ele>
        <time>2015-03-28T11:09:22.000Z</time>
      </trkpt>
      <trkpt lat="45.30355" lon="6.15746">
        <ele>2683.3999023438</ele>
        <time>2015-03-28T11:09:23.000Z</time>
      </trkpt>
      <trkpt lat="45.30357" lon="6.15748">
        <ele>2683.6000976562</ele>
        <time>2015-03-28T11:09:28.000Z</time>
      </trkpt>
      <trkpt lat="45.30358" lon="6.1575">
        <ele>2684.3999023438</ele>
        <time>2015-03-28T11:09:32.000Z</time>
      </trkpt>
      <trkpt lat="45.30359" lon="6.15751">
        <ele>2684.6000976562</ele>
        <time>2015-03-28T11:09:34.000Z</time>
      </trkpt>
      <trkpt lat="45.30361" lon="6.15752">
        <ele>2685</ele>
        <time>2015-03-28T11:09:39.000Z</time>
      </trkpt>
      <trkpt lat="45.30363" lon="6.15755">
        <ele>2685.3999023438</ele>
        <time>2015-03-28T11:09:45.000Z</time>
      </trkpt>
      <trkpt lat="45.30363" lon="6.15756">
        <ele>2685.6000976562</ele>
        <time>2015-03-28T11:09:46.000Z</time>
      </trkpt>
      <trkpt lat="45.30364" lon="6.15758">
        <ele>2686.1999511719</ele>
        <time>2015-03-28T11:09:51.000Z</time>
      </trkpt>
      <trkpt lat="45.30365" lon="6.15759">
        <ele>2686.3999023438</ele>
        <time>2015-03-28T11:09:53.000Z</time>
      </trkpt>
      <trkpt lat="45.30365" lon="6.1576">
        <ele>2687.3999023438</ele>
        <time>2015-03-28T11:09:59.000Z</time>
      </trkpt>
      <trkpt lat="45.30365" lon="6.15761">
        <ele>2688.3999023438</ele>
        <time>2015-03-28T11:10:06.000Z</time>
      </trkpt>
      <trkpt lat="45.30366" lon="6.1576">
        <ele>2688</ele>
        <time>2015-03-28T11:10:18.000Z</time>
      </trkpt>
      <trkpt lat="45.30366" lon="6.1576">
        <ele>2688.6000976562</ele>
        <time>2015-03-28T11:10:24.000Z</time>
      </trkpt>
      <trkpt lat="45.30366" lon="6.15759">
        <ele>2689</ele>
        <time>2015-03-28T11:10:28.000Z</time>
      </trkpt>
      <trkpt lat="45.30366" lon="6.15755">
        <ele>2689.3999023438</ele>
        <time>2015-03-28T11:10:36.000Z</time>
      </trkpt>
      <trkpt lat="45.30367" lon="6.15753">
        <ele>2689.6000976562</ele>
        <time>2015-03-28T11:10:41.000Z</time>
      </trkpt>
      <trkpt lat="45.30367" lon="6.15751">
        <ele>2689.6000976562</ele>
        <time>2015-03-28T11:10:43.000Z</time>
      </trkpt>
      <trkpt lat="45.30367" lon="6.15747">
        <ele>2690.3999023438</ele>
        <time>2015-03-28T11:10:48.000Z</time>
      </trkpt>
      <trkpt lat="45.30367" lon="6.15746">
        <ele>2690.6000976562</ele>
        <time>2015-03-28T11:10:50.000Z</time>
      </trkpt>
      <trkpt lat="45.30367" lon="6.15744">
        <ele>2691.8000488281</ele>
        <time>2015-03-28T11:10:56.000Z</time>
      </trkpt>
      <trkpt lat="45.30367" lon="6.15742">
        <ele>2692.1999511719</ele>
        <time>2015-03-28T11:11:04.000Z</time>
      </trkpt>
      <trkpt lat="45.30367" lon="6.15742">
        <ele>2693</ele>
        <time>2015-03-28T11:11:09.000Z</time>
      </trkpt>
      <trkpt lat="45.30367" lon="6.15742">
        <ele>2693.6000976562</ele>
        <time>2015-03-28T11:11:12.000Z</time>
      </trkpt>
      <trkpt lat="45.30368" lon="6.15742">
        <ele>2693.1999511719</ele>
        <time>2015-03-28T11:11:20.000Z</time>
      </trkpt>
      <trkpt lat="45.30369" lon="6.15744">
        <ele>2694</ele>
        <time>2015-03-28T11:11:26.000Z</time>
      </trkpt>
      <trkpt lat="45.3037" lon="6.15745">
        <ele>2695.1999511719</ele>
        <time>2015-03-28T11:11:33.000Z</time>
      </trkpt>
      <trkpt lat="45.30371" lon="6.15746">
        <ele>2695.8000488281</ele>
        <time>2015-03-28T11:11:40.000Z</time>
      </trkpt>
      <trkpt lat="45.30372" lon="6.15747">
        <ele>2696.1999511719</ele>
        <time>2015-03-28T11:11:43.000Z</time>
      </trkpt>
      <trkpt lat="45.30373" lon="6.15747">
        <ele>2696.3999023438</ele>
        <time>2015-03-28T11:11:46.000Z</time>
      </trkpt>
      <trkpt lat="45.30374" lon="6.15749">
        <ele>2696.8000488281</ele>
        <time>2015-03-28T11:11:53.000Z</time>
      </trkpt>
      <trkpt lat="45.30374" lon="6.15749">
        <ele>2697.1999511719</ele>
        <time>2015-03-28T11:11:55.000Z</time>
      </trkpt>
      <trkpt lat="45.30374" lon="6.15749">
        <ele>2698.1999511719</ele>
        <time>2015-03-28T11:12:04.000Z</time>
      </trkpt>
      <trkpt lat="45.30375" lon="6.15748">
        <ele>2698.1999511719</ele>
        <time>2015-03-28T11:12:06.000Z</time>
      </trkpt>
      <trkpt lat="45.30377" lon="6.15746">
        <ele>2698.3999023438</ele>
        <time>2015-03-28T11:12:13.000Z</time>
      </trkpt>
      <trkpt lat="45.30377" lon="6.15742">
        <ele>2698.8000488281</ele>
        <time>2015-03-28T11:12:21.000Z</time>
      </trkpt>
      <trkpt lat="45.30377" lon="6.1574">
        <ele>2699.3999023438</ele>
        <time>2015-03-28T11:12:24.000Z</time>
      </trkpt>
      <trkpt lat="45.30377" lon="6.15739">
        <ele>2699.3999023438</ele>
        <time>2015-03-28T11:12:29.000Z</time>
      </trkpt>
      <trkpt lat="45.30378" lon="6.15736">
        <ele>2699.8000488281</ele>
        <time>2015-03-28T11:12:38.000Z</time>
      </trkpt>
      <trkpt lat="45.30378" lon="6.15736">
        <ele>2700.3999023438</ele>
        <time>2015-03-28T11:12:41.000Z</time>
      </trkpt>
      <trkpt lat="45.30378" lon="6.15735">
        <ele>2701.3999023438</ele>
        <time>2015-03-28T11:12:44.000Z</time>
      </trkpt>
      <trkpt lat="45.30378" lon="6.15735">
        <ele>2701.8000488281</ele>
        <time>2015-03-28T11:12:46.000Z</time>
      </trkpt>
      <trkpt lat="45.30377" lon="6.15734">
        <ele>2700.8000488281</ele>
        <time>2015-03-28T11:12:51.000Z</time>
      </trkpt>
      <trkpt lat="45.30377" lon="6.15734">
        <ele>2702.1999511719</ele>
        <time>2015-03-28T11:13:02.000Z</time>
      </trkpt>
      <trkpt lat="45.30377" lon="6.15734">
        <ele>2701.8000488281</ele>
        <time>2015-03-28T11:13:14.000Z</time>
      </trkpt>
      <trkpt lat="45.30379" lon="6.15735">
        <ele>2702</ele>
        <time>2015-03-28T11:13:21.000Z</time>
      </trkpt>
      <trkpt lat="45.3038" lon="6.15736">
        <ele>2702.6000976562</ele>
        <time>2015-03-28T11:13:25.000Z</time>
      </trkpt>
      <trkpt lat="45.30381" lon="6.15738">
        <ele>2702.8000488281</ele>
        <time>2015-03-28T11:13:31.000Z</time>
      </trkpt>
      <trkpt lat="45.30383" lon="6.15745">
        <ele>2703.3999023438</ele>
        <time>2015-03-28T11:13:37.000Z</time>
      </trkpt>
      <trkpt lat="45.30383" lon="6.15747">
        <ele>2703.6000976562</ele>
        <time>2015-03-28T11:13:38.000Z</time>
      </trkpt>
      <trkpt lat="45.30383" lon="6.15752">
        <ele>2704</ele>
        <time>2015-03-28T11:13:44.000Z</time>
      </trkpt>
      <trkpt lat="45.30385" lon="6.15755">
        <ele>2704.6000976562</ele>
        <time>2015-03-28T11:13:50.000Z</time>
      </trkpt>
      <trkpt lat="45.30385" lon="6.15755">
        <ele>2704.8000488281</ele>
        <time>2015-03-28T11:13:51.000Z</time>
      </trkpt>
      <trkpt lat="45.30386" lon="6.15758">
        <ele>2706</ele>
        <time>2015-03-28T11:13:56.000Z</time>
      </trkpt>
      <trkpt lat="45.30387" lon="6.15759">
        <ele>2707.1999511719</ele>
        <time>2015-03-28T11:14:02.000Z</time>
      </trkpt>
      <trkpt lat="45.30387" lon="6.15759">
        <ele>2708.1999511719</ele>
        <time>2015-03-28T11:14:05.000Z</time>
      </trkpt>
      <trkpt lat="45.30388" lon="6.15758">
        <ele>2708.6000976562</ele>
        <time>2015-03-28T11:14:08.000Z</time>
      </trkpt>
      <trkpt lat="45.30387" lon="6.15756">
        <ele>2708</ele>
        <time>2015-03-28T11:14:15.000Z</time>
      </trkpt>
      <trkpt lat="45.30387" lon="6.15756">
        <ele>2707.3999023438</ele>
        <time>2015-03-28T11:14:26.000Z</time>
      </trkpt>
      <trkpt lat="45.30387" lon="6.15756">
        <ele>2707.1999511719</ele>
        <time>2015-03-28T11:14:37.000Z</time>
      </trkpt>
      <trkpt lat="45.30387" lon="6.15756">
        <ele>2707.6000976562</ele>
        <time>2015-03-28T11:14:51.000Z</time>
      </trkpt>
      <trkpt lat="45.30387" lon="6.15755">
        <ele>2707.6000976562</ele>
        <time>2015-03-28T11:15:01.000Z</time>
      </trkpt>
      <trkpt lat="45.30387" lon="6.15755">
        <ele>2707.8000488281</ele>
        <time>2015-03-28T11:15:17.000Z</time>
      </trkpt>
      <trkpt lat="45.30387" lon="6.15755">
        <ele>2708.1999511719</ele>
        <time>2015-03-28T11:15:28.000Z</time>
      </trkpt>
      <trkpt lat="45.30388" lon="6.15755">
        <ele>2708.6000976562</ele>
        <time>2015-03-28T11:15:44.000Z</time>
      </trkpt>
      <trkpt lat="45.30388" lon="6.15755">
        <ele>2707.8000488281</ele>
        <time>2015-03-28T11:16:02.000Z</time>
      </trkpt>
      <trkpt lat="45.30387" lon="6.15755">
        <ele>2707.6000976562</ele>
        <time>2015-03-28T11:16:20.000Z</time>
      </trkpt>
      <trkpt lat="45.30387" lon="6.15755">
        <ele>2708.3999023438</ele>
        <time>2015-03-28T11:16:29.000Z</time>
      </trkpt>
      <trkpt lat="45.30387" lon="6.15755">
        <ele>2709.1999511719</ele>
        <time>2015-03-28T11:16:35.000Z</time>
      </trkpt>
      <trkpt lat="45.30387" lon="6.15755">
        <ele>2709.6000976562</ele>
        <time>2015-03-28T11:16:37.000Z</time>
      </trkpt>
      <trkpt lat="45.30387" lon="6.15755">
        <ele>2708</ele>
        <time>2015-03-28T11:16:43.000Z</time>
      </trkpt>
      <trkpt lat="45.30387" lon="6.15755">
        <ele>2706.8000488281</ele>
        <time>2015-03-28T11:16:49.000Z</time>
      </trkpt>
      <trkpt lat="45.30387" lon="6.15755">
        <ele>2705.8000488281</ele>
        <time>2015-03-28T11:17:04.000Z</time>
      </trkpt>
      <trkpt lat="45.30385" lon="6.15751">
        <ele>2704.8000488281</ele>
        <time>2015-03-28T11:17:12.000Z</time>
      </trkpt>
      <trkpt lat="45.30384" lon="6.15751">
        <ele>2704.6000976562</ele>
        <time>2015-03-28T11:17:13.000Z</time>
      </trkpt>
      <trkpt lat="45.30383" lon="6.15744">
        <ele>2704.1999511719</ele>
        <time>2015-03-28T11:17:20.000Z</time>
      </trkpt>
      <trkpt lat="45.3038" lon="6.1574">
        <ele>2703.8000488281</ele>
        <time>2015-03-28T11:17:26.000Z</time>
      </trkpt>
      <trkpt lat="45.30378" lon="6.15738">
        <ele>2703.6000976562</ele>
        <time>2015-03-28T11:17:29.000Z</time>
      </trkpt>
      <trkpt lat="45.30376" lon="6.15733">
        <ele>2702.8000488281</ele>
        <time>2015-03-28T11:17:37.000Z</time>
      </trkpt>
      <trkpt lat="45.30376" lon="6.15733">
        <ele>2702.6000976562</ele>
        <time>2015-03-28T11:17:52.000Z</time>
      </trkpt>
      <trkpt lat="45.30375" lon="6.15734">
        <ele>2702.1999511719</ele>
        <time>2015-03-28T11:17:59.000Z</time>
      </trkpt>
      <trkpt lat="45.30376" lon="6.15736">
        <ele>2701.8000488281</ele>
        <time>2015-03-28T11:18:02.000Z</time>
      </trkpt>
      <trkpt lat="45.30376" lon="6.15739">
        <ele>2701</ele>
        <time>2015-03-28T11:18:06.000Z</time>
      </trkpt>
      <trkpt lat="45.30376" lon="6.15743">
        <ele>2700.6000976562</ele>
        <time>2015-03-28T11:18:09.000Z</time>
      </trkpt>
      <trkpt lat="45.30376" lon="6.15748">
        <ele>2699.3999023438</ele>
        <time>2015-03-28T11:18:13.000Z</time>
      </trkpt>
      <trkpt lat="45.30376" lon="6.15749">
        <ele>2698.6000976562</ele>
        <time>2015-03-28T11:18:16.000Z</time>
      </trkpt>
      <trkpt lat="45.30376" lon="6.15749">
        <ele>2698.3999023438</ele>
        <time>2015-03-28T11:18:18.000Z</time>
      </trkpt>
      <trkpt lat="45.30376" lon="6.15749">
        <ele>2697.8000488281</ele>
        <time>2015-03-28T11:18:24.000Z</time>
      </trkpt>
      <trkpt lat="45.30376" lon="6.15749">
        <ele>2697.3999023438</ele>
        <time>2015-03-28T11:18:26.000Z</time>
      </trkpt>
      <trkpt lat="45.30372" lon="6.15745">
        <ele>2696.8000488281</ele>
        <time>2015-03-28T11:18:34.000Z</time>
      </trkpt>
      <trkpt lat="45.3037" lon="6.15743">
        <ele>2696.3999023438</ele>
        <time>2015-03-28T11:18:37.000Z</time>
      </trkpt>
      <trkpt lat="45.30368" lon="6.15742">
        <ele>2696.1999511719</ele>
        <time>2015-03-28T11:18:38.000Z</time>
      </trkpt>
      <trkpt lat="45.30366" lon="6.1574">
        <ele>2696</ele>
        <time>2015-03-28T11:18:39.000Z</time>
      </trkpt>
      <trkpt lat="45.30365" lon="6.15739">
        <ele>2695</ele>
        <time>2015-03-28T11:18:41.000Z</time>
      </trkpt>
      <trkpt lat="45.30364" lon="6.15738">
        <ele>2694</ele>
        <time>2015-03-28T11:18:43.000Z</time>
      </trkpt>
      <trkpt lat="45.30364" lon="6.15738">
        <ele>2693</ele>
        <time>2015-03-28T11:18:51.000Z</time>
      </trkpt>
      <trkpt lat="45.30363" lon="6.15737">
        <ele>2692.6000976562</ele>
        <time>2015-03-28T11:18:59.000Z</time>
      </trkpt>
      <trkpt lat="45.3036" lon="6.15736">
        <ele>2692.1999511719</ele>
        <time>2015-03-28T11:19:11.000Z</time>
      </trkpt>
      <trkpt lat="45.3036" lon="6.15736">
        <ele>2692</ele>
        <time>2015-03-28T11:19:12.000Z</time>
      </trkpt>
      <trkpt lat="45.30359" lon="6.15734">
        <ele>2691.6000976562</ele>
        <time>2015-03-28T11:19:19.000Z</time>
      </trkpt>
      <trkpt lat="45.30359" lon="6.15734">
        <ele>2692.1999511719</ele>
        <time>2015-03-28T11:19:33.000Z</time>
      </trkpt>
      <trkpt lat="45.30358" lon="6.15729">
        <ele>2692.3999023438</ele>
        <time>2015-03-28T11:19:40.000Z</time>
      </trkpt>
      <trkpt lat="45.30356" lon="6.15724">
        <ele>2692.8000488281</ele>
        <time>2015-03-28T11:19:47.000Z</time>
      </trkpt>
      <trkpt lat="45.30354" lon="6.15719">
        <ele>2693</ele>
        <time>2015-03-28T11:19:51.000Z</time>
      </trkpt>
      <trkpt lat="45.30352" lon="6.15716">
        <ele>2693</ele>
        <time>2015-03-28T11:19:56.000Z</time>
      </trkpt>
      <trkpt lat="45.30352" lon="6.15712">
        <ele>2692.8000488281</ele>
        <time>2015-03-28T11:20:02.000Z</time>
      </trkpt>
      <trkpt lat="45.30349" lon="6.15707">
        <ele>2692.6000976562</ele>
        <time>2015-03-28T11:20:10.000Z</time>
      </trkpt>
      <trkpt lat="45.30348" lon="6.15705">
        <ele>2692.3999023438</ele>
        <time>2015-03-28T11:20:17.000Z</time>
      </trkpt>
      <trkpt lat="45.30348" lon="6.15702">
        <ele>2693</ele>
        <time>2015-03-28T11:20:23.000Z</time>
      </trkpt>
      <trkpt lat="45.30345" lon="6.15695">
        <ele>2693</ele>
        <time>2015-03-28T11:20:32.000Z</time>
      </trkpt>
      <trkpt lat="45.30345" lon="6.15688">
        <ele>2693.1999511719</ele>
        <time>2015-03-28T11:20:39.000Z</time>
      </trkpt>
      <trkpt lat="45.30343" lon="6.15684">
        <ele>2693.6000976562</ele>
        <time>2015-03-28T11:20:45.000Z</time>
      </trkpt>
      <trkpt lat="45.30345" lon="6.1568">
        <ele>2694.3999023438</ele>
        <time>2015-03-28T11:20:49.000Z</time>
      </trkpt>
      <trkpt lat="45.30345" lon="6.1568">
        <ele>2694.3999023438</ele>
        <time>2015-03-28T11:20:50.000Z</time>
      </trkpt>
      <trkpt lat="45.30346" lon="6.1568">
        <ele>2694.8000488281</ele>
        <time>2015-03-28T11:20:58.000Z</time>
      </trkpt>
      <trkpt lat="45.30346" lon="6.1568">
        <ele>2695.1999511719</ele>
        <time>2015-03-28T11:21:08.000Z</time>
      </trkpt>
      <trkpt lat="45.30346" lon="6.1568">
        <ele>2695.3999023438</ele>
        <time>2015-03-28T11:21:10.000Z</time>
      </trkpt>
      <trkpt lat="45.30348" lon="6.15682">
        <ele>2695.3999023438</ele>
        <time>2015-03-28T11:21:18.000Z</time>
      </trkpt>
      <trkpt lat="45.30349" lon="6.15683">
        <ele>2695.8000488281</ele>
        <time>2015-03-28T11:21:23.000Z</time>
      </trkpt>
      <trkpt lat="45.3035" lon="6.15686">
        <ele>2696.6000976562</ele>
        <time>2015-03-28T11:21:28.000Z</time>
      </trkpt>
      <trkpt lat="45.3035" lon="6.15686">
        <ele>2697</ele>
        <time>2015-03-28T11:21:29.000Z</time>
      </trkpt>
      <trkpt lat="45.30351" lon="6.15687">
        <ele>2697.6000976562</ele>
        <time>2015-03-28T11:21:33.000Z</time>
      </trkpt>
      <trkpt lat="45.30351" lon="6.15688">
        <ele>2697.8000488281</ele>
        <time>2015-03-28T11:21:34.000Z</time>
      </trkpt>
      <trkpt lat="45.30353" lon="6.15689">
        <ele>2698.6000976562</ele>
        <time>2015-03-28T11:21:38.000Z</time>
      </trkpt>
      <trkpt lat="45.30354" lon="6.15689">
        <ele>2698.8000488281</ele>
        <time>2015-03-28T11:21:41.000Z</time>
      </trkpt>
      <trkpt lat="45.30355" lon="6.15692">
        <ele>2700</ele>
        <time>2015-03-28T11:21:46.000Z</time>
      </trkpt>
      <trkpt lat="45.30355" lon="6.15692">
        <ele>2700.3999023438</ele>
        <time>2015-03-28T11:21:47.000Z</time>
      </trkpt>
      <trkpt lat="45.30355" lon="6.15692">
        <ele>2701</ele>
        <time>2015-03-28T11:21:50.000Z</time>
      </trkpt>
      <trkpt lat="45.30355" lon="6.15692">
        <ele>2701.8000488281</ele>
        <time>2015-03-28T11:21:58.000Z</time>
      </trkpt>
      <trkpt lat="45.30356" lon="6.15691">
        <ele>2701.8000488281</ele>
        <time>2015-03-28T11:22:03.000Z</time>
      </trkpt>
      <trkpt lat="45.30356" lon="6.15691">
        <ele>2702</ele>
        <time>2015-03-28T11:22:07.000Z</time>
      </trkpt>
      <trkpt lat="45.30356" lon="6.15689">
        <ele>2702.3999023438</ele>
        <time>2015-03-28T11:22:17.000Z</time>
      </trkpt>
      <trkpt lat="45.30356" lon="6.15683">
        <ele>2702.6000976562</ele>
        <time>2015-03-28T11:22:21.000Z</time>
      </trkpt>
      <trkpt lat="45.30356" lon="6.15683">
        <ele>2703</ele>
        <time>2015-03-28T11:22:23.000Z</time>
      </trkpt>
      <trkpt lat="45.30356" lon="6.15682">
        <ele>2704.1999511719</ele>
        <time>2015-03-28T11:22:28.000Z</time>
      </trkpt>
      <trkpt lat="45.30356" lon="6.15683">
        <ele>2704.3999023438</ele>
        <time>2015-03-28T11:22:37.000Z</time>
      </trkpt>
      <trkpt lat="45.30359" lon="6.15685">
        <ele>2704.6000976562</ele>
        <time>2015-03-28T11:22:45.000Z</time>
      </trkpt>
      <trkpt lat="45.3036" lon="6.1569">
        <ele>2704.8000488281</ele>
        <time>2015-03-28T11:22:51.000Z</time>
      </trkpt>
      <trkpt lat="45.30361" lon="6.15691">
        <ele>2705.1999511719</ele>
        <time>2015-03-28T11:22:53.000Z</time>
      </trkpt>
      <trkpt lat="45.30362" lon="6.15693">
        <ele>2705.6000976562</ele>
        <time>2015-03-28T11:22:58.000Z</time>
      </trkpt>
      <trkpt lat="45.30362" lon="6.15694">
        <ele>2706.3999023438</ele>
        <time>2015-03-28T11:23:00.000Z</time>
      </trkpt>
      <trkpt lat="45.30363" lon="6.15696">
        <ele>2706.8000488281</ele>
        <time>2015-03-28T11:23:02.000Z</time>
      </trkpt>
      <trkpt lat="45.30365" lon="6.157">
        <ele>2707.3999023438</ele>
        <time>2015-03-28T11:23:07.000Z</time>
      </trkpt>
      <trkpt lat="45.30367" lon="6.15701">
        <ele>2708.6000976562</ele>
        <time>2015-03-28T11:23:11.000Z</time>
      </trkpt>
      <trkpt lat="45.30367" lon="6.15701">
        <ele>2709.3999023438</ele>
        <time>2015-03-28T11:23:16.000Z</time>
      </trkpt>
      <trkpt lat="45.30367" lon="6.15701">
        <ele>2709.8000488281</ele>
        <time>2015-03-28T11:23:17.000Z</time>
      </trkpt>
      <trkpt lat="45.30367" lon="6.15699">
        <ele>2710</ele>
        <time>2015-03-28T11:23:26.000Z</time>
      </trkpt>
      <trkpt lat="45.30368" lon="6.15696">
        <ele>2710.8000488281</ele>
        <time>2015-03-28T11:23:34.000Z</time>
      </trkpt>
      <trkpt lat="45.30369" lon="6.15693">
        <ele>2711</ele>
        <time>2015-03-28T11:23:36.000Z</time>
      </trkpt>
      <trkpt lat="45.3037" lon="6.15689">
        <ele>2711.1999511719</ele>
        <time>2015-03-28T11:23:38.000Z</time>
      </trkpt>
      <trkpt lat="45.3037" lon="6.15687">
        <ele>2711.1999511719</ele>
        <time>2015-03-28T11:23:41.000Z</time>
      </trkpt>
      <trkpt lat="45.3037" lon="6.15684">
        <ele>2711.8000488281</ele>
        <time>2015-03-28T11:23:47.000Z</time>
      </trkpt>
      <trkpt lat="45.30369" lon="6.15681">
        <ele>2712.6000976562</ele>
        <time>2015-03-28T11:23:51.000Z</time>
      </trkpt>
      <trkpt lat="45.30369" lon="6.15678">
        <ele>2712.6000976562</ele>
        <time>2015-03-28T11:23:55.000Z</time>
      </trkpt>
      <trkpt lat="45.30369" lon="6.15676">
        <ele>2713</ele>
        <time>2015-03-28T11:23:58.000Z</time>
      </trkpt>
      <trkpt lat="45.30369" lon="6.15674">
        <ele>2714</ele>
        <time>2015-03-28T11:24:01.000Z</time>
      </trkpt>
      <trkpt lat="45.30369" lon="6.15674">
        <ele>2714.1999511719</ele>
        <time>2015-03-28T11:24:02.000Z</time>
      </trkpt>
      <trkpt lat="45.30369" lon="6.15673">
        <ele>2714.6000976562</ele>
        <time>2015-03-28T11:24:16.000Z</time>
      </trkpt>
      <trkpt lat="45.30369" lon="6.1567">
        <ele>2715.3999023438</ele>
        <time>2015-03-28T11:24:19.000Z</time>
      </trkpt>
      <trkpt lat="45.30369" lon="6.1567">
        <ele>2715.8000488281</ele>
        <time>2015-03-28T11:24:21.000Z</time>
      </trkpt>
      <trkpt lat="45.3037" lon="6.15667">
        <ele>2716.3999023438</ele>
        <time>2015-03-28T11:24:26.000Z</time>
      </trkpt>
      <trkpt lat="45.30371" lon="6.15665">
        <ele>2717.1999511719</ele>
        <time>2015-03-28T11:24:30.000Z</time>
      </trkpt>
      <trkpt lat="45.30371" lon="6.15664">
        <ele>2717.3999023438</ele>
        <time>2015-03-28T11:24:31.000Z</time>
      </trkpt>
      <trkpt lat="45.30371" lon="6.15663">
        <ele>2718.3999023438</ele>
        <time>2015-03-28T11:24:35.000Z</time>
      </trkpt>
      <trkpt lat="45.30371" lon="6.15663">
        <ele>2718.6000976562</ele>
        <time>2015-03-28T11:24:37.000Z</time>
      </trkpt>
      <trkpt lat="45.30371" lon="6.15663">
        <ele>2718.6000976562</ele>
        <time>2015-03-28T11:24:45.000Z</time>
      </trkpt>
      <trkpt lat="45.30372" lon="6.15663">
        <ele>2718.6000976562</ele>
        <time>2015-03-28T11:24:55.000Z</time>
      </trkpt>
      <trkpt lat="45.30372" lon="6.1566">
        <ele>2719</ele>
        <time>2015-03-28T11:25:04.000Z</time>
      </trkpt>
      <trkpt lat="45.30374" lon="6.15655">
        <ele>2719.3999023438</ele>
        <time>2015-03-28T11:25:08.000Z</time>
      </trkpt>
      <trkpt lat="45.30375" lon="6.15654">
        <ele>2719.6000976562</ele>
        <time>2015-03-28T11:25:10.000Z</time>
      </trkpt>
      <trkpt lat="45.30375" lon="6.15651">
        <ele>2720</ele>
        <time>2015-03-28T11:25:12.000Z</time>
      </trkpt>
      <trkpt lat="45.30376" lon="6.15648">
        <ele>2720.1999511719</ele>
        <time>2015-03-28T11:25:14.000Z</time>
      </trkpt>
      <trkpt lat="45.30377" lon="6.15646">
        <ele>2720.6000976562</ele>
        <time>2015-03-28T11:25:16.000Z</time>
      </trkpt>
      <trkpt lat="45.30378" lon="6.15645">
        <ele>2720.8000488281</ele>
        <time>2015-03-28T11:25:17.000Z</time>
      </trkpt>
      <trkpt lat="45.30377" lon="6.15642">
        <ele>2721.1999511719</ele>
        <time>2015-03-28T11:25:21.000Z</time>
      </trkpt>
      <trkpt lat="45.30376" lon="6.15639">
        <ele>2721.8000488281</ele>
        <time>2015-03-28T11:25:28.000Z</time>
      </trkpt>
      <trkpt lat="45.30375" lon="6.15634">
        <ele>2721.8000488281</ele>
        <time>2015-03-28T11:25:32.000Z</time>
      </trkpt>
      <trkpt lat="45.30375" lon="6.1563">
        <ele>2722.1999511719</ele>
        <time>2015-03-28T11:25:37.000Z</time>
      </trkpt>
      <trkpt lat="45.30375" lon="6.15628">
        <ele>2722.6000976562</ele>
        <time>2015-03-28T11:25:44.000Z</time>
      </trkpt>
      <trkpt lat="45.30375" lon="6.15625">
        <ele>2722.8000488281</ele>
        <time>2015-03-28T11:25:49.000Z</time>
      </trkpt>
      <trkpt lat="45.30375" lon="6.15625">
        <ele>2723.1999511719</ele>
        <time>2015-03-28T11:25:51.000Z</time>
      </trkpt>
      <trkpt lat="45.30375" lon="6.15623">
        <ele>2723.6000976562</ele>
        <time>2015-03-28T11:25:57.000Z</time>
      </trkpt>
      <trkpt lat="45.30374" lon="6.15621">
        <ele>2724</ele>
        <time>2015-03-28T11:26:00.000Z</time>
      </trkpt>
      <trkpt lat="45.30374" lon="6.1562">
        <ele>2724.3999023438</ele>
        <time>2015-03-28T11:26:03.000Z</time>
      </trkpt>
      <trkpt lat="45.30373" lon="6.15616">
        <ele>2725.1999511719</ele>
        <time>2015-03-28T11:26:09.000Z</time>
      </trkpt>
      <trkpt lat="45.30373" lon="6.15615">
        <ele>2725.3999023438</ele>
        <time>2015-03-28T11:26:10.000Z</time>
      </trkpt>
      <trkpt lat="45.30373" lon="6.1561">
        <ele>2726.1999511719</ele>
        <time>2015-03-28T11:26:16.000Z</time>
      </trkpt>
      <trkpt lat="45.30373" lon="6.15609">
        <ele>2726.3999023438</ele>
        <time>2015-03-28T11:26:17.000Z</time>
      </trkpt>
      <trkpt lat="45.30372" lon="6.15607">
        <ele>2727</ele>
        <time>2015-03-28T11:26:21.000Z</time>
      </trkpt>
      <trkpt lat="45.30373" lon="6.15605">
        <ele>2727.6000976562</ele>
        <time>2015-03-28T11:26:24.000Z</time>
      </trkpt>
      <trkpt lat="45.30372" lon="6.15604">
        <ele>2727.8000488281</ele>
        <time>2015-03-28T11:26:28.000Z</time>
      </trkpt>
      <trkpt lat="45.30372" lon="6.15602">
        <ele>2728</ele>
        <time>2015-03-28T11:26:35.000Z</time>
      </trkpt>
      <trkpt lat="45.30371" lon="6.15596">
        <ele>2728.3999023438</ele>
        <time>2015-03-28T11:26:42.000Z</time>
      </trkpt>
      <trkpt lat="45.30371" lon="6.15593">
        <ele>2728.6000976562</ele>
        <time>2015-03-28T11:26:45.000Z</time>
      </trkpt>
      <trkpt lat="45.3037" lon="6.15592">
        <ele>2728.8000488281</ele>
        <time>2015-03-28T11:26:48.000Z</time>
      </trkpt>
      <trkpt lat="45.30369" lon="6.15589">
        <ele>2729.1999511719</ele>
        <time>2015-03-28T11:26:58.000Z</time>
      </trkpt>
      <trkpt lat="45.30368" lon="6.15586">
        <ele>2729.6000976562</ele>
        <time>2015-03-28T11:27:05.000Z</time>
      </trkpt>
      <trkpt lat="45.30366" lon="6.1558">
        <ele>2730.1999511719</ele>
        <time>2015-03-28T11:27:10.000Z</time>
      </trkpt>
      <trkpt lat="45.30365" lon="6.15576">
        <ele>2730.6000976562</ele>
        <time>2015-03-28T11:27:14.000Z</time>
      </trkpt>
      <trkpt lat="45.30364" lon="6.15572">
        <ele>2731.8000488281</ele>
        <time>2015-03-28T11:27:19.000Z</time>
      </trkpt>
      <trkpt lat="45.30364" lon="6.15569">
        <ele>2732.6000976562</ele>
        <time>2015-03-28T11:27:25.000Z</time>
      </trkpt>
      <trkpt lat="45.30364" lon="6.15567">
        <ele>2732.8000488281</ele>
        <time>2015-03-28T11:27:27.000Z</time>
      </trkpt>
      <trkpt lat="45.30364" lon="6.15563">
        <ele>2733.1999511719</ele>
        <time>2015-03-28T11:27:32.000Z</time>
      </trkpt>
      <trkpt lat="45.30364" lon="6.15562">
        <ele>2733.8000488281</ele>
        <time>2015-03-28T11:27:40.000Z</time>
      </trkpt>
      <trkpt lat="45.30364" lon="6.15562">
        <ele>2734</ele>
        <time>2015-03-28T11:27:43.000Z</time>
      </trkpt>
      <trkpt lat="45.30364" lon="6.15561">
        <ele>2734.6000976562</ele>
        <time>2015-03-28T11:27:55.000Z</time>
      </trkpt>
      <trkpt lat="45.30363" lon="6.15559">
        <ele>2735</ele>
        <time>2015-03-28T11:27:57.000Z</time>
      </trkpt>
      <trkpt lat="45.30361" lon="6.15553">
        <ele>2735.6000976562</ele>
        <time>2015-03-28T11:28:02.000Z</time>
      </trkpt>
      <trkpt lat="45.30361" lon="6.15548">
        <ele>2736</ele>
        <time>2015-03-28T11:28:06.000Z</time>
      </trkpt>
      <trkpt lat="45.3036" lon="6.15543">
        <ele>2737</ele>
        <time>2015-03-28T11:28:12.000Z</time>
      </trkpt>
      <trkpt lat="45.30359" lon="6.15542">
        <ele>2737.1999511719</ele>
        <time>2015-03-28T11:28:13.000Z</time>
      </trkpt>
      <trkpt lat="45.30357" lon="6.15538">
        <ele>2737.8000488281</ele>
        <time>2015-03-28T11:28:18.000Z</time>
      </trkpt>
      <trkpt lat="45.30356" lon="6.15537">
        <ele>2738.1999511719</ele>
        <time>2015-03-28T11:28:20.000Z</time>
      </trkpt>
      <trkpt lat="45.30353" lon="6.15533">
        <ele>2739.1999511719</ele>
        <time>2015-03-28T11:28:26.000Z</time>
      </trkpt>
      <trkpt lat="45.30353" lon="6.15532">
        <ele>2739.3999023438</ele>
        <time>2015-03-28T11:28:27.000Z</time>
      </trkpt>
      <trkpt lat="45.30352" lon="6.1553">
        <ele>2740.1999511719</ele>
        <time>2015-03-28T11:28:31.000Z</time>
      </trkpt>
      <trkpt lat="45.30351" lon="6.15529">
        <ele>2740.6000976562</ele>
        <time>2015-03-28T11:28:33.000Z</time>
      </trkpt>
      <trkpt lat="45.30351" lon="6.15527">
        <ele>2741.3999023438</ele>
        <time>2015-03-28T11:28:36.000Z</time>
      </trkpt>
      <trkpt lat="45.3035" lon="6.15525">
        <ele>2741.8000488281</ele>
        <time>2015-03-28T11:28:38.000Z</time>
      </trkpt>
      <trkpt lat="45.30348" lon="6.15522">
        <ele>2742.6000976562</ele>
        <time>2015-03-28T11:28:43.000Z</time>
      </trkpt>
      <trkpt lat="45.30348" lon="6.15522">
        <ele>2743</ele>
        <time>2015-03-28T11:28:44.000Z</time>
      </trkpt>
      <trkpt lat="45.30345" lon="6.15518">
        <ele>2744</ele>
        <time>2015-03-28T11:28:49.000Z</time>
      </trkpt>
      <trkpt lat="45.30344" lon="6.15515">
        <ele>2744.3999023438</ele>
        <time>2015-03-28T11:28:51.000Z</time>
      </trkpt>
      <trkpt lat="45.30342" lon="6.15511">
        <ele>2745.1999511719</ele>
        <time>2015-03-28T11:28:56.000Z</time>
      </trkpt>
      <trkpt lat="45.30341" lon="6.15509">
        <ele>2745.8000488281</ele>
        <time>2015-03-28T11:29:01.000Z</time>
      </trkpt>
      <trkpt lat="45.30339" lon="6.15504">
        <ele>2746.1999511719</ele>
        <time>2015-03-28T11:29:06.000Z</time>
      </trkpt>
      <trkpt lat="45.30337" lon="6.15501">
        <ele>2746.8000488281</ele>
        <time>2015-03-28T11:29:11.000Z</time>
      </trkpt>
      <trkpt lat="45.30335" lon="6.15499">
        <ele>2747.1999511719</ele>
        <time>2015-03-28T11:29:15.000Z</time>
      </trkpt>
      <trkpt lat="45.30334" lon="6.15498">
        <ele>2747.3999023438</ele>
        <time>2015-03-28T11:29:16.000Z</time>
      </trkpt>
      <trkpt lat="45.30332" lon="6.15494">
        <ele>2748.3999023438</ele>
        <time>2015-03-28T11:29:21.000Z</time>
      </trkpt>
      <trkpt lat="45.30332" lon="6.15493">
        <ele>2749</ele>
        <time>2015-03-28T11:29:23.000Z</time>
      </trkpt>
      <trkpt lat="45.30332" lon="6.15491">
        <ele>2750</ele>
        <time>2015-03-28T11:29:25.000Z</time>
      </trkpt>
      <trkpt lat="45.30334" lon="6.15489">
        <ele>2750.6000976562</ele>
        <time>2015-03-28T11:29:29.000Z</time>
      </trkpt>
      <trkpt lat="45.30337" lon="6.15486">
        <ele>2751.1999511719</ele>
        <time>2015-03-28T11:29:34.000Z</time>
      </trkpt>
      <trkpt lat="45.30338" lon="6.15485">
        <ele>2751.3999023438</ele>
        <time>2015-03-28T11:29:36.000Z</time>
      </trkpt>
      <trkpt lat="45.30342" lon="6.15483">
        <ele>2751.8000488281</ele>
        <time>2015-03-28T11:29:43.000Z</time>
      </trkpt>
      <trkpt lat="45.30343" lon="6.15483">
        <ele>2752.3999023438</ele>
        <time>2015-03-28T11:29:45.000Z</time>
      </trkpt>
      <trkpt lat="45.30345" lon="6.15481">
        <ele>2753</ele>
        <time>2015-03-28T11:29:49.000Z</time>
      </trkpt>
      <trkpt lat="45.30346" lon="6.15481">
        <ele>2753.8000488281</ele>
        <time>2015-03-28T11:29:53.000Z</time>
      </trkpt>
      <trkpt lat="45.30346" lon="6.15481">
        <ele>2754.1999511719</ele>
        <time>2015-03-28T11:29:55.000Z</time>
      </trkpt>
      <trkpt lat="45.30346" lon="6.15481">
        <ele>2754.3999023438</ele>
        <time>2015-03-28T11:30:06.000Z</time>
      </trkpt>
      <trkpt lat="45.30346" lon="6.15481">
        <ele>2755</ele>
        <time>2015-03-28T11:30:13.000Z</time>
      </trkpt>
      <trkpt lat="45.30346" lon="6.15481">
        <ele>2755.3999023438</ele>
        <time>2015-03-28T11:30:14.000Z</time>
      </trkpt>
      <trkpt lat="45.30346" lon="6.15481">
        <ele>2756</ele>
        <time>2015-03-28T11:30:16.000Z</time>
      </trkpt>
      <trkpt lat="45.30349" lon="6.1548">
        <ele>2757.1999511719</ele>
        <time>2015-03-28T11:30:19.000Z</time>
      </trkpt>
      <trkpt lat="45.30351" lon="6.15479">
        <ele>2758</ele>
        <time>2015-03-28T11:30:21.000Z</time>
      </trkpt>
      <trkpt lat="45.30352" lon="6.15479">
        <ele>2758.1999511719</ele>
        <time>2015-03-28T11:30:22.000Z</time>
      </trkpt>
      <trkpt lat="45.30355" lon="6.15478">
        <ele>2759.1999511719</ele>
        <time>2015-03-28T11:30:27.000Z</time>
      </trkpt>
      <trkpt lat="45.30356" lon="6.15478">
        <ele>2759.1999511719</ele>
        <time>2015-03-28T11:30:28.000Z</time>
      </trkpt>
      <trkpt lat="45.3036" lon="6.15476">
        <ele>2760.3999023438</ele>
        <time>2015-03-28T11:30:33.000Z</time>
      </trkpt>
      <trkpt lat="45.30364" lon="6.15474">
        <ele>2761.3999023438</ele>
        <time>2015-03-28T11:30:37.000Z</time>
      </trkpt>
      <trkpt lat="45.30365" lon="6.15474">
        <ele>2761.6000976562</ele>
        <time>2015-03-28T11:30:39.000Z</time>
      </trkpt>
      <trkpt lat="45.30368" lon="6.15472">
        <ele>2762.3999023438</ele>
        <time>2015-03-28T11:30:44.000Z</time>
      </trkpt>
      <trkpt lat="45.30369" lon="6.15471">
        <ele>2763.1999511719</ele>
        <time>2015-03-28T11:30:47.000Z</time>
      </trkpt>
      <trkpt lat="45.30369" lon="6.15471">
        <ele>2763.3999023438</ele>
        <time>2015-03-28T11:30:49.000Z</time>
      </trkpt>
      <trkpt lat="45.30369" lon="6.15471">
        <ele>2763.1999511719</ele>
        <time>2015-03-28T11:30:56.000Z</time>
      </trkpt>
      <trkpt lat="45.30369" lon="6.15471">
        <ele>2763.1999511719</ele>
        <time>2015-03-28T11:31:05.000Z</time>
      </trkpt>
      <trkpt lat="45.30369" lon="6.15471">
        <ele>2763.1999511719</ele>
        <time>2015-03-28T11:31:10.000Z</time>
      </trkpt>
      <trkpt lat="45.30369" lon="6.15471">
        <ele>2763</ele>
        <time>2015-03-28T11:31:17.000Z</time>
      </trkpt>
      <trkpt lat="45.30369" lon="6.15471">
        <ele>2764.6000976562</ele>
        <time>2015-03-28T11:31:25.000Z</time>
      </trkpt>
      <trkpt lat="45.30368" lon="6.15471">
        <ele>2763.6000976562</ele>
        <time>2015-03-28T11:31:28.000Z</time>
      </trkpt>
      <trkpt lat="45.30368" lon="6.15471">
        <ele>2763</ele>
        <time>2015-03-28T11:31:30.000Z</time>
      </trkpt>
      <trkpt lat="45.30368" lon="6.15471">
        <ele>2762.3999023438</ele>
        <time>2015-03-28T11:31:34.000Z</time>
      </trkpt>
      <trkpt lat="45.30368" lon="6.15471">
        <ele>2762.1999511719</ele>
        <time>2015-03-28T11:31:36.000Z</time>
      </trkpt>
      <trkpt lat="45.30368" lon="6.15471">
        <ele>2761.8000488281</ele>
        <time>2015-03-28T11:31:42.000Z</time>
      </trkpt>
      <trkpt lat="45.30368" lon="6.15471">
        <ele>2762</ele>
        <time>2015-03-28T11:31:48.000Z</time>
      </trkpt>
      <trkpt lat="45.30368" lon="6.15471">
        <ele>2763.3999023438</ele>
        <time>2015-03-28T11:31:53.000Z</time>
      </trkpt>
      <trkpt lat="45.30368" lon="6.15471">
        <ele>2763.6000976562</ele>
        <time>2015-03-28T11:31:59.000Z</time>
      </trkpt>
      <trkpt lat="45.30368" lon="6.15471">
        <ele>2763.6000976562</ele>
        <time>2015-03-28T11:32:13.000Z</time>
      </trkpt>
      <trkpt lat="45.30368" lon="6.15471">
        <ele>2764</ele>
        <time>2015-03-28T11:32:23.000Z</time>
      </trkpt>
      <trkpt lat="45.30368" lon="6.15471">
        <ele>2762.8000488281</ele>
        <time>2015-03-28T11:32:34.000Z</time>
      </trkpt>
      <trkpt lat="45.30368" lon="6.15471">
        <ele>2762.6000976562</ele>
        <time>2015-03-28T11:32:43.000Z</time>
      </trkpt>
      <trkpt lat="45.30368" lon="6.15471">
        <ele>2762.3999023438</ele>
        <time>2015-03-28T11:32:46.000Z</time>
      </trkpt>
      <trkpt lat="45.30368" lon="6.15471">
        <ele>2762.6000976562</ele>
        <time>2015-03-28T11:33:01.000Z</time>
      </trkpt>
      <trkpt lat="45.30368" lon="6.15471">
        <ele>2761.3999023438</ele>
        <time>2015-03-28T11:33:12.000Z</time>
      </trkpt>
      <trkpt lat="45.30368" lon="6.15471">
        <ele>2761.1999511719</ele>
        <time>2015-03-28T11:33:16.000Z</time>
      </trkpt>
      <trkpt lat="45.30368" lon="6.15471">
        <ele>2761.6000976562</ele>
        <time>2015-03-28T11:33:25.000Z</time>
      </trkpt>
      <trkpt lat="45.30368" lon="6.15471">
        <ele>2761.6000976562</ele>
        <time>2015-03-28T11:33:30.000Z</time>
      </trkpt>
      <trkpt lat="45.30368" lon="6.15471">
        <ele>2762.3999023438</ele>
        <time>2015-03-28T11:33:37.000Z</time>
      </trkpt>
      <trkpt lat="45.30368" lon="6.15471">
        <ele>2763.6000976562</ele>
        <time>2015-03-28T11:33:46.000Z</time>
      </trkpt>
      <trkpt lat="45.30368" lon="6.15471">
        <ele>2764</ele>
        <time>2015-03-28T11:33:49.000Z</time>
      </trkpt>
      <trkpt lat="45.30368" lon="6.15471">
        <ele>2764.3999023438</ele>
        <time>2015-03-28T11:34:04.000Z</time>
      </trkpt>
      <trkpt lat="45.30368" lon="6.15471">
        <ele>2764.8000488281</ele>
        <time>2015-03-28T11:34:07.000Z</time>
      </trkpt>
      <trkpt lat="45.30368" lon="6.15471">
        <ele>2765</ele>
        <time>2015-03-28T11:34:12.000Z</time>
      </trkpt>
      <trkpt lat="45.30368" lon="6.15471">
        <ele>2763.8000488281</ele>
        <time>2015-03-28T11:34:26.000Z</time>
      </trkpt>
      <trkpt lat="45.30368" lon="6.15471">
        <ele>2763.6000976562</ele>
        <time>2015-03-28T11:34:28.000Z</time>
      </trkpt>
      <trkpt lat="45.30368" lon="6.15471">
        <ele>2763</ele>
        <time>2015-03-28T11:34:39.000Z</time>
      </trkpt>
      <trkpt lat="45.30368" lon="6.15471">
        <ele>2762.6000976562</ele>
        <time>2015-03-28T11:34:46.000Z</time>
      </trkpt>
      <trkpt lat="45.30368" lon="6.15471">
        <ele>2762.3999023438</ele>
        <time>2015-03-28T11:34:51.000Z</time>
      </trkpt>
      <trkpt lat="45.30368" lon="6.15471">
        <ele>2762.6000976562</ele>
        <time>2015-03-28T11:34:58.000Z</time>
      </trkpt>
      <trkpt lat="45.30368" lon="6.15471">
        <ele>2762.6000976562</ele>
        <time>2015-03-28T11:35:06.000Z</time>
      </trkpt>
      <trkpt lat="45.30368" lon="6.15471">
        <ele>2762.6000976562</ele>
        <time>2015-03-28T11:35:27.000Z</time>
      </trkpt>
      <trkpt lat="45.30368" lon="6.15471">
        <ele>2762.8000488281</ele>
        <time>2015-03-28T11:35:43.000Z</time>
      </trkpt>
      <trkpt lat="45.30368" lon="6.15471">
        <ele>2763.1999511719</ele>
        <time>2015-03-28T11:36:03.000Z</time>
      </trkpt>
      <trkpt lat="45.30368" lon="6.15471">
        <ele>2761.8000488281</ele>
        <time>2015-03-28T11:36:24.000Z</time>
      </trkpt>
      <trkpt lat="45.30368" lon="6.15471">
        <ele>2762.1999511719</ele>
        <time>2015-03-28T11:36:45.000Z</time>
      </trkpt>
      <trkpt lat="45.30369" lon="6.15471">
        <ele>2762</ele>
        <time>2015-03-28T11:36:56.000Z</time>
      </trkpt>
      <trkpt lat="45.3037" lon="6.15481">
        <ele>2762.1999511719</ele>
        <time>2015-03-28T11:37:03.000Z</time>
      </trkpt>
      <trkpt lat="45.30369" lon="6.15485">
        <ele>2761.6000976562</ele>
        <time>2015-03-28T11:37:08.000Z</time>
      </trkpt>
      <trkpt lat="45.3037" lon="6.15486">
        <ele>2761.1999511719</ele>
        <time>2015-03-28T11:37:09.000Z</time>
      </trkpt>
      <trkpt lat="45.3037" lon="6.15488">
        <ele>2760.3999023438</ele>
        <time>2015-03-28T11:37:12.000Z</time>
      </trkpt>
      <trkpt lat="45.30371" lon="6.15488">
        <ele>2759.8000488281</ele>
        <time>2015-03-28T11:37:16.000Z</time>
      </trkpt>
      <trkpt lat="45.30371" lon="6.15489">
        <ele>2760.1999511719</ele>
        <time>2015-03-28T11:37:24.000Z</time>
      </trkpt>
      <trkpt lat="45.30371" lon="6.15489">
        <ele>2760.6000976562</ele>
        <time>2015-03-28T11:37:34.000Z</time>
      </trkpt>
      <trkpt lat="45.30371" lon="6.15489">
        <ele>2760.3999023438</ele>
        <time>2015-03-28T11:37:45.000Z</time>
      </trkpt>
      <trkpt lat="45.3037" lon="6.15483">
        <ele>2760.3999023438</ele>
        <time>2015-03-28T11:37:51.000Z</time>
      </trkpt>
      <trkpt lat="45.30369" lon="6.15479">
        <ele>2761.6000976562</ele>
        <time>2015-03-28T11:37:55.000Z</time>
      </trkpt>
      <trkpt lat="45.30369" lon="6.15476">
        <ele>2762.3999023438</ele>
        <time>2015-03-28T11:37:58.000Z</time>
      </trkpt>
      <trkpt lat="45.30369" lon="6.15475">
        <ele>2762.8000488281</ele>
        <time>2015-03-28T11:37:59.000Z</time>
      </trkpt>
      <trkpt lat="45.30369" lon="6.15473">
        <ele>2764</ele>
        <time>2015-03-28T11:38:02.000Z</time>
      </trkpt>
      <trkpt lat="45.30369" lon="6.15473">
        <ele>2764.3999023438</ele>
        <time>2015-03-28T11:38:07.000Z</time>
      </trkpt>
      <trkpt lat="45.30369" lon="6.15473">
        <ele>2763</ele>
        <time>2015-03-28T11:38:13.000Z</time>
      </trkpt>
      <trkpt lat="45.30369" lon="6.15473">
        <ele>2762.8000488281</ele>
        <time>2015-03-28T11:38:20.000Z</time>
      </trkpt>
      <trkpt lat="45.30369" lon="6.15472">
        <ele>2763</ele>
        <time>2015-03-28T11:38:26.000Z</time>
      </trkpt>
      <trkpt lat="45.30369" lon="6.15472">
        <ele>2764</ele>
        <time>2015-03-28T11:38:31.000Z</time>
      </trkpt>
      <trkpt lat="45.30369" lon="6.15472">
        <ele>2764.1999511719</ele>
        <time>2015-03-28T11:38:34.000Z</time>
      </trkpt>
      <trkpt lat="45.30369" lon="6.15472">
        <ele>2764.1999511719</ele>
        <time>2015-03-28T11:38:42.000Z</time>
      </trkpt>
      <trkpt lat="45.30368" lon="6.1548">
        <ele>2764.1999511719</ele>
        <time>2015-03-28T11:38:50.000Z</time>
      </trkpt>
      <trkpt lat="45.30371" lon="6.15486">
        <ele>2763.3999023438</ele>
        <time>2015-03-28T11:38:57.000Z</time>
      </trkpt>
      <trkpt lat="45.30371" lon="6.15487">
        <ele>2762.6000976562</ele>
        <time>2015-03-28T11:38:59.000Z</time>
      </trkpt>
      <trkpt lat="45.30371" lon="6.15488">
        <ele>2761.6000976562</ele>
        <time>2015-03-28T11:39:02.000Z</time>
      </trkpt>
      <trkpt lat="45.30371" lon="6.15489">
        <ele>2761.1999511719</ele>
        <time>2015-03-28T11:39:04.000Z</time>
      </trkpt>
      <trkpt lat="45.30371" lon="6.15489">
        <ele>2760.3999023438</ele>
        <time>2015-03-28T11:39:08.000Z</time>
      </trkpt>
      <trkpt lat="45.30371" lon="6.15489">
        <ele>2759.1999511719</ele>
        <time>2015-03-28T11:39:13.000Z</time>
      </trkpt>
      <trkpt lat="45.30371" lon="6.15489">
        <ele>2759.1999511719</ele>
        <time>2015-03-28T11:39:14.000Z</time>
      </trkpt>
      <trkpt lat="45.30372" lon="6.15492">
        <ele>2759.6000976562</ele>
        <time>2015-03-28T11:39:21.000Z</time>
      </trkpt>
      <trkpt lat="45.30377" lon="6.15494">
        <ele>2758.6000976562</ele>
        <time>2015-03-28T11:39:26.000Z</time>
      </trkpt>
      <trkpt lat="45.30377" lon="6.15492">
        <ele>2759</ele>
        <time>2015-03-28T11:39:32.000Z</time>
      </trkpt>
      <trkpt lat="45.30377" lon="6.1549">
        <ele>2758.8000488281</ele>
        <time>2015-03-28T11:39:43.000Z</time>
      </trkpt>
      <trkpt lat="45.30377" lon="6.1549">
        <ele>2758.1999511719</ele>
        <time>2015-03-28T11:39:47.000Z</time>
      </trkpt>
      <trkpt lat="45.30377" lon="6.1549">
        <ele>2757.8000488281</ele>
        <time>2015-03-28T11:39:55.000Z</time>
      </trkpt>
      <trkpt lat="45.30377" lon="6.1549">
        <ele>2757</ele>
        <time>2015-03-28T11:40:00.000Z</time>
      </trkpt>
      <trkpt lat="45.30377" lon="6.1549">
        <ele>2756.8000488281</ele>
        <time>2015-03-28T11:40:12.000Z</time>
      </trkpt>
      <trkpt lat="45.30377" lon="6.15492">
        <ele>2756.3999023438</ele>
        <time>2015-03-28T11:40:20.000Z</time>
      </trkpt>
      <trkpt lat="45.30377" lon="6.15492">
        <ele>2755.8000488281</ele>
        <time>2015-03-28T11:40:23.000Z</time>
      </trkpt>
      <trkpt lat="45.30377" lon="6.15492">
        <ele>2757.1999511719</ele>
        <time>2015-03-28T11:40:29.000Z</time>
      </trkpt>
      <trkpt lat="45.30377" lon="6.15492">
        <ele>2758.6000976562</ele>
        <time>2015-03-28T11:40:32.000Z</time>
      </trkpt>
      <trkpt lat="45.30377" lon="6.15492">
        <ele>2758.8000488281</ele>
        <time>2015-03-28T11:40:33.000Z</time>
      </trkpt>
      <trkpt lat="45.30377" lon="6.15492">
        <ele>2757.6000976562</ele>
        <time>2015-03-28T11:40:47.000Z</time>
      </trkpt>
      <trkpt lat="45.30377" lon="6.15492">
        <ele>2758.3999023438</ele>
        <time>2015-03-28T11:41:05.000Z</time>
      </trkpt>
      <trkpt lat="45.30377" lon="6.15492">
        <ele>2758.3999023438</ele>
        <time>2015-03-28T11:41:22.000Z</time>
      </trkpt>
      <trkpt lat="45.30377" lon="6.15492">
        <ele>2758.6000976562</ele>
        <time>2015-03-28T11:41:34.000Z</time>
      </trkpt>
      <trkpt lat="45.30377" lon="6.15492">
        <ele>2759.6000976562</ele>
        <time>2015-03-28T11:41:38.000Z</time>
      </trkpt>
      <trkpt lat="45.30377" lon="6.15492">
        <ele>2759</ele>
        <time>2015-03-28T11:41:52.000Z</time>
      </trkpt>
      <trkpt lat="45.30377" lon="6.15492">
        <ele>2758.6000976562</ele>
        <time>2015-03-28T11:41:54.000Z</time>
      </trkpt>
      <trkpt lat="45.30377" lon="6.15492">
        <ele>2758.6000976562</ele>
        <time>2015-03-28T11:42:11.000Z</time>
      </trkpt>
      <trkpt lat="45.30376" lon="6.15492">
        <ele>2758.6000976562</ele>
        <time>2015-03-28T11:42:22.000Z</time>
      </trkpt>
      <trkpt lat="45.30377" lon="6.15491">
        <ele>2758</ele>
        <time>2015-03-28T11:42:29.000Z</time>
      </trkpt>
      <trkpt lat="45.30377" lon="6.15491">
        <ele>2757.6000976562</ele>
        <time>2015-03-28T11:42:38.000Z</time>
      </trkpt>
      <trkpt lat="45.30376" lon="6.15492">
        <ele>2757.1999511719</ele>
        <time>2015-03-28T11:42:41.000Z</time>
      </trkpt>
      <trkpt lat="45.30376" lon="6.15492">
        <ele>2756.6000976562</ele>
        <time>2015-03-28T11:42:50.000Z</time>
      </trkpt>
      <trkpt lat="45.30376" lon="6.15492">
        <ele>2756.3999023438</ele>
        <time>2015-03-28T11:42:51.000Z</time>
      </trkpt>
      <trkpt lat="45.30376" lon="6.15492">
        <ele>2757</ele>
        <time>2015-03-28T11:43:03.000Z</time>
      </trkpt>
      <trkpt lat="45.30376" lon="6.15492">
        <ele>2756.8000488281</ele>
        <time>2015-03-28T11:43:18.000Z</time>
      </trkpt>
      <trkpt lat="45.30376" lon="6.15492">
        <ele>2757.1999511719</ele>
        <time>2015-03-28T11:43:32.000Z</time>
      </trkpt>
      <trkpt lat="45.30376" lon="6.15492">
        <ele>2756.6000976562</ele>
        <time>2015-03-28T11:43:46.000Z</time>
      </trkpt>
      <trkpt lat="45.30376" lon="6.15492">
        <ele>2756.6000976562</ele>
        <time>2015-03-28T11:43:54.000Z</time>
      </trkpt>
      <trkpt lat="45.30376" lon="6.15493">
        <ele>2756.6000976562</ele>
        <time>2015-03-28T11:43:56.000Z</time>
      </trkpt>
      <trkpt lat="45.30376" lon="6.15493">
        <ele>2756</ele>
        <time>2015-03-28T11:44:11.000Z</time>
      </trkpt>
      <trkpt lat="45.30376" lon="6.15493">
        <ele>2756.1999511719</ele>
        <time>2015-03-28T11:44:29.000Z</time>
      </trkpt>
      <trkpt lat="45.30376" lon="6.15492">
        <ele>2756.3999023438</ele>
        <time>2015-03-28T11:44:47.000Z</time>
      </trkpt>
      <trkpt lat="45.30376" lon="6.15492">
        <ele>2756.8000488281</ele>
        <time>2015-03-28T11:45:02.000Z</time>
      </trkpt>
      <trkpt lat="45.30376" lon="6.15492">
        <ele>2757.6000976562</ele>
        <time>2015-03-28T11:45:06.000Z</time>
      </trkpt>
      <trkpt lat="45.30376" lon="6.15492">
        <ele>2757.6000976562</ele>
        <time>2015-03-28T11:45:18.000Z</time>
      </trkpt>
      <trkpt lat="45.30376" lon="6.15492">
        <ele>2756.8000488281</ele>
        <time>2015-03-28T11:45:37.000Z</time>
      </trkpt>
      <trkpt lat="45.30376" lon="6.15492">
        <ele>2757.8000488281</ele>
        <time>2015-03-28T11:45:55.000Z</time>
      </trkpt>
      <trkpt lat="45.30376" lon="6.15492">
        <ele>2758</ele>
        <time>2015-03-28T11:46:10.000Z</time>
      </trkpt>
      <trkpt lat="45.30376" lon="6.15492">
        <ele>2758.1999511719</ele>
        <time>2015-03-28T11:46:24.000Z</time>
      </trkpt>
      <trkpt lat="45.30376" lon="6.15492">
        <ele>2758</ele>
        <time>2015-03-28T11:46:39.000Z</time>
      </trkpt>
      <trkpt lat="45.30376" lon="6.15492">
        <ele>2758.8000488281</ele>
        <time>2015-03-28T11:46:45.000Z</time>
      </trkpt>
      <trkpt lat="45.30376" lon="6.15492">
        <ele>2758</ele>
        <time>2015-03-28T11:46:53.000Z</time>
      </trkpt>
      <trkpt lat="45.30376" lon="6.15492">
        <ele>2759.8000488281</ele>
        <time>2015-03-28T11:47:08.000Z</time>
      </trkpt>
      <trkpt lat="45.30376" lon="6.15492">
        <ele>2757.6000976562</ele>
        <time>2015-03-28T11:47:21.000Z</time>
      </trkpt>
      <trkpt lat="45.30376" lon="6.15492">
        <ele>2757.1999511719</ele>
        <time>2015-03-28T11:47:25.000Z</time>
      </trkpt>
      <trkpt lat="45.30376" lon="6.15492">
        <ele>2757.6000976562</ele>
        <time>2015-03-28T11:47:39.000Z</time>
      </trkpt>
      <trkpt lat="45.30376" lon="6.15492">
        <ele>2757.1999511719</ele>
        <time>2015-03-28T11:47:56.000Z</time>
      </trkpt>
      <trkpt lat="45.30376" lon="6.15492">
        <ele>2757.8000488281</ele>
        <time>2015-03-28T11:48:15.000Z</time>
      </trkpt>
      <trkpt lat="45.30376" lon="6.15492">
        <ele>2758</ele>
        <time>2015-03-28T11:48:29.000Z</time>
      </trkpt>
      <trkpt lat="45.30376" lon="6.15492">
        <ele>2757.1999511719</ele>
        <time>2015-03-28T11:48:51.000Z</time>
      </trkpt>
      <trkpt lat="45.30376" lon="6.15492">
        <ele>2757.8000488281</ele>
        <time>2015-03-28T11:49:07.000Z</time>
      </trkpt>
      <trkpt lat="45.30376" lon="6.15492">
        <ele>2758.8000488281</ele>
        <time>2015-03-28T11:49:11.000Z</time>
      </trkpt>
      <trkpt lat="45.30376" lon="6.15492">
        <ele>2759.3999023438</ele>
        <time>2015-03-28T11:49:18.000Z</time>
      </trkpt>
      <trkpt lat="45.30376" lon="6.15492">
        <ele>2760</ele>
        <time>2015-03-28T11:49:26.000Z</time>
      </trkpt>
      <trkpt lat="45.30376" lon="6.15492">
        <ele>2758.8000488281</ele>
        <time>2015-03-28T11:49:38.000Z</time>
      </trkpt>
      <trkpt lat="45.30376" lon="6.15492">
        <ele>2758.8000488281</ele>
        <time>2015-03-28T11:49:41.000Z</time>
      </trkpt>
      <trkpt lat="45.30376" lon="6.15492">
        <ele>2758.8000488281</ele>
        <time>2015-03-28T11:49:45.000Z</time>
      </trkpt>
      <trkpt lat="45.30376" lon="6.15492">
        <ele>2757.6000976562</ele>
        <time>2015-03-28T11:49:51.000Z</time>
      </trkpt>
      <trkpt lat="45.30376" lon="6.15492">
        <ele>2756.1999511719</ele>
        <time>2015-03-28T11:49:54.000Z</time>
      </trkpt>
      <trkpt lat="45.30376" lon="6.15492">
        <ele>2755.6000976562</ele>
        <time>2015-03-28T11:49:57.000Z</time>
      </trkpt>
      <trkpt lat="45.30376" lon="6.15492">
        <ele>2757.3999023438</ele>
        <time>2015-03-28T11:50:06.000Z</time>
      </trkpt>
      <trkpt lat="45.30376" lon="6.15492">
        <ele>2758.6000976562</ele>
        <time>2015-03-28T11:50:12.000Z</time>
      </trkpt>
      <trkpt lat="45.30376" lon="6.15492">
        <ele>2759</ele>
        <time>2015-03-28T11:50:15.000Z</time>
      </trkpt>
      <trkpt lat="45.30376" lon="6.15492">
        <ele>2758.6000976562</ele>
        <time>2015-03-28T11:50:32.000Z</time>
      </trkpt>
      <trkpt lat="45.30376" lon="6.15492">
        <ele>2760</ele>
        <time>2015-03-28T11:50:34.000Z</time>
      </trkpt>
      <trkpt lat="45.30376" lon="6.15492">
        <ele>2761.1999511719</ele>
        <time>2015-03-28T11:50:37.000Z</time>
      </trkpt>
      <trkpt lat="45.30376" lon="6.15492">
        <ele>2760.1999511719</ele>
        <time>2015-03-28T11:50:41.000Z</time>
      </trkpt>
      <trkpt lat="45.30376" lon="6.15492">
        <ele>2758.8000488281</ele>
        <time>2015-03-28T11:50:46.000Z</time>
      </trkpt>
      <trkpt lat="45.30376" lon="6.15492">
        <ele>2758.1999511719</ele>
        <time>2015-03-28T11:50:51.000Z</time>
      </trkpt>
      <trkpt lat="45.30376" lon="6.15492">
        <ele>2757.8000488281</ele>
        <time>2015-03-28T11:51:02.000Z</time>
      </trkpt>
      <trkpt lat="45.30376" lon="6.15492">
        <ele>2757</ele>
        <time>2015-03-28T11:51:20.000Z</time>
      </trkpt>
      <trkpt lat="45.30376" lon="6.15492">
        <ele>2758.8000488281</ele>
        <time>2015-03-28T11:51:36.000Z</time>
      </trkpt>
      <trkpt lat="45.30376" lon="6.15492">
        <ele>2759.8000488281</ele>
        <time>2015-03-28T11:51:42.000Z</time>
      </trkpt>
      <trkpt lat="45.30376" lon="6.15492">
        <ele>2760</ele>
        <time>2015-03-28T11:51:50.000Z</time>
      </trkpt>
      <trkpt lat="45.30376" lon="6.15491">
        <ele>2759.1999511719</ele>
        <time>2015-03-28T11:51:57.000Z</time>
      </trkpt>
      <trkpt lat="45.30376" lon="6.15491">
        <ele>2758.8000488281</ele>
        <time>2015-03-28T11:52:01.000Z</time>
      </trkpt>
      <trkpt lat="45.30376" lon="6.15491">
        <ele>2757.6000976562</ele>
        <time>2015-03-28T11:52:08.000Z</time>
      </trkpt>
      <trkpt lat="45.30376" lon="6.15491">
        <ele>2757</ele>
        <time>2015-03-28T11:52:17.000Z</time>
      </trkpt>
      <trkpt lat="45.30376" lon="6.15491">
        <ele>2758.3999023438</ele>
        <time>2015-03-28T11:52:34.000Z</time>
      </trkpt>
      <trkpt lat="45.30376" lon="6.15491">
        <ele>2758.8000488281</ele>
        <time>2015-03-28T11:52:35.000Z</time>
      </trkpt>
      <trkpt lat="45.30376" lon="6.15491">
        <ele>2757.8000488281</ele>
        <time>2015-03-28T11:52:49.000Z</time>
      </trkpt>
      <trkpt lat="45.30376" lon="6.15491">
        <ele>2758</ele>
        <time>2015-03-28T11:52:54.000Z</time>
      </trkpt>
      <trkpt lat="45.30376" lon="6.15491">
        <ele>2758.8000488281</ele>
        <time>2015-03-28T11:53:03.000Z</time>
      </trkpt>
      <trkpt lat="45.30376" lon="6.15491">
        <ele>2758</ele>
        <time>2015-03-28T11:53:20.000Z</time>
      </trkpt>
      <trkpt lat="45.30376" lon="6.15491">
        <ele>2760.6000976562</ele>
        <time>2015-03-28T11:53:26.000Z</time>
      </trkpt>
      <trkpt lat="45.30376" lon="6.15491">
        <ele>2760.1999511719</ele>
        <time>2015-03-28T11:53:35.000Z</time>
      </trkpt>
      <trkpt lat="45.30376" lon="6.15491">
        <ele>2759.1999511719</ele>
        <time>2015-03-28T11:53:37.000Z</time>
      </trkpt>
      <trkpt lat="45.30376" lon="6.15491">
        <ele>2760</ele>
        <time>2015-03-28T11:53:45.000Z</time>
      </trkpt>
      <trkpt lat="45.30376" lon="6.15491">
        <ele>2760.3999023438</ele>
        <time>2015-03-28T11:53:46.000Z</time>
      </trkpt>
      <trkpt lat="45.30376" lon="6.15491">
        <ele>2761.8000488281</ele>
        <time>2015-03-28T11:53:48.000Z</time>
      </trkpt>
      <trkpt lat="45.30376" lon="6.15491">
        <ele>2763.1999511719</ele>
        <time>2015-03-28T11:53:50.000Z</time>
      </trkpt>
      <trkpt lat="45.30376" lon="6.15491">
        <ele>2764.1999511719</ele>
        <time>2015-03-28T11:53:52.000Z</time>
      </trkpt>
      <trkpt lat="45.30376" lon="6.15491">
        <ele>2765</ele>
        <time>2015-03-28T11:53:55.000Z</time>
      </trkpt>
      <trkpt lat="45.30376" lon="6.15491">
        <ele>2762.8000488281</ele>
        <time>2015-03-28T11:54:04.000Z</time>
      </trkpt>
      <trkpt lat="45.30376" lon="6.15491">
        <ele>2761.1999511719</ele>
        <time>2015-03-28T11:54:06.000Z</time>
      </trkpt>
      <trkpt lat="45.30376" lon="6.15491">
        <ele>2760</ele>
        <time>2015-03-28T11:54:08.000Z</time>
      </trkpt>
      <trkpt lat="45.30376" lon="6.15491">
        <ele>2759.6000976562</ele>
        <time>2015-03-28T11:54:10.000Z</time>
      </trkpt>
      <trkpt lat="45.30376" lon="6.15491">
        <ele>2760.6000976562</ele>
        <time>2015-03-28T11:54:28.000Z</time>
      </trkpt>
      <trkpt lat="45.30376" lon="6.15491">
        <ele>2761.1999511719</ele>
        <time>2015-03-28T11:54:29.000Z</time>
      </trkpt>
      <trkpt lat="45.30376" lon="6.15491">
        <ele>2759.6000976562</ele>
        <time>2015-03-28T11:54:40.000Z</time>
      </trkpt>
      <trkpt lat="45.30376" lon="6.15491">
        <ele>2759.6000976562</ele>
        <time>2015-03-28T11:54:47.000Z</time>
      </trkpt>
      <trkpt lat="45.30376" lon="6.1549">
        <ele>2758.1999511719</ele>
        <time>2015-03-28T11:54:58.000Z</time>
      </trkpt>
      <trkpt lat="45.30376" lon="6.1549">
        <ele>2758</ele>
        <time>2015-03-28T11:54:59.000Z</time>
      </trkpt>
      <trkpt lat="45.30376" lon="6.1549">
        <ele>2759.3999023438</ele>
        <time>2015-03-28T11:55:19.000Z</time>
      </trkpt>
      <trkpt lat="45.30376" lon="6.1549">
        <ele>2760.1999511719</ele>
        <time>2015-03-28T11:55:24.000Z</time>
      </trkpt>
      <trkpt lat="45.30376" lon="6.1549">
        <ele>2760.8000488281</ele>
        <time>2015-03-28T11:55:41.000Z</time>
      </trkpt>
      <trkpt lat="45.30376" lon="6.1549">
        <ele>2762.8000488281</ele>
        <time>2015-03-28T11:55:43.000Z</time>
      </trkpt>
      <trkpt lat="45.30376" lon="6.1549">
        <ele>2764.1999511719</ele>
        <time>2015-03-28T11:55:44.000Z</time>
      </trkpt>
      <trkpt lat="45.30376" lon="6.1549">
        <ele>2765.6000976562</ele>
        <time>2015-03-28T11:55:45.000Z</time>
      </trkpt>
      <trkpt lat="45.30376" lon="6.1549">
        <ele>2767</ele>
        <time>2015-03-28T11:55:47.000Z</time>
      </trkpt>
      <trkpt lat="45.30376" lon="6.1549">
        <ele>2765.1999511719</ele>
        <time>2015-03-28T11:55:56.000Z</time>
      </trkpt>
      <trkpt lat="45.30376" lon="6.1549">
        <ele>2764.1999511719</ele>
        <time>2015-03-28T11:55:57.000Z</time>
      </trkpt>
      <trkpt lat="45.30376" lon="6.1549">
        <ele>2764.1999511719</ele>
        <time>2015-03-28T11:56:02.000Z</time>
      </trkpt>
      <trkpt lat="45.30376" lon="6.1549">
        <ele>2766</ele>
        <time>2015-03-28T11:56:04.000Z</time>
      </trkpt>
      <trkpt lat="45.30376" lon="6.15488">
        <ele>2764</ele>
        <time>2015-03-28T11:56:11.000Z</time>
      </trkpt>
      <trkpt lat="45.30375" lon="6.15487">
        <ele>2763</ele>
        <time>2015-03-28T11:56:12.000Z</time>
      </trkpt>
      <trkpt lat="45.30375" lon="6.15487">
        <ele>2761.8000488281</ele>
        <time>2015-03-28T11:56:13.000Z</time>
      </trkpt>
      <trkpt lat="45.30375" lon="6.15487">
        <ele>2760.3999023438</ele>
        <time>2015-03-28T11:56:14.000Z</time>
      </trkpt>
      <trkpt lat="45.30375" lon="6.15487">
        <ele>2758.8000488281</ele>
        <time>2015-03-28T11:56:15.000Z</time>
      </trkpt>
      <trkpt lat="45.30375" lon="6.15487">
        <ele>2756.3999023438</ele>
        <time>2015-03-28T11:56:16.000Z</time>
      </trkpt>
      <trkpt lat="45.30375" lon="6.15487">
        <ele>2755.8000488281</ele>
        <time>2015-03-28T11:56:17.000Z</time>
      </trkpt>
      <trkpt lat="45.30375" lon="6.15487">
        <ele>2755.1999511719</ele>
        <time>2015-03-28T11:56:19.000Z</time>
      </trkpt>
      <trkpt lat="45.30378" lon="6.15486">
        <ele>2753.8000488281</ele>
        <time>2015-03-28T11:56:24.000Z</time>
      </trkpt>
      <trkpt lat="45.30378" lon="6.15486">
        <ele>2752.8000488281</ele>
        <time>2015-03-28T11:56:28.000Z</time>
      </trkpt>
      <trkpt lat="45.3038" lon="6.15486">
        <ele>2752.1999511719</ele>
        <time>2015-03-28T11:56:31.000Z</time>
      </trkpt>
      <trkpt lat="45.30381" lon="6.15486">
        <ele>2751.6000976562</ele>
        <time>2015-03-28T11:56:33.000Z</time>
      </trkpt>
      <trkpt lat="45.30381" lon="6.15485">
        <ele>2751.3999023438</ele>
        <time>2015-03-28T11:56:34.000Z</time>
      </trkpt>
      <trkpt lat="45.30381" lon="6.15479">
        <ele>2751</ele>
        <time>2015-03-28T11:56:36.000Z</time>
      </trkpt>
      <trkpt lat="45.30385" lon="6.15479">
        <ele>2750</ele>
        <time>2015-03-28T11:56:39.000Z</time>
      </trkpt>
      <trkpt lat="45.30386" lon="6.15479">
        <ele>2746.8000488281</ele>
        <time>2015-03-28T11:56:40.000Z</time>
      </trkpt>
      <trkpt lat="45.30387" lon="6.1548">
        <ele>2745.1999511719</ele>
        <time>2015-03-28T11:56:41.000Z</time>
      </trkpt>
      <trkpt lat="45.30389" lon="6.15477">
        <ele>2744</ele>
        <time>2015-03-28T11:56:42.000Z</time>
      </trkpt>
      <trkpt lat="45.30391" lon="6.15473">
        <ele>2742.6000976562</ele>
        <time>2015-03-28T11:56:44.000Z</time>
      </trkpt>
      <trkpt lat="45.30393" lon="6.15471">
        <ele>2741.6000976562</ele>
        <time>2015-03-28T11:56:46.000Z</time>
      </trkpt>
      <trkpt lat="45.30395" lon="6.15471">
        <ele>2740.6000976562</ele>
        <time>2015-03-28T11:56:47.000Z</time>
      </trkpt>
      <trkpt lat="45.30396" lon="6.15471">
        <ele>2739.6000976562</ele>
        <time>2015-03-28T11:56:48.000Z</time>
      </trkpt>
      <trkpt lat="45.30395" lon="6.15472">
        <ele>2738.6000976562</ele>
        <time>2015-03-28T11:56:49.000Z</time>
      </trkpt>
      <trkpt lat="45.30396" lon="6.15471">
        <ele>2737.8000488281</ele>
        <time>2015-03-28T11:56:50.000Z</time>
      </trkpt>
      <trkpt lat="45.30397" lon="6.15467">
        <ele>2737</ele>
        <time>2015-03-28T11:56:51.000Z</time>
      </trkpt>
      <trkpt lat="45.30397" lon="6.15465">
        <ele>2736.3999023438</ele>
        <time>2015-03-28T11:56:52.000Z</time>
      </trkpt>
      <trkpt lat="45.30396" lon="6.15463">
        <ele>2735</ele>
        <time>2015-03-28T11:56:55.000Z</time>
      </trkpt>
      <trkpt lat="45.30396" lon="6.15463">
        <ele>2734.1999511719</ele>
        <time>2015-03-28T11:56:56.000Z</time>
      </trkpt>
      <trkpt lat="45.30396" lon="6.15463">
        <ele>2733.6000976562</ele>
        <time>2015-03-28T11:56:57.000Z</time>
      </trkpt>
      <trkpt lat="45.30393" lon="6.15464">
        <ele>2735.3999023438</ele>
        <time>2015-03-28T11:57:04.000Z</time>
      </trkpt>
      <trkpt lat="45.30392" lon="6.15465">
        <ele>2735.6000976562</ele>
        <time>2015-03-28T11:57:05.000Z</time>
      </trkpt>
      <trkpt lat="45.3039" lon="6.15467">
        <ele>2733.8000488281</ele>
        <time>2015-03-28T11:57:09.000Z</time>
      </trkpt>
      <trkpt lat="45.30389" lon="6.15468">
        <ele>2732.8000488281</ele>
        <time>2015-03-28T11:57:11.000Z</time>
      </trkpt>
      <trkpt lat="45.30389" lon="6.15469">
        <ele>2732</ele>
        <time>2015-03-28T11:57:17.000Z</time>
      </trkpt>
      <trkpt lat="45.30391" lon="6.1547">
        <ele>2731.8000488281</ele>
        <time>2015-03-28T11:57:18.000Z</time>
      </trkpt>
      <trkpt lat="45.30393" lon="6.1547">
        <ele>2731.3999023438</ele>
        <time>2015-03-28T11:57:19.000Z</time>
      </trkpt>
      <trkpt lat="45.30394" lon="6.15468">
        <ele>2731</ele>
        <time>2015-03-28T11:57:20.000Z</time>
      </trkpt>
      <trkpt lat="45.30396" lon="6.15466">
        <ele>2730.6000976562</ele>
        <time>2015-03-28T11:57:21.000Z</time>
      </trkpt>
      <trkpt lat="45.30399" lon="6.15468">
        <ele>2729.8000488281</ele>
        <time>2015-03-28T11:57:23.000Z</time>
      </trkpt>
      <trkpt lat="45.304" lon="6.15468">
        <ele>2729</ele>
        <time>2015-03-28T11:57:24.000Z</time>
      </trkpt>
      <trkpt lat="45.30402" lon="6.15466">
        <ele>2727.6000976562</ele>
        <time>2015-03-28T11:57:25.000Z</time>
      </trkpt>
      <trkpt lat="45.30403" lon="6.15465">
        <ele>2726.1999511719</ele>
        <time>2015-03-28T11:57:26.000Z</time>
      </trkpt>
      <trkpt lat="45.30403" lon="6.15465">
        <ele>2725.1999511719</ele>
        <time>2015-03-28T11:57:27.000Z</time>
      </trkpt>
      <trkpt lat="45.30403" lon="6.15465">
        <ele>2724.1999511719</ele>
        <time>2015-03-28T11:57:28.000Z</time>
      </trkpt>
      <trkpt lat="45.30403" lon="6.15465">
        <ele>2723.1999511719</ele>
        <time>2015-03-28T11:57:30.000Z</time>
      </trkpt>
      <trkpt lat="45.30405" lon="6.15464">
        <ele>2722.6000976562</ele>
        <time>2015-03-28T11:57:32.000Z</time>
      </trkpt>
      <trkpt lat="45.30405" lon="6.15465">
        <ele>2722</ele>
        <time>2015-03-28T11:57:33.000Z</time>
      </trkpt>
      <trkpt lat="45.30408" lon="6.15466">
        <ele>2721.3999023438</ele>
        <time>2015-03-28T11:57:34.000Z</time>
      </trkpt>
      <trkpt lat="45.3041" lon="6.15464">
        <ele>2720.1999511719</ele>
        <time>2015-03-28T11:57:35.000Z</time>
      </trkpt>
      <trkpt lat="45.30411" lon="6.15462">
        <ele>2719</ele>
        <time>2015-03-28T11:57:36.000Z</time>
      </trkpt>
      <trkpt lat="45.30413" lon="6.15461">
        <ele>2717.6000976562</ele>
        <time>2015-03-28T11:57:38.000Z</time>
      </trkpt>
      <trkpt lat="45.30414" lon="6.15463">
        <ele>2715.1999511719</ele>
        <time>2015-03-28T11:57:40.000Z</time>
      </trkpt>
      <trkpt lat="45.30415" lon="6.15465">
        <ele>2713.6000976562</ele>
        <time>2015-03-28T11:57:41.000Z</time>
      </trkpt>
      <trkpt lat="45.30416" lon="6.15465">
        <ele>2712.1999511719</ele>
        <time>2015-03-28T11:57:42.000Z</time>
      </trkpt>
      <trkpt lat="45.30417" lon="6.15464">
        <ele>2710.8000488281</ele>
        <time>2015-03-28T11:57:43.000Z</time>
      </trkpt>
      <trkpt lat="45.30417" lon="6.15464">
        <ele>2709.3999023438</ele>
        <time>2015-03-28T11:57:45.000Z</time>
      </trkpt>
      <trkpt lat="45.30417" lon="6.15464">
        <ele>2707.8000488281</ele>
        <time>2015-03-28T11:57:47.000Z</time>
      </trkpt>
      <trkpt lat="45.30416" lon="6.15464">
        <ele>2706.6000976562</ele>
        <time>2015-03-28T11:57:48.000Z</time>
      </trkpt>
      <trkpt lat="45.30413" lon="6.15465">
        <ele>2705.6000976562</ele>
        <time>2015-03-28T11:57:51.000Z</time>
      </trkpt>
      <trkpt lat="45.3041" lon="6.15464">
        <ele>2705.3999023438</ele>
        <time>2015-03-28T11:57:53.000Z</time>
      </trkpt>
      <trkpt lat="45.30403" lon="6.15463">
        <ele>2704.3999023438</ele>
        <time>2015-03-28T11:58:01.000Z</time>
      </trkpt>
      <trkpt lat="45.30405" lon="6.15466">
        <ele>2703.8000488281</ele>
        <time>2015-03-28T11:58:03.000Z</time>
      </trkpt>
      <trkpt lat="45.30407" lon="6.15466">
        <ele>2703</ele>
        <time>2015-03-28T11:58:04.000Z</time>
      </trkpt>
      <trkpt lat="45.30409" lon="6.15464">
        <ele>2702</ele>
        <time>2015-03-28T11:58:05.000Z</time>
      </trkpt>
      <trkpt lat="45.3041" lon="6.15461">
        <ele>2700.8000488281</ele>
        <time>2015-03-28T11:58:06.000Z</time>
      </trkpt>
      <trkpt lat="45.30415" lon="6.1546">
        <ele>2699.6000976562</ele>
        <time>2015-03-28T11:58:08.000Z</time>
      </trkpt>
      <trkpt lat="45.30417" lon="6.15461">
        <ele>2699</ele>
        <time>2015-03-28T11:58:09.000Z</time>
      </trkpt>
      <trkpt lat="45.30418" lon="6.15463">
        <ele>2698</ele>
        <time>2015-03-28T11:58:10.000Z</time>
      </trkpt>
      <trkpt lat="45.3042" lon="6.15464">
        <ele>2696.3999023438</ele>
        <time>2015-03-28T11:58:11.000Z</time>
      </trkpt>
      <trkpt lat="45.30423" lon="6.15463">
        <ele>2695.1999511719</ele>
        <time>2015-03-28T11:58:12.000Z</time>
      </trkpt>
      <trkpt lat="45.30424" lon="6.15461">
        <ele>2694.1999511719</ele>
        <time>2015-03-28T11:58:13.000Z</time>
      </trkpt>
      <trkpt lat="45.30426" lon="6.1546">
        <ele>2693.6000976562</ele>
        <time>2015-03-28T11:58:14.000Z</time>
      </trkpt>
      <trkpt lat="45.30427" lon="6.1546">
        <ele>2693</ele>
        <time>2015-03-28T11:58:15.000Z</time>
      </trkpt>
      <trkpt lat="45.30429" lon="6.15463">
        <ele>2690.8000488281</ele>
        <time>2015-03-28T11:58:16.000Z</time>
      </trkpt>
      <trkpt lat="45.30429" lon="6.15465">
        <ele>2689</ele>
        <time>2015-03-28T11:58:17.000Z</time>
      </trkpt>
      <trkpt lat="45.30429" lon="6.15465">
        <ele>2687.6000976562</ele>
        <time>2015-03-28T11:58:18.000Z</time>
      </trkpt>
      <trkpt lat="45.3043" lon="6.15464">
        <ele>2686.3999023438</ele>
        <time>2015-03-28T11:58:19.000Z</time>
      </trkpt>
      <trkpt lat="45.30432" lon="6.15461">
        <ele>2685</ele>
        <time>2015-03-28T11:58:21.000Z</time>
      </trkpt>
      <trkpt lat="45.30434" lon="6.15464">
        <ele>2683.3999023438</ele>
        <time>2015-03-28T11:58:23.000Z</time>
      </trkpt>
      <trkpt lat="45.30435" lon="6.15465">
        <ele>2681.8000488281</ele>
        <time>2015-03-28T11:58:24.000Z</time>
      </trkpt>
      <trkpt lat="45.30436" lon="6.15464">
        <ele>2680.1999511719</ele>
        <time>2015-03-28T11:58:25.000Z</time>
      </trkpt>
      <trkpt lat="45.30436" lon="6.15462">
        <ele>2679.1999511719</ele>
        <time>2015-03-28T11:58:26.000Z</time>
      </trkpt>
      <trkpt lat="45.30438" lon="6.15457">
        <ele>2676.8000488281</ele>
        <time>2015-03-28T11:58:28.000Z</time>
      </trkpt>
      <trkpt lat="45.30439" lon="6.15456">
        <ele>2675</ele>
        <time>2015-03-28T11:58:29.000Z</time>
      </trkpt>
      <trkpt lat="45.3044" lon="6.15455">
        <ele>2673.3999023438</ele>
        <time>2015-03-28T11:58:30.000Z</time>
      </trkpt>
      <trkpt lat="45.30439" lon="6.15459">
        <ele>2672.1999511719</ele>
        <time>2015-03-28T11:58:32.000Z</time>
      </trkpt>
      <trkpt lat="45.30438" lon="6.15461">
        <ele>2671.8000488281</ele>
        <time>2015-03-28T11:58:34.000Z</time>
      </trkpt>
      <trkpt lat="45.30432" lon="6.15465">
        <ele>2671.1999511719</ele>
        <time>2015-03-28T11:58:40.000Z</time>
      </trkpt>
      <trkpt lat="45.30426" lon="6.15463">
        <ele>2671.6000976562</ele>
        <time>2015-03-28T11:58:45.000Z</time>
      </trkpt>
      <trkpt lat="45.30432" lon="6.15461">
        <ele>2672.3999023438</ele>
        <time>2015-03-28T11:58:54.000Z</time>
      </trkpt>
      <trkpt lat="45.30433" lon="6.1546">
        <ele>2672.3999023438</ele>
        <time>2015-03-28T11:58:57.000Z</time>
      </trkpt>
      <trkpt lat="45.30436" lon="6.15463">
        <ele>2672.1999511719</ele>
        <time>2015-03-28T11:58:58.000Z</time>
      </trkpt>
      <trkpt lat="45.30439" lon="6.15466">
        <ele>2670.3999023438</ele>
        <time>2015-03-28T11:59:00.000Z</time>
      </trkpt>
      <trkpt lat="45.30442" lon="6.15468">
        <ele>2669.6000976562</ele>
        <time>2015-03-28T11:59:01.000Z</time>
      </trkpt>
      <trkpt lat="45.30445" lon="6.15468">
        <ele>2669</ele>
        <time>2015-03-28T11:59:02.000Z</time>
      </trkpt>
      <trkpt lat="45.30451" lon="6.15464">
        <ele>2668</ele>
        <time>2015-03-28T11:59:04.000Z</time>
      </trkpt>
      <trkpt lat="45.30454" lon="6.15467">
        <ele>2666.8000488281</ele>
        <time>2015-03-28T11:59:06.000Z</time>
      </trkpt>
      <trkpt lat="45.30455" lon="6.1547">
        <ele>2665.3999023438</ele>
        <time>2015-03-28T11:59:07.000Z</time>
      </trkpt>
      <trkpt lat="45.30456" lon="6.15471">
        <ele>2663.8000488281</ele>
        <time>2015-03-28T11:59:08.000Z</time>
      </trkpt>
      <trkpt lat="45.30458" lon="6.15469">
        <ele>2662.8000488281</ele>
        <time>2015-03-28T11:59:09.000Z</time>
      </trkpt>
      <trkpt lat="45.30459" lon="6.15468">
        <ele>2662.1999511719</ele>
        <time>2015-03-28T11:59:10.000Z</time>
      </trkpt>
      <trkpt lat="45.3046" lon="6.15467">
        <ele>2661.6000976562</ele>
        <time>2015-03-28T11:59:11.000Z</time>
      </trkpt>
      <trkpt lat="45.30463" lon="6.15469">
        <ele>2659.3999023438</ele>
        <time>2015-03-28T11:59:13.000Z</time>
      </trkpt>
      <trkpt lat="45.30463" lon="6.1547">
        <ele>2657.8000488281</ele>
        <time>2015-03-28T11:59:14.000Z</time>
      </trkpt>
      <trkpt lat="45.30463" lon="6.1547">
        <ele>2656.3999023438</ele>
        <time>2015-03-28T11:59:15.000Z</time>
      </trkpt>
      <trkpt lat="45.30463" lon="6.1547">
        <ele>2655</ele>
        <time>2015-03-28T11:59:17.000Z</time>
      </trkpt>
      <trkpt lat="45.30463" lon="6.1547">
        <ele>2654.6000976562</ele>
        <time>2015-03-28T11:59:22.000Z</time>
      </trkpt>
      <trkpt lat="45.30464" lon="6.15471">
        <ele>2654.1999511719</ele>
        <time>2015-03-28T11:59:34.000Z</time>
      </trkpt>
      <trkpt lat="45.30466" lon="6.15471">
        <ele>2654.1999511719</ele>
        <time>2015-03-28T11:59:35.000Z</time>
      </trkpt>
      <trkpt lat="45.30474" lon="6.15475">
        <ele>2653.8000488281</ele>
        <time>2015-03-28T11:59:39.000Z</time>
      </trkpt>
      <trkpt lat="45.30476" lon="6.15475">
        <ele>2652.8000488281</ele>
        <time>2015-03-28T11:59:40.000Z</time>
      </trkpt>
      <trkpt lat="45.30478" lon="6.15475">
        <ele>2651.3999023438</ele>
        <time>2015-03-28T11:59:41.000Z</time>
      </trkpt>
      <trkpt lat="45.30481" lon="6.15475">
        <ele>2650.3999023438</ele>
        <time>2015-03-28T11:59:42.000Z</time>
      </trkpt>
      <trkpt lat="45.30482" lon="6.15477">
        <ele>2649.8000488281</ele>
        <time>2015-03-28T11:59:43.000Z</time>
      </trkpt>
      <trkpt lat="45.30482" lon="6.15479">
        <ele>2649</ele>
        <time>2015-03-28T11:59:44.000Z</time>
      </trkpt>
      <trkpt lat="45.30483" lon="6.15481">
        <ele>2647.6000976562</ele>
        <time>2015-03-28T11:59:45.000Z</time>
      </trkpt>
      <trkpt lat="45.30483" lon="6.15483">
        <ele>2645.3999023438</ele>
        <time>2015-03-28T11:59:46.000Z</time>
      </trkpt>
      <trkpt lat="45.30484" lon="6.15484">
        <ele>2643.1999511719</ele>
        <time>2015-03-28T11:59:47.000Z</time>
      </trkpt>
      <trkpt lat="45.30484" lon="6.15483">
        <ele>2641.6000976562</ele>
        <time>2015-03-28T11:59:48.000Z</time>
      </trkpt>
      <trkpt lat="45.30485" lon="6.15482">
        <ele>2640</ele>
        <time>2015-03-28T11:59:50.000Z</time>
      </trkpt>
      <trkpt lat="45.30485" lon="6.15482">
        <ele>2638.6000976562</ele>
        <time>2015-03-28T11:59:52.000Z</time>
      </trkpt>
      <trkpt lat="45.30482" lon="6.15479">
        <ele>2638.1999511719</ele>
        <time>2015-03-28T12:00:00.000Z</time>
      </trkpt>
      <trkpt lat="45.30479" lon="6.1548">
        <ele>2638.1999511719</ele>
        <time>2015-03-28T12:00:15.000Z</time>
      </trkpt>
      <trkpt lat="45.3048" lon="6.15481">
        <ele>2636.3999023438</ele>
        <time>2015-03-28T12:00:16.000Z</time>
      </trkpt>
      <trkpt lat="45.30481" lon="6.15482">
        <ele>2635.3999023438</ele>
        <time>2015-03-28T12:00:17.000Z</time>
      </trkpt>
      <trkpt lat="45.30484" lon="6.1548">
        <ele>2634.6000976562</ele>
        <time>2015-03-28T12:00:18.000Z</time>
      </trkpt>
      <trkpt lat="45.30487" lon="6.15479">
        <ele>2633.8000488281</ele>
        <time>2015-03-28T12:00:19.000Z</time>
      </trkpt>
      <trkpt lat="45.30493" lon="6.15482">
        <ele>2632.8000488281</ele>
        <time>2015-03-28T12:00:21.000Z</time>
      </trkpt>
      <trkpt lat="45.30496" lon="6.15484">
        <ele>2631.8000488281</ele>
        <time>2015-03-28T12:00:22.000Z</time>
      </trkpt>
      <trkpt lat="45.30498" lon="6.15484">
        <ele>2630.1999511719</ele>
        <time>2015-03-28T12:00:23.000Z</time>
      </trkpt>
      <trkpt lat="45.30501" lon="6.15484">
        <ele>2629</ele>
        <time>2015-03-28T12:00:24.000Z</time>
      </trkpt>
      <trkpt lat="45.30505" lon="6.15484">
        <ele>2627.1999511719</ele>
        <time>2015-03-28T12:00:26.000Z</time>
      </trkpt>
      <trkpt lat="45.30507" lon="6.15484">
        <ele>2626.1999511719</ele>
        <time>2015-03-28T12:00:27.000Z</time>
      </trkpt>
      <trkpt lat="45.30508" lon="6.15486">
        <ele>2625.1999511719</ele>
        <time>2015-03-28T12:00:28.000Z</time>
      </trkpt>
      <trkpt lat="45.30507" lon="6.15487">
        <ele>2624.6000976562</ele>
        <time>2015-03-28T12:00:29.000Z</time>
      </trkpt>
      <trkpt lat="45.30508" lon="6.15489">
        <ele>2623.8000488281</ele>
        <time>2015-03-28T12:00:30.000Z</time>
      </trkpt>
      <trkpt lat="45.30509" lon="6.15487">
        <ele>2622.8000488281</ele>
        <time>2015-03-28T12:00:31.000Z</time>
      </trkpt>
      <trkpt lat="45.30511" lon="6.15478">
        <ele>2621.1999511719</ele>
        <time>2015-03-28T12:00:33.000Z</time>
      </trkpt>
      <trkpt lat="45.30514" lon="6.15473">
        <ele>2620.1999511719</ele>
        <time>2015-03-28T12:00:35.000Z</time>
      </trkpt>
      <trkpt lat="45.30514" lon="6.15471">
        <ele>2619.3999023438</ele>
        <time>2015-03-28T12:00:36.000Z</time>
      </trkpt>
      <trkpt lat="45.30515" lon="6.1547">
        <ele>2618.6000976562</ele>
        <time>2015-03-28T12:00:37.000Z</time>
      </trkpt>
      <trkpt lat="45.30515" lon="6.15468">
        <ele>2618.1999511719</ele>
        <time>2015-03-28T12:00:38.000Z</time>
      </trkpt>
      <trkpt lat="45.30513" lon="6.15471">
        <ele>2617.8000488281</ele>
        <time>2015-03-28T12:00:43.000Z</time>
      </trkpt>
      <trkpt lat="45.3051" lon="6.15472">
        <ele>2617.6000976562</ele>
        <time>2015-03-28T12:00:47.000Z</time>
      </trkpt>
      <trkpt lat="45.30511" lon="6.1548">
        <ele>2618</ele>
        <time>2015-03-28T12:00:59.000Z</time>
      </trkpt>
      <trkpt lat="45.30518" lon="6.15484">
        <ele>2616</ele>
        <time>2015-03-28T12:01:02.000Z</time>
      </trkpt>
      <trkpt lat="45.30522" lon="6.15486">
        <ele>2614</ele>
        <time>2015-03-28T12:01:04.000Z</time>
      </trkpt>
      <trkpt lat="45.30521" lon="6.15489">
        <ele>2612.1999511719</ele>
        <time>2015-03-28T12:01:05.000Z</time>
      </trkpt>
      <trkpt lat="45.30522" lon="6.15492">
        <ele>2610</ele>
        <time>2015-03-28T12:01:06.000Z</time>
      </trkpt>
      <trkpt lat="45.30524" lon="6.15493">
        <ele>2608.3999023438</ele>
        <time>2015-03-28T12:01:07.000Z</time>
      </trkpt>
      <trkpt lat="45.30526" lon="6.15492">
        <ele>2607.1999511719</ele>
        <time>2015-03-28T12:01:08.000Z</time>
      </trkpt>
      <trkpt lat="45.30528" lon="6.15491">
        <ele>2606.3999023438</ele>
        <time>2015-03-28T12:01:09.000Z</time>
      </trkpt>
      <trkpt lat="45.30529" lon="6.15491">
        <ele>2605.3999023438</ele>
        <time>2015-03-28T12:01:10.000Z</time>
      </trkpt>
      <trkpt lat="45.3053" lon="6.15491">
        <ele>2604</ele>
        <time>2015-03-28T12:01:11.000Z</time>
      </trkpt>
      <trkpt lat="45.30531" lon="6.15491">
        <ele>2602.6000976562</ele>
        <time>2015-03-28T12:01:12.000Z</time>
      </trkpt>
      <trkpt lat="45.30531" lon="6.1549">
        <ele>2601.6000976562</ele>
        <time>2015-03-28T12:01:13.000Z</time>
      </trkpt>
      <trkpt lat="45.30531" lon="6.1549">
        <ele>2600.8000488281</ele>
        <time>2015-03-28T12:01:14.000Z</time>
      </trkpt>
      <trkpt lat="45.3053" lon="6.1549">
        <ele>2600.3999023438</ele>
        <time>2015-03-28T12:01:16.000Z</time>
      </trkpt>
      <trkpt lat="45.30523" lon="6.1549">
        <ele>2600.1999511719</ele>
        <time>2015-03-28T12:01:26.000Z</time>
      </trkpt>
      <trkpt lat="45.30526" lon="6.15494">
        <ele>2600</ele>
        <time>2015-03-28T12:01:40.000Z</time>
      </trkpt>
      <trkpt lat="45.30527" lon="6.15499">
        <ele>2599</ele>
        <time>2015-03-28T12:01:42.000Z</time>
      </trkpt>
      <trkpt lat="45.3053" lon="6.15499">
        <ele>2597.8000488281</ele>
        <time>2015-03-28T12:01:44.000Z</time>
      </trkpt>
      <trkpt lat="45.30533" lon="6.155">
        <ele>2596.8000488281</ele>
        <time>2015-03-28T12:01:46.000Z</time>
      </trkpt>
      <trkpt lat="45.30534" lon="6.15501">
        <ele>2596.1999511719</ele>
        <time>2015-03-28T12:01:47.000Z</time>
      </trkpt>
      <trkpt lat="45.30533" lon="6.15504">
        <ele>2595.1999511719</ele>
        <time>2015-03-28T12:01:48.000Z</time>
      </trkpt>
      <trkpt lat="45.30533" lon="6.15505">
        <ele>2593.8000488281</ele>
        <time>2015-03-28T12:01:49.000Z</time>
      </trkpt>
      <trkpt lat="45.30533" lon="6.15507">
        <ele>2592.6000976562</ele>
        <time>2015-03-28T12:01:50.000Z</time>
      </trkpt>
      <trkpt lat="45.30534" lon="6.1551">
        <ele>2590.6000976562</ele>
        <time>2015-03-28T12:01:52.000Z</time>
      </trkpt>
      <trkpt lat="45.30535" lon="6.15516">
        <ele>2589</ele>
        <time>2015-03-28T12:01:54.000Z</time>
      </trkpt>
      <trkpt lat="45.30535" lon="6.15518">
        <ele>2587.3999023438</ele>
        <time>2015-03-28T12:01:55.000Z</time>
      </trkpt>
      <trkpt lat="45.30535" lon="6.15521">
        <ele>2586.1999511719</ele>
        <time>2015-03-28T12:01:56.000Z</time>
      </trkpt>
      <trkpt lat="45.30536" lon="6.15522">
        <ele>2584.8000488281</ele>
        <time>2015-03-28T12:01:58.000Z</time>
      </trkpt>
      <trkpt lat="45.30539" lon="6.15522">
        <ele>2583.3999023438</ele>
        <time>2015-03-28T12:02:00.000Z</time>
      </trkpt>
      <trkpt lat="45.30539" lon="6.15522">
        <ele>2582.8000488281</ele>
        <time>2015-03-28T12:02:01.000Z</time>
      </trkpt>
      <trkpt lat="45.30539" lon="6.15522">
        <ele>2582.3999023438</ele>
        <time>2015-03-28T12:02:03.000Z</time>
      </trkpt>
      <trkpt lat="45.3054" lon="6.15524">
        <ele>2581</ele>
        <time>2015-03-28T12:02:16.000Z</time>
      </trkpt>
      <trkpt lat="45.3054" lon="6.15525">
        <ele>2580</ele>
        <time>2015-03-28T12:02:17.000Z</time>
      </trkpt>
      <trkpt lat="45.30541" lon="6.15526">
        <ele>2579.1999511719</ele>
        <time>2015-03-28T12:02:18.000Z</time>
      </trkpt>
      <trkpt lat="45.30544" lon="6.15526">
        <ele>2578.8000488281</ele>
        <time>2015-03-28T12:02:19.000Z</time>
      </trkpt>
      <trkpt lat="45.30549" lon="6.15527">
        <ele>2578</ele>
        <time>2015-03-28T12:02:21.000Z</time>
      </trkpt>
      <trkpt lat="45.30553" lon="6.15533">
        <ele>2575.8000488281</ele>
        <time>2015-03-28T12:02:24.000Z</time>
      </trkpt>
      <trkpt lat="45.30555" lon="6.15533">
        <ele>2574.3999023438</ele>
        <time>2015-03-28T12:02:25.000Z</time>
      </trkpt>
      <trkpt lat="45.3056" lon="6.15536">
        <ele>2572.6000976562</ele>
        <time>2015-03-28T12:02:27.000Z</time>
      </trkpt>
      <trkpt lat="45.30564" lon="6.15537">
        <ele>2571.3999023438</ele>
        <time>2015-03-28T12:02:28.000Z</time>
      </trkpt>
      <trkpt lat="45.30568" lon="6.15537">
        <ele>2569.6000976562</ele>
        <time>2015-03-28T12:02:29.000Z</time>
      </trkpt>
      <trkpt lat="45.30571" lon="6.15537">
        <ele>2568</ele>
        <time>2015-03-28T12:02:30.000Z</time>
      </trkpt>
      <trkpt lat="45.30574" lon="6.15536">
        <ele>2566.8000488281</ele>
        <time>2015-03-28T12:02:31.000Z</time>
      </trkpt>
      <trkpt lat="45.30577" lon="6.15536">
        <ele>2565.6000976562</ele>
        <time>2015-03-28T12:02:32.000Z</time>
      </trkpt>
      <trkpt lat="45.3058" lon="6.15535">
        <ele>2564.1999511719</ele>
        <time>2015-03-28T12:02:33.000Z</time>
      </trkpt>
      <trkpt lat="45.30583" lon="6.15535">
        <ele>2562.3999023438</ele>
        <time>2015-03-28T12:02:34.000Z</time>
      </trkpt>
      <trkpt lat="45.30585" lon="6.15534">
        <ele>2561</ele>
        <time>2015-03-28T12:02:35.000Z</time>
      </trkpt>
      <trkpt lat="45.30589" lon="6.15534">
        <ele>2559.6000976562</ele>
        <time>2015-03-28T12:02:37.000Z</time>
      </trkpt>
      <trkpt lat="45.3059" lon="6.15533">
        <ele>2558.8000488281</ele>
        <time>2015-03-28T12:02:42.000Z</time>
      </trkpt>
      <trkpt lat="45.3059" lon="6.15533">
        <ele>2559</ele>
        <time>2015-03-28T12:02:58.000Z</time>
      </trkpt>
      <trkpt lat="45.3059" lon="6.15533">
        <ele>2558.3999023438</ele>
        <time>2015-03-28T12:03:07.000Z</time>
      </trkpt>
      <trkpt lat="45.3059" lon="6.15533">
        <ele>2558</ele>
        <time>2015-03-28T12:03:11.000Z</time>
      </trkpt>
      <trkpt lat="45.3059" lon="6.15533">
        <ele>2558</ele>
        <time>2015-03-28T12:03:24.000Z</time>
      </trkpt>
      <trkpt lat="45.30588" lon="6.15535">
        <ele>2558.1999511719</ele>
        <time>2015-03-28T12:03:35.000Z</time>
      </trkpt>
      <trkpt lat="45.30582" lon="6.15538">
        <ele>2558</ele>
        <time>2015-03-28T12:03:45.000Z</time>
      </trkpt>
      <trkpt lat="45.30582" lon="6.1554">
        <ele>2557.8000488281</ele>
        <time>2015-03-28T12:03:46.000Z</time>
      </trkpt>
      <trkpt lat="45.30584" lon="6.15541">
        <ele>2557.3999023438</ele>
        <time>2015-03-28T12:03:47.000Z</time>
      </trkpt>
      <trkpt lat="45.30585" lon="6.15547">
        <ele>2556</ele>
        <time>2015-03-28T12:03:49.000Z</time>
      </trkpt>
      <trkpt lat="45.30586" lon="6.1555">
        <ele>2555.6000976562</ele>
        <time>2015-03-28T12:03:50.000Z</time>
      </trkpt>
      <trkpt lat="45.30587" lon="6.15553">
        <ele>2554.6000976562</ele>
        <time>2015-03-28T12:03:51.000Z</time>
      </trkpt>
      <trkpt lat="45.30589" lon="6.15555">
        <ele>2551.1999511719</ele>
        <time>2015-03-28T12:03:52.000Z</time>
      </trkpt>
      <trkpt lat="45.30591" lon="6.15555">
        <ele>2550.1999511719</ele>
        <time>2015-03-28T12:03:53.000Z</time>
      </trkpt>
      <trkpt lat="45.30592" lon="6.15555">
        <ele>2549.1999511719</ele>
        <time>2015-03-28T12:03:54.000Z</time>
      </trkpt>
      <trkpt lat="45.30594" lon="6.15553">
        <ele>2547.8000488281</ele>
        <time>2015-03-28T12:03:55.000Z</time>
      </trkpt>
      <trkpt lat="45.30595" lon="6.15554">
        <ele>2546.3999023438</ele>
        <time>2015-03-28T12:03:56.000Z</time>
      </trkpt>
      <trkpt lat="45.30596" lon="6.15554">
        <ele>2545.1999511719</ele>
        <time>2015-03-28T12:03:57.000Z</time>
      </trkpt>
      <trkpt lat="45.30597" lon="6.15555">
        <ele>2544</ele>
        <time>2015-03-28T12:03:58.000Z</time>
      </trkpt>
      <trkpt lat="45.30599" lon="6.15554">
        <ele>2542.6000976562</ele>
        <time>2015-03-28T12:04:00.000Z</time>
      </trkpt>
      <trkpt lat="45.306" lon="6.15553">
        <ele>2541.1999511719</ele>
        <time>2015-03-28T12:04:02.000Z</time>
      </trkpt>
      <trkpt lat="45.30601" lon="6.15555">
        <ele>2540.1999511719</ele>
        <time>2015-03-28T12:04:03.000Z</time>
      </trkpt>
      <trkpt lat="45.306" lon="6.15557">
        <ele>2538.6000976562</ele>
        <time>2015-03-28T12:04:04.000Z</time>
      </trkpt>
      <trkpt lat="45.306" lon="6.15558">
        <ele>2537.6000976562</ele>
        <time>2015-03-28T12:04:05.000Z</time>
      </trkpt>
      <trkpt lat="45.30602" lon="6.15558">
        <ele>2536</ele>
        <time>2015-03-28T12:04:07.000Z</time>
      </trkpt>
      <trkpt lat="45.30602" lon="6.15558">
        <ele>2534.8000488281</ele>
        <time>2015-03-28T12:04:09.000Z</time>
      </trkpt>
      <trkpt lat="45.30602" lon="6.15558">
        <ele>2533.8000488281</ele>
        <time>2015-03-28T12:04:10.000Z</time>
      </trkpt>
      <trkpt lat="45.30602" lon="6.15557">
        <ele>2532.6000976562</ele>
        <time>2015-03-28T12:04:11.000Z</time>
      </trkpt>
      <trkpt lat="45.30602" lon="6.15557">
        <ele>2531.1999511719</ele>
        <time>2015-03-28T12:04:13.000Z</time>
      </trkpt>
      <trkpt lat="45.30602" lon="6.15555">
        <ele>2529.8000488281</ele>
        <time>2015-03-28T12:04:17.000Z</time>
      </trkpt>
      <trkpt lat="45.30601" lon="6.15552">
        <ele>2528</ele>
        <time>2015-03-28T12:04:19.000Z</time>
      </trkpt>
      <trkpt lat="45.30602" lon="6.1555">
        <ele>2526.1999511719</ele>
        <time>2015-03-28T12:04:21.000Z</time>
      </trkpt>
      <trkpt lat="45.30602" lon="6.15549">
        <ele>2525.1999511719</ele>
        <time>2015-03-28T12:04:23.000Z</time>
      </trkpt>
      <trkpt lat="45.30603" lon="6.15549">
        <ele>2524.1999511719</ele>
        <time>2015-03-28T12:04:26.000Z</time>
      </trkpt>
      <trkpt lat="45.30603" lon="6.15549">
        <ele>2523.8000488281</ele>
        <time>2015-03-28T12:04:42.000Z</time>
      </trkpt>
      <trkpt lat="45.30606" lon="6.15548">
        <ele>2524.1999511719</ele>
        <time>2015-03-28T12:04:54.000Z</time>
      </trkpt>
      <trkpt lat="45.30613" lon="6.15555">
        <ele>2523.6000976562</ele>
        <time>2015-03-28T12:04:57.000Z</time>
      </trkpt>
      <trkpt lat="45.30615" lon="6.15558">
        <ele>2522.6000976562</ele>
        <time>2015-03-28T12:04:58.000Z</time>
      </trkpt>
      <trkpt lat="45.30617" lon="6.15561">
        <ele>2521.8000488281</ele>
        <time>2015-03-28T12:04:59.000Z</time>
      </trkpt>
      <trkpt lat="45.30619" lon="6.15564">
        <ele>2521.1999511719</ele>
        <time>2015-03-28T12:05:00.000Z</time>
      </trkpt>
      <trkpt lat="45.30622" lon="6.15567">
        <ele>2520.1999511719</ele>
        <time>2015-03-28T12:05:01.000Z</time>
      </trkpt>
      <trkpt lat="45.30625" lon="6.15571">
        <ele>2518.1999511719</ele>
        <time>2015-03-28T12:05:02.000Z</time>
      </trkpt>
      <trkpt lat="45.30627" lon="6.15574">
        <ele>2516</ele>
        <time>2015-03-28T12:05:03.000Z</time>
      </trkpt>
      <trkpt lat="45.30629" lon="6.15578">
        <ele>2512.3999023438</ele>
        <time>2015-03-28T12:05:04.000Z</time>
      </trkpt>
      <trkpt lat="45.30631" lon="6.15581">
        <ele>2510.1999511719</ele>
        <time>2015-03-28T12:05:05.000Z</time>
      </trkpt>
      <trkpt lat="45.30633" lon="6.15583">
        <ele>2508</ele>
        <time>2015-03-28T12:05:06.000Z</time>
      </trkpt>
      <trkpt lat="45.30635" lon="6.15587">
        <ele>2506</ele>
        <time>2015-03-28T12:05:07.000Z</time>
      </trkpt>
      <trkpt lat="45.30637" lon="6.15592">
        <ele>2504.1999511719</ele>
        <time>2015-03-28T12:05:08.000Z</time>
      </trkpt>
      <trkpt lat="45.30639" lon="6.15596">
        <ele>2501.8000488281</ele>
        <time>2015-03-28T12:05:09.000Z</time>
      </trkpt>
      <trkpt lat="45.30642" lon="6.15601">
        <ele>2499.6000976562</ele>
        <time>2015-03-28T12:05:10.000Z</time>
      </trkpt>
      <trkpt lat="45.30644" lon="6.15606">
        <ele>2497.8000488281</ele>
        <time>2015-03-28T12:05:11.000Z</time>
      </trkpt>
      <trkpt lat="45.30646" lon="6.15612">
        <ele>2495.8000488281</ele>
        <time>2015-03-28T12:05:12.000Z</time>
      </trkpt>
      <trkpt lat="45.30649" lon="6.15616">
        <ele>2493.3999023438</ele>
        <time>2015-03-28T12:05:13.000Z</time>
      </trkpt>
      <trkpt lat="45.30651" lon="6.15619">
        <ele>2491</ele>
        <time>2015-03-28T12:05:14.000Z</time>
      </trkpt>
      <trkpt lat="45.30654" lon="6.15622">
        <ele>2489</ele>
        <time>2015-03-28T12:05:15.000Z</time>
      </trkpt>
      <trkpt lat="45.30656" lon="6.15625">
        <ele>2487</ele>
        <time>2015-03-28T12:05:16.000Z</time>
      </trkpt>
      <trkpt lat="45.30658" lon="6.15627">
        <ele>2484.6000976562</ele>
        <time>2015-03-28T12:05:17.000Z</time>
      </trkpt>
      <trkpt lat="45.3066" lon="6.15628">
        <ele>2482</ele>
        <time>2015-03-28T12:05:18.000Z</time>
      </trkpt>
      <trkpt lat="45.30662" lon="6.15629">
        <ele>2479.6000976562</ele>
        <time>2015-03-28T12:05:19.000Z</time>
      </trkpt>
      <trkpt lat="45.30663" lon="6.15629">
        <ele>2478.1999511719</ele>
        <time>2015-03-28T12:05:20.000Z</time>
      </trkpt>
      <trkpt lat="45.30662" lon="6.15627">
        <ele>2477.3999023438</ele>
        <time>2015-03-28T12:05:21.000Z</time>
      </trkpt>
      <trkpt lat="45.30661" lon="6.15626">
        <ele>2477</ele>
        <time>2015-03-28T12:05:22.000Z</time>
      </trkpt>
      <trkpt lat="45.30661" lon="6.15624">
        <ele>2476.1999511719</ele>
        <time>2015-03-28T12:05:31.000Z</time>
      </trkpt>
      <trkpt lat="45.30662" lon="6.15627">
        <ele>2477.1999511719</ele>
        <time>2015-03-28T12:05:40.000Z</time>
      </trkpt>
      <trkpt lat="45.30663" lon="6.15629">
        <ele>2477.1999511719</ele>
        <time>2015-03-28T12:05:41.000Z</time>
      </trkpt>
      <trkpt lat="45.30667" lon="6.15634">
        <ele>2475.6000976562</ele>
        <time>2015-03-28T12:05:44.000Z</time>
      </trkpt>
      <trkpt lat="45.3067" lon="6.15636">
        <ele>2474</ele>
        <time>2015-03-28T12:05:45.000Z</time>
      </trkpt>
      <trkpt lat="45.30673" lon="6.15638">
        <ele>2472.1999511719</ele>
        <time>2015-03-28T12:05:46.000Z</time>
      </trkpt>
      <trkpt lat="45.30672" lon="6.15637">
        <ele>2470.8000488281</ele>
        <time>2015-03-28T12:05:47.000Z</time>
      </trkpt>
      <trkpt lat="45.3067" lon="6.15636">
        <ele>2468.8000488281</ele>
        <time>2015-03-28T12:05:48.000Z</time>
      </trkpt>
      <trkpt lat="45.3067" lon="6.15634">
        <ele>2466.3999023438</ele>
        <time>2015-03-28T12:05:49.000Z</time>
      </trkpt>
      <trkpt lat="45.3067" lon="6.15634">
        <ele>2464.3999023438</ele>
        <time>2015-03-28T12:05:50.000Z</time>
      </trkpt>
      <trkpt lat="45.3067" lon="6.15634">
        <ele>2463.1999511719</ele>
        <time>2015-03-28T12:05:51.000Z</time>
      </trkpt>
      <trkpt lat="45.3067" lon="6.15634">
        <ele>2462.1999511719</ele>
        <time>2015-03-28T12:05:52.000Z</time>
      </trkpt>
      <trkpt lat="45.3067" lon="6.15634">
        <ele>2461.6000976562</ele>
        <time>2015-03-28T12:05:57.000Z</time>
      </trkpt>
      <trkpt lat="45.3067" lon="6.15634">
        <ele>2461.8000488281</ele>
        <time>2015-03-28T12:06:10.000Z</time>
      </trkpt>
      <trkpt lat="45.3067" lon="6.15634">
        <ele>2461.1999511719</ele>
        <time>2015-03-28T12:06:28.000Z</time>
      </trkpt>
      <trkpt lat="45.3067" lon="6.15633">
        <ele>2461.3999023438</ele>
        <time>2015-03-28T12:06:39.000Z</time>
      </trkpt>
      <trkpt lat="45.30676" lon="6.15641">
        <ele>2461</ele>
        <time>2015-03-28T12:06:43.000Z</time>
      </trkpt>
      <trkpt lat="45.30675" lon="6.15643">
        <ele>2460.3999023438</ele>
        <time>2015-03-28T12:06:44.000Z</time>
      </trkpt>
      <trkpt lat="45.30673" lon="6.15647">
        <ele>2459</ele>
        <time>2015-03-28T12:06:45.000Z</time>
      </trkpt>
      <trkpt lat="45.30674" lon="6.15652">
        <ele>2457.1999511719</ele>
        <time>2015-03-28T12:06:46.000Z</time>
      </trkpt>
      <trkpt lat="45.30674" lon="6.15657">
        <ele>2455.6000976562</ele>
        <time>2015-03-28T12:06:47.000Z</time>
      </trkpt>
      <trkpt lat="45.30676" lon="6.15661">
        <ele>2454.3999023438</ele>
        <time>2015-03-28T12:06:48.000Z</time>
      </trkpt>
      <trkpt lat="45.30678" lon="6.15666">
        <ele>2453</ele>
        <time>2015-03-28T12:06:49.000Z</time>
      </trkpt>
      <trkpt lat="45.30678" lon="6.1567">
        <ele>2451.1999511719</ele>
        <time>2015-03-28T12:06:50.000Z</time>
      </trkpt>
      <trkpt lat="45.30679" lon="6.15675">
        <ele>2448.6000976562</ele>
        <time>2015-03-28T12:06:51.000Z</time>
      </trkpt>
      <trkpt lat="45.30681" lon="6.15681">
        <ele>2445.8000488281</ele>
        <time>2015-03-28T12:06:52.000Z</time>
      </trkpt>
      <trkpt lat="45.30683" lon="6.15687">
        <ele>2443.8000488281</ele>
        <time>2015-03-28T12:06:53.000Z</time>
      </trkpt>
      <trkpt lat="45.30685" lon="6.15693">
        <ele>2442</ele>
        <time>2015-03-28T12:06:54.000Z</time>
      </trkpt>
      <trkpt lat="45.30685" lon="6.15699">
        <ele>2440.1999511719</ele>
        <time>2015-03-28T12:06:55.000Z</time>
      </trkpt>
      <trkpt lat="45.30682" lon="6.157">
        <ele>2437.6000976562</ele>
        <time>2015-03-28T12:06:56.000Z</time>
      </trkpt>
      <trkpt lat="45.30678" lon="6.15702">
        <ele>2434.6000976562</ele>
        <time>2015-03-28T12:06:57.000Z</time>
      </trkpt>
      <trkpt lat="45.30674" lon="6.15704">
        <ele>2431.8000488281</ele>
        <time>2015-03-28T12:06:58.000Z</time>
      </trkpt>
      <trkpt lat="45.30671" lon="6.15706">
        <ele>2430</ele>
        <time>2015-03-28T12:06:59.000Z</time>
      </trkpt>
      <trkpt lat="45.30667" lon="6.15709">
        <ele>2428.8000488281</ele>
        <time>2015-03-28T12:07:00.000Z</time>
      </trkpt>
      <trkpt lat="45.30663" lon="6.15707">
        <ele>2427</ele>
        <time>2015-03-28T12:07:02.000Z</time>
      </trkpt>
      <trkpt lat="45.30663" lon="6.15705">
        <ele>2426.1999511719</ele>
        <time>2015-03-28T12:07:03.000Z</time>
      </trkpt>
      <trkpt lat="45.30663" lon="6.15702">
        <ele>2425.8000488281</ele>
        <time>2015-03-28T12:07:04.000Z</time>
      </trkpt>
      <trkpt lat="45.30663" lon="6.15702">
        <ele>2425.3999023438</ele>
        <time>2015-03-28T12:07:12.000Z</time>
      </trkpt>
      <trkpt lat="45.30663" lon="6.15702">
        <ele>2425.6000976562</ele>
        <time>2015-03-28T12:07:25.000Z</time>
      </trkpt>
      <trkpt lat="45.3066" lon="6.15699">
        <ele>2424.8000488281</ele>
        <time>2015-03-28T12:07:31.000Z</time>
      </trkpt>
      <trkpt lat="45.30661" lon="6.157">
        <ele>2424.3999023438</ele>
        <time>2015-03-28T12:07:32.000Z</time>
      </trkpt>
      <trkpt lat="45.30663" lon="6.15705">
        <ele>2424.1999511719</ele>
        <time>2015-03-28T12:07:33.000Z</time>
      </trkpt>
      <trkpt lat="45.3067" lon="6.15711">
        <ele>2424</ele>
        <time>2015-03-28T12:07:35.000Z</time>
      </trkpt>
      <trkpt lat="45.30674" lon="6.15712">
        <ele>2423.3999023438</ele>
        <time>2015-03-28T12:07:36.000Z</time>
      </trkpt>
      <trkpt lat="45.30677" lon="6.15716">
        <ele>2422.3999023438</ele>
        <time>2015-03-28T12:07:37.000Z</time>
      </trkpt>
      <trkpt lat="45.30677" lon="6.15719">
        <ele>2420.6000976562</ele>
        <time>2015-03-28T12:07:38.000Z</time>
      </trkpt>
      <trkpt lat="45.30675" lon="6.15725">
        <ele>2418.8000488281</ele>
        <time>2015-03-28T12:07:39.000Z</time>
      </trkpt>
      <trkpt lat="45.30672" lon="6.15731">
        <ele>2416.8000488281</ele>
        <time>2015-03-28T12:07:40.000Z</time>
      </trkpt>
      <trkpt lat="45.30668" lon="6.15736">
        <ele>2415.3999023438</ele>
        <time>2015-03-28T12:07:41.000Z</time>
      </trkpt>
      <trkpt lat="45.30666" lon="6.15742">
        <ele>2414.1999511719</ele>
        <time>2015-03-28T12:07:42.000Z</time>
      </trkpt>
      <trkpt lat="45.30665" lon="6.15749">
        <ele>2413</ele>
        <time>2015-03-28T12:07:43.000Z</time>
      </trkpt>
      <trkpt lat="45.30664" lon="6.15756">
        <ele>2411.3999023438</ele>
        <time>2015-03-28T12:07:44.000Z</time>
      </trkpt>
      <trkpt lat="45.30666" lon="6.15758">
        <ele>2409.8000488281</ele>
        <time>2015-03-28T12:07:45.000Z</time>
      </trkpt>
      <trkpt lat="45.30665" lon="6.15763">
        <ele>2407.6000976562</ele>
        <time>2015-03-28T12:07:46.000Z</time>
      </trkpt>
      <trkpt lat="45.30664" lon="6.15768">
        <ele>2405.6000976562</ele>
        <time>2015-03-28T12:07:47.000Z</time>
      </trkpt>
      <trkpt lat="45.30665" lon="6.15774">
        <ele>2404</ele>
        <time>2015-03-28T12:07:48.000Z</time>
      </trkpt>
      <trkpt lat="45.30667" lon="6.15779">
        <ele>2402.3999023438</ele>
        <time>2015-03-28T12:07:49.000Z</time>
      </trkpt>
      <trkpt lat="45.30666" lon="6.15786">
        <ele>2400</ele>
        <time>2015-03-28T12:07:50.000Z</time>
      </trkpt>
      <trkpt lat="45.30665" lon="6.15794">
        <ele>2397.3999023438</ele>
        <time>2015-03-28T12:07:51.000Z</time>
      </trkpt>
      <trkpt lat="45.30664" lon="6.15802">
        <ele>2395</ele>
        <time>2015-03-28T12:07:52.000Z</time>
      </trkpt>
      <trkpt lat="45.30661" lon="6.15807">
        <ele>2391.3999023438</ele>
        <time>2015-03-28T12:07:53.000Z</time>
      </trkpt>
      <trkpt lat="45.30659" lon="6.15813">
        <ele>2389</ele>
        <time>2015-03-28T12:07:54.000Z</time>
      </trkpt>
      <trkpt lat="45.30656" lon="6.1582">
        <ele>2386.6000976562</ele>
        <time>2015-03-28T12:07:55.000Z</time>
      </trkpt>
      <trkpt lat="45.30655" lon="6.15829">
        <ele>2385</ele>
        <time>2015-03-28T12:07:56.000Z</time>
      </trkpt>
      <trkpt lat="45.30655" lon="6.15837">
        <ele>2383.6000976562</ele>
        <time>2015-03-28T12:07:57.000Z</time>
      </trkpt>
      <trkpt lat="45.30655" lon="6.15843">
        <ele>2381.6000976562</ele>
        <time>2015-03-28T12:07:58.000Z</time>
      </trkpt>
      <trkpt lat="45.30655" lon="6.15849">
        <ele>2379</ele>
        <time>2015-03-28T12:07:59.000Z</time>
      </trkpt>
      <trkpt lat="45.30656" lon="6.1585">
        <ele>2376.6000976562</ele>
        <time>2015-03-28T12:08:00.000Z</time>
      </trkpt>
      <trkpt lat="45.30657" lon="6.15854">
        <ele>2374.8000488281</ele>
        <time>2015-03-28T12:08:01.000Z</time>
      </trkpt>
      <trkpt lat="45.30656" lon="6.15856">
        <ele>2373.6000976562</ele>
        <time>2015-03-28T12:08:02.000Z</time>
      </trkpt>
      <trkpt lat="45.30657" lon="6.15859">
        <ele>2372.1999511719</ele>
        <time>2015-03-28T12:08:03.000Z</time>
      </trkpt>
      <trkpt lat="45.30656" lon="6.15862">
        <ele>2370.8000488281</ele>
        <time>2015-03-28T12:08:04.000Z</time>
      </trkpt>
      <trkpt lat="45.30656" lon="6.15863">
        <ele>2369.6000976562</ele>
        <time>2015-03-28T12:08:05.000Z</time>
      </trkpt>
      <trkpt lat="45.30659" lon="6.15857">
        <ele>2368.6000976562</ele>
        <time>2015-03-28T12:08:07.000Z</time>
      </trkpt>
      <trkpt lat="45.30659" lon="6.15857">
        <ele>2368.6000976562</ele>
        <time>2015-03-28T12:08:08.000Z</time>
      </trkpt>
      <trkpt lat="45.30659" lon="6.15857">
        <ele>2368.6000976562</ele>
        <time>2015-03-28T12:08:28.000Z</time>
      </trkpt>
      <trkpt lat="45.30664" lon="6.15859">
        <ele>2368.8000488281</ele>
        <time>2015-03-28T12:08:39.000Z</time>
      </trkpt>
      <trkpt lat="45.30669" lon="6.15867">
        <ele>2367</ele>
        <time>2015-03-28T12:08:42.000Z</time>
      </trkpt>
      <trkpt lat="45.30671" lon="6.15871">
        <ele>2365.8000488281</ele>
        <time>2015-03-28T12:08:43.000Z</time>
      </trkpt>
      <trkpt lat="45.30675" lon="6.15881">
        <ele>2364.1999511719</ele>
        <time>2015-03-28T12:08:45.000Z</time>
      </trkpt>
      <trkpt lat="45.30674" lon="6.15886">
        <ele>2363</ele>
        <time>2015-03-28T12:08:46.000Z</time>
      </trkpt>
      <trkpt lat="45.30676" lon="6.1589">
        <ele>2361.1999511719</ele>
        <time>2015-03-28T12:08:47.000Z</time>
      </trkpt>
      <trkpt lat="45.30679" lon="6.15896">
        <ele>2359.1999511719</ele>
        <time>2015-03-28T12:08:48.000Z</time>
      </trkpt>
      <trkpt lat="45.3068" lon="6.15901">
        <ele>2357.6000976562</ele>
        <time>2015-03-28T12:08:49.000Z</time>
      </trkpt>
      <trkpt lat="45.30684" lon="6.15907">
        <ele>2356.6000976562</ele>
        <time>2015-03-28T12:08:50.000Z</time>
      </trkpt>
      <trkpt lat="45.30686" lon="6.1592">
        <ele>2354.3999023438</ele>
        <time>2015-03-28T12:08:52.000Z</time>
      </trkpt>
      <trkpt lat="45.30686" lon="6.15927">
        <ele>2352.1999511719</ele>
        <time>2015-03-28T12:08:53.000Z</time>
      </trkpt>
      <trkpt lat="45.30686" lon="6.15934">
        <ele>2349.3999023438</ele>
        <time>2015-03-28T12:08:54.000Z</time>
      </trkpt>
      <trkpt lat="45.30685" lon="6.1594">
        <ele>2347</ele>
        <time>2015-03-28T12:08:55.000Z</time>
      </trkpt>
      <trkpt lat="45.30686" lon="6.15944">
        <ele>2345.1999511719</ele>
        <time>2015-03-28T12:08:56.000Z</time>
      </trkpt>
      <trkpt lat="45.30686" lon="6.15947">
        <ele>2343.8000488281</ele>
        <time>2015-03-28T12:08:57.000Z</time>
      </trkpt>
      <trkpt lat="45.30686" lon="6.15952">
        <ele>2341.8000488281</ele>
        <time>2015-03-28T12:08:59.000Z</time>
      </trkpt>
      <trkpt lat="45.30686" lon="6.15954">
        <ele>2341</ele>
        <time>2015-03-28T12:09:00.000Z</time>
      </trkpt>
      <trkpt lat="45.30691" lon="6.15944">
        <ele>2340.6000976562</ele>
        <time>2015-03-28T12:09:01.000Z</time>
      </trkpt>
      <trkpt lat="45.30691" lon="6.1594">
        <ele>2340.1999511719</ele>
        <time>2015-03-28T12:09:04.000Z</time>
      </trkpt>
      <trkpt lat="45.30694" lon="6.15932">
        <ele>2339.3999023438</ele>
        <time>2015-03-28T12:09:13.000Z</time>
      </trkpt>
      <trkpt lat="45.30694" lon="6.15933">
        <ele>2338.6000976562</ele>
        <time>2015-03-28T12:09:15.000Z</time>
      </trkpt>
      <trkpt lat="45.30696" lon="6.15937">
        <ele>2338.1999511719</ele>
        <time>2015-03-28T12:09:16.000Z</time>
      </trkpt>
      <trkpt lat="45.30694" lon="6.15944">
        <ele>2337.3999023438</ele>
        <time>2015-03-28T12:09:18.000Z</time>
      </trkpt>
      <trkpt lat="45.30693" lon="6.15948">
        <ele>2336.8000488281</ele>
        <time>2015-03-28T12:09:19.000Z</time>
      </trkpt>
      <trkpt lat="45.30688" lon="6.15957">
        <ele>2335.8000488281</ele>
        <time>2015-03-28T12:09:21.000Z</time>
      </trkpt>
      <trkpt lat="45.30683" lon="6.15956">
        <ele>2334.6000976562</ele>
        <time>2015-03-28T12:09:23.000Z</time>
      </trkpt>
      <trkpt lat="45.30679" lon="6.15956">
        <ele>2333.8000488281</ele>
        <time>2015-03-28T12:09:28.000Z</time>
      </trkpt>
      <trkpt lat="45.30678" lon="6.15957">
        <ele>2333.8000488281</ele>
        <time>2015-03-28T12:09:29.000Z</time>
      </trkpt>
      <trkpt lat="45.30674" lon="6.15964">
        <ele>2333.3999023438</ele>
        <time>2015-03-28T12:09:32.000Z</time>
      </trkpt>
      <trkpt lat="45.30668" lon="6.15973">
        <ele>2332.1999511719</ele>
        <time>2015-03-28T12:09:34.000Z</time>
      </trkpt>
      <trkpt lat="45.30666" lon="6.15978">
        <ele>2331</ele>
        <time>2015-03-28T12:09:35.000Z</time>
      </trkpt>
      <trkpt lat="45.30663" lon="6.1599">
        <ele>2329.6000976562</ele>
        <time>2015-03-28T12:09:36.000Z</time>
      </trkpt>
      <trkpt lat="45.30661" lon="6.16">
        <ele>2328.1999511719</ele>
        <time>2015-03-28T12:09:37.000Z</time>
      </trkpt>
      <trkpt lat="45.30659" lon="6.16011">
        <ele>2326.6000976562</ele>
        <time>2015-03-28T12:09:38.000Z</time>
      </trkpt>
      <trkpt lat="45.30656" lon="6.1602">
        <ele>2325.1999511719</ele>
        <time>2015-03-28T12:09:39.000Z</time>
      </trkpt>
      <trkpt lat="45.30653" lon="6.16035">
        <ele>2323.8000488281</ele>
        <time>2015-03-28T12:09:41.000Z</time>
      </trkpt>
      <trkpt lat="45.30654" lon="6.16042">
        <ele>2323.6000976562</ele>
        <time>2015-03-28T12:09:42.000Z</time>
      </trkpt>
      <trkpt lat="45.30655" lon="6.16063">
        <ele>2323.8000488281</ele>
        <time>2015-03-28T12:09:45.000Z</time>
      </trkpt>
      <trkpt lat="45.30653" lon="6.16077">
        <ele>2324</ele>
        <time>2015-03-28T12:09:47.000Z</time>
      </trkpt>
      <trkpt lat="45.30651" lon="6.16093">
        <ele>2322.6000976562</ele>
        <time>2015-03-28T12:09:51.000Z</time>
      </trkpt>
      <trkpt lat="45.30646" lon="6.16106">
        <ele>2321.3999023438</ele>
        <time>2015-03-28T12:09:54.000Z</time>
      </trkpt>
      <trkpt lat="45.30646" lon="6.16109">
        <ele>2321</ele>
        <time>2015-03-28T12:09:55.000Z</time>
      </trkpt>
      <trkpt lat="45.30646" lon="6.16119">
        <ele>2320.1999511719</ele>
        <time>2015-03-28T12:09:57.000Z</time>
      </trkpt>
      <trkpt lat="45.30646" lon="6.1613">
        <ele>2319.8000488281</ele>
        <time>2015-03-28T12:09:58.000Z</time>
      </trkpt>
      <trkpt lat="45.30646" lon="6.16139">
        <ele>2319.3999023438</ele>
        <time>2015-03-28T12:09:59.000Z</time>
      </trkpt>
      <trkpt lat="45.30647" lon="6.16151">
        <ele>2318.6000976562</ele>
        <time>2015-03-28T12:10:00.000Z</time>
      </trkpt>
      <trkpt lat="45.30647" lon="6.16164">
        <ele>2317.6000976562</ele>
        <time>2015-03-28T12:10:01.000Z</time>
      </trkpt>
      <trkpt lat="45.30647" lon="6.16176">
        <ele>2316.1999511719</ele>
        <time>2015-03-28T12:10:02.000Z</time>
      </trkpt>
      <trkpt lat="45.30648" lon="6.16186">
        <ele>2314.8000488281</ele>
        <time>2015-03-28T12:10:03.000Z</time>
      </trkpt>
      <trkpt lat="45.30647" lon="6.16193">
        <ele>2313.3999023438</ele>
        <time>2015-03-28T12:10:04.000Z</time>
      </trkpt>
      <trkpt lat="45.30648" lon="6.16207">
        <ele>2312</ele>
        <time>2015-03-28T12:10:06.000Z</time>
      </trkpt>
      <trkpt lat="45.30649" lon="6.16213">
        <ele>2311.8000488281</ele>
        <time>2015-03-28T12:10:07.000Z</time>
      </trkpt>
      <trkpt lat="45.30653" lon="6.16227">
        <ele>2311.1999511719</ele>
        <time>2015-03-28T12:10:10.000Z</time>
      </trkpt>
      <trkpt lat="45.30653" lon="6.16229">
        <ele>2311</ele>
        <time>2015-03-28T12:10:11.000Z</time>
      </trkpt>
      <trkpt lat="45.30653" lon="6.16228">
        <ele>2310.8000488281</ele>
        <time>2015-03-28T12:10:12.000Z</time>
      </trkpt>
      <trkpt lat="45.30652" lon="6.16227">
        <ele>2310.8000488281</ele>
        <time>2015-03-28T12:10:13.000Z</time>
      </trkpt>
      <trkpt lat="45.30652" lon="6.16225">
        <ele>2310.6000976562</ele>
        <time>2015-03-28T12:10:21.000Z</time>
      </trkpt>
      <trkpt lat="45.30653" lon="6.16227">
        <ele>2310.3999023438</ele>
        <time>2015-03-28T12:10:22.000Z</time>
      </trkpt>
      <trkpt lat="45.30661" lon="6.16219">
        <ele>2310.1999511719</ele>
        <time>2015-03-28T12:10:24.000Z</time>
      </trkpt>
      <trkpt lat="45.30666" lon="6.16216">
        <ele>2310</ele>
        <time>2015-03-28T12:10:25.000Z</time>
      </trkpt>
      <trkpt lat="45.30675" lon="6.16221">
        <ele>2308.8000488281</ele>
        <time>2015-03-28T12:10:28.000Z</time>
      </trkpt>
      <trkpt lat="45.30676" lon="6.16221">
        <ele>2307.8000488281</ele>
        <time>2015-03-28T12:10:30.000Z</time>
      </trkpt>
      <trkpt lat="45.30676" lon="6.16221">
        <ele>2307.3999023438</ele>
        <time>2015-03-28T12:10:31.000Z</time>
      </trkpt>
      <trkpt lat="45.30677" lon="6.16221">
        <ele>2307.3999023438</ele>
        <time>2015-03-28T12:10:42.000Z</time>
      </trkpt>
      <trkpt lat="45.3067" lon="6.16224">
        <ele>2307.1999511719</ele>
        <time>2015-03-28T12:10:51.000Z</time>
      </trkpt>
      <trkpt lat="45.30663" lon="6.16229">
        <ele>2306.3999023438</ele>
        <time>2015-03-28T12:10:54.000Z</time>
      </trkpt>
      <trkpt lat="45.30658" lon="6.16233">
        <ele>2305.1999511719</ele>
        <time>2015-03-28T12:10:56.000Z</time>
      </trkpt>
      <trkpt lat="45.30654" lon="6.16237">
        <ele>2304.1999511719</ele>
        <time>2015-03-28T12:10:58.000Z</time>
      </trkpt>
      <trkpt lat="45.30649" lon="6.16239">
        <ele>2302.1999511719</ele>
        <time>2015-03-28T12:11:00.000Z</time>
      </trkpt>
      <trkpt lat="45.30646" lon="6.1624">
        <ele>2301</ele>
        <time>2015-03-28T12:11:01.000Z</time>
      </trkpt>
      <trkpt lat="45.30639" lon="6.16244">
        <ele>2299.6000976562</ele>
        <time>2015-03-28T12:11:03.000Z</time>
      </trkpt>
      <trkpt lat="45.30635" lon="6.16247">
        <ele>2298.8000488281</ele>
        <time>2015-03-28T12:11:04.000Z</time>
      </trkpt>
      <trkpt lat="45.30632" lon="6.16251">
        <ele>2297.1999511719</ele>
        <time>2015-03-28T12:11:05.000Z</time>
      </trkpt>
      <trkpt lat="45.30628" lon="6.16257">
        <ele>2296.1999511719</ele>
        <time>2015-03-28T12:11:07.000Z</time>
      </trkpt>
      <trkpt lat="45.30626" lon="6.16259">
        <ele>2296</ele>
        <time>2015-03-28T12:11:08.000Z</time>
      </trkpt>
      <trkpt lat="45.30612" lon="6.16277">
        <ele>2295.3999023438</ele>
        <time>2015-03-28T12:11:16.000Z</time>
      </trkpt>
      <trkpt lat="45.30607" lon="6.16281">
        <ele>2295</ele>
        <time>2015-03-28T12:11:18.000Z</time>
      </trkpt>
      <trkpt lat="45.30602" lon="6.16286">
        <ele>2294</ele>
        <time>2015-03-28T12:11:21.000Z</time>
      </trkpt>
      <trkpt lat="45.30601" lon="6.16289">
        <ele>2293.6000976562</ele>
        <time>2015-03-28T12:11:23.000Z</time>
      </trkpt>
      <trkpt lat="45.30595" lon="6.16303">
        <ele>2293.3999023438</ele>
        <time>2015-03-28T12:11:32.000Z</time>
      </trkpt>
      <trkpt lat="45.30595" lon="6.16305">
        <ele>2293.3999023438</ele>
        <time>2015-03-28T12:11:33.000Z</time>
      </trkpt>
      <trkpt lat="45.30597" lon="6.16309">
        <ele>2292.8000488281</ele>
        <time>2015-03-28T12:11:36.000Z</time>
      </trkpt>
      <trkpt lat="45.30601" lon="6.16315">
        <ele>2290.6000976562</ele>
        <time>2015-03-28T12:11:38.000Z</time>
      </trkpt>
      <trkpt lat="45.30604" lon="6.16318">
        <ele>2289</ele>
        <time>2015-03-28T12:11:39.000Z</time>
      </trkpt>
      <trkpt lat="45.30607" lon="6.16321">
        <ele>2287.8000488281</ele>
        <time>2015-03-28T12:11:40.000Z</time>
      </trkpt>
      <trkpt lat="45.30609" lon="6.16324">
        <ele>2286.8000488281</ele>
        <time>2015-03-28T12:11:41.000Z</time>
      </trkpt>
      <trkpt lat="45.30611" lon="6.16328">
        <ele>2284.6000976562</ele>
        <time>2015-03-28T12:11:42.000Z</time>
      </trkpt>
      <trkpt lat="45.30613" lon="6.16332">
        <ele>2281.8000488281</ele>
        <time>2015-03-28T12:11:43.000Z</time>
      </trkpt>
      <trkpt lat="45.30616" lon="6.16334">
        <ele>2279.3999023438</ele>
        <time>2015-03-28T12:11:44.000Z</time>
      </trkpt>
      <trkpt lat="45.30619" lon="6.16336">
        <ele>2277.6000976562</ele>
        <time>2015-03-28T12:11:45.000Z</time>
      </trkpt>
      <trkpt lat="45.30621" lon="6.16339">
        <ele>2276.6000976562</ele>
        <time>2015-03-28T12:11:46.000Z</time>
      </trkpt>
      <trkpt lat="45.30623" lon="6.16341">
        <ele>2275</ele>
        <time>2015-03-28T12:11:47.000Z</time>
      </trkpt>
      <trkpt lat="45.30625" lon="6.16343">
        <ele>2272.6000976562</ele>
        <time>2015-03-28T12:11:48.000Z</time>
      </trkpt>
      <trkpt lat="45.30627" lon="6.16346">
        <ele>2270.1999511719</ele>
        <time>2015-03-28T12:11:49.000Z</time>
      </trkpt>
      <trkpt lat="45.30629" lon="6.16349">
        <ele>2268.3999023438</ele>
        <time>2015-03-28T12:11:50.000Z</time>
      </trkpt>
      <trkpt lat="45.3063" lon="6.16352">
        <ele>2266.6000976562</ele>
        <time>2015-03-28T12:11:51.000Z</time>
      </trkpt>
      <trkpt lat="45.30631" lon="6.16355">
        <ele>2264.3999023438</ele>
        <time>2015-03-28T12:11:52.000Z</time>
      </trkpt>
      <trkpt lat="45.30632" lon="6.16358">
        <ele>2260.8000488281</ele>
        <time>2015-03-28T12:11:53.000Z</time>
      </trkpt>
      <trkpt lat="45.30632" lon="6.16362">
        <ele>2259</ele>
        <time>2015-03-28T12:11:54.000Z</time>
      </trkpt>
      <trkpt lat="45.30635" lon="6.16367">
        <ele>2256.8000488281</ele>
        <time>2015-03-28T12:11:55.000Z</time>
      </trkpt>
      <trkpt lat="45.30637" lon="6.16373">
        <ele>2254.6000976562</ele>
        <time>2015-03-28T12:11:56.000Z</time>
      </trkpt>
      <trkpt lat="45.30638" lon="6.16377">
        <ele>2252.8000488281</ele>
        <time>2015-03-28T12:11:57.000Z</time>
      </trkpt>
      <trkpt lat="45.30639" lon="6.16382">
        <ele>2250.8000488281</ele>
        <time>2015-03-28T12:11:58.000Z</time>
      </trkpt>
      <trkpt lat="45.3064" lon="6.16387">
        <ele>2248.6000976562</ele>
        <time>2015-03-28T12:11:59.000Z</time>
      </trkpt>
      <trkpt lat="45.30642" lon="6.16391">
        <ele>2246.3999023438</ele>
        <time>2015-03-28T12:12:00.000Z</time>
      </trkpt>
      <trkpt lat="45.30642" lon="6.16395">
        <ele>2245</ele>
        <time>2015-03-28T12:12:01.000Z</time>
      </trkpt>
      <trkpt lat="45.30642" lon="6.16399">
        <ele>2243.3999023438</ele>
        <time>2015-03-28T12:12:02.000Z</time>
      </trkpt>
      <trkpt lat="45.30642" lon="6.16404">
        <ele>2241</ele>
        <time>2015-03-28T12:12:03.000Z</time>
      </trkpt>
      <trkpt lat="45.30644" lon="6.16406">
        <ele>2238.3999023438</ele>
        <time>2015-03-28T12:12:04.000Z</time>
      </trkpt>
      <trkpt lat="45.30646" lon="6.16406">
        <ele>2236.3999023438</ele>
        <time>2015-03-28T12:12:05.000Z</time>
      </trkpt>
      <trkpt lat="45.30649" lon="6.16407">
        <ele>2234.8000488281</ele>
        <time>2015-03-28T12:12:06.000Z</time>
      </trkpt>
      <trkpt lat="45.30652" lon="6.16407">
        <ele>2233</ele>
        <time>2015-03-28T12:12:07.000Z</time>
      </trkpt>
      <trkpt lat="45.30654" lon="6.16409">
        <ele>2231.3999023438</ele>
        <time>2015-03-28T12:12:08.000Z</time>
      </trkpt>
      <trkpt lat="45.30654" lon="6.16409">
        <ele>2230</ele>
        <time>2015-03-28T12:12:09.000Z</time>
      </trkpt>
      <trkpt lat="45.30654" lon="6.1641">
        <ele>2228.6000976562</ele>
        <time>2015-03-28T12:12:11.000Z</time>
      </trkpt>
      <trkpt lat="45.30654" lon="6.1641">
        <ele>2228</ele>
        <time>2015-03-28T12:12:20.000Z</time>
      </trkpt>
      <trkpt lat="45.30655" lon="6.16412">
        <ele>2228</ele>
        <time>2015-03-28T12:12:22.000Z</time>
      </trkpt>
      <trkpt lat="45.30655" lon="6.16415">
        <ele>2227.1999511719</ele>
        <time>2015-03-28T12:12:24.000Z</time>
      </trkpt>
      <trkpt lat="45.30657" lon="6.16417">
        <ele>2226.1999511719</ele>
        <time>2015-03-28T12:12:25.000Z</time>
      </trkpt>
      <trkpt lat="45.30658" lon="6.1642">
        <ele>2225</ele>
        <time>2015-03-28T12:12:26.000Z</time>
      </trkpt>
      <trkpt lat="45.30658" lon="6.16424">
        <ele>2223.8000488281</ele>
        <time>2015-03-28T12:12:27.000Z</time>
      </trkpt>
      <trkpt lat="45.30659" lon="6.16427">
        <ele>2222.3999023438</ele>
        <time>2015-03-28T12:12:28.000Z</time>
      </trkpt>
      <trkpt lat="45.3066" lon="6.1643">
        <ele>2220.6000976562</ele>
        <time>2015-03-28T12:12:29.000Z</time>
      </trkpt>
      <trkpt lat="45.30661" lon="6.16432">
        <ele>2219</ele>
        <time>2015-03-28T12:12:30.000Z</time>
      </trkpt>
      <trkpt lat="45.30662" lon="6.16435">
        <ele>2217.6000976562</ele>
        <time>2015-03-28T12:12:31.000Z</time>
      </trkpt>
      <trkpt lat="45.30662" lon="6.16436">
        <ele>2215.8000488281</ele>
        <time>2015-03-28T12:12:32.000Z</time>
      </trkpt>
      <trkpt lat="45.30662" lon="6.16437">
        <ele>2213.8000488281</ele>
        <time>2015-03-28T12:12:33.000Z</time>
      </trkpt>
      <trkpt lat="45.30663" lon="6.16438">
        <ele>2212</ele>
        <time>2015-03-28T12:12:34.000Z</time>
      </trkpt>
      <trkpt lat="45.30663" lon="6.16438">
        <ele>2210.8000488281</ele>
        <time>2015-03-28T12:12:35.000Z</time>
      </trkpt>
      <trkpt lat="45.30663" lon="6.16438">
        <ele>2209.6000976562</ele>
        <time>2015-03-28T12:12:36.000Z</time>
      </trkpt>
      <trkpt lat="45.30663" lon="6.16438">
        <ele>2208.6000976562</ele>
        <time>2015-03-28T12:12:37.000Z</time>
      </trkpt>
      <trkpt lat="45.30663" lon="6.16438">
        <ele>2207.1999511719</ele>
        <time>2015-03-28T12:12:39.000Z</time>
      </trkpt>
      <trkpt lat="45.30663" lon="6.16438">
        <ele>2206.8000488281</ele>
        <time>2015-03-28T12:12:41.000Z</time>
      </trkpt>
      <trkpt lat="45.30663" lon="6.16438">
        <ele>2207.6000976562</ele>
        <time>2015-03-28T12:12:51.000Z</time>
      </trkpt>
      <trkpt lat="45.30663" lon="6.16438">
        <ele>2207</ele>
        <time>2015-03-28T12:13:01.000Z</time>
      </trkpt>
      <trkpt lat="45.30673" lon="6.16445">
        <ele>2206.6000976562</ele>
        <time>2015-03-28T12:13:13.000Z</time>
      </trkpt>
      <trkpt lat="45.30672" lon="6.16452">
        <ele>2206.1999511719</ele>
        <time>2015-03-28T12:13:15.000Z</time>
      </trkpt>
      <trkpt lat="45.3067" lon="6.16456">
        <ele>2205.1999511719</ele>
        <time>2015-03-28T12:13:16.000Z</time>
      </trkpt>
      <trkpt lat="45.30669" lon="6.16458">
        <ele>2204.3999023438</ele>
        <time>2015-03-28T12:13:17.000Z</time>
      </trkpt>
      <trkpt lat="45.30672" lon="6.16461">
        <ele>2203.1999511719</ele>
        <time>2015-03-28T12:13:19.000Z</time>
      </trkpt>
      <trkpt lat="45.30673" lon="6.16469">
        <ele>2201.6000976562</ele>
        <time>2015-03-28T12:13:21.000Z</time>
      </trkpt>
      <trkpt lat="45.30671" lon="6.16473">
        <ele>2199.8000488281</ele>
        <time>2015-03-28T12:13:22.000Z</time>
      </trkpt>
      <trkpt lat="45.3067" lon="6.16476">
        <ele>2198</ele>
        <time>2015-03-28T12:13:23.000Z</time>
      </trkpt>
      <trkpt lat="45.3067" lon="6.16478">
        <ele>2196.3999023438</ele>
        <time>2015-03-28T12:13:24.000Z</time>
      </trkpt>
      <trkpt lat="45.30671" lon="6.1648">
        <ele>2195.3999023438</ele>
        <time>2015-03-28T12:13:25.000Z</time>
      </trkpt>
      <trkpt lat="45.30674" lon="6.16483">
        <ele>2194.1999511719</ele>
        <time>2015-03-28T12:13:26.000Z</time>
      </trkpt>
      <trkpt lat="45.30675" lon="6.16485">
        <ele>2193</ele>
        <time>2015-03-28T12:13:27.000Z</time>
      </trkpt>
      <trkpt lat="45.30674" lon="6.16487">
        <ele>2191.3999023438</ele>
        <time>2015-03-28T12:13:28.000Z</time>
      </trkpt>
      <trkpt lat="45.30673" lon="6.16489">
        <ele>2187.1999511719</ele>
        <time>2015-03-28T12:13:29.000Z</time>
      </trkpt>
      <trkpt lat="45.30673" lon="6.16489">
        <ele>2185.1999511719</ele>
        <time>2015-03-28T12:13:30.000Z</time>
      </trkpt>
      <trkpt lat="45.30674" lon="6.16492">
        <ele>2183.8000488281</ele>
        <time>2015-03-28T12:13:31.000Z</time>
      </trkpt>
      <trkpt lat="45.30677" lon="6.16496">
        <ele>2182.3999023438</ele>
        <time>2015-03-28T12:13:32.000Z</time>
      </trkpt>
      <trkpt lat="45.30678" lon="6.16499">
        <ele>2180.8000488281</ele>
        <time>2015-03-28T12:13:33.000Z</time>
      </trkpt>
      <trkpt lat="45.3068" lon="6.16502">
        <ele>2178.6000976562</ele>
        <time>2015-03-28T12:13:34.000Z</time>
      </trkpt>
      <trkpt lat="45.30682" lon="6.16505">
        <ele>2176.6000976562</ele>
        <time>2015-03-28T12:13:35.000Z</time>
      </trkpt>
      <trkpt lat="45.30686" lon="6.16507">
        <ele>2174.8000488281</ele>
        <time>2015-03-28T12:13:36.000Z</time>
      </trkpt>
      <trkpt lat="45.3069" lon="6.16511">
        <ele>2173.1999511719</ele>
        <time>2015-03-28T12:13:37.000Z</time>
      </trkpt>
      <trkpt lat="45.3069" lon="6.16515">
        <ele>2171.6000976562</ele>
        <time>2015-03-28T12:13:38.000Z</time>
      </trkpt>
      <trkpt lat="45.30693" lon="6.16519">
        <ele>2169.3999023438</ele>
        <time>2015-03-28T12:13:39.000Z</time>
      </trkpt>
      <trkpt lat="45.30695" lon="6.16522">
        <ele>2167.3999023438</ele>
        <time>2015-03-28T12:13:40.000Z</time>
      </trkpt>
      <trkpt lat="45.30698" lon="6.16525">
        <ele>2165.8000488281</ele>
        <time>2015-03-28T12:13:41.000Z</time>
      </trkpt>
      <trkpt lat="45.30699" lon="6.16528">
        <ele>2164.3999023438</ele>
        <time>2015-03-28T12:13:42.000Z</time>
      </trkpt>
      <trkpt lat="45.30699" lon="6.16533">
        <ele>2162.6000976562</ele>
        <time>2015-03-28T12:13:43.000Z</time>
      </trkpt>
      <trkpt lat="45.30698" lon="6.16538">
        <ele>2160.8000488281</ele>
        <time>2015-03-28T12:13:44.000Z</time>
      </trkpt>
      <trkpt lat="45.30699" lon="6.16547">
        <ele>2159.1999511719</ele>
        <time>2015-03-28T12:13:45.000Z</time>
      </trkpt>
      <trkpt lat="45.30695" lon="6.16556">
        <ele>2158</ele>
        <time>2015-03-28T12:13:46.000Z</time>
      </trkpt>
      <trkpt lat="45.30693" lon="6.16564">
        <ele>2157</ele>
        <time>2015-03-28T12:13:47.000Z</time>
      </trkpt>
      <trkpt lat="45.30691" lon="6.1657">
        <ele>2155.3999023438</ele>
        <time>2015-03-28T12:13:49.000Z</time>
      </trkpt>
      <trkpt lat="45.30684" lon="6.16586">
        <ele>2154.8000488281</ele>
        <time>2015-03-28T12:13:52.000Z</time>
      </trkpt>
      <trkpt lat="45.30679" lon="6.16594">
        <ele>2154.3999023438</ele>
        <time>2015-03-28T12:13:53.000Z</time>
      </trkpt>
      <trkpt lat="45.30674" lon="6.16604">
        <ele>2154.1999511719</ele>
        <time>2015-03-28T12:13:56.000Z</time>
      </trkpt>
      <trkpt lat="45.30674" lon="6.16604">
        <ele>2154</ele>
        <time>2015-03-28T12:14:07.000Z</time>
      </trkpt>
      <trkpt lat="45.30674" lon="6.16604">
        <ele>2153.8000488281</ele>
        <time>2015-03-28T12:14:20.000Z</time>
      </trkpt>
      <trkpt lat="45.30674" lon="6.16604">
        <ele>2153.8000488281</ele>
        <time>2015-03-28T12:14:33.000Z</time>
      </trkpt>
      <trkpt lat="45.30671" lon="6.1661">
        <ele>2153.6000976562</ele>
        <time>2015-03-28T12:14:53.000Z</time>
      </trkpt>
      <trkpt lat="45.30671" lon="6.1661">
        <ele>2153.3999023438</ele>
        <time>2015-03-28T12:15:11.000Z</time>
      </trkpt>
      <trkpt lat="45.3067" lon="6.16617">
        <ele>2153.1999511719</ele>
        <time>2015-03-28T12:15:13.000Z</time>
      </trkpt>
      <trkpt lat="45.30663" lon="6.16636">
        <ele>2152.8000488281</ele>
        <time>2015-03-28T12:15:15.000Z</time>
      </trkpt>
      <trkpt lat="45.30655" lon="6.16647">
        <ele>2152</ele>
        <time>2015-03-28T12:15:17.000Z</time>
      </trkpt>
      <trkpt lat="45.30654" lon="6.1666">
        <ele>2150.1999511719</ele>
        <time>2015-03-28T12:15:19.000Z</time>
      </trkpt>
      <trkpt lat="45.30651" lon="6.16672">
        <ele>2148.6000976562</ele>
        <time>2015-03-28T12:15:21.000Z</time>
      </trkpt>
      <trkpt lat="45.30649" lon="6.16679">
        <ele>2147.1999511719</ele>
        <time>2015-03-28T12:15:22.000Z</time>
      </trkpt>
      <trkpt lat="45.30648" lon="6.16685">
        <ele>2145.6000976562</ele>
        <time>2015-03-28T12:15:23.000Z</time>
      </trkpt>
      <trkpt lat="45.3065" lon="6.16687">
        <ele>2144</ele>
        <time>2015-03-28T12:15:24.000Z</time>
      </trkpt>
      <trkpt lat="45.30651" lon="6.16692">
        <ele>2142.6000976562</ele>
        <time>2015-03-28T12:15:25.000Z</time>
      </trkpt>
      <trkpt lat="45.30649" lon="6.16696">
        <ele>2141</ele>
        <time>2015-03-28T12:15:26.000Z</time>
      </trkpt>
      <trkpt lat="45.30647" lon="6.167">
        <ele>2139.1999511719</ele>
        <time>2015-03-28T12:15:27.000Z</time>
      </trkpt>
      <trkpt lat="45.30645" lon="6.16704">
        <ele>2137.1999511719</ele>
        <time>2015-03-28T12:15:28.000Z</time>
      </trkpt>
      <trkpt lat="45.30647" lon="6.1671">
        <ele>2134</ele>
        <time>2015-03-28T12:15:29.000Z</time>
      </trkpt>
      <trkpt lat="45.30646" lon="6.16715">
        <ele>2132.3999023438</ele>
        <time>2015-03-28T12:15:30.000Z</time>
      </trkpt>
      <trkpt lat="45.30643" lon="6.16719">
        <ele>2130.6000976562</ele>
        <time>2015-03-28T12:15:31.000Z</time>
      </trkpt>
      <trkpt lat="45.3064" lon="6.16724">
        <ele>2128.3999023438</ele>
        <time>2015-03-28T12:15:32.000Z</time>
      </trkpt>
      <trkpt lat="45.30639" lon="6.1673">
        <ele>2126.6000976562</ele>
        <time>2015-03-28T12:15:33.000Z</time>
      </trkpt>
      <trkpt lat="45.30639" lon="6.16733">
        <ele>2125</ele>
        <time>2015-03-28T12:15:34.000Z</time>
      </trkpt>
      <trkpt lat="45.30637" lon="6.16735">
        <ele>2123.3999023438</ele>
        <time>2015-03-28T12:15:35.000Z</time>
      </trkpt>
      <trkpt lat="45.30634" lon="6.16737">
        <ele>2121.8000488281</ele>
        <time>2015-03-28T12:15:36.000Z</time>
      </trkpt>
      <trkpt lat="45.3063" lon="6.16739">
        <ele>2120.1999511719</ele>
        <time>2015-03-28T12:15:37.000Z</time>
      </trkpt>
      <trkpt lat="45.30625" lon="6.1674">
        <ele>2119</ele>
        <time>2015-03-28T12:15:38.000Z</time>
      </trkpt>
      <trkpt lat="45.30617" lon="6.16741">
        <ele>2117.1999511719</ele>
        <time>2015-03-28T12:15:40.000Z</time>
      </trkpt>
      <trkpt lat="45.30615" lon="6.16738">
        <ele>2116.1999511719</ele>
        <time>2015-03-28T12:15:42.000Z</time>
      </trkpt>
      <trkpt lat="45.30616" lon="6.16721">
        <ele>2116</ele>
        <time>2015-03-28T12:15:49.000Z</time>
      </trkpt>
      <trkpt lat="45.30602" lon="6.16722">
        <ele>2116</ele>
        <time>2015-03-28T12:15:55.000Z</time>
      </trkpt>
      <trkpt lat="45.30584" lon="6.1673">
        <ele>2114.3999023438</ele>
        <time>2015-03-28T12:15:58.000Z</time>
      </trkpt>
      <trkpt lat="45.30581" lon="6.16734">
        <ele>2113.8000488281</ele>
        <time>2015-03-28T12:15:59.000Z</time>
      </trkpt>
      <trkpt lat="45.30578" lon="6.16736">
        <ele>2113.1999511719</ele>
        <time>2015-03-28T12:16:00.000Z</time>
      </trkpt>
      <trkpt lat="45.30578" lon="6.16742">
        <ele>2112</ele>
        <time>2015-03-28T12:16:02.000Z</time>
      </trkpt>
      <trkpt lat="45.30574" lon="6.16744">
        <ele>2110.8000488281</ele>
        <time>2015-03-28T12:16:03.000Z</time>
      </trkpt>
      <trkpt lat="45.3057" lon="6.16746">
        <ele>2109</ele>
        <time>2015-03-28T12:16:04.000Z</time>
      </trkpt>
      <trkpt lat="45.30567" lon="6.16748">
        <ele>2107.1999511719</ele>
        <time>2015-03-28T12:16:05.000Z</time>
      </trkpt>
      <trkpt lat="45.30565" lon="6.16752">
        <ele>2106</ele>
        <time>2015-03-28T12:16:06.000Z</time>
      </trkpt>
      <trkpt lat="45.30562" lon="6.16761">
        <ele>2104</ele>
        <time>2015-03-28T12:16:08.000Z</time>
      </trkpt>
      <trkpt lat="45.30557" lon="6.16766">
        <ele>2102</ele>
        <time>2015-03-28T12:16:09.000Z</time>
      </trkpt>
      <trkpt lat="45.30552" lon="6.16774">
        <ele>2100</ele>
        <time>2015-03-28T12:16:10.000Z</time>
      </trkpt>
      <trkpt lat="45.30549" lon="6.1678">
        <ele>2098</ele>
        <time>2015-03-28T12:16:11.000Z</time>
      </trkpt>
      <trkpt lat="45.30547" lon="6.16784">
        <ele>2096.1999511719</ele>
        <time>2015-03-28T12:16:12.000Z</time>
      </trkpt>
      <trkpt lat="45.30545" lon="6.16792">
        <ele>2094.8000488281</ele>
        <time>2015-03-28T12:16:13.000Z</time>
      </trkpt>
      <trkpt lat="45.30546" lon="6.16797">
        <ele>2093.1999511719</ele>
        <time>2015-03-28T12:16:14.000Z</time>
      </trkpt>
      <trkpt lat="45.30544" lon="6.16802">
        <ele>2091.3999023438</ele>
        <time>2015-03-28T12:16:15.000Z</time>
      </trkpt>
      <trkpt lat="45.30541" lon="6.16807">
        <ele>2089.1999511719</ele>
        <time>2015-03-28T12:16:16.000Z</time>
      </trkpt>
      <trkpt lat="45.30537" lon="6.16813">
        <ele>2085.1999511719</ele>
        <time>2015-03-28T12:16:17.000Z</time>
      </trkpt>
      <trkpt lat="45.30534" lon="6.1682">
        <ele>2084</ele>
        <time>2015-03-28T12:16:18.000Z</time>
      </trkpt>
      <trkpt lat="45.3053" lon="6.16826">
        <ele>2083</ele>
        <time>2015-03-28T12:16:19.000Z</time>
      </trkpt>
      <trkpt lat="45.30527" lon="6.16833">
        <ele>2081.8000488281</ele>
        <time>2015-03-28T12:16:20.000Z</time>
      </trkpt>
      <trkpt lat="45.3056" lon="6.16926">
        <ele>2079.8000488281</ele>
        <time>2015-03-28T12:16:21.000Z</time>
      </trkpt>
      <trkpt lat="45.30559" lon="6.16927">
        <ele>2077</ele>
        <time>2015-03-28T12:16:22.000Z</time>
      </trkpt>
      <trkpt lat="45.30557" lon="6.16929">
        <ele>2074.3999023438</ele>
        <time>2015-03-28T12:16:23.000Z</time>
      </trkpt>
      <trkpt lat="45.30555" lon="6.16933">
        <ele>2072.3999023438</ele>
        <time>2015-03-28T12:16:24.000Z</time>
      </trkpt>
      <trkpt lat="45.30553" lon="6.16939">
        <ele>2071</ele>
        <time>2015-03-28T12:16:25.000Z</time>
      </trkpt>
      <trkpt lat="45.30555" lon="6.16942">
        <ele>2069.8000488281</ele>
        <time>2015-03-28T12:16:26.000Z</time>
      </trkpt>
      <trkpt lat="45.30557" lon="6.16944">
        <ele>2068</ele>
        <time>2015-03-28T12:16:27.000Z</time>
      </trkpt>
      <trkpt lat="45.30558" lon="6.16945">
        <ele>2065.8000488281</ele>
        <time>2015-03-28T12:16:28.000Z</time>
      </trkpt>
      <trkpt lat="45.30558" lon="6.16945">
        <ele>2063.1999511719</ele>
        <time>2015-03-28T12:16:29.000Z</time>
      </trkpt>
      <trkpt lat="45.30558" lon="6.16945">
        <ele>2061.3999023438</ele>
        <time>2015-03-28T12:16:30.000Z</time>
      </trkpt>
      <trkpt lat="45.30558" lon="6.16945">
        <ele>2060.1999511719</ele>
        <time>2015-03-28T12:16:31.000Z</time>
      </trkpt>
      <trkpt lat="45.30558" lon="6.16945">
        <ele>2059</ele>
        <time>2015-03-28T12:16:33.000Z</time>
      </trkpt>
      <trkpt lat="45.30558" lon="6.16945">
        <ele>2058.1999511719</ele>
        <time>2015-03-28T12:16:43.000Z</time>
      </trkpt>
      <trkpt lat="45.30554" lon="6.16952">
        <ele>2058</ele>
        <time>2015-03-28T12:16:50.000Z</time>
      </trkpt>
      <trkpt lat="45.3055" lon="6.16954">
        <ele>2058</ele>
        <time>2015-03-28T12:16:51.000Z</time>
      </trkpt>
      <trkpt lat="45.30547" lon="6.16959">
        <ele>2056.8000488281</ele>
        <time>2015-03-28T12:16:54.000Z</time>
      </trkpt>
      <trkpt lat="45.30545" lon="6.16964">
        <ele>2056</ele>
        <time>2015-03-28T12:16:55.000Z</time>
      </trkpt>
      <trkpt lat="45.3054" lon="6.16968">
        <ele>2055</ele>
        <time>2015-03-28T12:16:56.000Z</time>
      </trkpt>
      <trkpt lat="45.3053" lon="6.16974">
        <ele>2053.8000488281</ele>
        <time>2015-03-28T12:16:57.000Z</time>
      </trkpt>
      <trkpt lat="45.3052" lon="6.16983">
        <ele>2052.1999511719</ele>
        <time>2015-03-28T12:16:58.000Z</time>
      </trkpt>
      <trkpt lat="45.30514" lon="6.16987">
        <ele>2050.6000976562</ele>
        <time>2015-03-28T12:16:59.000Z</time>
      </trkpt>
      <trkpt lat="45.3051" lon="6.16989">
        <ele>2049.3999023438</ele>
        <time>2015-03-28T12:17:00.000Z</time>
      </trkpt>
      <trkpt lat="45.30501" lon="6.16993">
        <ele>2047.5999755859</ele>
        <time>2015-03-28T12:17:02.000Z</time>
      </trkpt>
      <trkpt lat="45.30499" lon="6.16996">
        <ele>2046.8000488281</ele>
        <time>2015-03-28T12:17:03.000Z</time>
      </trkpt>
      <trkpt lat="45.30501" lon="6.16997">
        <ele>2046.1999511719</ele>
        <time>2015-03-28T12:17:04.000Z</time>
      </trkpt>
      <trkpt lat="45.30497" lon="6.16997">
        <ele>2044.1999511719</ele>
        <time>2015-03-28T12:17:05.000Z</time>
      </trkpt>
      <trkpt lat="45.30495" lon="6.16999">
        <ele>2042.4000244141</ele>
        <time>2015-03-28T12:17:06.000Z</time>
      </trkpt>
      <trkpt lat="45.30492" lon="6.17002">
        <ele>2040.5999755859</ele>
        <time>2015-03-28T12:17:07.000Z</time>
      </trkpt>
      <trkpt lat="45.3049" lon="6.17007">
        <ele>2039</ele>
        <time>2015-03-28T12:17:08.000Z</time>
      </trkpt>
      <trkpt lat="45.30492" lon="6.1701">
        <ele>2037.4000244141</ele>
        <time>2015-03-28T12:17:09.000Z</time>
      </trkpt>
      <trkpt lat="45.30493" lon="6.17012">
        <ele>2035.5999755859</ele>
        <time>2015-03-28T12:17:10.000Z</time>
      </trkpt>
      <trkpt lat="45.30493" lon="6.17017">
        <ele>2033.5999755859</ele>
        <time>2015-03-28T12:17:11.000Z</time>
      </trkpt>
      <trkpt lat="45.30496" lon="6.17021">
        <ele>2031.5999755859</ele>
        <time>2015-03-28T12:17:12.000Z</time>
      </trkpt>
      <trkpt lat="45.30497" lon="6.17026">
        <ele>2029.5999755859</ele>
        <time>2015-03-28T12:17:13.000Z</time>
      </trkpt>
      <trkpt lat="45.30495" lon="6.17032">
        <ele>2027.4000244141</ele>
        <time>2015-03-28T12:17:14.000Z</time>
      </trkpt>
      <trkpt lat="45.30491" lon="6.17036">
        <ele>2024.8000488281</ele>
        <time>2015-03-28T12:17:15.000Z</time>
      </trkpt>
      <trkpt lat="45.30488" lon="6.17039">
        <ele>2022.5999755859</ele>
        <time>2015-03-28T12:17:16.000Z</time>
      </trkpt>
      <trkpt lat="45.30486" lon="6.1704">
        <ele>2020.5999755859</ele>
        <time>2015-03-28T12:17:17.000Z</time>
      </trkpt>
      <trkpt lat="45.3049" lon="6.1704">
        <ele>2019.8000488281</ele>
        <time>2015-03-28T12:17:18.000Z</time>
      </trkpt>
      <trkpt lat="45.30494" lon="6.17041">
        <ele>2019</ele>
        <time>2015-03-28T12:17:19.000Z</time>
      </trkpt>
      <trkpt lat="45.30502" lon="6.17044">
        <ele>2017.8000488281</ele>
        <time>2015-03-28T12:17:21.000Z</time>
      </trkpt>
      <trkpt lat="45.30502" lon="6.17049">
        <ele>2016.5999755859</ele>
        <time>2015-03-28T12:17:22.000Z</time>
      </trkpt>
      <trkpt lat="45.305" lon="6.17052">
        <ele>2014.5999755859</ele>
        <time>2015-03-28T12:17:23.000Z</time>
      </trkpt>
      <trkpt lat="45.30502" lon="6.17051">
        <ele>2012</ele>
        <time>2015-03-28T12:17:24.000Z</time>
      </trkpt>
      <trkpt lat="45.30503" lon="6.17052">
        <ele>2010</ele>
        <time>2015-03-28T12:17:25.000Z</time>
      </trkpt>
      <trkpt lat="45.30503" lon="6.17052">
        <ele>2008.8000488281</ele>
        <time>2015-03-28T12:17:26.000Z</time>
      </trkpt>
      <trkpt lat="45.30503" lon="6.17052">
        <ele>2007.5999755859</ele>
        <time>2015-03-28T12:17:28.000Z</time>
      </trkpt>
      <trkpt lat="45.30503" lon="6.17052">
        <ele>2007.1999511719</ele>
        <time>2015-03-28T12:17:33.000Z</time>
      </trkpt>
      <trkpt lat="45.30502" lon="6.17054">
        <ele>2007.1999511719</ele>
        <time>2015-03-28T12:17:46.000Z</time>
      </trkpt>
      <trkpt lat="45.30502" lon="6.17054">
        <ele>2006.8000488281</ele>
        <time>2015-03-28T12:18:05.000Z</time>
      </trkpt>
      <trkpt lat="45.30499" lon="6.17071">
        <ele>2006.5999755859</ele>
        <time>2015-03-28T12:18:11.000Z</time>
      </trkpt>
      <trkpt lat="45.30496" lon="6.1708">
        <ele>2006.5999755859</ele>
        <time>2015-03-28T12:18:12.000Z</time>
      </trkpt>
      <trkpt lat="45.30481" lon="6.17122">
        <ele>2004.8000488281</ele>
        <time>2015-03-28T12:18:15.000Z</time>
      </trkpt>
      <trkpt lat="45.30478" lon="6.1713">
        <ele>2003.1999511719</ele>
        <time>2015-03-28T12:18:16.000Z</time>
      </trkpt>
      <trkpt lat="45.30477" lon="6.17139">
        <ele>2000.8000488281</ele>
        <time>2015-03-28T12:18:17.000Z</time>
      </trkpt>
      <trkpt lat="45.30475" lon="6.17149">
        <ele>1999.5999755859</ele>
        <time>2015-03-28T12:18:18.000Z</time>
      </trkpt>
      <trkpt lat="45.30473" lon="6.17156">
        <ele>1997.8000488281</ele>
        <time>2015-03-28T12:18:19.000Z</time>
      </trkpt>
      <trkpt lat="45.30471" lon="6.17161">
        <ele>1995.1999511719</ele>
        <time>2015-03-28T12:18:20.000Z</time>
      </trkpt>
      <trkpt lat="45.30468" lon="6.17171">
        <ele>1992.8000488281</ele>
        <time>2015-03-28T12:18:21.000Z</time>
      </trkpt>
      <trkpt lat="45.30464" lon="6.17178">
        <ele>1991</ele>
        <time>2015-03-28T12:18:22.000Z</time>
      </trkpt>
      <trkpt lat="45.30461" lon="6.17187">
        <ele>1989.5999755859</ele>
        <time>2015-03-28T12:18:23.000Z</time>
      </trkpt>
      <trkpt lat="45.30463" lon="6.17191">
        <ele>1988</ele>
        <time>2015-03-28T12:18:24.000Z</time>
      </trkpt>
      <trkpt lat="45.30465" lon="6.17197">
        <ele>1985.8000488281</ele>
        <time>2015-03-28T12:18:25.000Z</time>
      </trkpt>
      <trkpt lat="45.30463" lon="6.17202">
        <ele>1983</ele>
        <time>2015-03-28T12:18:26.000Z</time>
      </trkpt>
      <trkpt lat="45.30461" lon="6.17203">
        <ele>1980.1999511719</ele>
        <time>2015-03-28T12:18:27.000Z</time>
      </trkpt>
      <trkpt lat="45.30459" lon="6.17206">
        <ele>1977.8000488281</ele>
        <time>2015-03-28T12:18:28.000Z</time>
      </trkpt>
      <trkpt lat="45.3046" lon="6.17206">
        <ele>1975.5999755859</ele>
        <time>2015-03-28T12:18:29.000Z</time>
      </trkpt>
      <trkpt lat="45.30462" lon="6.17206">
        <ele>1973.8000488281</ele>
        <time>2015-03-28T12:18:30.000Z</time>
      </trkpt>
      <trkpt lat="45.30464" lon="6.17206">
        <ele>1972</ele>
        <time>2015-03-28T12:18:31.000Z</time>
      </trkpt>
      <trkpt lat="45.30464" lon="6.17206">
        <ele>1969.4000244141</ele>
        <time>2015-03-28T12:18:32.000Z</time>
      </trkpt>
      <trkpt lat="45.30466" lon="6.17209">
        <ele>1966.8000488281</ele>
        <time>2015-03-28T12:18:33.000Z</time>
      </trkpt>
      <trkpt lat="45.30467" lon="6.17216">
        <ele>1964.8000488281</ele>
        <time>2015-03-28T12:18:34.000Z</time>
      </trkpt>
      <trkpt lat="45.30466" lon="6.17224">
        <ele>1963</ele>
        <time>2015-03-28T12:18:35.000Z</time>
      </trkpt>
      <trkpt lat="45.30463" lon="6.17233">
        <ele>1961</ele>
        <time>2015-03-28T12:18:36.000Z</time>
      </trkpt>
      <trkpt lat="45.30457" lon="6.1724">
        <ele>1958.4000244141</ele>
        <time>2015-03-28T12:18:37.000Z</time>
      </trkpt>
      <trkpt lat="45.30451" lon="6.17247">
        <ele>1955.5999755859</ele>
        <time>2015-03-28T12:18:38.000Z</time>
      </trkpt>
      <trkpt lat="45.30446" lon="6.17254">
        <ele>1953.1999511719</ele>
        <time>2015-03-28T12:18:39.000Z</time>
      </trkpt>
      <trkpt lat="45.30442" lon="6.17257">
        <ele>1951</ele>
        <time>2015-03-28T12:18:40.000Z</time>
      </trkpt>
      <trkpt lat="45.30438" lon="6.17265">
        <ele>1948.5999755859</ele>
        <time>2015-03-28T12:18:41.000Z</time>
      </trkpt>
      <trkpt lat="45.30437" lon="6.17273">
        <ele>1945.5999755859</ele>
        <time>2015-03-28T12:18:42.000Z</time>
      </trkpt>
      <trkpt lat="45.30436" lon="6.17281">
        <ele>1944.1999511719</ele>
        <time>2015-03-28T12:18:43.000Z</time>
      </trkpt>
      <trkpt lat="45.30437" lon="6.17286">
        <ele>1942.1999511719</ele>
        <time>2015-03-28T12:18:44.000Z</time>
      </trkpt>
      <trkpt lat="45.30438" lon="6.17294">
        <ele>1940.1999511719</ele>
        <time>2015-03-28T12:18:45.000Z</time>
      </trkpt>
      <trkpt lat="45.30441" lon="6.173">
        <ele>1938.5999755859</ele>
        <time>2015-03-28T12:18:46.000Z</time>
      </trkpt>
      <trkpt lat="45.30438" lon="6.17309">
        <ele>1937</ele>
        <time>2015-03-28T12:18:47.000Z</time>
      </trkpt>
      <trkpt lat="45.30437" lon="6.17318">
        <ele>1934.8000488281</ele>
        <time>2015-03-28T12:18:48.000Z</time>
      </trkpt>
      <trkpt lat="45.30433" lon="6.17328">
        <ele>1932.5999755859</ele>
        <time>2015-03-28T12:18:49.000Z</time>
      </trkpt>
      <trkpt lat="45.30429" lon="6.17337">
        <ele>1930.8000488281</ele>
        <time>2015-03-28T12:18:50.000Z</time>
      </trkpt>
      <trkpt lat="45.3043" lon="6.17338">
        <ele>1929.4000244141</ele>
        <time>2015-03-28T12:18:51.000Z</time>
      </trkpt>
      <trkpt lat="45.30431" lon="6.1734">
        <ele>1928</ele>
        <time>2015-03-28T12:18:52.000Z</time>
      </trkpt>
      <trkpt lat="45.30431" lon="6.17341">
        <ele>1926.5999755859</ele>
        <time>2015-03-28T12:18:53.000Z</time>
      </trkpt>
      <trkpt lat="45.30431" lon="6.17342">
        <ele>1925.5999755859</ele>
        <time>2015-03-28T12:18:54.000Z</time>
      </trkpt>
      <trkpt lat="45.30424" lon="6.17354">
        <ele>1924.4000244141</ele>
        <time>2015-03-28T12:18:57.000Z</time>
      </trkpt>
      <trkpt lat="45.30424" lon="6.17354">
        <ele>1924.4000244141</ele>
        <time>2015-03-28T12:18:58.000Z</time>
      </trkpt>
      <trkpt lat="45.30424" lon="6.17354">
        <ele>1924.1999511719</ele>
        <time>2015-03-28T12:19:15.000Z</time>
      </trkpt>
      <trkpt lat="45.30424" lon="6.17354">
        <ele>1924.1999511719</ele>
        <time>2015-03-28T12:19:27.000Z</time>
      </trkpt>
      <trkpt lat="45.30422" lon="6.17358">
        <ele>1924.1999511719</ele>
        <time>2015-03-28T12:19:45.000Z</time>
      </trkpt>
      <trkpt lat="45.30422" lon="6.17358">
        <ele>1924</ele>
        <time>2015-03-28T12:19:56.000Z</time>
      </trkpt>
      <trkpt lat="45.30419" lon="6.17364">
        <ele>1923.5999755859</ele>
        <time>2015-03-28T12:19:59.000Z</time>
      </trkpt>
      <trkpt lat="45.3042" lon="6.17365">
        <ele>1923.1999511719</ele>
        <time>2015-03-28T12:20:00.000Z</time>
      </trkpt>
      <trkpt lat="45.30421" lon="6.17369">
        <ele>1922.5999755859</ele>
        <time>2015-03-28T12:20:01.000Z</time>
      </trkpt>
      <trkpt lat="45.30423" lon="6.17371">
        <ele>1922.4000244141</ele>
        <time>2015-03-28T12:20:02.000Z</time>
      </trkpt>
      <trkpt lat="45.30427" lon="6.17372">
        <ele>1922</ele>
        <time>2015-03-28T12:20:03.000Z</time>
      </trkpt>
      <trkpt lat="45.30429" lon="6.17374">
        <ele>1921.5999755859</ele>
        <time>2015-03-28T12:20:04.000Z</time>
      </trkpt>
      <trkpt lat="45.30429" lon="6.17376">
        <ele>1920.1999511719</ele>
        <time>2015-03-28T12:20:05.000Z</time>
      </trkpt>
      <trkpt lat="45.30428" lon="6.17379">
        <ele>1918.4000244141</ele>
        <time>2015-03-28T12:20:06.000Z</time>
      </trkpt>
      <trkpt lat="45.30428" lon="6.17379">
        <ele>1916.8000488281</ele>
        <time>2015-03-28T12:20:07.000Z</time>
      </trkpt>
      <trkpt lat="45.30428" lon="6.17379">
        <ele>1915.5999755859</ele>
        <time>2015-03-28T12:20:08.000Z</time>
      </trkpt>
      <trkpt lat="45.30428" lon="6.17379">
        <ele>1914.1999511719</ele>
        <time>2015-03-28T12:20:10.000Z</time>
      </trkpt>
      <trkpt lat="45.30425" lon="6.17385">
        <ele>1913.5999755859</ele>
        <time>2015-03-28T12:20:11.000Z</time>
      </trkpt>
      <trkpt lat="45.30423" lon="6.17393">
        <ele>1913</ele>
        <time>2015-03-28T12:20:13.000Z</time>
      </trkpt>
      <trkpt lat="45.30416" lon="6.17401">
        <ele>1912.5999755859</ele>
        <time>2015-03-28T12:20:14.000Z</time>
      </trkpt>
      <trkpt lat="45.30406" lon="6.17411">
        <ele>1910.5999755859</ele>
        <time>2015-03-28T12:20:16.000Z</time>
      </trkpt>
      <trkpt lat="45.30405" lon="6.17415">
        <ele>1908.5999755859</ele>
        <time>2015-03-28T12:20:17.000Z</time>
      </trkpt>
      <trkpt lat="45.30404" lon="6.17419">
        <ele>1905</ele>
        <time>2015-03-28T12:20:18.000Z</time>
      </trkpt>
      <trkpt lat="45.30396" lon="6.17426">
        <ele>1903.1999511719</ele>
        <time>2015-03-28T12:20:20.000Z</time>
      </trkpt>
      <trkpt lat="45.30392" lon="6.17425">
        <ele>1901.4000244141</ele>
        <time>2015-03-28T12:20:21.000Z</time>
      </trkpt>
      <trkpt lat="45.30386" lon="6.17427">
        <ele>1899.1999511719</ele>
        <time>2015-03-28T12:20:22.000Z</time>
      </trkpt>
      <trkpt lat="45.30381" lon="6.17428">
        <ele>1897</ele>
        <time>2015-03-28T12:20:23.000Z</time>
      </trkpt>
      <trkpt lat="45.30377" lon="6.17431">
        <ele>1895.4000244141</ele>
        <time>2015-03-28T12:20:24.000Z</time>
      </trkpt>
      <trkpt lat="45.30371" lon="6.17436">
        <ele>1894</ele>
        <time>2015-03-28T12:20:25.000Z</time>
      </trkpt>
      <trkpt lat="45.30364" lon="6.17439">
        <ele>1892.4000244141</ele>
        <time>2015-03-28T12:20:26.000Z</time>
      </trkpt>
      <trkpt lat="45.3036" lon="6.17441">
        <ele>1889.8000488281</ele>
        <time>2015-03-28T12:20:27.000Z</time>
      </trkpt>
      <trkpt lat="45.30356" lon="6.17443">
        <ele>1887</ele>
        <time>2015-03-28T12:20:28.000Z</time>
      </trkpt>
      <trkpt lat="45.30352" lon="6.17444">
        <ele>1884.4000244141</ele>
        <time>2015-03-28T12:20:29.000Z</time>
      </trkpt>
      <trkpt lat="45.3035" lon="6.17447">
        <ele>1882.5999755859</ele>
        <time>2015-03-28T12:20:30.000Z</time>
      </trkpt>
      <trkpt lat="45.30347" lon="6.17451">
        <ele>1880.8000488281</ele>
        <time>2015-03-28T12:20:31.000Z</time>
      </trkpt>
      <trkpt lat="45.30343" lon="6.17453">
        <ele>1878.5999755859</ele>
        <time>2015-03-28T12:20:32.000Z</time>
      </trkpt>
      <trkpt lat="45.30339" lon="6.17456">
        <ele>1875.8000488281</ele>
        <time>2015-03-28T12:20:33.000Z</time>
      </trkpt>
      <trkpt lat="45.30335" lon="6.1746">
        <ele>1873.4000244141</ele>
        <time>2015-03-28T12:20:34.000Z</time>
      </trkpt>
      <trkpt lat="45.30331" lon="6.17465">
        <ele>1871.5999755859</ele>
        <time>2015-03-28T12:20:35.000Z</time>
      </trkpt>
      <trkpt lat="45.30328" lon="6.1747">
        <ele>1870.4000244141</ele>
        <time>2015-03-28T12:20:36.000Z</time>
      </trkpt>
      <trkpt lat="45.30325" lon="6.17475">
        <ele>1868.5999755859</ele>
        <time>2015-03-28T12:20:37.000Z</time>
      </trkpt>
      <trkpt lat="45.30323" lon="6.1748">
        <ele>1866.4000244141</ele>
        <time>2015-03-28T12:20:38.000Z</time>
      </trkpt>
      <trkpt lat="45.30322" lon="6.17485">
        <ele>1864</ele>
        <time>2015-03-28T12:20:39.000Z</time>
      </trkpt>
      <trkpt lat="45.30319" lon="6.1749">
        <ele>1861.8000488281</ele>
        <time>2015-03-28T12:20:40.000Z</time>
      </trkpt>
      <trkpt lat="45.30316" lon="6.17494">
        <ele>1859.5999755859</ele>
        <time>2015-03-28T12:20:41.000Z</time>
      </trkpt>
      <trkpt lat="45.30312" lon="6.17496">
        <ele>1853.8000488281</ele>
        <time>2015-03-28T12:20:42.000Z</time>
      </trkpt>
      <trkpt lat="45.30309" lon="6.17499">
        <ele>1851</ele>
        <time>2015-03-28T12:20:43.000Z</time>
      </trkpt>
      <trkpt lat="45.30307" lon="6.17504">
        <ele>1848.8000488281</ele>
        <time>2015-03-28T12:20:44.000Z</time>
      </trkpt>
      <trkpt lat="45.30305" lon="6.17508">
        <ele>1846.5999755859</ele>
        <time>2015-03-28T12:20:45.000Z</time>
      </trkpt>
      <trkpt lat="45.30305" lon="6.17514">
        <ele>1843.5999755859</ele>
        <time>2015-03-28T12:20:46.000Z</time>
      </trkpt>
      <trkpt lat="45.30304" lon="6.17517">
        <ele>1840.4000244141</ele>
        <time>2015-03-28T12:20:47.000Z</time>
      </trkpt>
      <trkpt lat="45.30302" lon="6.17519">
        <ele>1837.8000488281</ele>
        <time>2015-03-28T12:20:48.000Z</time>
      </trkpt>
      <trkpt lat="45.30301" lon="6.17522">
        <ele>1835.8000488281</ele>
        <time>2015-03-28T12:20:49.000Z</time>
      </trkpt>
      <trkpt lat="45.303" lon="6.17524">
        <ele>1834.1999511719</ele>
        <time>2015-03-28T12:20:50.000Z</time>
      </trkpt>
      <trkpt lat="45.303" lon="6.17526">
        <ele>1832.5999755859</ele>
        <time>2015-03-28T12:20:51.000Z</time>
      </trkpt>
      <trkpt lat="45.303" lon="6.17526">
        <ele>1830.8000488281</ele>
        <time>2015-03-28T12:20:52.000Z</time>
      </trkpt>
      <trkpt lat="45.303" lon="6.17526">
        <ele>1829.5999755859</ele>
        <time>2015-03-28T12:20:53.000Z</time>
      </trkpt>
      <trkpt lat="45.30301" lon="6.17525">
        <ele>1828.5999755859</ele>
        <time>2015-03-28T12:20:55.000Z</time>
      </trkpt>
      <trkpt lat="45.30301" lon="6.17525">
        <ele>1828.1999511719</ele>
        <time>2015-03-28T12:21:00.000Z</time>
      </trkpt>
      <trkpt lat="45.30301" lon="6.17525">
        <ele>1828.1999511719</ele>
        <time>2015-03-28T12:21:13.000Z</time>
      </trkpt>
      <trkpt lat="45.30307" lon="6.17516">
        <ele>1828</ele>
        <time>2015-03-28T12:21:24.000Z</time>
      </trkpt>
      <trkpt lat="45.30307" lon="6.17516">
        <ele>1828</ele>
        <time>2015-03-28T12:21:40.000Z</time>
      </trkpt>
      <trkpt lat="45.30303" lon="6.17516">
        <ele>1828.1999511719</ele>
        <time>2015-03-28T12:21:53.000Z</time>
      </trkpt>
      <trkpt lat="45.30297" lon="6.17513">
        <ele>1827.1999511719</ele>
        <time>2015-03-28T12:21:55.000Z</time>
      </trkpt>
      <trkpt lat="45.30294" lon="6.17513">
        <ele>1826.4000244141</ele>
        <time>2015-03-28T12:21:56.000Z</time>
      </trkpt>
      <trkpt lat="45.30293" lon="6.17515">
        <ele>1825.8000488281</ele>
        <time>2015-03-28T12:21:57.000Z</time>
      </trkpt>
      <trkpt lat="45.30285" lon="6.1752">
        <ele>1823.8000488281</ele>
        <time>2015-03-28T12:21:59.000Z</time>
      </trkpt>
      <trkpt lat="45.3028" lon="6.17522">
        <ele>1821.4000244141</ele>
        <time>2015-03-28T12:22:00.000Z</time>
      </trkpt>
      <trkpt lat="45.30274" lon="6.17526">
        <ele>1818.8000488281</ele>
        <time>2015-03-28T12:22:01.000Z</time>
      </trkpt>
      <trkpt lat="45.3027" lon="6.17531">
        <ele>1816.5999755859</ele>
        <time>2015-03-28T12:22:02.000Z</time>
      </trkpt>
      <trkpt lat="45.30266" lon="6.17538">
        <ele>1814.5999755859</ele>
        <time>2015-03-28T12:22:03.000Z</time>
      </trkpt>
      <trkpt lat="45.30264" lon="6.17546">
        <ele>1812.1999511719</ele>
        <time>2015-03-28T12:22:04.000Z</time>
      </trkpt>
      <trkpt lat="45.3026" lon="6.17554">
        <ele>1809.1999511719</ele>
        <time>2015-03-28T12:22:05.000Z</time>
      </trkpt>
      <trkpt lat="45.30257" lon="6.17562">
        <ele>1806.1999511719</ele>
        <time>2015-03-28T12:22:06.000Z</time>
      </trkpt>
      <trkpt lat="45.30255" lon="6.17568">
        <ele>1803</ele>
        <time>2015-03-28T12:22:07.000Z</time>
      </trkpt>
      <trkpt lat="45.30252" lon="6.17573">
        <ele>1800.1999511719</ele>
        <time>2015-03-28T12:22:08.000Z</time>
      </trkpt>
      <trkpt lat="45.30246" lon="6.17578">
        <ele>1797.5999755859</ele>
        <time>2015-03-28T12:22:09.000Z</time>
      </trkpt>
      <trkpt lat="45.3024" lon="6.17584">
        <ele>1795.4000244141</ele>
        <time>2015-03-28T12:22:10.000Z</time>
      </trkpt>
      <trkpt lat="45.30233" lon="6.17592">
        <ele>1793</ele>
        <time>2015-03-28T12:22:11.000Z</time>
      </trkpt>
      <trkpt lat="45.30219" lon="6.17605">
        <ele>1786</ele>
        <time>2015-03-28T12:22:13.000Z</time>
      </trkpt>
      <trkpt lat="45.30212" lon="6.1761">
        <ele>1782.4000244141</ele>
        <time>2015-03-28T12:22:14.000Z</time>
      </trkpt>
      <trkpt lat="45.30205" lon="6.17615">
        <ele>1779.8000488281</ele>
        <time>2015-03-28T12:22:15.000Z</time>
      </trkpt>
      <trkpt lat="45.30197" lon="6.17622">
        <ele>1778</ele>
        <time>2015-03-28T12:22:16.000Z</time>
      </trkpt>
      <trkpt lat="45.30194" lon="6.17622">
        <ele>1776.8000488281</ele>
        <time>2015-03-28T12:22:17.000Z</time>
      </trkpt>
      <trkpt lat="45.30191" lon="6.17623">
        <ele>1774.5999755859</ele>
        <time>2015-03-28T12:22:18.000Z</time>
      </trkpt>
      <trkpt lat="45.30186" lon="6.1763">
        <ele>1773.1999511719</ele>
        <time>2015-03-28T12:22:20.000Z</time>
      </trkpt>
      <trkpt lat="45.30179" lon="6.17636">
        <ele>1772.5999755859</ele>
        <time>2015-03-28T12:22:22.000Z</time>
      </trkpt>
      <trkpt lat="45.30176" lon="6.17638">
        <ele>1772.1999511719</ele>
        <time>2015-03-28T12:22:23.000Z</time>
      </trkpt>
      <trkpt lat="45.30166" lon="6.17639">
        <ele>1770.4000244141</ele>
        <time>2015-03-28T12:22:26.000Z</time>
      </trkpt>
      <trkpt lat="45.30164" lon="6.17642">
        <ele>1769.8000488281</ele>
        <time>2015-03-28T12:22:27.000Z</time>
      </trkpt>
      <trkpt lat="45.30161" lon="6.17646">
        <ele>1768.5999755859</ele>
        <time>2015-03-28T12:22:30.000Z</time>
      </trkpt>
      <trkpt lat="45.30163" lon="6.17648">
        <ele>1767.4000244141</ele>
        <time>2015-03-28T12:22:33.000Z</time>
      </trkpt>
      <trkpt lat="45.30163" lon="6.17648">
        <ele>1767</ele>
        <time>2015-03-28T12:22:36.000Z</time>
      </trkpt>
      <trkpt lat="45.30165" lon="6.17652">
        <ele>1768.4000244141</ele>
        <time>2015-03-28T12:22:40.000Z</time>
      </trkpt>
      <trkpt lat="45.30165" lon="6.17653">
        <ele>1768.5999755859</ele>
        <time>2015-03-28T12:22:41.000Z</time>
      </trkpt>
      <trkpt lat="45.30165" lon="6.17655">
        <ele>1768.1999511719</ele>
        <time>2015-03-28T12:22:47.000Z</time>
      </trkpt>
      <trkpt lat="45.30164" lon="6.17655">
        <ele>1768</ele>
        <time>2015-03-28T12:22:57.000Z</time>
      </trkpt>
      <trkpt lat="45.30164" lon="6.17655">
        <ele>1768</ele>
        <time>2015-03-28T12:23:11.000Z</time>
      </trkpt>
      <trkpt lat="45.30164" lon="6.17655">
        <ele>1767.8000488281</ele>
        <time>2015-03-28T12:23:26.000Z</time>
      </trkpt>
      <trkpt lat="45.30164" lon="6.17655">
        <ele>1768.1999511719</ele>
        <time>2015-03-28T12:23:39.000Z</time>
      </trkpt>
      <trkpt lat="45.30165" lon="6.17655">
        <ele>1768.1999511719</ele>
        <time>2015-03-28T12:23:51.000Z</time>
      </trkpt>
      <trkpt lat="45.30164" lon="6.17656">
        <ele>1767.5999755859</ele>
        <time>2015-03-28T12:24:06.000Z</time>
      </trkpt>
      <trkpt lat="45.30164" lon="6.17656">
        <ele>1768.1999511719</ele>
        <time>2015-03-28T12:24:20.000Z</time>
      </trkpt>
      <trkpt lat="45.30164" lon="6.17656">
        <ele>1768</ele>
        <time>2015-03-28T12:24:21.000Z</time>
      </trkpt>
      <trkpt lat="45.30164" lon="6.17656">
        <ele>1768</ele>
        <time>2015-03-28T12:24:37.000Z</time>
      </trkpt>
      <trkpt lat="45.30163" lon="6.17657">
        <ele>1768</ele>
        <time>2015-03-28T12:24:49.000Z</time>
      </trkpt>
      <trkpt lat="45.30163" lon="6.17657">
        <ele>1767.8000488281</ele>
        <time>2015-03-28T12:25:05.000Z</time>
      </trkpt>
      <trkpt lat="45.30163" lon="6.17657">
        <ele>1767.8000488281</ele>
        <time>2015-03-28T12:25:22.000Z</time>
      </trkpt>
      <trkpt lat="45.30165" lon="6.17657">
        <ele>1767.8000488281</ele>
        <time>2015-03-28T12:25:32.000Z</time>
      </trkpt>
      <trkpt lat="45.30165" lon="6.17657">
        <ele>1768</ele>
        <time>2015-03-28T12:25:46.000Z</time>
      </trkpt>
      <trkpt lat="45.30165" lon="6.17657">
        <ele>1767.8000488281</ele>
        <time>2015-03-28T12:25:59.000Z</time>
      </trkpt>
      <trkpt lat="45.30164" lon="6.17658">
        <ele>1767.8000488281</ele>
        <time>2015-03-28T12:26:12.000Z</time>
      </trkpt>
      <trkpt lat="45.30164" lon="6.17658">
        <ele>1767.8000488281</ele>
        <time>2015-03-28T12:26:24.000Z</time>
      </trkpt>
      <trkpt lat="45.30164" lon="6.17658">
        <ele>1767.8000488281</ele>
        <time>2015-03-28T12:26:34.000Z</time>
      </trkpt>
      <trkpt lat="45.30164" lon="6.17658">
        <ele>1767.8000488281</ele>
        <time>2015-03-28T12:26:46.000Z</time>
      </trkpt>
      <trkpt lat="45.30164" lon="6.17658">
        <ele>1767.8000488281</ele>
        <time>2015-03-28T12:27:06.000Z</time>
      </trkpt>
      <trkpt lat="45.30164" lon="6.17658">
        <ele>1767.5999755859</ele>
        <time>2015-03-28T12:27:21.000Z</time>
      </trkpt>
      <trkpt lat="45.30165" lon="6.17658">
        <ele>1767.5999755859</ele>
        <time>2015-03-28T12:27:41.000Z</time>
      </trkpt>
      <trkpt lat="45.30165" lon="6.17658">
        <ele>1767.5999755859</ele>
        <time>2015-03-28T12:27:49.000Z</time>
      </trkpt>
      <trkpt lat="45.30165" lon="6.17658">
        <ele>1767.8000488281</ele>
        <time>2015-03-28T12:27:55.000Z</time>
      </trkpt>
      <trkpt lat="45.30165" lon="6.17657">
        <ele>1767.8000488281</ele>
        <time>2015-03-28T12:28:10.000Z</time>
      </trkpt>
      <trkpt lat="45.30165" lon="6.17657">
        <ele>1767.8000488281</ele>
        <time>2015-03-28T12:28:24.000Z</time>
      </trkpt>
      <trkpt lat="45.30163" lon="6.17663">
        <ele>1767.8000488281</ele>
        <time>2015-03-28T12:28:33.000Z</time>
      </trkpt>
      <trkpt lat="45.30162" lon="6.17664">
        <ele>1767.4000244141</ele>
        <time>2015-03-28T12:28:38.000Z</time>
      </trkpt>
      <trkpt lat="45.30162" lon="6.17664">
        <ele>1767.4000244141</ele>
        <time>2015-03-28T12:28:41.000Z</time>
      </trkpt>
      <trkpt lat="45.3016" lon="6.17665">
        <ele>1767.4000244141</ele>
        <time>2015-03-28T12:28:42.000Z</time>
      </trkpt>
      <trkpt lat="45.30155" lon="6.17664">
        <ele>1767.4000244141</ele>
        <time>2015-03-28T12:28:45.000Z</time>
      </trkpt>
      <trkpt lat="45.30153" lon="6.17665">
        <ele>1767.1999511719</ele>
        <time>2015-03-28T12:28:47.000Z</time>
      </trkpt>
      <trkpt lat="45.30151" lon="6.17672">
        <ele>1767.1999511719</ele>
        <time>2015-03-28T12:28:49.000Z</time>
      </trkpt>
      <trkpt lat="45.30148" lon="6.17683">
        <ele>1765.8000488281</ele>
        <time>2015-03-28T12:28:52.000Z</time>
      </trkpt>
      <trkpt lat="45.30146" lon="6.17691">
        <ele>1764.5999755859</ele>
        <time>2015-03-28T12:28:54.000Z</time>
      </trkpt>
      <trkpt lat="45.30143" lon="6.17701">
        <ele>1763.8000488281</ele>
        <time>2015-03-28T12:28:56.000Z</time>
      </trkpt>
      <trkpt lat="45.30141" lon="6.17707">
        <ele>1763.5999755859</ele>
        <time>2015-03-28T12:28:57.000Z</time>
      </trkpt>
      <trkpt lat="45.30138" lon="6.17711">
        <ele>1763</ele>
        <time>2015-03-28T12:28:58.000Z</time>
      </trkpt>
      <trkpt lat="45.30135" lon="6.17715">
        <ele>1762.4000244141</ele>
        <time>2015-03-28T12:28:59.000Z</time>
      </trkpt>
      <trkpt lat="45.30132" lon="6.17718">
        <ele>1761.8000488281</ele>
        <time>2015-03-28T12:29:00.000Z</time>
      </trkpt>
      <trkpt lat="45.3013" lon="6.17721">
        <ele>1761</ele>
        <time>2015-03-28T12:29:01.000Z</time>
      </trkpt>
      <trkpt lat="45.30125" lon="6.17728">
        <ele>1759.8000488281</ele>
        <time>2015-03-28T12:29:03.000Z</time>
      </trkpt>
      <trkpt lat="45.3012" lon="6.17733">
        <ele>1759.1999511719</ele>
        <time>2015-03-28T12:29:05.000Z</time>
      </trkpt>
      <trkpt lat="45.30117" lon="6.17736">
        <ele>1758.8000488281</ele>
        <time>2015-03-28T12:29:06.000Z</time>
      </trkpt>
      <trkpt lat="45.3011" lon="6.17741">
        <ele>1757.5999755859</ele>
        <time>2015-03-28T12:29:08.000Z</time>
      </trkpt>
      <trkpt lat="45.30107" lon="6.17749">
        <ele>1756.5999755859</ele>
        <time>2015-03-28T12:29:10.000Z</time>
      </trkpt>
      <trkpt lat="45.30106" lon="6.17755">
        <ele>1755.8000488281</ele>
        <time>2015-03-28T12:29:14.000Z</time>
      </trkpt>
      <trkpt lat="45.30106" lon="6.1776">
        <ele>1755.8000488281</ele>
        <time>2015-03-28T12:29:16.000Z</time>
      </trkpt>
      <trkpt lat="45.30105" lon="6.17768">
        <ele>1755.4000244141</ele>
        <time>2015-03-28T12:29:19.000Z</time>
      </trkpt>
      <trkpt lat="45.30103" lon="6.17776">
        <ele>1754</ele>
        <time>2015-03-28T12:29:21.000Z</time>
      </trkpt>
      <trkpt lat="45.30103" lon="6.17782">
        <ele>1753</ele>
        <time>2015-03-28T12:29:23.000Z</time>
      </trkpt>
      <trkpt lat="45.30103" lon="6.17792">
        <ele>1752.1999511719</ele>
        <time>2015-03-28T12:29:26.000Z</time>
      </trkpt>
      <trkpt lat="45.30103" lon="6.17794">
        <ele>1752</ele>
        <time>2015-03-28T12:29:27.000Z</time>
      </trkpt>
      <trkpt lat="45.30104" lon="6.17803">
        <ele>1751</ele>
        <time>2015-03-28T12:29:30.000Z</time>
      </trkpt>
      <trkpt lat="45.30102" lon="6.17811">
        <ele>1749.5999755859</ele>
        <time>2015-03-28T12:29:33.000Z</time>
      </trkpt>
      <trkpt lat="45.301" lon="6.17818">
        <ele>1748.5999755859</ele>
        <time>2015-03-28T12:29:36.000Z</time>
      </trkpt>
      <trkpt lat="45.30099" lon="6.17828">
        <ele>1748</ele>
        <time>2015-03-28T12:29:39.000Z</time>
      </trkpt>
      <trkpt lat="45.30098" lon="6.17835">
        <ele>1747.1999511719</ele>
        <time>2015-03-28T12:29:41.000Z</time>
      </trkpt>
      <trkpt lat="45.30096" lon="6.17843">
        <ele>1746</ele>
        <time>2015-03-28T12:29:43.000Z</time>
      </trkpt>
      <trkpt lat="45.30094" lon="6.17853">
        <ele>1744.5999755859</ele>
        <time>2015-03-28T12:29:45.000Z</time>
      </trkpt>
      <trkpt lat="45.30093" lon="6.17857">
        <ele>1744</ele>
        <time>2015-03-28T12:29:46.000Z</time>
      </trkpt>
      <trkpt lat="45.30091" lon="6.17862">
        <ele>1743.4000244141</ele>
        <time>2015-03-28T12:29:47.000Z</time>
      </trkpt>
      <trkpt lat="45.3009" lon="6.17871">
        <ele>1742.4000244141</ele>
        <time>2015-03-28T12:29:49.000Z</time>
      </trkpt>
      <trkpt lat="45.3009" lon="6.17884">
        <ele>1741.1999511719</ele>
        <time>2015-03-28T12:29:52.000Z</time>
      </trkpt>
      <trkpt lat="45.3009" lon="6.17902">
        <ele>1739</ele>
        <time>2015-03-28T12:29:55.000Z</time>
      </trkpt>
      <trkpt lat="45.30089" lon="6.17915">
        <ele>1737.1999511719</ele>
        <time>2015-03-28T12:29:57.000Z</time>
      </trkpt>
      <trkpt lat="45.30088" lon="6.17922">
        <ele>1736.1999511719</ele>
        <time>2015-03-28T12:29:58.000Z</time>
      </trkpt>
      <trkpt lat="45.30087" lon="6.17928">
        <ele>1735</ele>
        <time>2015-03-28T12:29:59.000Z</time>
      </trkpt>
      <trkpt lat="45.30087" lon="6.17939">
        <ele>1733.4000244141</ele>
        <time>2015-03-28T12:30:01.000Z</time>
      </trkpt>
      <trkpt lat="45.30085" lon="6.1795">
        <ele>1732.4000244141</ele>
        <time>2015-03-28T12:30:03.000Z</time>
      </trkpt>
      <trkpt lat="45.30084" lon="6.17956">
        <ele>1731.8000488281</ele>
        <time>2015-03-28T12:30:04.000Z</time>
      </trkpt>
      <trkpt lat="45.30083" lon="6.17968">
        <ele>1730.1999511719</ele>
        <time>2015-03-28T12:30:06.000Z</time>
      </trkpt>
      <trkpt lat="45.30082" lon="6.1798">
        <ele>1728.8000488281</ele>
        <time>2015-03-28T12:30:08.000Z</time>
      </trkpt>
      <trkpt lat="45.30081" lon="6.17986">
        <ele>1727.8000488281</ele>
        <time>2015-03-28T12:30:09.000Z</time>
      </trkpt>
      <trkpt lat="45.30079" lon="6.17992">
        <ele>1726.8000488281</ele>
        <time>2015-03-28T12:30:10.000Z</time>
      </trkpt>
      <trkpt lat="45.30077" lon="6.18005">
        <ele>1725.1999511719</ele>
        <time>2015-03-28T12:30:12.000Z</time>
      </trkpt>
      <trkpt lat="45.30075" lon="6.1802">
        <ele>1723</ele>
        <time>2015-03-28T12:30:14.000Z</time>
      </trkpt>
      <trkpt lat="45.30073" lon="6.18027">
        <ele>1721.8000488281</ele>
        <time>2015-03-28T12:30:15.000Z</time>
      </trkpt>
      <trkpt lat="45.30071" lon="6.18033">
        <ele>1720.5999755859</ele>
        <time>2015-03-28T12:30:16.000Z</time>
      </trkpt>
      <trkpt lat="45.30069" lon="6.18039">
        <ele>1719</ele>
        <time>2015-03-28T12:30:17.000Z</time>
      </trkpt>
      <trkpt lat="45.30067" lon="6.18046">
        <ele>1717.5999755859</ele>
        <time>2015-03-28T12:30:18.000Z</time>
      </trkpt>
      <trkpt lat="45.30065" lon="6.18053">
        <ele>1715.4000244141</ele>
        <time>2015-03-28T12:30:19.000Z</time>
      </trkpt>
      <trkpt lat="45.30064" lon="6.1806">
        <ele>1714.4000244141</ele>
        <time>2015-03-28T12:30:20.000Z</time>
      </trkpt>
      <trkpt lat="45.30065" lon="6.18068">
        <ele>1713.1999511719</ele>
        <time>2015-03-28T12:30:21.000Z</time>
      </trkpt>
      <trkpt lat="45.30066" lon="6.18076">
        <ele>1712</ele>
        <time>2015-03-28T12:30:22.000Z</time>
      </trkpt>
      <trkpt lat="45.30067" lon="6.18084">
        <ele>1710.4000244141</ele>
        <time>2015-03-28T12:30:23.000Z</time>
      </trkpt>
      <trkpt lat="45.30066" lon="6.18091">
        <ele>1708.1999511719</ele>
        <time>2015-03-28T12:30:24.000Z</time>
      </trkpt>
      <trkpt lat="45.30065" lon="6.18098">
        <ele>1706.1999511719</ele>
        <time>2015-03-28T12:30:25.000Z</time>
      </trkpt>
      <trkpt lat="45.30064" lon="6.18106">
        <ele>1704.4000244141</ele>
        <time>2015-03-28T12:30:26.000Z</time>
      </trkpt>
      <trkpt lat="45.30062" lon="6.18116">
        <ele>1702.4000244141</ele>
        <time>2015-03-28T12:30:27.000Z</time>
      </trkpt>
      <trkpt lat="45.30062" lon="6.18127">
        <ele>1700.1999511719</ele>
        <time>2015-03-28T12:30:28.000Z</time>
      </trkpt>
      <trkpt lat="45.30062" lon="6.18138">
        <ele>1697.8000488281</ele>
        <time>2015-03-28T12:30:29.000Z</time>
      </trkpt>
      <trkpt lat="45.30063" lon="6.1815">
        <ele>1695.1999511719</ele>
        <time>2015-03-28T12:30:30.000Z</time>
      </trkpt>
      <trkpt lat="45.30063" lon="6.18162">
        <ele>1693</ele>
        <time>2015-03-28T12:30:31.000Z</time>
      </trkpt>
      <trkpt lat="45.30062" lon="6.18174">
        <ele>1690.5999755859</ele>
        <time>2015-03-28T12:30:32.000Z</time>
      </trkpt>
      <trkpt lat="45.3006" lon="6.18186">
        <ele>1688.1999511719</ele>
        <time>2015-03-28T12:30:33.000Z</time>
      </trkpt>
      <trkpt lat="45.30058" lon="6.18196">
        <ele>1685.8000488281</ele>
        <time>2015-03-28T12:30:34.000Z</time>
      </trkpt>
      <trkpt lat="45.30057" lon="6.18204">
        <ele>1683.8000488281</ele>
        <time>2015-03-28T12:30:35.000Z</time>
      </trkpt>
      <trkpt lat="45.30057" lon="6.18212">
        <ele>1682</ele>
        <time>2015-03-28T12:30:36.000Z</time>
      </trkpt>
      <trkpt lat="45.30057" lon="6.18219">
        <ele>1680.4000244141</ele>
        <time>2015-03-28T12:30:37.000Z</time>
      </trkpt>
      <trkpt lat="45.30057" lon="6.18226">
        <ele>1679.1999511719</ele>
        <time>2015-03-28T12:30:38.000Z</time>
      </trkpt>
      <trkpt lat="45.30056" lon="6.18236">
        <ele>1677.8000488281</ele>
        <time>2015-03-28T12:30:40.000Z</time>
      </trkpt>
      <trkpt lat="45.30056" lon="6.18241">
        <ele>1677.1999511719</ele>
        <time>2015-03-28T12:30:41.000Z</time>
      </trkpt>
      <trkpt lat="45.30055" lon="6.18248">
        <ele>1676.1999511719</ele>
        <time>2015-03-28T12:30:43.000Z</time>
      </trkpt>
      <trkpt lat="45.30056" lon="6.18252">
        <ele>1675.8000488281</ele>
        <time>2015-03-28T12:30:44.000Z</time>
      </trkpt>
      <trkpt lat="45.30058" lon="6.18256">
        <ele>1675</ele>
        <time>2015-03-28T12:30:45.000Z</time>
      </trkpt>
      <trkpt lat="45.30064" lon="6.18273">
        <ele>1673</ele>
        <time>2015-03-28T12:30:48.000Z</time>
      </trkpt>
      <trkpt lat="45.30064" lon="6.1828">
        <ele>1671.1999511719</ele>
        <time>2015-03-28T12:30:49.000Z</time>
      </trkpt>
      <trkpt lat="45.30062" lon="6.18286">
        <ele>1669.1999511719</ele>
        <time>2015-03-28T12:30:50.000Z</time>
      </trkpt>
      <trkpt lat="45.30061" lon="6.18291">
        <ele>1667.1999511719</ele>
        <time>2015-03-28T12:30:51.000Z</time>
      </trkpt>
      <trkpt lat="45.30061" lon="6.18295">
        <ele>1665.5999755859</ele>
        <time>2015-03-28T12:30:52.000Z</time>
      </trkpt>
      <trkpt lat="45.30062" lon="6.18299">
        <ele>1664.4000244141</ele>
        <time>2015-03-28T12:30:53.000Z</time>
      </trkpt>
      <trkpt lat="45.30064" lon="6.18308">
        <ele>1663</ele>
        <time>2015-03-28T12:30:55.000Z</time>
      </trkpt>
      <trkpt lat="45.30064" lon="6.18324">
        <ele>1661</ele>
        <time>2015-03-28T12:30:57.000Z</time>
      </trkpt>
      <trkpt lat="45.30065" lon="6.18331">
        <ele>1659</ele>
        <time>2015-03-28T12:30:58.000Z</time>
      </trkpt>
      <trkpt lat="45.30067" lon="6.18338">
        <ele>1657.1999511719</ele>
        <time>2015-03-28T12:30:59.000Z</time>
      </trkpt>
      <trkpt lat="45.3007" lon="6.18344">
        <ele>1655.8000488281</ele>
        <time>2015-03-28T12:31:00.000Z</time>
      </trkpt>
      <trkpt lat="45.30073" lon="6.18351">
        <ele>1655</ele>
        <time>2015-03-28T12:31:01.000Z</time>
      </trkpt>
      <trkpt lat="45.30076" lon="6.18358">
        <ele>1654.1999511719</ele>
        <time>2015-03-28T12:31:02.000Z</time>
      </trkpt>
      <trkpt lat="45.3008" lon="6.18367">
        <ele>1653.1999511719</ele>
        <time>2015-03-28T12:31:03.000Z</time>
      </trkpt>
      <trkpt lat="45.30083" lon="6.18376">
        <ele>1652</ele>
        <time>2015-03-28T12:31:04.000Z</time>
      </trkpt>
      <trkpt lat="45.30085" lon="6.18384">
        <ele>1650.5999755859</ele>
        <time>2015-03-28T12:31:05.000Z</time>
      </trkpt>
      <trkpt lat="45.30088" lon="6.18392">
        <ele>1649</ele>
        <time>2015-03-28T12:31:06.000Z</time>
      </trkpt>
      <trkpt lat="45.30089" lon="6.18401">
        <ele>1645.5999755859</ele>
        <time>2015-03-28T12:31:07.000Z</time>
      </trkpt>
      <trkpt lat="45.30088" lon="6.18407">
        <ele>1644.5999755859</ele>
        <time>2015-03-28T12:31:08.000Z</time>
      </trkpt>
      <trkpt lat="45.30086" lon="6.18413">
        <ele>1643.4000244141</ele>
        <time>2015-03-28T12:31:09.000Z</time>
      </trkpt>
      <trkpt lat="45.30085" lon="6.18417">
        <ele>1642</ele>
        <time>2015-03-28T12:31:10.000Z</time>
      </trkpt>
      <trkpt lat="45.30083" lon="6.1842">
        <ele>1640.5999755859</ele>
        <time>2015-03-28T12:31:11.000Z</time>
      </trkpt>
      <trkpt lat="45.30082" lon="6.18424">
        <ele>1639.1999511719</ele>
        <time>2015-03-28T12:31:13.000Z</time>
      </trkpt>
      <trkpt lat="45.30082" lon="6.18424">
        <ele>1639.1999511719</ele>
        <time>2015-03-28T12:31:19.000Z</time>
      </trkpt>
      <trkpt lat="45.30084" lon="6.18428">
        <ele>1639</ele>
        <time>2015-03-28T12:31:25.000Z</time>
      </trkpt>
      <trkpt lat="45.30085" lon="6.18431">
        <ele>1639</ele>
        <time>2015-03-28T12:31:26.000Z</time>
      </trkpt>
      <trkpt lat="45.30094" lon="6.1845">
        <ele>1638.4000244141</ele>
        <time>2015-03-28T12:31:30.000Z</time>
      </trkpt>
      <trkpt lat="45.30095" lon="6.18456">
        <ele>1636.5999755859</ele>
        <time>2015-03-28T12:31:31.000Z</time>
      </trkpt>
      <trkpt lat="45.30097" lon="6.18462">
        <ele>1635.4000244141</ele>
        <time>2015-03-28T12:31:32.000Z</time>
      </trkpt>
      <trkpt lat="45.30097" lon="6.1847">
        <ele>1633.8000488281</ele>
        <time>2015-03-28T12:31:33.000Z</time>
      </trkpt>
      <trkpt lat="45.30098" lon="6.18477">
        <ele>1632.4000244141</ele>
        <time>2015-03-28T12:31:34.000Z</time>
      </trkpt>
      <trkpt lat="45.30099" lon="6.18487">
        <ele>1630.8000488281</ele>
        <time>2015-03-28T12:31:35.000Z</time>
      </trkpt>
      <trkpt lat="45.30098" lon="6.18496">
        <ele>1629</ele>
        <time>2015-03-28T12:31:36.000Z</time>
      </trkpt>
      <trkpt lat="45.30099" lon="6.18505">
        <ele>1626.8000488281</ele>
        <time>2015-03-28T12:31:37.000Z</time>
      </trkpt>
      <trkpt lat="45.30099" lon="6.18513">
        <ele>1624.5999755859</ele>
        <time>2015-03-28T12:31:38.000Z</time>
      </trkpt>
      <trkpt lat="45.30098" lon="6.18522">
        <ele>1622.4000244141</ele>
        <time>2015-03-28T12:31:39.000Z</time>
      </trkpt>
      <trkpt lat="45.30096" lon="6.18531">
        <ele>1620.5999755859</ele>
        <time>2015-03-28T12:31:40.000Z</time>
      </trkpt>
      <trkpt lat="45.30096" lon="6.1854">
        <ele>1619.1999511719</ele>
        <time>2015-03-28T12:31:41.000Z</time>
      </trkpt>
      <trkpt lat="45.30096" lon="6.18549">
        <ele>1617.8000488281</ele>
        <time>2015-03-28T12:31:42.000Z</time>
      </trkpt>
      <trkpt lat="45.30097" lon="6.18557">
        <ele>1616.5999755859</ele>
        <time>2015-03-28T12:31:43.000Z</time>
      </trkpt>
      <trkpt lat="45.30098" lon="6.18566">
        <ele>1615.5999755859</ele>
        <time>2015-03-28T12:31:44.000Z</time>
      </trkpt>
      <trkpt lat="45.30097" lon="6.18574">
        <ele>1614.4000244141</ele>
        <time>2015-03-28T12:31:45.000Z</time>
      </trkpt>
      <trkpt lat="45.30096" lon="6.18583">
        <ele>1613</ele>
        <time>2015-03-28T12:31:46.000Z</time>
      </trkpt>
      <trkpt lat="45.30095" lon="6.1859">
        <ele>1611.5999755859</ele>
        <time>2015-03-28T12:31:47.000Z</time>
      </trkpt>
      <trkpt lat="45.30095" lon="6.18596">
        <ele>1610.1999511719</ele>
        <time>2015-03-28T12:31:48.000Z</time>
      </trkpt>
      <trkpt lat="45.30094" lon="6.18602">
        <ele>1609</ele>
        <time>2015-03-28T12:31:49.000Z</time>
      </trkpt>
      <trkpt lat="45.30091" lon="6.18607">
        <ele>1607.8000488281</ele>
        <time>2015-03-28T12:31:50.000Z</time>
      </trkpt>
      <trkpt lat="45.30088" lon="6.18611">
        <ele>1606.5999755859</ele>
        <time>2015-03-28T12:31:52.000Z</time>
      </trkpt>
      <trkpt lat="45.30084" lon="6.18615">
        <ele>1605.1999511719</ele>
        <time>2015-03-28T12:31:55.000Z</time>
      </trkpt>
      <trkpt lat="45.30083" lon="6.18615">
        <ele>1605.1999511719</ele>
        <time>2015-03-28T12:31:57.000Z</time>
      </trkpt>
      <trkpt lat="45.30083" lon="6.18615">
        <ele>1605.4000244141</ele>
        <time>2015-03-28T12:32:10.000Z</time>
      </trkpt>
      <trkpt lat="45.30083" lon="6.18615">
        <ele>1605.4000244141</ele>
        <time>2015-03-28T12:32:26.000Z</time>
      </trkpt>
      <trkpt lat="45.30082" lon="6.18614">
        <ele>1605.5999755859</ele>
        <time>2015-03-28T12:32:44.000Z</time>
      </trkpt>
      <trkpt lat="45.30082" lon="6.18614">
        <ele>1605.5999755859</ele>
        <time>2015-03-28T12:32:50.000Z</time>
      </trkpt>
      <trkpt lat="45.30082" lon="6.18614">
        <ele>1605.5999755859</ele>
        <time>2015-03-28T12:33:05.000Z</time>
      </trkpt>
      <trkpt lat="45.30077" lon="6.18618">
        <ele>1605.8000488281</ele>
        <time>2015-03-28T12:33:21.000Z</time>
      </trkpt>
      <trkpt lat="45.30075" lon="6.18634">
        <ele>1605.5999755859</ele>
        <time>2015-03-28T12:33:25.000Z</time>
      </trkpt>
      <trkpt lat="45.30073" lon="6.18653">
        <ele>1604.1999511719</ele>
        <time>2015-03-28T12:33:28.000Z</time>
      </trkpt>
      <trkpt lat="45.30071" lon="6.18659">
        <ele>1603.4000244141</ele>
        <time>2015-03-28T12:33:29.000Z</time>
      </trkpt>
      <trkpt lat="45.3007" lon="6.18663">
        <ele>1602.4000244141</ele>
        <time>2015-03-28T12:33:30.000Z</time>
      </trkpt>
      <trkpt lat="45.30069" lon="6.18667">
        <ele>1600.1999511719</ele>
        <time>2015-03-28T12:33:31.000Z</time>
      </trkpt>
      <trkpt lat="45.30067" lon="6.1867">
        <ele>1599.1999511719</ele>
        <time>2015-03-28T12:33:32.000Z</time>
      </trkpt>
      <trkpt lat="45.30067" lon="6.18673">
        <ele>1598.4000244141</ele>
        <time>2015-03-28T12:33:33.000Z</time>
      </trkpt>
      <trkpt lat="45.30067" lon="6.18677">
        <ele>1597.5999755859</ele>
        <time>2015-03-28T12:33:34.000Z</time>
      </trkpt>
      <trkpt lat="45.30066" lon="6.18685">
        <ele>1596.5999755859</ele>
        <time>2015-03-28T12:33:36.000Z</time>
      </trkpt>
      <trkpt lat="45.30066" lon="6.18691">
        <ele>1595</ele>
        <time>2015-03-28T12:33:38.000Z</time>
      </trkpt>
      <trkpt lat="45.30065" lon="6.18692">
        <ele>1594</ele>
        <time>2015-03-28T12:33:39.000Z</time>
      </trkpt>
      <trkpt lat="45.30065" lon="6.18691">
        <ele>1592.8000488281</ele>
        <time>2015-03-28T12:33:40.000Z</time>
      </trkpt>
      <trkpt lat="45.30065" lon="6.18689">
        <ele>1591.5999755859</ele>
        <time>2015-03-28T12:33:41.000Z</time>
      </trkpt>
      <trkpt lat="45.30065" lon="6.18687">
        <ele>1590.4000244141</ele>
        <time>2015-03-28T12:33:42.000Z</time>
      </trkpt>
      <trkpt lat="45.30067" lon="6.18681">
        <ele>1588.8000488281</ele>
        <time>2015-03-28T12:33:44.000Z</time>
      </trkpt>
      <trkpt lat="45.30049" lon="6.18664">
        <ele>1588</ele>
        <time>2015-03-28T12:33:47.000Z</time>
      </trkpt>
      <trkpt lat="45.30032" lon="6.18646">
        <ele>1587.8000488281</ele>
        <time>2015-03-28T12:33:50.000Z</time>
      </trkpt>
      <trkpt lat="45.30029" lon="6.1864">
        <ele>1587.8000488281</ele>
        <time>2015-03-28T12:33:51.000Z</time>
      </trkpt>
      <trkpt lat="45.29997" lon="6.1863">
        <ele>1587.8000488281</ele>
        <time>2015-03-28T12:33:55.000Z</time>
      </trkpt>
      <trkpt lat="45.29996" lon="6.18628">
        <ele>1587.5999755859</ele>
        <time>2015-03-28T12:33:57.000Z</time>
      </trkpt>
      <trkpt lat="45.29992" lon="6.18625">
        <ele>1587.4000244141</ele>
        <time>2015-03-28T12:33:58.000Z</time>
      </trkpt>
      <trkpt lat="45.29991" lon="6.18623">
        <ele>1587.1999511719</ele>
        <time>2015-03-28T12:33:59.000Z</time>
      </trkpt>
      <trkpt lat="45.29991" lon="6.1862">
        <ele>1586.1999511719</ele>
        <time>2015-03-28T12:34:01.000Z</time>
      </trkpt>
      <trkpt lat="45.29991" lon="6.1862">
        <ele>1585</ele>
        <time>2015-03-28T12:34:02.000Z</time>
      </trkpt>
      <trkpt lat="45.29991" lon="6.1862">
        <ele>1583.8000488281</ele>
        <time>2015-03-28T12:34:03.000Z</time>
      </trkpt>
      <trkpt lat="45.2999" lon="6.1862">
        <ele>1582.4000244141</ele>
        <time>2015-03-28T12:34:04.000Z</time>
      </trkpt>
      <trkpt lat="45.29989" lon="6.18619">
        <ele>1580.8000488281</ele>
        <time>2015-03-28T12:34:05.000Z</time>
      </trkpt>
      <trkpt lat="45.29989" lon="6.18619">
        <ele>1578.5999755859</ele>
        <time>2015-03-28T12:34:06.000Z</time>
      </trkpt>
      <trkpt lat="45.29988" lon="6.18619">
        <ele>1576</ele>
        <time>2015-03-28T12:34:07.000Z</time>
      </trkpt>
      <trkpt lat="45.29988" lon="6.18618">
        <ele>1573.4000244141</ele>
        <time>2015-03-28T12:34:08.000Z</time>
      </trkpt>
      <trkpt lat="45.29987" lon="6.18616">
        <ele>1571.1999511719</ele>
        <time>2015-03-28T12:34:09.000Z</time>
      </trkpt>
      <trkpt lat="45.29989" lon="6.18617">
        <ele>1569.1999511719</ele>
        <time>2015-03-28T12:34:10.000Z</time>
      </trkpt>
      <trkpt lat="45.29992" lon="6.18618">
        <ele>1566.8000488281</ele>
        <time>2015-03-28T12:34:11.000Z</time>
      </trkpt>
      <trkpt lat="45.29994" lon="6.18619">
        <ele>1564</ele>
        <time>2015-03-28T12:34:12.000Z</time>
      </trkpt>
      <trkpt lat="45.29995" lon="6.18622">
        <ele>1561</ele>
        <time>2015-03-28T12:34:13.000Z</time>
      </trkpt>
      <trkpt lat="45.29995" lon="6.18624">
        <ele>1558.1999511719</ele>
        <time>2015-03-28T12:34:14.000Z</time>
      </trkpt>
      <trkpt lat="45.29995" lon="6.18626">
        <ele>1556</ele>
        <time>2015-03-28T12:34:15.000Z</time>
      </trkpt>
      <trkpt lat="45.29995" lon="6.18627">
        <ele>1554.1999511719</ele>
        <time>2015-03-28T12:34:16.000Z</time>
      </trkpt>
      <trkpt lat="45.29996" lon="6.18627">
        <ele>1552.5999755859</ele>
        <time>2015-03-28T12:34:17.000Z</time>
      </trkpt>
      <trkpt lat="45.29998" lon="6.18627">
        <ele>1550.8000488281</ele>
        <time>2015-03-28T12:34:18.000Z</time>
      </trkpt>
      <trkpt lat="45.30005" lon="6.18622">
        <ele>1547.5999755859</ele>
        <time>2015-03-28T12:34:19.000Z</time>
      </trkpt>
      <trkpt lat="45.30016" lon="6.18612">
        <ele>1545.5999755859</ele>
        <time>2015-03-28T12:34:21.000Z</time>
      </trkpt>
      <trkpt lat="45.30011" lon="6.18621">
        <ele>1544.5999755859</ele>
        <time>2015-03-28T12:34:22.000Z</time>
      </trkpt>
      <trkpt lat="45.29908" lon="6.18852">
        <ele>1543.1999511719</ele>
        <time>2015-03-28T12:34:23.000Z</time>
      </trkpt>
      <trkpt lat="45.29903" lon="6.18854">
        <ele>1541.5999755859</ele>
        <time>2015-03-28T12:34:24.000Z</time>
      </trkpt>
      <trkpt lat="45.29899" lon="6.1886">
        <ele>1540.1999511719</ele>
        <time>2015-03-28T12:34:25.000Z</time>
      </trkpt>
      <trkpt lat="45.29897" lon="6.18866">
        <ele>1539</ele>
        <time>2015-03-28T12:34:26.000Z</time>
      </trkpt>
      <trkpt lat="45.29891" lon="6.18877">
        <ele>1537.1999511719</ele>
        <time>2015-03-28T12:34:28.000Z</time>
      </trkpt>
      <trkpt lat="45.29887" lon="6.18888">
        <ele>1535.4000244141</ele>
        <time>2015-03-28T12:34:30.000Z</time>
      </trkpt>
      <trkpt lat="45.29885" lon="6.18894">
        <ele>1534.5999755859</ele>
        <time>2015-03-28T12:34:31.000Z</time>
      </trkpt>
      <trkpt lat="45.29883" lon="6.18901">
        <ele>1534</ele>
        <time>2015-03-28T12:34:32.000Z</time>
      </trkpt>
      <trkpt lat="45.2988" lon="6.18907">
        <ele>1533</ele>
        <time>2015-03-28T12:34:33.000Z</time>
      </trkpt>
      <trkpt lat="45.29879" lon="6.18915">
        <ele>1531.8000488281</ele>
        <time>2015-03-28T12:34:34.000Z</time>
      </trkpt>
      <trkpt lat="45.29877" lon="6.18923">
        <ele>1530.4000244141</ele>
        <time>2015-03-28T12:34:35.000Z</time>
      </trkpt>
      <trkpt lat="45.29875" lon="6.18931">
        <ele>1528.8000488281</ele>
        <time>2015-03-28T12:34:36.000Z</time>
      </trkpt>
      <trkpt lat="45.29874" lon="6.18936">
        <ele>1527.4000244141</ele>
        <time>2015-03-28T12:34:37.000Z</time>
      </trkpt>
      <trkpt lat="45.29873" lon="6.18939">
        <ele>1525.5999755859</ele>
        <time>2015-03-28T12:34:38.000Z</time>
      </trkpt>
      <trkpt lat="45.29873" lon="6.18944">
        <ele>1523.8000488281</ele>
        <time>2015-03-28T12:34:39.000Z</time>
      </trkpt>
      <trkpt lat="45.29873" lon="6.18948">
        <ele>1522</ele>
        <time>2015-03-28T12:34:40.000Z</time>
      </trkpt>
      <trkpt lat="45.29872" lon="6.18952">
        <ele>1520.5999755859</ele>
        <time>2015-03-28T12:34:41.000Z</time>
      </trkpt>
      <trkpt lat="45.29873" lon="6.18959">
        <ele>1518.5999755859</ele>
        <time>2015-03-28T12:34:43.000Z</time>
      </trkpt>
      <trkpt lat="45.29871" lon="6.18965">
        <ele>1517.1999511719</ele>
        <time>2015-03-28T12:34:45.000Z</time>
      </trkpt>
      <trkpt lat="45.29868" lon="6.18976">
        <ele>1515.8000488281</ele>
        <time>2015-03-28T12:34:49.000Z</time>
      </trkpt>
      <trkpt lat="45.29865" lon="6.18985">
        <ele>1515</ele>
        <time>2015-03-28T12:34:53.000Z</time>
      </trkpt>
      <trkpt lat="45.29864" lon="6.18988">
        <ele>1514.8000488281</ele>
        <time>2015-03-28T12:34:54.000Z</time>
      </trkpt>
      <trkpt lat="45.2986" lon="6.19003">
        <ele>1514.4000244141</ele>
        <time>2015-03-28T12:34:57.000Z</time>
      </trkpt>
      <trkpt lat="45.29859" lon="6.19015">
        <ele>1513.5999755859</ele>
        <time>2015-03-28T12:34:59.000Z</time>
      </trkpt>
      <trkpt lat="45.29856" lon="6.19023">
        <ele>1512.1999511719</ele>
        <time>2015-03-28T12:35:01.000Z</time>
      </trkpt>
      <trkpt lat="45.29854" lon="6.19027">
        <ele>1510.5999755859</ele>
        <time>2015-03-28T12:35:03.000Z</time>
      </trkpt>
      <trkpt lat="45.29852" lon="6.19031">
        <ele>1509.5999755859</ele>
        <time>2015-03-28T12:35:05.000Z</time>
      </trkpt>
      <trkpt lat="45.29851" lon="6.19034">
        <ele>1509</ele>
        <time>2015-03-28T12:35:06.000Z</time>
      </trkpt>
      <trkpt lat="45.2985" lon="6.19037">
        <ele>1508.4000244141</ele>
        <time>2015-03-28T12:35:07.000Z</time>
      </trkpt>
      <trkpt lat="45.29844" lon="6.19044">
        <ele>1507.5999755859</ele>
        <time>2015-03-28T12:35:11.000Z</time>
      </trkpt>
      <trkpt lat="45.29844" lon="6.19045">
        <ele>1507.4000244141</ele>
        <time>2015-03-28T12:35:12.000Z</time>
      </trkpt>
      <trkpt lat="45.29844" lon="6.19045">
        <ele>1507</ele>
        <time>2015-03-28T12:35:17.000Z</time>
      </trkpt>
      <trkpt lat="45.29843" lon="6.19046">
        <ele>1507.8000488281</ele>
        <time>2015-03-28T12:35:24.000Z</time>
      </trkpt>
      <trkpt lat="45.2984" lon="6.19049">
        <ele>1508.4000244141</ele>
        <time>2015-03-28T12:35:29.000Z</time>
      </trkpt>
      <trkpt lat="45.29836" lon="6.1905">
        <ele>1508.5999755859</ele>
        <time>2015-03-28T12:35:31.000Z</time>
      </trkpt>
      <trkpt lat="45.29833" lon="6.19051">
        <ele>1508.4000244141</ele>
        <time>2015-03-28T12:35:36.000Z</time>
      </trkpt>
      <trkpt lat="45.29832" lon="6.19054">
        <ele>1508.4000244141</ele>
        <time>2015-03-28T12:35:38.000Z</time>
      </trkpt>
      <trkpt lat="45.2983" lon="6.19058">
        <ele>1508.4000244141</ele>
        <time>2015-03-28T12:35:41.000Z</time>
      </trkpt>
      <trkpt lat="45.29825" lon="6.19071">
        <ele>1508.4000244141</ele>
        <time>2015-03-28T12:35:46.000Z</time>
      </trkpt>
      <trkpt lat="45.29822" lon="6.1908">
        <ele>1507.4000244141</ele>
        <time>2015-03-28T12:35:51.000Z</time>
      </trkpt>
      <trkpt lat="45.29819" lon="6.19094">
        <ele>1506.5999755859</ele>
        <time>2015-03-28T12:35:55.000Z</time>
      </trkpt>
      <trkpt lat="45.29818" lon="6.19098">
        <ele>1506.1999511719</ele>
        <time>2015-03-28T12:35:56.000Z</time>
      </trkpt>
      <trkpt lat="45.29817" lon="6.19111">
        <ele>1505</ele>
        <time>2015-03-28T12:35:59.000Z</time>
      </trkpt>
      <trkpt lat="45.29817" lon="6.19122">
        <ele>1503.8000488281</ele>
        <time>2015-03-28T12:36:01.000Z</time>
      </trkpt>
      <trkpt lat="45.29818" lon="6.19135">
        <ele>1503</ele>
        <time>2015-03-28T12:36:03.000Z</time>
      </trkpt>
      <trkpt lat="45.29815" lon="6.19142">
        <ele>1502.5999755859</ele>
        <time>2015-03-28T12:36:04.000Z</time>
      </trkpt>
      <trkpt lat="45.29813" lon="6.19148">
        <ele>1501.5999755859</ele>
        <time>2015-03-28T12:36:05.000Z</time>
      </trkpt>
      <trkpt lat="45.29811" lon="6.19155">
        <ele>1500.5999755859</ele>
        <time>2015-03-28T12:36:06.000Z</time>
      </trkpt>
      <trkpt lat="45.29809" lon="6.19161">
        <ele>1499.4000244141</ele>
        <time>2015-03-28T12:36:07.000Z</time>
      </trkpt>
      <trkpt lat="45.29807" lon="6.19165">
        <ele>1498.1999511719</ele>
        <time>2015-03-28T12:36:08.000Z</time>
      </trkpt>
      <trkpt lat="45.29803" lon="6.19169">
        <ele>1497</ele>
        <time>2015-03-28T12:36:09.000Z</time>
      </trkpt>
      <trkpt lat="45.298" lon="6.19174">
        <ele>1496</ele>
        <time>2015-03-28T12:36:10.000Z</time>
      </trkpt>
      <trkpt lat="45.29797" lon="6.19179">
        <ele>1495.1999511719</ele>
        <time>2015-03-28T12:36:11.000Z</time>
      </trkpt>
      <trkpt lat="45.29794" lon="6.19184">
        <ele>1494.5999755859</ele>
        <time>2015-03-28T12:36:12.000Z</time>
      </trkpt>
      <trkpt lat="45.29788" lon="6.19192">
        <ele>1493</ele>
        <time>2015-03-28T12:36:14.000Z</time>
      </trkpt>
      <trkpt lat="45.29783" lon="6.192">
        <ele>1491.4000244141</ele>
        <time>2015-03-28T12:36:16.000Z</time>
      </trkpt>
      <trkpt lat="45.29776" lon="6.19212">
        <ele>1489.8000488281</ele>
        <time>2015-03-28T12:36:19.000Z</time>
      </trkpt>
      <trkpt lat="45.29774" lon="6.19215">
        <ele>1489.1999511719</ele>
        <time>2015-03-28T12:36:20.000Z</time>
      </trkpt>
      <trkpt lat="45.29771" lon="6.1922">
        <ele>1488.4000244141</ele>
        <time>2015-03-28T12:36:22.000Z</time>
      </trkpt>
      <trkpt lat="45.2977" lon="6.19224">
        <ele>1487.8000488281</ele>
        <time>2015-03-28T12:36:25.000Z</time>
      </trkpt>
      <trkpt lat="45.29771" lon="6.19226">
        <ele>1487.5999755859</ele>
        <time>2015-03-28T12:36:31.000Z</time>
      </trkpt>
      <trkpt lat="45.29772" lon="6.19226">
        <ele>1487.8000488281</ele>
        <time>2015-03-28T12:36:32.000Z</time>
      </trkpt>
      <trkpt lat="45.29778" lon="6.1924">
        <ele>1488.4000244141</ele>
        <time>2015-03-28T12:36:37.000Z</time>
      </trkpt>
      <trkpt lat="45.29779" lon="6.19258">
        <ele>1487.8000488281</ele>
        <time>2015-03-28T12:36:40.000Z</time>
      </trkpt>
      <trkpt lat="45.29779" lon="6.19263">
        <ele>1487</ele>
        <time>2015-03-28T12:36:41.000Z</time>
      </trkpt>
      <trkpt lat="45.29777" lon="6.19274">
        <ele>1484.4000244141</ele>
        <time>2015-03-28T12:36:43.000Z</time>
      </trkpt>
      <trkpt lat="45.29775" lon="6.19285">
        <ele>1483.4000244141</ele>
        <time>2015-03-28T12:36:45.000Z</time>
      </trkpt>
      <trkpt lat="45.29773" lon="6.19295">
        <ele>1482</ele>
        <time>2015-03-28T12:36:47.000Z</time>
      </trkpt>
      <trkpt lat="45.29771" lon="6.19299">
        <ele>1481.4000244141</ele>
        <time>2015-03-28T12:36:48.000Z</time>
      </trkpt>
      <trkpt lat="45.29768" lon="6.19302">
        <ele>1480.8000488281</ele>
        <time>2015-03-28T12:36:49.000Z</time>
      </trkpt>
      <trkpt lat="45.29765" lon="6.19306">
        <ele>1479.5999755859</ele>
        <time>2015-03-28T12:36:52.000Z</time>
      </trkpt>
      <trkpt lat="45.29764" lon="6.19311">
        <ele>1478.8000488281</ele>
        <time>2015-03-28T12:36:57.000Z</time>
      </trkpt>
      <trkpt lat="45.29763" lon="6.19316">
        <ele>1478.8000488281</ele>
        <time>2015-03-28T12:37:03.000Z</time>
      </trkpt>
      <trkpt lat="45.29762" lon="6.19321">
        <ele>1478.5999755859</ele>
        <time>2015-03-28T12:37:05.000Z</time>
      </trkpt>
      <trkpt lat="45.29762" lon="6.19323">
        <ele>1478.5999755859</ele>
        <time>2015-03-28T12:37:06.000Z</time>
      </trkpt>
      <trkpt lat="45.29761" lon="6.19328">
        <ele>1477.5999755859</ele>
        <time>2015-03-28T12:37:08.000Z</time>
      </trkpt>
      <trkpt lat="45.29761" lon="6.19332">
        <ele>1477.1999511719</ele>
        <time>2015-03-28T12:37:09.000Z</time>
      </trkpt>
      <trkpt lat="45.2976" lon="6.19346">
        <ele>1476.4000244141</ele>
        <time>2015-03-28T12:37:12.000Z</time>
      </trkpt>
      <trkpt lat="45.29758" lon="6.1935">
        <ele>1475.8000488281</ele>
        <time>2015-03-28T12:37:13.000Z</time>
      </trkpt>
      <trkpt lat="45.29756" lon="6.19354">
        <ele>1474.1999511719</ele>
        <time>2015-03-28T12:37:15.000Z</time>
      </trkpt>
      <trkpt lat="45.29755" lon="6.19356">
        <ele>1473.4000244141</ele>
        <time>2015-03-28T12:37:16.000Z</time>
      </trkpt>
      <trkpt lat="45.29755" lon="6.19356">
        <ele>1472.8000488281</ele>
        <time>2015-03-28T12:37:17.000Z</time>
      </trkpt>
      <trkpt lat="45.29754" lon="6.19359">
        <ele>1472.4000244141</ele>
        <time>2015-03-28T12:37:18.000Z</time>
      </trkpt>
      <trkpt lat="45.29751" lon="6.19368">
        <ele>1471.5999755859</ele>
        <time>2015-03-28T12:37:21.000Z</time>
      </trkpt>
      <trkpt lat="45.29748" lon="6.19373">
        <ele>1470.5999755859</ele>
        <time>2015-03-28T12:37:23.000Z</time>
      </trkpt>
      <trkpt lat="45.29747" lon="6.19374">
        <ele>1470.1999511719</ele>
        <time>2015-03-28T12:37:24.000Z</time>
      </trkpt>
      <trkpt lat="45.29746" lon="6.19375">
        <ele>1470</ele>
        <time>2015-03-28T12:37:25.000Z</time>
      </trkpt>
      <trkpt lat="45.29739" lon="6.19388">
        <ele>1469.5999755859</ele>
        <time>2015-03-28T12:37:32.000Z</time>
      </trkpt>
      <trkpt lat="45.29736" lon="6.19393">
        <ele>1469.5999755859</ele>
        <time>2015-03-28T12:37:34.000Z</time>
      </trkpt>
      <trkpt lat="45.2973" lon="6.19406">
        <ele>1469.1999511719</ele>
        <time>2015-03-28T12:37:37.000Z</time>
      </trkpt>
      <trkpt lat="45.29724" lon="6.19417">
        <ele>1468.5999755859</ele>
        <time>2015-03-28T12:37:39.000Z</time>
      </trkpt>
      <trkpt lat="45.2972" lon="6.19422">
        <ele>1468.1999511719</ele>
        <time>2015-03-28T12:37:40.000Z</time>
      </trkpt>
      <trkpt lat="45.29713" lon="6.19436">
        <ele>1467</ele>
        <time>2015-03-28T12:37:42.000Z</time>
      </trkpt>
      <trkpt lat="45.29708" lon="6.19448">
        <ele>1466</ele>
        <time>2015-03-28T12:37:44.000Z</time>
      </trkpt>
      <trkpt lat="45.29703" lon="6.19459">
        <ele>1464.1999511719</ele>
        <time>2015-03-28T12:37:46.000Z</time>
      </trkpt>
      <trkpt lat="45.297" lon="6.19465">
        <ele>1463</ele>
        <time>2015-03-28T12:37:47.000Z</time>
      </trkpt>
      <trkpt lat="45.29697" lon="6.1947">
        <ele>1462</ele>
        <time>2015-03-28T12:37:48.000Z</time>
      </trkpt>
      <trkpt lat="45.29691" lon="6.1948">
        <ele>1460.5999755859</ele>
        <time>2015-03-28T12:37:50.000Z</time>
      </trkpt>
      <trkpt lat="45.29686" lon="6.1949">
        <ele>1459</ele>
        <time>2015-03-28T12:37:52.000Z</time>
      </trkpt>
      <trkpt lat="45.29679" lon="6.19501">
        <ele>1457.8000488281</ele>
        <time>2015-03-28T12:37:54.000Z</time>
      </trkpt>
      <trkpt lat="45.29675" lon="6.1951">
        <ele>1456.1999511719</ele>
        <time>2015-03-28T12:37:56.000Z</time>
      </trkpt>
      <trkpt lat="45.29673" lon="6.19515">
        <ele>1455.5999755859</ele>
        <time>2015-03-28T12:37:57.000Z</time>
      </trkpt>
      <trkpt lat="45.29671" lon="6.19519">
        <ele>1455</ele>
        <time>2015-03-28T12:37:58.000Z</time>
      </trkpt>
      <trkpt lat="45.29666" lon="6.19531">
        <ele>1453.8000488281</ele>
        <time>2015-03-28T12:38:01.000Z</time>
      </trkpt>
      <trkpt lat="45.29662" lon="6.19539">
        <ele>1453</ele>
        <time>2015-03-28T12:38:03.000Z</time>
      </trkpt>
      <trkpt lat="45.29659" lon="6.19546">
        <ele>1452.4000244141</ele>
        <time>2015-03-28T12:38:05.000Z</time>
      </trkpt>
      <trkpt lat="45.29654" lon="6.19553">
        <ele>1451.1999511719</ele>
        <time>2015-03-28T12:38:08.000Z</time>
      </trkpt>
      <trkpt lat="45.29646" lon="6.19565">
        <ele>1450.1999511719</ele>
        <time>2015-03-28T12:38:13.000Z</time>
      </trkpt>
      <trkpt lat="45.29642" lon="6.19571">
        <ele>1450</ele>
        <time>2015-03-28T12:38:15.000Z</time>
      </trkpt>
      <trkpt lat="45.29631" lon="6.19587">
        <ele>1449.1999511719</ele>
        <time>2015-03-28T12:38:19.000Z</time>
      </trkpt>
      <trkpt lat="45.29628" lon="6.1959">
        <ele>1448.8000488281</ele>
        <time>2015-03-28T12:38:20.000Z</time>
      </trkpt>
      <trkpt lat="45.29625" lon="6.19593">
        <ele>1448.1999511719</ele>
        <time>2015-03-28T12:38:21.000Z</time>
      </trkpt>
      <trkpt lat="45.29618" lon="6.19603">
        <ele>1446.8000488281</ele>
        <time>2015-03-28T12:38:24.000Z</time>
      </trkpt>
      <trkpt lat="45.29616" lon="6.19607">
        <ele>1446.5999755859</ele>
        <time>2015-03-28T12:38:25.000Z</time>
      </trkpt>
      <trkpt lat="45.2961" lon="6.19614">
        <ele>1445.8000488281</ele>
        <time>2015-03-28T12:38:28.000Z</time>
      </trkpt>
      <trkpt lat="45.29606" lon="6.1962">
        <ele>1445.1999511719</ele>
        <time>2015-03-28T12:38:30.000Z</time>
      </trkpt>
      <trkpt lat="45.296" lon="6.19631">
        <ele>1444.5999755859</ele>
        <time>2015-03-28T12:38:33.000Z</time>
      </trkpt>
      <trkpt lat="45.29594" lon="6.19638">
        <ele>1443.5999755859</ele>
        <time>2015-03-28T12:38:36.000Z</time>
      </trkpt>
      <trkpt lat="45.29594" lon="6.1964">
        <ele>1443.4000244141</ele>
        <time>2015-03-28T12:38:37.000Z</time>
      </trkpt>
      <trkpt lat="45.29585" lon="6.19651">
        <ele>1442.4000244141</ele>
        <time>2015-03-28T12:38:43.000Z</time>
      </trkpt>
      <trkpt lat="45.29583" lon="6.19652">
        <ele>1442.4000244141</ele>
        <time>2015-03-28T12:38:44.000Z</time>
      </trkpt>
      <trkpt lat="45.29577" lon="6.19667">
        <ele>1442.1999511719</ele>
        <time>2015-03-28T12:38:49.000Z</time>
      </trkpt>
      <trkpt lat="45.29575" lon="6.19672">
        <ele>1442.1999511719</ele>
        <time>2015-03-28T12:38:50.000Z</time>
      </trkpt>
      <trkpt lat="45.29568" lon="6.19685">
        <ele>1441</ele>
        <time>2015-03-28T12:38:53.000Z</time>
      </trkpt>
      <trkpt lat="45.29567" lon="6.19693">
        <ele>1440</ele>
        <time>2015-03-28T12:38:57.000Z</time>
      </trkpt>
      <trkpt lat="45.29568" lon="6.19697">
        <ele>1439.5999755859</ele>
        <time>2015-03-28T12:38:58.000Z</time>
      </trkpt>
      <trkpt lat="45.29569" lon="6.19708">
        <ele>1438.4000244141</ele>
        <time>2015-03-28T12:39:00.000Z</time>
      </trkpt>
      <trkpt lat="45.29568" lon="6.19715">
        <ele>1437.4000244141</ele>
        <time>2015-03-28T12:39:01.000Z</time>
      </trkpt>
      <trkpt lat="45.29565" lon="6.19721">
        <ele>1436.4000244141</ele>
        <time>2015-03-28T12:39:02.000Z</time>
      </trkpt>
      <trkpt lat="45.29563" lon="6.19725">
        <ele>1435.1999511719</ele>
        <time>2015-03-28T12:39:03.000Z</time>
      </trkpt>
      <trkpt lat="45.29561" lon="6.19729">
        <ele>1433.8000488281</ele>
        <time>2015-03-28T12:39:04.000Z</time>
      </trkpt>
      <trkpt lat="45.29559" lon="6.19733">
        <ele>1432.5999755859</ele>
        <time>2015-03-28T12:39:05.000Z</time>
      </trkpt>
      <trkpt lat="45.29557" lon="6.19737">
        <ele>1431.5999755859</ele>
        <time>2015-03-28T12:39:06.000Z</time>
      </trkpt>
      <trkpt lat="45.29555" lon="6.19741">
        <ele>1430.1999511719</ele>
        <time>2015-03-28T12:39:07.000Z</time>
      </trkpt>
      <trkpt lat="45.29553" lon="6.19747">
        <ele>1428.8000488281</ele>
        <time>2015-03-28T12:39:09.000Z</time>
      </trkpt>
      <trkpt lat="45.29549" lon="6.19757">
        <ele>1427.4000244141</ele>
        <time>2015-03-28T12:39:11.000Z</time>
      </trkpt>
      <trkpt lat="45.29546" lon="6.19763">
        <ele>1426.5999755859</ele>
        <time>2015-03-28T12:39:12.000Z</time>
      </trkpt>
      <trkpt lat="45.29543" lon="6.1977">
        <ele>1425.5999755859</ele>
        <time>2015-03-28T12:39:13.000Z</time>
      </trkpt>
      <trkpt lat="45.29536" lon="6.19784">
        <ele>1424</ele>
        <time>2015-03-28T12:39:15.000Z</time>
      </trkpt>
      <trkpt lat="45.29532" lon="6.1979">
        <ele>1423</ele>
        <time>2015-03-28T12:39:16.000Z</time>
      </trkpt>
      <trkpt lat="45.29529" lon="6.19795">
        <ele>1422</ele>
        <time>2015-03-28T12:39:17.000Z</time>
      </trkpt>
      <trkpt lat="45.29526" lon="6.19801">
        <ele>1420.8000488281</ele>
        <time>2015-03-28T12:39:18.000Z</time>
      </trkpt>
      <trkpt lat="45.29523" lon="6.19806">
        <ele>1419.8000488281</ele>
        <time>2015-03-28T12:39:19.000Z</time>
      </trkpt>
      <trkpt lat="45.2952" lon="6.19811">
        <ele>1419</ele>
        <time>2015-03-28T12:39:20.000Z</time>
      </trkpt>
      <trkpt lat="45.29517" lon="6.19816">
        <ele>1418.1999511719</ele>
        <time>2015-03-28T12:39:21.000Z</time>
      </trkpt>
      <trkpt lat="45.29513" lon="6.19825">
        <ele>1416.5999755859</ele>
        <time>2015-03-28T12:39:23.000Z</time>
      </trkpt>
      <trkpt lat="45.29508" lon="6.19834">
        <ele>1415.5999755859</ele>
        <time>2015-03-28T12:39:25.000Z</time>
      </trkpt>
      <trkpt lat="45.29506" lon="6.19838">
        <ele>1415.1999511719</ele>
        <time>2015-03-28T12:39:26.000Z</time>
      </trkpt>
      <trkpt lat="45.29501" lon="6.19849">
        <ele>1414.1999511719</ele>
        <time>2015-03-28T12:39:29.000Z</time>
      </trkpt>
      <trkpt lat="45.29498" lon="6.19855">
        <ele>1412.8000488281</ele>
        <time>2015-03-28T12:39:31.000Z</time>
      </trkpt>
      <trkpt lat="45.29494" lon="6.19861">
        <ele>1412.4000244141</ele>
        <time>2015-03-28T12:39:33.000Z</time>
      </trkpt>
      <trkpt lat="45.29485" lon="6.19879">
        <ele>1411.5999755859</ele>
        <time>2015-03-28T12:39:38.000Z</time>
      </trkpt>
      <trkpt lat="45.29483" lon="6.19882">
        <ele>1411.4000244141</ele>
        <time>2015-03-28T12:39:39.000Z</time>
      </trkpt>
      <trkpt lat="45.29476" lon="6.19898">
        <ele>1410.4000244141</ele>
        <time>2015-03-28T12:39:44.000Z</time>
      </trkpt>
      <trkpt lat="45.29475" lon="6.19902">
        <ele>1410.1999511719</ele>
        <time>2015-03-28T12:39:45.000Z</time>
      </trkpt>
      <trkpt lat="45.29472" lon="6.19922">
        <ele>1409.8000488281</ele>
        <time>2015-03-28T12:39:51.000Z</time>
      </trkpt>
      <trkpt lat="45.29469" lon="6.19931">
        <ele>1409.4000244141</ele>
        <time>2015-03-28T12:39:55.000Z</time>
      </trkpt>
      <trkpt lat="45.29468" lon="6.19933">
        <ele>1409.4000244141</ele>
        <time>2015-03-28T12:39:56.000Z</time>
      </trkpt>
      <trkpt lat="45.29468" lon="6.19937">
        <ele>1408.4000244141</ele>
        <time>2015-03-28T12:40:02.000Z</time>
      </trkpt>
      <trkpt lat="45.29468" lon="6.19941">
        <ele>1408</ele>
        <time>2015-03-28T12:40:11.000Z</time>
      </trkpt>
      <trkpt lat="45.29467" lon="6.19946">
        <ele>1407.4000244141</ele>
        <time>2015-03-28T12:40:14.000Z</time>
      </trkpt>
      <trkpt lat="45.29467" lon="6.19951">
        <ele>1407.1999511719</ele>
        <time>2015-03-28T12:40:16.000Z</time>
      </trkpt>
      <trkpt lat="45.29467" lon="6.19956">
        <ele>1406.4000244141</ele>
        <time>2015-03-28T12:40:18.000Z</time>
      </trkpt>
      <trkpt lat="45.29467" lon="6.19958">
        <ele>1405.8000488281</ele>
        <time>2015-03-28T12:40:19.000Z</time>
      </trkpt>
      <trkpt lat="45.29467" lon="6.19961">
        <ele>1405.4000244141</ele>
        <time>2015-03-28T12:40:20.000Z</time>
      </trkpt>
      <trkpt lat="45.29466" lon="6.19964">
        <ele>1404.8000488281</ele>
        <time>2015-03-28T12:40:21.000Z</time>
      </trkpt>
      <trkpt lat="45.29464" lon="6.19973">
        <ele>1402.8000488281</ele>
        <time>2015-03-28T12:40:23.000Z</time>
      </trkpt>
      <trkpt lat="45.29465" lon="6.1998">
        <ele>1401.5999755859</ele>
        <time>2015-03-28T12:40:24.000Z</time>
      </trkpt>
      <trkpt lat="45.29469" lon="6.19988">
        <ele>1400.5999755859</ele>
        <time>2015-03-28T12:40:25.000Z</time>
      </trkpt>
      <trkpt lat="45.29471" lon="6.19996">
        <ele>1399.8000488281</ele>
        <time>2015-03-28T12:40:26.000Z</time>
      </trkpt>
      <trkpt lat="45.29472" lon="6.20011">
        <ele>1398.4000244141</ele>
        <time>2015-03-28T12:40:28.000Z</time>
      </trkpt>
      <trkpt lat="45.29473" lon="6.20018">
        <ele>1397.1999511719</ele>
        <time>2015-03-28T12:40:29.000Z</time>
      </trkpt>
      <trkpt lat="45.29473" lon="6.20025">
        <ele>1395.5999755859</ele>
        <time>2015-03-28T12:40:30.000Z</time>
      </trkpt>
      <trkpt lat="45.29474" lon="6.20031">
        <ele>1394</ele>
        <time>2015-03-28T12:40:31.000Z</time>
      </trkpt>
      <trkpt lat="45.29475" lon="6.20038">
        <ele>1392.5999755859</ele>
        <time>2015-03-28T12:40:32.000Z</time>
      </trkpt>
      <trkpt lat="45.29475" lon="6.20044">
        <ele>1391.5999755859</ele>
        <time>2015-03-28T12:40:33.000Z</time>
      </trkpt>
      <trkpt lat="45.29474" lon="6.20049">
        <ele>1390.4000244141</ele>
        <time>2015-03-28T12:40:34.000Z</time>
      </trkpt>
      <trkpt lat="45.29474" lon="6.20056">
        <ele>1389.1999511719</ele>
        <time>2015-03-28T12:40:35.000Z</time>
      </trkpt>
      <trkpt lat="45.29473" lon="6.20061">
        <ele>1387.8000488281</ele>
        <time>2015-03-28T12:40:36.000Z</time>
      </trkpt>
      <trkpt lat="45.29472" lon="6.20066">
        <ele>1386.5999755859</ele>
        <time>2015-03-28T12:40:37.000Z</time>
      </trkpt>
      <trkpt lat="45.29472" lon="6.20071">
        <ele>1385.5999755859</ele>
        <time>2015-03-28T12:40:38.000Z</time>
      </trkpt>
      <trkpt lat="45.29471" lon="6.20075">
        <ele>1384.5999755859</ele>
        <time>2015-03-28T12:40:39.000Z</time>
      </trkpt>
      <trkpt lat="45.29469" lon="6.20079">
        <ele>1383.5999755859</ele>
        <time>2015-03-28T12:40:40.000Z</time>
      </trkpt>
      <trkpt lat="45.29467" lon="6.20085">
        <ele>1382</ele>
        <time>2015-03-28T12:40:42.000Z</time>
      </trkpt>
      <trkpt lat="45.29464" lon="6.2009">
        <ele>1381</ele>
        <time>2015-03-28T12:40:44.000Z</time>
      </trkpt>
      <trkpt lat="45.29463" lon="6.20092">
        <ele>1380.8000488281</ele>
        <time>2015-03-28T12:40:45.000Z</time>
      </trkpt>
      <trkpt lat="45.29459" lon="6.20097">
        <ele>1380.1999511719</ele>
        <time>2015-03-28T12:40:50.000Z</time>
      </trkpt>
      <trkpt lat="45.29459" lon="6.20097">
        <ele>1380.1999511719</ele>
        <time>2015-03-28T12:41:04.000Z</time>
      </trkpt>
      <trkpt lat="45.29456" lon="6.20101">
        <ele>1380.1999511719</ele>
        <time>2015-03-28T12:41:19.000Z</time>
      </trkpt>
      <trkpt lat="45.29455" lon="6.20102">
        <ele>1380.1999511719</ele>
        <time>2015-03-28T12:41:32.000Z</time>
      </trkpt>
      <trkpt lat="45.29455" lon="6.20102">
        <ele>1380.1999511719</ele>
        <time>2015-03-28T12:41:50.000Z</time>
      </trkpt>
      <trkpt lat="45.29455" lon="6.20107">
        <ele>1380.5999755859</ele>
        <time>2015-03-28T12:41:56.000Z</time>
      </trkpt>
      <trkpt lat="45.29454" lon="6.20112">
        <ele>1380.5999755859</ele>
        <time>2015-03-28T12:41:57.000Z</time>
      </trkpt>
      <trkpt lat="45.2945" lon="6.20119">
        <ele>1379.1999511719</ele>
        <time>2015-03-28T12:42:00.000Z</time>
      </trkpt>
      <trkpt lat="45.29448" lon="6.2012">
        <ele>1378.5999755859</ele>
        <time>2015-03-28T12:42:01.000Z</time>
      </trkpt>
      <trkpt lat="45.29447" lon="6.20121">
        <ele>1378</ele>
        <time>2015-03-28T12:42:02.000Z</time>
      </trkpt>
      <trkpt lat="45.29444" lon="6.20119">
        <ele>1376.8000488281</ele>
        <time>2015-03-28T12:42:06.000Z</time>
      </trkpt>
      <trkpt lat="45.29445" lon="6.20119">
        <ele>1376.4000244141</ele>
        <time>2015-03-28T12:42:12.000Z</time>
      </trkpt>
      <trkpt lat="45.29445" lon="6.20123">
        <ele>1376.1999511719</ele>
        <time>2015-03-28T12:42:13.000Z</time>
      </trkpt>
      <trkpt lat="45.29446" lon="6.20134">
        <ele>1375.8000488281</ele>
        <time>2015-03-28T12:42:16.000Z</time>
      </trkpt>
      <trkpt lat="45.29447" lon="6.20145">
        <ele>1374.4000244141</ele>
        <time>2015-03-28T12:42:18.000Z</time>
      </trkpt>
      <trkpt lat="45.29445" lon="6.20154">
        <ele>1372.4000244141</ele>
        <time>2015-03-28T12:42:20.000Z</time>
      </trkpt>
      <trkpt lat="45.29442" lon="6.20165">
        <ele>1371</ele>
        <time>2015-03-28T12:42:22.000Z</time>
      </trkpt>
      <trkpt lat="45.29441" lon="6.20171">
        <ele>1370.4000244141</ele>
        <time>2015-03-28T12:42:23.000Z</time>
      </trkpt>
      <trkpt lat="45.29441" lon="6.20178">
        <ele>1369.8000488281</ele>
        <time>2015-03-28T12:42:24.000Z</time>
      </trkpt>
      <trkpt lat="45.29441" lon="6.20185">
        <ele>1369</ele>
        <time>2015-03-28T12:42:25.000Z</time>
      </trkpt>
      <trkpt lat="45.29442" lon="6.20191">
        <ele>1368</ele>
        <time>2015-03-28T12:42:26.000Z</time>
      </trkpt>
      <trkpt lat="45.29442" lon="6.20198">
        <ele>1367</ele>
        <time>2015-03-28T12:42:27.000Z</time>
      </trkpt>
      <trkpt lat="45.29443" lon="6.20207">
        <ele>1366</ele>
        <time>2015-03-28T12:42:28.000Z</time>
      </trkpt>
      <trkpt lat="45.29444" lon="6.20215">
        <ele>1364.5999755859</ele>
        <time>2015-03-28T12:42:29.000Z</time>
      </trkpt>
      <trkpt lat="45.29446" lon="6.20224">
        <ele>1363</ele>
        <time>2015-03-28T12:42:30.000Z</time>
      </trkpt>
      <trkpt lat="45.29447" lon="6.20234">
        <ele>1361.4000244141</ele>
        <time>2015-03-28T12:42:31.000Z</time>
      </trkpt>
      <trkpt lat="45.29451" lon="6.20244">
        <ele>1359.8000488281</ele>
        <time>2015-03-28T12:42:32.000Z</time>
      </trkpt>
      <trkpt lat="45.29454" lon="6.20256">
        <ele>1358.4000244141</ele>
        <time>2015-03-28T12:42:33.000Z</time>
      </trkpt>
      <trkpt lat="45.29456" lon="6.20265">
        <ele>1356.8000488281</ele>
        <time>2015-03-28T12:42:34.000Z</time>
      </trkpt>
      <trkpt lat="45.29459" lon="6.20275">
        <ele>1355</ele>
        <time>2015-03-28T12:42:35.000Z</time>
      </trkpt>
      <trkpt lat="45.29462" lon="6.20285">
        <ele>1353</ele>
        <time>2015-03-28T12:42:36.000Z</time>
      </trkpt>
      <trkpt lat="45.29463" lon="6.20294">
        <ele>1351</ele>
        <time>2015-03-28T12:42:37.000Z</time>
      </trkpt>
      <trkpt lat="45.29464" lon="6.20303">
        <ele>1348.8000488281</ele>
        <time>2015-03-28T12:42:38.000Z</time>
      </trkpt>
      <trkpt lat="45.29465" lon="6.2031">
        <ele>1346.5999755859</ele>
        <time>2015-03-28T12:42:39.000Z</time>
      </trkpt>
      <trkpt lat="45.29465" lon="6.20317">
        <ele>1344.8000488281</ele>
        <time>2015-03-28T12:42:40.000Z</time>
      </trkpt>
      <trkpt lat="45.29466" lon="6.20324">
        <ele>1343.1999511719</ele>
        <time>2015-03-28T12:42:41.000Z</time>
      </trkpt>
      <trkpt lat="45.29465" lon="6.20329">
        <ele>1342</ele>
        <time>2015-03-28T12:42:42.000Z</time>
      </trkpt>
      <trkpt lat="45.29465" lon="6.20335">
        <ele>1341</ele>
        <time>2015-03-28T12:42:43.000Z</time>
      </trkpt>
      <trkpt lat="45.29466" lon="6.2034">
        <ele>1340</ele>
        <time>2015-03-28T12:42:44.000Z</time>
      </trkpt>
      <trkpt lat="45.29468" lon="6.20347">
        <ele>1338.4000244141</ele>
        <time>2015-03-28T12:42:45.000Z</time>
      </trkpt>
      <trkpt lat="45.2947" lon="6.20355">
        <ele>1337.8000488281</ele>
        <time>2015-03-28T12:42:46.000Z</time>
      </trkpt>
      <trkpt lat="45.29471" lon="6.20363">
        <ele>1337.1999511719</ele>
        <time>2015-03-28T12:42:47.000Z</time>
      </trkpt>
      <trkpt lat="45.29473" lon="6.20376">
        <ele>1335.1999511719</ele>
        <time>2015-03-28T12:42:49.000Z</time>
      </trkpt>
      <trkpt lat="45.29474" lon="6.20381">
        <ele>1334.1999511719</ele>
        <time>2015-03-28T12:42:50.000Z</time>
      </trkpt>
      <trkpt lat="45.29474" lon="6.2039">
        <ele>1332.8000488281</ele>
        <time>2015-03-28T12:42:52.000Z</time>
      </trkpt>
      <trkpt lat="45.29471" lon="6.20401">
        <ele>1331.8000488281</ele>
        <time>2015-03-28T12:42:55.000Z</time>
      </trkpt>
      <trkpt lat="45.2947" lon="6.20404">
        <ele>1331.5999755859</ele>
        <time>2015-03-28T12:42:56.000Z</time>
      </trkpt>
      <trkpt lat="45.29466" lon="6.20426">
        <ele>1330.8000488281</ele>
        <time>2015-03-28T12:43:03.000Z</time>
      </trkpt>
      <trkpt lat="45.29465" lon="6.20433">
        <ele>1330.4000244141</ele>
        <time>2015-03-28T12:43:05.000Z</time>
      </trkpt>
      <trkpt lat="45.29461" lon="6.20444">
        <ele>1329.4000244141</ele>
        <time>2015-03-28T12:43:08.000Z</time>
      </trkpt>
      <trkpt lat="45.29454" lon="6.2045">
        <ele>1329.1999511719</ele>
        <time>2015-03-28T12:43:09.000Z</time>
      </trkpt>
      <trkpt lat="45.29443" lon="6.2047">
        <ele>1327.8000488281</ele>
        <time>2015-03-28T12:43:12.000Z</time>
      </trkpt>
      <trkpt lat="45.29437" lon="6.2048">
        <ele>1326.5999755859</ele>
        <time>2015-03-28T12:43:14.000Z</time>
      </trkpt>
      <trkpt lat="45.29433" lon="6.20487">
        <ele>1325.1999511719</ele>
        <time>2015-03-28T12:43:16.000Z</time>
      </trkpt>
      <trkpt lat="45.29431" lon="6.2049">
        <ele>1324.5999755859</ele>
        <time>2015-03-28T12:43:17.000Z</time>
      </trkpt>
      <trkpt lat="45.29427" lon="6.20496">
        <ele>1324</ele>
        <time>2015-03-28T12:43:20.000Z</time>
      </trkpt>
      <trkpt lat="45.29425" lon="6.205">
        <ele>1324</ele>
        <time>2015-03-28T12:43:22.000Z</time>
      </trkpt>
      <trkpt lat="45.29423" lon="6.20515">
        <ele>1324</ele>
        <time>2015-03-28T12:43:26.000Z</time>
      </trkpt>
      <trkpt lat="45.29422" lon="6.20521">
        <ele>1323.5999755859</ele>
        <time>2015-03-28T12:43:27.000Z</time>
      </trkpt>
      <trkpt lat="45.29419" lon="6.20527">
        <ele>1323</ele>
        <time>2015-03-28T12:43:28.000Z</time>
      </trkpt>
      <trkpt lat="45.29414" lon="6.2054">
        <ele>1321.5999755859</ele>
        <time>2015-03-28T12:43:30.000Z</time>
      </trkpt>
      <trkpt lat="45.29413" lon="6.20547">
        <ele>1320.8000488281</ele>
        <time>2015-03-28T12:43:31.000Z</time>
      </trkpt>
      <trkpt lat="45.29411" lon="6.20552">
        <ele>1320.1999511719</ele>
        <time>2015-03-28T12:43:32.000Z</time>
      </trkpt>
      <trkpt lat="45.29411" lon="6.20557">
        <ele>1319</ele>
        <time>2015-03-28T12:43:33.000Z</time>
      </trkpt>
      <trkpt lat="45.2941" lon="6.20569">
        <ele>1318</ele>
        <time>2015-03-28T12:43:35.000Z</time>
      </trkpt>
      <trkpt lat="45.29411" lon="6.20583">
        <ele>1316.8000488281</ele>
        <time>2015-03-28T12:43:37.000Z</time>
      </trkpt>
      <trkpt lat="45.29413" lon="6.20598">
        <ele>1315.4000244141</ele>
        <time>2015-03-28T12:43:39.000Z</time>
      </trkpt>
      <trkpt lat="45.29414" lon="6.20604">
        <ele>1314.5999755859</ele>
        <time>2015-03-28T12:43:40.000Z</time>
      </trkpt>
      <trkpt lat="45.29414" lon="6.2061">
        <ele>1313.8000488281</ele>
        <time>2015-03-28T12:43:41.000Z</time>
      </trkpt>
      <trkpt lat="45.29412" lon="6.2062">
        <ele>1312.4000244141</ele>
        <time>2015-03-28T12:43:43.000Z</time>
      </trkpt>
      <trkpt lat="45.2941" lon="6.20626">
        <ele>1312</ele>
        <time>2015-03-28T12:43:44.000Z</time>
      </trkpt>
      <trkpt lat="45.29409" lon="6.2064">
        <ele>1311.4000244141</ele>
        <time>2015-03-28T12:43:46.000Z</time>
      </trkpt>
      <trkpt lat="45.29408" lon="6.20647">
        <ele>1310.8000488281</ele>
        <time>2015-03-28T12:43:47.000Z</time>
      </trkpt>
      <trkpt lat="45.29407" lon="6.20654">
        <ele>1310.1999511719</ele>
        <time>2015-03-28T12:43:48.000Z</time>
      </trkpt>
      <trkpt lat="45.29406" lon="6.2066">
        <ele>1309.4000244141</ele>
        <time>2015-03-28T12:43:49.000Z</time>
      </trkpt>
      <trkpt lat="45.29405" lon="6.20666">
        <ele>1308.5999755859</ele>
        <time>2015-03-28T12:43:50.000Z</time>
      </trkpt>
      <trkpt lat="45.29403" lon="6.20675">
        <ele>1307.1999511719</ele>
        <time>2015-03-28T12:43:52.000Z</time>
      </trkpt>
      <trkpt lat="45.29403" lon="6.20683">
        <ele>1306</ele>
        <time>2015-03-28T12:43:54.000Z</time>
      </trkpt>
      <trkpt lat="45.29401" lon="6.20702">
        <ele>1305.4000244141</ele>
        <time>2015-03-28T12:44:00.000Z</time>
      </trkpt>
      <trkpt lat="45.29402" lon="6.20704">
        <ele>1305.1999511719</ele>
        <time>2015-03-28T12:44:01.000Z</time>
      </trkpt>
      <trkpt lat="45.29404" lon="6.20708">
        <ele>1305</ele>
        <time>2015-03-28T12:44:03.000Z</time>
      </trkpt>
      <trkpt lat="45.29406" lon="6.20713">
        <ele>1304.8000488281</ele>
        <time>2015-03-28T12:44:05.000Z</time>
      </trkpt>
      <trkpt lat="45.29407" lon="6.20715">
        <ele>1304.5999755859</ele>
        <time>2015-03-28T12:44:06.000Z</time>
      </trkpt>
      <trkpt lat="45.2941" lon="6.20723">
        <ele>1304.4000244141</ele>
        <time>2015-03-28T12:44:10.000Z</time>
      </trkpt>
      <trkpt lat="45.29417" lon="6.20737">
        <ele>1304</ele>
        <time>2015-03-28T12:44:14.000Z</time>
      </trkpt>
      <trkpt lat="45.29425" lon="6.20747">
        <ele>1303.1999511719</ele>
        <time>2015-03-28T12:44:16.000Z</time>
      </trkpt>
      <trkpt lat="45.2943" lon="6.20751">
        <ele>1302.8000488281</ele>
        <time>2015-03-28T12:44:17.000Z</time>
      </trkpt>
      <trkpt lat="45.29434" lon="6.20755">
        <ele>1302.4000244141</ele>
        <time>2015-03-28T12:44:18.000Z</time>
      </trkpt>
      <trkpt lat="45.29437" lon="6.20758">
        <ele>1301.8000488281</ele>
        <time>2015-03-28T12:44:19.000Z</time>
      </trkpt>
      <trkpt lat="45.29442" lon="6.20763">
        <ele>1299.4000244141</ele>
        <time>2015-03-28T12:44:21.000Z</time>
      </trkpt>
      <trkpt lat="45.29445" lon="6.2077">
        <ele>1297.5999755859</ele>
        <time>2015-03-28T12:44:23.000Z</time>
      </trkpt>
      <trkpt lat="45.29448" lon="6.20779">
        <ele>1296.1999511719</ele>
        <time>2015-03-28T12:44:25.000Z</time>
      </trkpt>
      <trkpt lat="45.2945" lon="6.2079">
        <ele>1294.5999755859</ele>
        <time>2015-03-28T12:44:27.000Z</time>
      </trkpt>
      <trkpt lat="45.29453" lon="6.20793">
        <ele>1293.4000244141</ele>
        <time>2015-03-28T12:44:28.000Z</time>
      </trkpt>
      <trkpt lat="45.29453" lon="6.20798">
        <ele>1292.4000244141</ele>
        <time>2015-03-28T12:44:29.000Z</time>
      </trkpt>
      <trkpt lat="45.29456" lon="6.20804">
        <ele>1291</ele>
        <time>2015-03-28T12:44:31.000Z</time>
      </trkpt>
      <trkpt lat="45.29456" lon="6.20812">
        <ele>1290</ele>
        <time>2015-03-28T12:44:33.000Z</time>
      </trkpt>
      <trkpt lat="45.29459" lon="6.20818">
        <ele>1288.4000244141</ele>
        <time>2015-03-28T12:44:35.000Z</time>
      </trkpt>
      <trkpt lat="45.29467" lon="6.20823">
        <ele>1286.8000488281</ele>
        <time>2015-03-28T12:44:37.000Z</time>
      </trkpt>
      <trkpt lat="45.2947" lon="6.20832">
        <ele>1285.4000244141</ele>
        <time>2015-03-28T12:44:39.000Z</time>
      </trkpt>
      <trkpt lat="45.29471" lon="6.20836">
        <ele>1284.5999755859</ele>
        <time>2015-03-28T12:44:40.000Z</time>
      </trkpt>
      <trkpt lat="45.29471" lon="6.2084">
        <ele>1283.8000488281</ele>
        <time>2015-03-28T12:44:41.000Z</time>
      </trkpt>
      <trkpt lat="45.2947" lon="6.20848">
        <ele>1281.5999755859</ele>
        <time>2015-03-28T12:44:43.000Z</time>
      </trkpt>
      <trkpt lat="45.29464" lon="6.20859">
        <ele>1279.5999755859</ele>
        <time>2015-03-28T12:44:45.000Z</time>
      </trkpt>
      <trkpt lat="45.29461" lon="6.20879">
        <ele>1278.1999511719</ele>
        <time>2015-03-28T12:44:48.000Z</time>
      </trkpt>
      <trkpt lat="45.29464" lon="6.2089">
        <ele>1276.4000244141</ele>
        <time>2015-03-28T12:44:50.000Z</time>
      </trkpt>
      <trkpt lat="45.29465" lon="6.20896">
        <ele>1275.1999511719</ele>
        <time>2015-03-28T12:44:51.000Z</time>
      </trkpt>
      <trkpt lat="45.29465" lon="6.20901">
        <ele>1274.1999511719</ele>
        <time>2015-03-28T12:44:52.000Z</time>
      </trkpt>
      <trkpt lat="45.29464" lon="6.20912">
        <ele>1272.5999755859</ele>
        <time>2015-03-28T12:44:54.000Z</time>
      </trkpt>
      <trkpt lat="45.29463" lon="6.20923">
        <ele>1271.5999755859</ele>
        <time>2015-03-28T12:44:56.000Z</time>
      </trkpt>
      <trkpt lat="45.29464" lon="6.20926">
        <ele>1271.1999511719</ele>
        <time>2015-03-28T12:44:57.000Z</time>
      </trkpt>
      <trkpt lat="45.29464" lon="6.20931">
        <ele>1270.5999755859</ele>
        <time>2015-03-28T12:44:59.000Z</time>
      </trkpt>
      <trkpt lat="45.29461" lon="6.20933">
        <ele>1269.4000244141</ele>
        <time>2015-03-28T12:45:02.000Z</time>
      </trkpt>
      <trkpt lat="45.29459" lon="6.20937">
        <ele>1268.4000244141</ele>
        <time>2015-03-28T12:45:08.000Z</time>
      </trkpt>
      <trkpt lat="45.29457" lon="6.20939">
        <ele>1268</ele>
        <time>2015-03-28T12:45:11.000Z</time>
      </trkpt>
      <trkpt lat="45.2946" lon="6.20942">
        <ele>1267.4000244141</ele>
        <time>2015-03-28T12:45:17.000Z</time>
      </trkpt>
      <trkpt lat="45.29465" lon="6.20947">
        <ele>1267.1999511719</ele>
        <time>2015-03-28T12:45:23.000Z</time>
      </trkpt>
      <trkpt lat="45.2947" lon="6.20957">
        <ele>1266.1999511719</ele>
        <time>2015-03-28T12:45:29.000Z</time>
      </trkpt>
      <trkpt lat="45.29476" lon="6.20968">
        <ele>1264.8000488281</ele>
        <time>2015-03-28T12:45:33.000Z</time>
      </trkpt>
      <trkpt lat="45.29478" lon="6.20969">
        <ele>1263.5999755859</ele>
        <time>2015-03-28T12:45:34.000Z</time>
      </trkpt>
      <trkpt lat="45.29479" lon="6.20972">
        <ele>1262</ele>
        <time>2015-03-28T12:45:36.000Z</time>
      </trkpt>
      <trkpt lat="45.29481" lon="6.20977">
        <ele>1260.8000488281</ele>
        <time>2015-03-28T12:45:39.000Z</time>
      </trkpt>
      <trkpt lat="45.29484" lon="6.20981">
        <ele>1259.5999755859</ele>
        <time>2015-03-28T12:45:44.000Z</time>
      </trkpt>
      <trkpt lat="45.29485" lon="6.20986">
        <ele>1259</ele>
        <time>2015-03-28T12:45:48.000Z</time>
      </trkpt>
      <trkpt lat="45.29489" lon="6.20993">
        <ele>1258.5999755859</ele>
        <time>2015-03-28T12:45:55.000Z</time>
      </trkpt>
      <trkpt lat="45.2949" lon="6.20995">
        <ele>1258.5999755859</ele>
        <time>2015-03-28T12:45:56.000Z</time>
      </trkpt>
      <trkpt lat="45.29498" lon="6.20999">
        <ele>1257.4000244141</ele>
        <time>2015-03-28T12:46:01.000Z</time>
      </trkpt>
      <trkpt lat="45.29503" lon="6.21">
        <ele>1256.1999511719</ele>
        <time>2015-03-28T12:46:04.000Z</time>
      </trkpt>
      <trkpt lat="45.29513" lon="6.21008">
        <ele>1256</ele>
        <time>2015-03-28T12:46:11.000Z</time>
      </trkpt>
      <trkpt lat="45.29516" lon="6.2101">
        <ele>1255.8000488281</ele>
        <time>2015-03-28T12:46:12.000Z</time>
      </trkpt>
      <trkpt lat="45.29524" lon="6.21015">
        <ele>1254.5999755859</ele>
        <time>2015-03-28T12:46:14.000Z</time>
      </trkpt>
      <trkpt lat="45.29533" lon="6.2102">
        <ele>1252.8000488281</ele>
        <time>2015-03-28T12:46:16.000Z</time>
      </trkpt>
      <trkpt lat="45.29542" lon="6.21026">
        <ele>1251</ele>
        <time>2015-03-28T12:46:18.000Z</time>
      </trkpt>
      <trkpt lat="45.29546" lon="6.21027">
        <ele>1249.5999755859</ele>
        <time>2015-03-28T12:46:19.000Z</time>
      </trkpt>
      <trkpt lat="45.29547" lon="6.21027">
        <ele>1248.4000244141</ele>
        <time>2015-03-28T12:46:20.000Z</time>
      </trkpt>
      <trkpt lat="45.29548" lon="6.21028">
        <ele>1246</ele>
        <time>2015-03-28T12:46:21.000Z</time>
      </trkpt>
      <trkpt lat="45.29534" lon="6.21038">
        <ele>1244.5999755859</ele>
        <time>2015-03-28T12:46:23.000Z</time>
      </trkpt>
      <trkpt lat="45.29534" lon="6.21038">
        <ele>1243.4000244141</ele>
        <time>2015-03-28T12:46:25.000Z</time>
      </trkpt>
      <trkpt lat="45.29534" lon="6.21038">
        <ele>1242.4000244141</ele>
        <time>2015-03-28T12:46:29.000Z</time>
      </trkpt>
      <trkpt lat="45.29535" lon="6.21039">
        <ele>1242.1999511719</ele>
        <time>2015-03-28T12:46:32.000Z</time>
      </trkpt>
      <trkpt lat="45.29539" lon="6.21056">
        <ele>1241.5999755859</ele>
        <time>2015-03-28T12:46:36.000Z</time>
      </trkpt>
      <trkpt lat="45.29541" lon="6.2106">
        <ele>1241.1999511719</ele>
        <time>2015-03-28T12:46:37.000Z</time>
      </trkpt>
      <trkpt lat="45.29546" lon="6.21071">
        <ele>1239.8000488281</ele>
        <time>2015-03-28T12:46:39.000Z</time>
      </trkpt>
      <trkpt lat="45.2955" lon="6.21075">
        <ele>1239.1999511719</ele>
        <time>2015-03-28T12:46:40.000Z</time>
      </trkpt>
      <trkpt lat="45.29554" lon="6.2108">
        <ele>1238.4000244141</ele>
        <time>2015-03-28T12:46:41.000Z</time>
      </trkpt>
      <trkpt lat="45.29558" lon="6.21085">
        <ele>1237.4000244141</ele>
        <time>2015-03-28T12:46:42.000Z</time>
      </trkpt>
      <trkpt lat="45.29564" lon="6.21089">
        <ele>1236.1999511719</ele>
        <time>2015-03-28T12:46:43.000Z</time>
      </trkpt>
      <trkpt lat="45.2957" lon="6.21093">
        <ele>1235</ele>
        <time>2015-03-28T12:46:44.000Z</time>
      </trkpt>
      <trkpt lat="45.29576" lon="6.21097">
        <ele>1232.8000488281</ele>
        <time>2015-03-28T12:46:45.000Z</time>
      </trkpt>
      <trkpt lat="45.29582" lon="6.21102">
        <ele>1231.4000244141</ele>
        <time>2015-03-28T12:46:46.000Z</time>
      </trkpt>
      <trkpt lat="45.29588" lon="6.21106">
        <ele>1230.1999511719</ele>
        <time>2015-03-28T12:46:47.000Z</time>
      </trkpt>
      <trkpt lat="45.29593" lon="6.21109">
        <ele>1229</ele>
        <time>2015-03-28T12:46:48.000Z</time>
      </trkpt>
      <trkpt lat="45.29601" lon="6.21119">
        <ele>1227</ele>
        <time>2015-03-28T12:46:50.000Z</time>
      </trkpt>
      <trkpt lat="45.29607" lon="6.21123">
        <ele>1226</ele>
        <time>2015-03-28T12:46:51.000Z</time>
      </trkpt>
      <trkpt lat="45.29612" lon="6.21126">
        <ele>1224.5999755859</ele>
        <time>2015-03-28T12:46:52.000Z</time>
      </trkpt>
      <trkpt lat="45.29613" lon="6.21134">
        <ele>1223.1999511719</ele>
        <time>2015-03-28T12:46:53.000Z</time>
      </trkpt>
      <trkpt lat="45.2962" lon="6.21137">
        <ele>1222.1999511719</ele>
        <time>2015-03-28T12:46:54.000Z</time>
      </trkpt>
      <trkpt lat="45.29634" lon="6.21141">
        <ele>1220.5999755859</ele>
        <time>2015-03-28T12:46:56.000Z</time>
      </trkpt>
      <trkpt lat="45.2964" lon="6.21141">
        <ele>1219.5999755859</ele>
        <time>2015-03-28T12:46:57.000Z</time>
      </trkpt>
      <trkpt lat="45.29628" lon="6.21155">
        <ele>1218.4000244141</ele>
        <time>2015-03-28T12:46:58.000Z</time>
      </trkpt>
      <trkpt lat="45.29621" lon="6.21164">
        <ele>1217.1999511719</ele>
        <time>2015-03-28T12:46:59.000Z</time>
      </trkpt>
      <trkpt lat="45.2961" lon="6.21181">
        <ele>1216</ele>
        <time>2015-03-28T12:47:01.000Z</time>
      </trkpt>
      <trkpt lat="45.29606" lon="6.21194">
        <ele>1215.4000244141</ele>
        <time>2015-03-28T12:47:03.000Z</time>
      </trkpt>
      <trkpt lat="45.29603" lon="6.21211">
        <ele>1214.8000488281</ele>
        <time>2015-03-28T12:47:06.000Z</time>
      </trkpt>
      <trkpt lat="45.29602" lon="6.21215">
        <ele>1214.1999511719</ele>
        <time>2015-03-28T12:47:07.000Z</time>
      </trkpt>
      <trkpt lat="45.29601" lon="6.21219">
        <ele>1213.5999755859</ele>
        <time>2015-03-28T12:47:08.000Z</time>
      </trkpt>
      <trkpt lat="45.296" lon="6.21223">
        <ele>1212.1999511719</ele>
        <time>2015-03-28T12:47:09.000Z</time>
      </trkpt>
      <trkpt lat="45.29597" lon="6.21227">
        <ele>1210.8000488281</ele>
        <time>2015-03-28T12:47:12.000Z</time>
      </trkpt>
      <trkpt lat="45.29597" lon="6.21227">
        <ele>1209.8000488281</ele>
        <time>2015-03-28T12:47:15.000Z</time>
      </trkpt>
      <trkpt lat="45.29569" lon="6.21249">
        <ele>1209.5999755859</ele>
        <time>2015-03-28T12:47:22.000Z</time>
      </trkpt>
      <trkpt lat="45.29562" lon="6.2125">
        <ele>1209.4000244141</ele>
        <time>2015-03-28T12:47:26.000Z</time>
      </trkpt>
      <trkpt lat="45.29553" lon="6.21261">
        <ele>1209.4000244141</ele>
        <time>2015-03-28T12:47:30.000Z</time>
      </trkpt>
      <trkpt lat="45.29525" lon="6.21287">
        <ele>1209.4000244141</ele>
        <time>2015-03-28T12:47:38.000Z</time>
      </trkpt>
      <trkpt lat="45.29498" lon="6.21298">
        <ele>1209.1999511719</ele>
        <time>2015-03-28T12:47:51.000Z</time>
      </trkpt>
      <trkpt lat="45.29448" lon="6.21294">
        <ele>1209.1999511719</ele>
        <time>2015-03-28T12:48:05.000Z</time>
      </trkpt>
      <trkpt lat="45.29425" lon="6.21294">
        <ele>1208.4000244141</ele>
        <time>2015-03-28T12:48:15.000Z</time>
      </trkpt>
      <trkpt lat="45.29427" lon="6.21296">
        <ele>1210</ele>
        <time>2015-03-28T12:48:22.000Z</time>
      </trkpt>
      <trkpt lat="45.29428" lon="6.21296">
        <ele>1210.4000244141</ele>
        <time>2015-03-28T12:48:24.000Z</time>
      </trkpt>
      <trkpt lat="45.29432" lon="6.21298">
        <ele>1209.1999511719</ele>
        <time>2015-03-28T12:48:38.000Z</time>
      </trkpt>
      <trkpt lat="45.29433" lon="6.21298">
        <ele>1209</ele>
        <time>2015-03-28T12:48:39.000Z</time>
      </trkpt>
      <trkpt lat="45.29433" lon="6.21295">
        <ele>1209.5999755859</ele>
        <time>2015-03-28T12:48:45.000Z</time>
      </trkpt>
      <trkpt lat="45.2943" lon="6.21292">
        <ele>1209</ele>
        <time>2015-03-28T12:48:59.000Z</time>
      </trkpt>
      <trkpt lat="45.2943" lon="6.21293">
        <ele>1209.4000244141</ele>
        <time>2015-03-28T12:49:09.000Z</time>
      </trkpt>
      <trkpt lat="45.2943" lon="6.21293">
        <ele>1209.4000244141</ele>
        <time>2015-03-28T12:49:24.000Z</time>
      </trkpt>
      <trkpt lat="45.2943" lon="6.21293">
        <ele>1209.8000488281</ele>
        <time>2015-03-28T12:49:39.000Z</time>
      </trkpt>
      <trkpt lat="45.2943" lon="6.21293">
        <ele>1209.1999511719</ele>
        <time>2015-03-28T12:49:51.000Z</time>
      </trkpt>
      <trkpt lat="45.2943" lon="6.21293">
        <ele>1210</ele>
        <time>2015-03-28T12:49:58.000Z</time>
      </trkpt>
      <trkpt lat="45.2943" lon="6.21293">
        <ele>1210</ele>
        <time>2015-03-28T12:50:12.000Z</time>
      </trkpt>
      <trkpt lat="45.2943" lon="6.21293">
        <ele>1209.1999511719</ele>
        <time>2015-03-28T12:50:23.000Z</time>
      </trkpt>
      <trkpt lat="45.2943" lon="6.21293">
        <ele>1209.5999755859</ele>
        <time>2015-03-28T12:50:39.000Z</time>
      </trkpt>
      <trkpt lat="45.29424" lon="6.21293">
        <ele>1208.5999755859</ele>
        <time>2015-03-28T12:50:44.000Z</time>
      </trkpt>
      <trkpt lat="45.29424" lon="6.21293">
        <ele>1210.5999755859</ele>
        <time>2015-03-28T12:50:55.000Z</time>
      </trkpt>
      <trkpt lat="45.29424" lon="6.21293">
        <ele>1209.5999755859</ele>
        <time>2015-03-28T12:51:07.000Z</time>
      </trkpt>
      <trkpt lat="45.29424" lon="6.21293">
        <ele>1209.8000488281</ele>
        <time>2015-03-28T12:51:20.000Z</time>
      </trkpt>
      <trkpt lat="45.2942" lon="6.21292">
        <ele>1209.5999755859</ele>
        <time>2015-03-28T12:51:36.000Z</time>
      </trkpt>
      <trkpt lat="45.29418" lon="6.21292">
        <ele>1209.8000488281</ele>
        <time>2015-03-28T12:51:49.000Z</time>
      </trkpt>
      <trkpt lat="45.29405" lon="6.21289">
        <ele>1209.8000488281</ele>
        <time>2015-03-28T12:52:06.000Z</time>
      </trkpt>
      <trkpt lat="45.29405" lon="6.21289">
        <ele>1209.8000488281</ele>
        <time>2015-03-28T12:52:20.000Z</time>
      </trkpt>
      <trkpt lat="45.29405" lon="6.21289">
        <ele>1209.8000488281</ele>
        <time>2015-03-28T12:52:30.000Z</time>
      </trkpt>
      <trkpt lat="45.29404" lon="6.21287">
        <ele>1209.8000488281</ele>
        <time>2015-03-28T12:52:44.000Z</time>
      </trkpt>
      <trkpt lat="45.29404" lon="6.21287">
        <ele>1209.8000488281</ele>
        <time>2015-03-28T12:53:01.000Z</time>
      </trkpt>
      <trkpt lat="45.29404" lon="6.21287">
        <ele>1209.8000488281</ele>
        <time>2015-03-28T12:53:13.000Z</time>
      </trkpt>
      <trkpt lat="45.29404" lon="6.21287">
        <ele>1209.5999755859</ele>
        <time>2015-03-28T12:53:25.000Z</time>
      </trkpt>
      <trkpt lat="45.29404" lon="6.21287">
        <ele>1210</ele>
        <time>2015-03-28T12:53:34.000Z</time>
      </trkpt>
      <trkpt lat="45.29404" lon="6.21287">
        <ele>1209.8000488281</ele>
        <time>2015-03-28T12:53:49.000Z</time>
      </trkpt>
      <trkpt lat="45.29404" lon="6.21287">
        <ele>1209.5999755859</ele>
        <time>2015-03-28T12:54:02.000Z</time>
      </trkpt>
      <trkpt lat="45.29309" lon="6.21293">
        <ele>1208.8000488281</ele>
        <time>2015-03-28T12:54:15.000Z</time>
      </trkpt>
      <trkpt lat="45.29299" lon="6.21293">
        <ele>1207.8000488281</ele>
        <time>2015-03-28T12:54:21.000Z</time>
      </trkpt>
      <trkpt lat="45.29299" lon="6.21293">
        <ele>1207.5999755859</ele>
        <time>2015-03-28T12:54:22.000Z</time>
      </trkpt>
      <trkpt lat="45.29297" lon="6.21294">
        <ele>1206.8000488281</ele>
        <time>2015-03-28T12:54:29.000Z</time>
      </trkpt>
      <trkpt lat="45.29295" lon="6.21296">
        <ele>1206.5999755859</ele>
        <time>2015-03-28T12:54:31.000Z</time>
      </trkpt>
      <trkpt lat="45.29296" lon="6.21297">
        <ele>1205.8000488281</ele>
        <time>2015-03-28T12:54:42.000Z</time>
      </trkpt>
      <trkpt lat="45.29296" lon="6.21297">
        <ele>1205.8000488281</ele>
        <time>2015-03-28T12:54:43.000Z</time>
      </trkpt>
      <trkpt lat="45.2929" lon="6.21303">
        <ele>1204.8000488281</ele>
        <time>2015-03-28T12:54:51.000Z</time>
      </trkpt>
      <trkpt lat="45.29289" lon="6.21303">
        <ele>1204.5999755859</ele>
        <time>2015-03-28T12:54:52.000Z</time>
      </trkpt>
      <trkpt lat="45.29286" lon="6.21307">
        <ele>1203.4000244141</ele>
        <time>2015-03-28T12:54:57.000Z</time>
      </trkpt>
      <trkpt lat="45.29287" lon="6.21309">
        <ele>1203.4000244141</ele>
        <time>2015-03-28T12:54:58.000Z</time>
      </trkpt>
      <trkpt lat="45.29286" lon="6.21312">
        <ele>1202.4000244141</ele>
        <time>2015-03-28T12:55:03.000Z</time>
      </trkpt>
      <trkpt lat="45.29284" lon="6.21315">
        <ele>1202</ele>
        <time>2015-03-28T12:55:06.000Z</time>
      </trkpt>
      <trkpt lat="45.29284" lon="6.21315">
        <ele>1201.4000244141</ele>
        <time>2015-03-28T12:55:09.000Z</time>
      </trkpt>
      <trkpt lat="45.29281" lon="6.21318">
        <ele>1200.8000488281</ele>
        <time>2015-03-28T12:55:12.000Z</time>
      </trkpt>
      <trkpt lat="45.29279" lon="6.2132">
        <ele>1200.8000488281</ele>
        <time>2015-03-28T12:55:13.000Z</time>
      </trkpt>
      <trkpt lat="45.29271" lon="6.21324">
        <ele>1200.1999511719</ele>
        <time>2015-03-28T12:55:17.000Z</time>
      </trkpt>
      <trkpt lat="45.29267" lon="6.21326">
        <ele>1199.8000488281</ele>
        <time>2015-03-28T12:55:20.000Z</time>
      </trkpt>
      <trkpt lat="45.29264" lon="6.21329">
        <ele>1199</ele>
        <time>2015-03-28T12:55:23.000Z</time>
      </trkpt>
      <trkpt lat="45.29262" lon="6.21333">
        <ele>1198</ele>
        <time>2015-03-28T12:55:27.000Z</time>
      </trkpt>
      <trkpt lat="45.29259" lon="6.21336">
        <ele>1197</ele>
        <time>2015-03-28T12:55:30.000Z</time>
      </trkpt>
      <trkpt lat="45.29259" lon="6.21337">
        <ele>1196.8000488281</ele>
        <time>2015-03-28T12:55:31.000Z</time>
      </trkpt>
      <trkpt lat="45.29256" lon="6.21341">
        <ele>1195.5999755859</ele>
        <time>2015-03-28T12:55:35.000Z</time>
      </trkpt>
      <trkpt lat="45.29254" lon="6.21345">
        <ele>1194.8000488281</ele>
        <time>2015-03-28T12:55:39.000Z</time>
      </trkpt>
      <trkpt lat="45.29253" lon="6.21345">
        <ele>1194.5999755859</ele>
        <time>2015-03-28T12:55:40.000Z</time>
      </trkpt>
      <trkpt lat="45.29252" lon="6.21349">
        <ele>1193.4000244141</ele>
        <time>2015-03-28T12:55:45.000Z</time>
      </trkpt>
      <trkpt lat="45.29251" lon="6.21352">
        <ele>1193</ele>
        <time>2015-03-28T12:55:47.000Z</time>
      </trkpt>
      <trkpt lat="45.29249" lon="6.21357">
        <ele>1192.4000244141</ele>
        <time>2015-03-28T12:55:50.000Z</time>
      </trkpt>
      <trkpt lat="45.29248" lon="6.21362">
        <ele>1191</ele>
        <time>2015-03-28T12:55:53.000Z</time>
      </trkpt>
      <trkpt lat="45.29248" lon="6.21364">
        <ele>1190.4000244141</ele>
        <time>2015-03-28T12:55:55.000Z</time>
      </trkpt>
      <trkpt lat="45.29248" lon="6.21366">
        <ele>1189.8000488281</ele>
        <time>2015-03-28T12:55:56.000Z</time>
      </trkpt>
      <trkpt lat="45.29249" lon="6.21368">
        <ele>1188.4000244141</ele>
        <time>2015-03-28T12:55:58.000Z</time>
      </trkpt>
      <trkpt lat="45.29252" lon="6.21371">
        <ele>1187.4000244141</ele>
        <time>2015-03-28T12:56:00.000Z</time>
      </trkpt>
      <trkpt lat="45.29253" lon="6.21373">
        <ele>1187</ele>
        <time>2015-03-28T12:56:01.000Z</time>
      </trkpt>
      <trkpt lat="45.29256" lon="6.21375">
        <ele>1186</ele>
        <time>2015-03-28T12:56:03.000Z</time>
      </trkpt>
      <trkpt lat="45.29257" lon="6.21377">
        <ele>1185</ele>
        <time>2015-03-28T12:56:05.000Z</time>
      </trkpt>
      <trkpt lat="45.29259" lon="6.21379">
        <ele>1184</ele>
        <time>2015-03-28T12:56:08.000Z</time>
      </trkpt>
      <trkpt lat="45.2926" lon="6.21381">
        <ele>1183</ele>
        <time>2015-03-28T12:56:11.000Z</time>
      </trkpt>
      <trkpt lat="45.29261" lon="6.21382">
        <ele>1182.5999755859</ele>
        <time>2015-03-28T12:56:12.000Z</time>
      </trkpt>
      <trkpt lat="45.29261" lon="6.21383">
        <ele>1181</ele>
        <time>2015-03-28T12:56:15.000Z</time>
      </trkpt>
      <trkpt lat="45.29263" lon="6.21389">
        <ele>1180</ele>
        <time>2015-03-28T12:56:18.000Z</time>
      </trkpt>
      <trkpt lat="45.29262" lon="6.21391">
        <ele>1179.5999755859</ele>
        <time>2015-03-28T12:56:19.000Z</time>
      </trkpt>
      <trkpt lat="45.29255" lon="6.214">
        <ele>1178.5999755859</ele>
        <time>2015-03-28T12:56:22.000Z</time>
      </trkpt>
      <trkpt lat="45.2925" lon="6.21403">
        <ele>1177.4000244141</ele>
        <time>2015-03-28T12:56:24.000Z</time>
      </trkpt>
      <trkpt lat="45.29243" lon="6.21409">
        <ele>1176.1999511719</ele>
        <time>2015-03-28T12:56:27.000Z</time>
      </trkpt>
      <trkpt lat="45.29239" lon="6.21411">
        <ele>1175</ele>
        <time>2015-03-28T12:56:30.000Z</time>
      </trkpt>
      <trkpt lat="45.29237" lon="6.21412">
        <ele>1173.8000488281</ele>
        <time>2015-03-28T12:56:33.000Z</time>
      </trkpt>
      <trkpt lat="45.29237" lon="6.21412">
        <ele>1173</ele>
        <time>2015-03-28T12:56:35.000Z</time>
      </trkpt>
      <trkpt lat="45.29237" lon="6.21412">
        <ele>1172.8000488281</ele>
        <time>2015-03-28T12:56:36.000Z</time>
      </trkpt>
      <trkpt lat="45.29236" lon="6.21414">
        <ele>1172</ele>
        <time>2015-03-28T12:56:44.000Z</time>
      </trkpt>
      <trkpt lat="45.29236" lon="6.21414">
        <ele>1171.5999755859</ele>
        <time>2015-03-28T12:56:45.000Z</time>
      </trkpt>
      <trkpt lat="45.29236" lon="6.21414">
        <ele>1170</ele>
        <time>2015-03-28T12:56:47.000Z</time>
      </trkpt>
      <trkpt lat="45.29236" lon="6.21414">
        <ele>1169</ele>
        <time>2015-03-28T12:56:51.000Z</time>
      </trkpt>
      <trkpt lat="45.29236" lon="6.21416">
        <ele>1168.8000488281</ele>
        <time>2015-03-28T12:56:54.000Z</time>
      </trkpt>
      <trkpt lat="45.29235" lon="6.21424">
        <ele>1167.8000488281</ele>
        <time>2015-03-28T12:57:00.000Z</time>
      </trkpt>
      <trkpt lat="45.29232" lon="6.21426">
        <ele>1166.8000488281</ele>
        <time>2015-03-28T12:57:03.000Z</time>
      </trkpt>
      <trkpt lat="45.29232" lon="6.21426">
        <ele>1166.5999755859</ele>
        <time>2015-03-28T12:57:04.000Z</time>
      </trkpt>
      <trkpt lat="45.2923" lon="6.2143">
        <ele>1165.4000244141</ele>
        <time>2015-03-28T12:57:07.000Z</time>
      </trkpt>
      <trkpt lat="45.29225" lon="6.21435">
        <ele>1164</ele>
        <time>2015-03-28T12:57:10.000Z</time>
      </trkpt>
      <trkpt lat="45.29221" lon="6.2144">
        <ele>1162.8000488281</ele>
        <time>2015-03-28T12:57:12.000Z</time>
      </trkpt>
      <trkpt lat="45.29218" lon="6.21444">
        <ele>1161.4000244141</ele>
        <time>2015-03-28T12:57:14.000Z</time>
      </trkpt>
      <trkpt lat="45.29214" lon="6.21448">
        <ele>1160.1999511719</ele>
        <time>2015-03-28T12:57:17.000Z</time>
      </trkpt>
      <trkpt lat="45.29205" lon="6.21455">
        <ele>1159</ele>
        <time>2015-03-28T12:57:22.000Z</time>
      </trkpt>
      <trkpt lat="45.29202" lon="6.21458">
        <ele>1157.8000488281</ele>
        <time>2015-03-28T12:57:25.000Z</time>
      </trkpt>
      <trkpt lat="45.29201" lon="6.21461">
        <ele>1156.8000488281</ele>
        <time>2015-03-28T12:57:30.000Z</time>
      </trkpt>
      <trkpt lat="45.29198" lon="6.21465">
        <ele>1155.5999755859</ele>
        <time>2015-03-28T12:57:34.000Z</time>
      </trkpt>
      <trkpt lat="45.29195" lon="6.21467">
        <ele>1154.5999755859</ele>
        <time>2015-03-28T12:57:37.000Z</time>
      </trkpt>
      <trkpt lat="45.29194" lon="6.21469">
        <ele>1154</ele>
        <time>2015-03-28T12:57:39.000Z</time>
      </trkpt>
      <trkpt lat="45.29192" lon="6.21472">
        <ele>1153.1999511719</ele>
        <time>2015-03-28T12:57:41.000Z</time>
      </trkpt>
      <trkpt lat="45.29187" lon="6.21482">
        <ele>1152</ele>
        <time>2015-03-28T12:57:46.000Z</time>
      </trkpt>
      <trkpt lat="45.29185" lon="6.21485">
        <ele>1151.4000244141</ele>
        <time>2015-03-28T12:57:48.000Z</time>
      </trkpt>
      <trkpt lat="45.29185" lon="6.21486">
        <ele>1150.8000488281</ele>
        <time>2015-03-28T12:57:50.000Z</time>
      </trkpt>
      <trkpt lat="45.29185" lon="6.21486">
        <ele>1149.5999755859</ele>
        <time>2015-03-28T12:57:55.000Z</time>
      </trkpt>
      <trkpt lat="45.29183" lon="6.21488">
        <ele>1149.1999511719</ele>
        <time>2015-03-28T12:57:57.000Z</time>
      </trkpt>
      <trkpt lat="45.29181" lon="6.2149">
        <ele>1148.4000244141</ele>
        <time>2015-03-28T12:57:59.000Z</time>
      </trkpt>
      <trkpt lat="45.29178" lon="6.21494">
        <ele>1147.4000244141</ele>
        <time>2015-03-28T12:58:02.000Z</time>
      </trkpt>
      <trkpt lat="45.29176" lon="6.21496">
        <ele>1146.1999511719</ele>
        <time>2015-03-28T12:58:06.000Z</time>
      </trkpt>
      <trkpt lat="45.29174" lon="6.21497">
        <ele>1145</ele>
        <time>2015-03-28T12:58:11.000Z</time>
      </trkpt>
      <trkpt lat="45.29174" lon="6.21497">
        <ele>1144.4000244141</ele>
        <time>2015-03-28T12:58:18.000Z</time>
      </trkpt>
      <trkpt lat="45.2917" lon="6.215">
        <ele>1143.8000488281</ele>
        <time>2015-03-28T12:58:25.000Z</time>
      </trkpt>
      <trkpt lat="45.29169" lon="6.21501">
        <ele>1143.5999755859</ele>
        <time>2015-03-28T12:58:26.000Z</time>
      </trkpt>
      <trkpt lat="45.29167" lon="6.21505">
        <ele>1142.5999755859</ele>
        <time>2015-03-28T12:58:30.000Z</time>
      </trkpt>
      <trkpt lat="45.29166" lon="6.21508">
        <ele>1141.5999755859</ele>
        <time>2015-03-28T12:58:34.000Z</time>
      </trkpt>
      <trkpt lat="45.29164" lon="6.21511">
        <ele>1140.4000244141</ele>
        <time>2015-03-28T12:58:37.000Z</time>
      </trkpt>
      <trkpt lat="45.29159" lon="6.21517">
        <ele>1139.4000244141</ele>
        <time>2015-03-28T12:58:42.000Z</time>
      </trkpt>
      <trkpt lat="45.29158" lon="6.21518">
        <ele>1139.1999511719</ele>
        <time>2015-03-28T12:58:43.000Z</time>
      </trkpt>
      <trkpt lat="45.29154" lon="6.21524">
        <ele>1137.8000488281</ele>
        <time>2015-03-28T12:58:47.000Z</time>
      </trkpt>
      <trkpt lat="45.29153" lon="6.21525">
        <ele>1137.4000244141</ele>
        <time>2015-03-28T12:58:49.000Z</time>
      </trkpt>
      <trkpt lat="45.29151" lon="6.21529">
        <ele>1136.5999755859</ele>
        <time>2015-03-28T12:58:52.000Z</time>
      </trkpt>
      <trkpt lat="45.29147" lon="6.21535">
        <ele>1135.5999755859</ele>
        <time>2015-03-28T12:58:57.000Z</time>
      </trkpt>
      <trkpt lat="45.29144" lon="6.21538">
        <ele>1134.4000244141</ele>
        <time>2015-03-28T12:59:01.000Z</time>
      </trkpt>
      <trkpt lat="45.2914" lon="6.21543">
        <ele>1133.4000244141</ele>
        <time>2015-03-28T12:59:06.000Z</time>
      </trkpt>
      <trkpt lat="45.29137" lon="6.21551">
        <ele>1132.1999511719</ele>
        <time>2015-03-28T12:59:10.000Z</time>
      </trkpt>
      <trkpt lat="45.29137" lon="6.21554">
        <ele>1131</ele>
        <time>2015-03-28T12:59:13.000Z</time>
      </trkpt>
      <trkpt lat="45.29136" lon="6.21556">
        <ele>1130.5999755859</ele>
        <time>2015-03-28T12:59:15.000Z</time>
      </trkpt>
      <trkpt lat="45.29134" lon="6.2156">
        <ele>1129.8000488281</ele>
        <time>2015-03-28T12:59:18.000Z</time>
      </trkpt>
      <trkpt lat="45.2913" lon="6.21567">
        <ele>1128.8000488281</ele>
        <time>2015-03-28T12:59:23.000Z</time>
      </trkpt>
      <trkpt lat="45.2913" lon="6.21568">
        <ele>1128.5999755859</ele>
        <time>2015-03-28T12:59:24.000Z</time>
      </trkpt>
      <trkpt lat="45.2913" lon="6.21571">
        <ele>1127.5999755859</ele>
        <time>2015-03-28T12:59:27.000Z</time>
      </trkpt>
      <trkpt lat="45.29131" lon="6.21572">
        <ele>1126.1999511719</ele>
        <time>2015-03-28T12:59:31.000Z</time>
      </trkpt>
      <trkpt lat="45.29132" lon="6.21577">
        <ele>1125.4000244141</ele>
        <time>2015-03-28T12:59:37.000Z</time>
      </trkpt>
      <trkpt lat="45.29132" lon="6.21579">
        <ele>1125</ele>
        <time>2015-03-28T12:59:39.000Z</time>
      </trkpt>
      <trkpt lat="45.29135" lon="6.21588">
        <ele>1124.1999511719</ele>
        <time>2015-03-28T12:59:45.000Z</time>
      </trkpt>
      <trkpt lat="45.29135" lon="6.21589">
        <ele>1124</ele>
        <time>2015-03-28T12:59:46.000Z</time>
      </trkpt>
      <trkpt lat="45.29131" lon="6.21595">
        <ele>1122.8000488281</ele>
        <time>2015-03-28T12:59:51.000Z</time>
      </trkpt>
      <trkpt lat="45.29129" lon="6.21598">
        <ele>1122.5999755859</ele>
        <time>2015-03-28T12:59:52.000Z</time>
      </trkpt>
      <trkpt lat="45.29129" lon="6.21603">
        <ele>1121.5999755859</ele>
        <time>2015-03-28T12:59:56.000Z</time>
      </trkpt>
      <trkpt lat="45.29128" lon="6.21605">
        <ele>1120.5999755859</ele>
        <time>2015-03-28T12:59:59.000Z</time>
      </trkpt>
      <trkpt lat="45.29127" lon="6.21606">
        <ele>1120.5999755859</ele>
        <time>2015-03-28T13:00:00.000Z</time>
      </trkpt>
      <trkpt lat="45.29123" lon="6.21613">
        <ele>1119.1999511719</ele>
        <time>2015-03-28T13:00:06.000Z</time>
      </trkpt>
      <trkpt lat="45.29124" lon="6.21613">
        <ele>1119</ele>
        <time>2015-03-28T13:00:07.000Z</time>
      </trkpt>
      <trkpt lat="45.29122" lon="6.21619">
        <ele>1118.1999511719</ele>
        <time>2015-03-28T13:00:11.000Z</time>
      </trkpt>
      <trkpt lat="45.2912" lon="6.21623">
        <ele>1117.4000244141</ele>
        <time>2015-03-28T13:00:15.000Z</time>
      </trkpt>
      <trkpt lat="45.29119" lon="6.21624">
        <ele>1117.1999511719</ele>
        <time>2015-03-28T13:00:16.000Z</time>
      </trkpt>
      <trkpt lat="45.29117" lon="6.21627">
        <ele>1116.4000244141</ele>
        <time>2015-03-28T13:00:21.000Z</time>
      </trkpt>
      <trkpt lat="45.29115" lon="6.2163">
        <ele>1116</ele>
        <time>2015-03-28T13:00:23.000Z</time>
      </trkpt>
      <trkpt lat="45.29113" lon="6.21635">
        <ele>1114.8000488281</ele>
        <time>2015-03-28T13:00:28.000Z</time>
      </trkpt>
      <trkpt lat="45.29111" lon="6.21643">
        <ele>1113.4000244141</ele>
        <time>2015-03-28T13:00:33.000Z</time>
      </trkpt>
      <trkpt lat="45.29109" lon="6.21645">
        <ele>1112.8000488281</ele>
        <time>2015-03-28T13:00:35.000Z</time>
      </trkpt>
      <trkpt lat="45.29107" lon="6.21648">
        <ele>1112.4000244141</ele>
        <time>2015-03-28T13:00:37.000Z</time>
      </trkpt>
      <trkpt lat="45.29104" lon="6.21652">
        <ele>1111.1999511719</ele>
        <time>2015-03-28T13:00:41.000Z</time>
      </trkpt>
      <trkpt lat="45.29102" lon="6.21656">
        <ele>1110.4000244141</ele>
        <time>2015-03-28T13:00:44.000Z</time>
      </trkpt>
      <trkpt lat="45.29102" lon="6.21656">
        <ele>1110</ele>
        <time>2015-03-28T13:00:45.000Z</time>
      </trkpt>
      <trkpt lat="45.29101" lon="6.21657">
        <ele>1109</ele>
        <time>2015-03-28T13:00:48.000Z</time>
      </trkpt>
      <trkpt lat="45.29099" lon="6.2166">
        <ele>1108.4000244141</ele>
        <time>2015-03-28T13:00:51.000Z</time>
      </trkpt>
      <trkpt lat="45.29098" lon="6.21662">
        <ele>1108</ele>
        <time>2015-03-28T13:00:54.000Z</time>
      </trkpt>
      <trkpt lat="45.29096" lon="6.21663">
        <ele>1107.8000488281</ele>
        <time>2015-03-28T13:00:55.000Z</time>
      </trkpt>
      <trkpt lat="45.29094" lon="6.21671">
        <ele>1106.8000488281</ele>
        <time>2015-03-28T13:01:00.000Z</time>
      </trkpt>
      <trkpt lat="45.29084" lon="6.21671">
        <ele>1106.1999511719</ele>
        <time>2015-03-28T13:01:06.000Z</time>
      </trkpt>
      <trkpt lat="45.2908" lon="6.21673">
        <ele>1106.4000244141</ele>
        <time>2015-03-28T13:01:15.000Z</time>
      </trkpt>
      <trkpt lat="45.29082" lon="6.21677">
        <ele>1106.1999511719</ele>
        <time>2015-03-28T13:01:18.000Z</time>
      </trkpt>
      <trkpt lat="45.29086" lon="6.2168">
        <ele>1105.8000488281</ele>
        <time>2015-03-28T13:01:20.000Z</time>
      </trkpt>
      <trkpt lat="45.29086" lon="6.21682">
        <ele>1105.8000488281</ele>
        <time>2015-03-28T13:01:21.000Z</time>
      </trkpt>
      <trkpt lat="45.29083" lon="6.21685">
        <ele>1105.4000244141</ele>
        <time>2015-03-28T13:01:26.000Z</time>
      </trkpt>
      <trkpt lat="45.29085" lon="6.21685">
        <ele>1105</ele>
        <time>2015-03-28T13:01:33.000Z</time>
      </trkpt>
      <trkpt lat="45.29106" lon="6.21689">
        <ele>1104.8000488281</ele>
        <time>2015-03-28T13:01:42.000Z</time>
      </trkpt>
      <trkpt lat="45.29106" lon="6.21689">
        <ele>1104.8000488281</ele>
        <time>2015-03-28T13:01:43.000Z</time>
      </trkpt>
      <trkpt lat="45.29107" lon="6.21688">
        <ele>1104.4000244141</ele>
        <time>2015-03-28T13:01:48.000Z</time>
      </trkpt>
      <trkpt lat="45.29108" lon="6.21687">
        <ele>1105</ele>
        <time>2015-03-28T13:01:57.000Z</time>
      </trkpt>
      <trkpt lat="45.29107" lon="6.21685">
        <ele>1104.4000244141</ele>
        <time>2015-03-28T13:02:04.000Z</time>
      </trkpt>
      <trkpt lat="45.29107" lon="6.21685">
        <ele>1104.5999755859</ele>
        <time>2015-03-28T13:02:15.000Z</time>
      </trkpt>
      <trkpt lat="45.29107" lon="6.21685">
        <ele>1104.4000244141</ele>
        <time>2015-03-28T13:02:24.000Z</time>
      </trkpt>
      <trkpt lat="45.29102" lon="6.21684">
        <ele>1104.5999755859</ele>
        <time>2015-03-28T13:02:31.000Z</time>
      </trkpt>
      <trkpt lat="45.29096" lon="6.21679">
        <ele>1104.8000488281</ele>
        <time>2015-03-28T13:02:40.000Z</time>
      </trkpt>
      <trkpt lat="45.29085" lon="6.21683">
        <ele>1104.5999755859</ele>
        <time>2015-03-28T13:02:48.000Z</time>
      </trkpt>
      <trkpt lat="45.29077" lon="6.21688">
        <ele>1104.8000488281</ele>
        <time>2015-03-28T13:02:53.000Z</time>
      </trkpt>
      <trkpt lat="45.29075" lon="6.21689">
        <ele>1104.8000488281</ele>
        <time>2015-03-28T13:02:54.000Z</time>
      </trkpt>
      <trkpt lat="45.29067" lon="6.21697">
        <ele>1104.5999755859</ele>
        <time>2015-03-28T13:03:00.000Z</time>
      </trkpt>
    </trkseg>
  </trk>
</gpx>